<?xml version="1.0" encoding="UTF-8" standalone="no" ?>
<gpx xmlns="http://www.topografix.com/GPX/1/1" xmlns:xsi="http://www.w3.org/2001/XMLSchema-instance" xsi:schemaLocation="http://www.topografix.com/GPX/1/1 http://www.topografix.com/GPX/1/1/gpx.xsd" version="1.1" creator="VisuGPX - https://www.visugpx.com">
  <metadata>
    <name>Enduroc 2014</name>
    <desc><![CDATA[SP1: un début avec de nombreux coup de cul et une fin absolument géniale.
SP2: un départ trés technique puis ensuite presque que de la DFCi raide et dangeureuse. Pas de gros intérets mais c%u2019est le seul moyen de re basculer de l%u2019autre coté de la colline direction Rocquebrune sur Argens.
SP3: Du térs bon, ludique et tout et tout.
SP4: Toujours du ludique avec un passage un peu technique puis du gros gaz.
Sp5: Peu de pente, quelques passages sur des rochers, gros physique necessair epour faire un temps la dedans.
]]></desc>
  </metadata>
  <trk>
    <name><![CDATA[Enduroc]]></name>
    <trkseg>
      <trkpt lat="43.40408" lon="6.62248">
        <ele>388.6</ele>
        <time>2014-10-05T07:04:12Z</time>
      </trkpt>
      <trkpt lat="43.4041" lon="6.62251">
        <ele>388.9</ele>
        <time>2014-10-05T07:04:19Z</time>
      </trkpt>
      <trkpt lat="43.40411" lon="6.62255">
        <ele>389.1</ele>
        <time>2014-10-05T07:04:24Z</time>
      </trkpt>
      <trkpt lat="43.40411" lon="6.62259">
        <ele>389</ele>
        <time>2014-10-05T07:04:30Z</time>
      </trkpt>
      <trkpt lat="43.40414" lon="6.62261">
        <ele>389.6</ele>
        <time>2014-10-05T07:04:34Z</time>
      </trkpt>
      <trkpt lat="43.40417" lon="6.62263">
        <ele>390.1</ele>
        <time>2014-10-05T07:04:38Z</time>
      </trkpt>
      <trkpt lat="43.40419" lon="6.62266">
        <ele>390.6</ele>
        <time>2014-10-05T07:04:43Z</time>
      </trkpt>
      <trkpt lat="43.40419" lon="6.6227">
        <ele>390.7</ele>
        <time>2014-10-05T07:04:47Z</time>
      </trkpt>
      <trkpt lat="43.40418" lon="6.62275">
        <ele>390.5</ele>
        <time>2014-10-05T07:04:51Z</time>
      </trkpt>
      <trkpt lat="43.40418" lon="6.62279">
        <ele>390.4</ele>
        <time>2014-10-05T07:04:55Z</time>
      </trkpt>
      <trkpt lat="43.40419" lon="6.62283">
        <ele>390.6</ele>
        <time>2014-10-05T07:04:59Z</time>
      </trkpt>
      <trkpt lat="43.40417" lon="6.62286">
        <ele>390.2</ele>
        <time>2014-10-05T07:05:02Z</time>
      </trkpt>
      <trkpt lat="43.40417" lon="6.62289">
        <ele>390</ele>
        <time>2014-10-05T07:05:05Z</time>
      </trkpt>
      <trkpt lat="43.40416" lon="6.62294">
        <ele>390.2</ele>
        <time>2014-10-05T07:05:09Z</time>
      </trkpt>
      <trkpt lat="43.40416" lon="6.62299">
        <ele>390.6</ele>
        <time>2014-10-05T07:05:13Z</time>
      </trkpt>
      <trkpt lat="43.40415" lon="6.62302">
        <ele>390.7</ele>
        <time>2014-10-05T07:05:16Z</time>
      </trkpt>
      <trkpt lat="43.40415" lon="6.62306">
        <ele>391.3</ele>
        <time>2014-10-05T07:05:20Z</time>
      </trkpt>
      <trkpt lat="43.40413" lon="6.62309">
        <ele>390.9</ele>
        <time>2014-10-05T07:05:23Z</time>
      </trkpt>
      <trkpt lat="43.40413" lon="6.62313">
        <ele>391.4</ele>
        <time>2014-10-05T07:05:27Z</time>
      </trkpt>
      <trkpt lat="43.40415" lon="6.62316">
        <ele>392.4</ele>
        <time>2014-10-05T07:05:33Z</time>
      </trkpt>
      <trkpt lat="43.40417" lon="6.62319">
        <ele>393.6</ele>
        <time>2014-10-05T07:05:38Z</time>
      </trkpt>
      <trkpt lat="43.40417" lon="6.62324">
        <ele>394.1</ele>
        <time>2014-10-05T07:05:43Z</time>
      </trkpt>
      <trkpt lat="43.40419" lon="6.62326">
        <ele>395.2</ele>
        <time>2014-10-05T07:05:57Z</time>
      </trkpt>
      <trkpt lat="43.40422" lon="6.62326">
        <ele>396.2</ele>
        <time>2014-10-05T07:06:05Z</time>
      </trkpt>
      <trkpt lat="43.40425" lon="6.62329">
        <ele>397.3</ele>
        <time>2014-10-05T07:06:10Z</time>
      </trkpt>
      <trkpt lat="43.40427" lon="6.62331">
        <ele>398.3</ele>
        <time>2014-10-05T07:06:40Z</time>
      </trkpt>
      <trkpt lat="43.40426" lon="6.62335">
        <ele>398.6</ele>
        <time>2014-10-05T07:06:58Z</time>
      </trkpt>
      <trkpt lat="43.40428" lon="6.62338">
        <ele>399.7</ele>
        <time>2014-10-05T07:07:03Z</time>
      </trkpt>
      <trkpt lat="43.40428" lon="6.62342">
        <ele>400.2</ele>
        <time>2014-10-05T07:07:09Z</time>
      </trkpt>
      <trkpt lat="43.4043" lon="6.62345">
        <ele>401.5</ele>
        <time>2014-10-05T07:07:22Z</time>
      </trkpt>
      <trkpt lat="43.4043" lon="6.6235">
        <ele>402.2</ele>
        <time>2014-10-05T07:07:26Z</time>
      </trkpt>
      <trkpt lat="43.4043" lon="6.62355">
        <ele>402.7</ele>
        <time>2014-10-05T07:07:51Z</time>
      </trkpt>
      <trkpt lat="43.40431" lon="6.62359">
        <ele>403.7</ele>
        <time>2014-10-05T07:07:54Z</time>
      </trkpt>
      <trkpt lat="43.40433" lon="6.62362">
        <ele>404.9</ele>
        <time>2014-10-05T07:07:56Z</time>
      </trkpt>
      <trkpt lat="43.40435" lon="6.62364">
        <ele>406.1</ele>
        <time>2014-10-05T07:07:59Z</time>
      </trkpt>
      <trkpt lat="43.40436" lon="6.62368">
        <ele>407.2</ele>
        <time>2014-10-05T07:08:03Z</time>
      </trkpt>
      <trkpt lat="43.40437" lon="6.62372">
        <ele>408.3</ele>
        <time>2014-10-05T07:08:08Z</time>
      </trkpt>
      <trkpt lat="43.40439" lon="6.62376">
        <ele>409.5</ele>
        <time>2014-10-05T07:08:13Z</time>
      </trkpt>
      <trkpt lat="43.40441" lon="6.62379">
        <ele>410.8</ele>
        <time>2014-10-05T07:08:22Z</time>
      </trkpt>
      <trkpt lat="43.40442" lon="6.62383">
        <ele>412.1</ele>
        <time>2014-10-05T07:08:28Z</time>
      </trkpt>
      <trkpt lat="43.40443" lon="6.62386">
        <ele>413.3</ele>
        <time>2014-10-05T07:08:33Z</time>
      </trkpt>
      <trkpt lat="43.40445" lon="6.6239">
        <ele>414.6</ele>
        <time>2014-10-05T07:08:40Z</time>
      </trkpt>
      <trkpt lat="43.40445" lon="6.62395">
        <ele>415.7</ele>
        <time>2014-10-05T07:08:45Z</time>
      </trkpt>
      <trkpt lat="43.40445" lon="6.62398">
        <ele>416.5</ele>
        <time>2014-10-05T07:08:50Z</time>
      </trkpt>
      <trkpt lat="43.40448" lon="6.62402">
        <ele>418</ele>
        <time>2014-10-05T07:08:58Z</time>
      </trkpt>
      <trkpt lat="43.4045" lon="6.62403">
        <ele>419.4</ele>
        <time>2014-10-05T07:09:02Z</time>
      </trkpt>
      <trkpt lat="43.40452" lon="6.62406">
        <ele>420.8</ele>
        <time>2014-10-05T07:09:08Z</time>
      </trkpt>
      <trkpt lat="43.40452" lon="6.6241">
        <ele>421.3</ele>
        <time>2014-10-05T07:09:14Z</time>
      </trkpt>
      <trkpt lat="43.40451" lon="6.62414">
        <ele>421.9</ele>
        <time>2014-10-05T07:09:28Z</time>
      </trkpt>
      <trkpt lat="43.4045" lon="6.62418">
        <ele>422.3</ele>
        <time>2014-10-05T07:09:33Z</time>
      </trkpt>
      <trkpt lat="43.4045" lon="6.62422">
        <ele>423.2</ele>
        <time>2014-10-05T07:09:38Z</time>
      </trkpt>
      <trkpt lat="43.40451" lon="6.62426">
        <ele>424.4</ele>
        <time>2014-10-05T07:09:44Z</time>
      </trkpt>
      <trkpt lat="43.40452" lon="6.6243">
        <ele>425.3</ele>
        <time>2014-10-05T07:09:50Z</time>
      </trkpt>
      <trkpt lat="43.40452" lon="6.62433">
        <ele>426.3</ele>
        <time>2014-10-05T07:09:56Z</time>
      </trkpt>
      <trkpt lat="43.40453" lon="6.62437">
        <ele>427.5</ele>
        <time>2014-10-05T07:10:02Z</time>
      </trkpt>
      <trkpt lat="43.40455" lon="6.6244">
        <ele>428.9</ele>
        <time>2014-10-05T07:10:09Z</time>
      </trkpt>
      <trkpt lat="43.40456" lon="6.62443">
        <ele>430.1</ele>
        <time>2014-10-05T07:10:22Z</time>
      </trkpt>
      <trkpt lat="43.40457" lon="6.62447">
        <ele>431.3</ele>
        <time>2014-10-05T07:10:31Z</time>
      </trkpt>
      <trkpt lat="43.40459" lon="6.62451">
        <ele>432.4</ele>
        <time>2014-10-05T07:10:36Z</time>
      </trkpt>
      <trkpt lat="43.4046" lon="6.62454">
        <ele>433.4</ele>
        <time>2014-10-05T07:10:41Z</time>
      </trkpt>
      <trkpt lat="43.4046" lon="6.62458">
        <ele>434.2</ele>
        <time>2014-10-05T07:10:48Z</time>
      </trkpt>
      <trkpt lat="43.40461" lon="6.62462">
        <ele>434.9</ele>
        <time>2014-10-05T07:10:52Z</time>
      </trkpt>
      <trkpt lat="43.40462" lon="6.62466">
        <ele>435.7</ele>
        <time>2014-10-05T07:10:56Z</time>
      </trkpt>
      <trkpt lat="43.40463" lon="6.6247">
        <ele>436.4</ele>
        <time>2014-10-05T07:11:00Z</time>
      </trkpt>
      <trkpt lat="43.40463" lon="6.62475">
        <ele>437.1</ele>
        <time>2014-10-05T07:11:04Z</time>
      </trkpt>
      <trkpt lat="43.40464" lon="6.62479">
        <ele>437.8</ele>
        <time>2014-10-05T07:11:08Z</time>
      </trkpt>
      <trkpt lat="43.40465" lon="6.62483">
        <ele>438.6</ele>
        <time>2014-10-05T07:11:12Z</time>
      </trkpt>
      <trkpt lat="43.40466" lon="6.62487">
        <ele>439.4</ele>
        <time>2014-10-05T07:11:16Z</time>
      </trkpt>
      <trkpt lat="43.40467" lon="6.62491">
        <ele>440</ele>
        <time>2014-10-05T07:11:21Z</time>
      </trkpt>
      <trkpt lat="43.40468" lon="6.62494">
        <ele>440.8</ele>
        <time>2014-10-05T07:11:28Z</time>
      </trkpt>
      <trkpt lat="43.40465" lon="6.62496">
        <ele>440.3</ele>
        <time>2014-10-05T07:17:34Z</time>
      </trkpt>
      <trkpt lat="43.40462" lon="6.62495">
        <ele>439.6</ele>
        <time>2014-10-05T07:17:35Z</time>
      </trkpt>
      <trkpt lat="43.40458" lon="6.62493">
        <ele>438.6</ele>
        <time>2014-10-05T07:17:36Z</time>
      </trkpt>
      <trkpt lat="43.40456" lon="6.62492">
        <ele>437.4</ele>
        <time>2014-10-05T07:17:37Z</time>
      </trkpt>
      <trkpt lat="43.4045" lon="6.62492">
        <ele>435.4</ele>
        <time>2014-10-05T07:17:38Z</time>
      </trkpt>
      <trkpt lat="43.40446" lon="6.62493">
        <ele>433.7</ele>
        <time>2014-10-05T07:17:39Z</time>
      </trkpt>
      <trkpt lat="43.40442" lon="6.62493">
        <ele>432.4</ele>
        <time>2014-10-05T07:17:40Z</time>
      </trkpt>
      <trkpt lat="43.40432" lon="6.62497">
        <ele>429.4</ele>
        <time>2014-10-05T07:17:41Z</time>
      </trkpt>
      <trkpt lat="43.4043" lon="6.62499">
        <ele>428.9</ele>
        <time>2014-10-05T07:17:42Z</time>
      </trkpt>
      <trkpt lat="43.40428" lon="6.62506">
        <ele>429.5</ele>
        <time>2014-10-05T07:17:43Z</time>
      </trkpt>
      <trkpt lat="43.40424" lon="6.62511">
        <ele>428.8</ele>
        <time>2014-10-05T07:17:45Z</time>
      </trkpt>
      <trkpt lat="43.40421" lon="6.62512">
        <ele>427.9</ele>
        <time>2014-10-05T07:17:46Z</time>
      </trkpt>
      <trkpt lat="43.40416" lon="6.62511">
        <ele>426.1</ele>
        <time>2014-10-05T07:17:47Z</time>
      </trkpt>
      <trkpt lat="43.40413" lon="6.6251">
        <ele>424.7</ele>
        <time>2014-10-05T07:17:48Z</time>
      </trkpt>
      <trkpt lat="43.40407" lon="6.62512">
        <ele>423.2</ele>
        <time>2014-10-05T07:17:49Z</time>
      </trkpt>
      <trkpt lat="43.40402" lon="6.62513">
        <ele>421.6</ele>
        <time>2014-10-05T07:17:50Z</time>
      </trkpt>
      <trkpt lat="43.40398" lon="6.62513">
        <ele>420.1</ele>
        <time>2014-10-05T07:17:51Z</time>
      </trkpt>
      <trkpt lat="43.40393" lon="6.62514">
        <ele>418.6</ele>
        <time>2014-10-05T07:17:52Z</time>
      </trkpt>
      <trkpt lat="43.40389" lon="6.62515">
        <ele>417.5</ele>
        <time>2014-10-05T07:17:53Z</time>
      </trkpt>
      <trkpt lat="43.40386" lon="6.62518">
        <ele>416.9</ele>
        <time>2014-10-05T07:17:54Z</time>
      </trkpt>
      <trkpt lat="43.40383" lon="6.62522">
        <ele>416.9</ele>
        <time>2014-10-05T07:17:55Z</time>
      </trkpt>
      <trkpt lat="43.4038" lon="6.62527">
        <ele>417.2</ele>
        <time>2014-10-05T07:17:56Z</time>
      </trkpt>
      <trkpt lat="43.40378" lon="6.62532">
        <ele>417.7</ele>
        <time>2014-10-05T07:17:57Z</time>
      </trkpt>
      <trkpt lat="43.40376" lon="6.62536">
        <ele>417.9</ele>
        <time>2014-10-05T07:17:58Z</time>
      </trkpt>
      <trkpt lat="43.40373" lon="6.6254">
        <ele>418</ele>
        <time>2014-10-05T07:17:59Z</time>
      </trkpt>
      <trkpt lat="43.40369" lon="6.6254">
        <ele>416.8</ele>
        <time>2014-10-05T07:18:00Z</time>
      </trkpt>
      <trkpt lat="43.40365" lon="6.62543">
        <ele>416.2</ele>
        <time>2014-10-05T07:18:01Z</time>
      </trkpt>
      <trkpt lat="43.40362" lon="6.62546">
        <ele>415.6</ele>
        <time>2014-10-05T07:18:02Z</time>
      </trkpt>
      <trkpt lat="43.40358" lon="6.62549">
        <ele>415.1</ele>
        <time>2014-10-05T07:18:03Z</time>
      </trkpt>
      <trkpt lat="43.40354" lon="6.62551">
        <ele>414.3</ele>
        <time>2014-10-05T07:18:04Z</time>
      </trkpt>
      <trkpt lat="43.4035" lon="6.62552">
        <ele>413.3</ele>
        <time>2014-10-05T07:18:05Z</time>
      </trkpt>
      <trkpt lat="43.40345" lon="6.62552">
        <ele>412.1</ele>
        <time>2014-10-05T07:18:06Z</time>
      </trkpt>
      <trkpt lat="43.40341" lon="6.62553">
        <ele>411.1</ele>
        <time>2014-10-05T07:18:07Z</time>
      </trkpt>
      <trkpt lat="43.40337" lon="6.62552">
        <ele>409.7</ele>
        <time>2014-10-05T07:18:08Z</time>
      </trkpt>
      <trkpt lat="43.40332" lon="6.62554">
        <ele>408.8</ele>
        <time>2014-10-05T07:18:09Z</time>
      </trkpt>
      <trkpt lat="43.40329" lon="6.62556">
        <ele>408.2</ele>
        <time>2014-10-05T07:18:10Z</time>
      </trkpt>
      <trkpt lat="43.40326" lon="6.62557">
        <ele>407.9</ele>
        <time>2014-10-05T07:18:11Z</time>
      </trkpt>
      <trkpt lat="43.40322" lon="6.62561">
        <ele>407.4</ele>
        <time>2014-10-05T07:18:13Z</time>
      </trkpt>
      <trkpt lat="43.40321" lon="6.62566">
        <ele>408.6</ele>
        <time>2014-10-05T07:18:16Z</time>
      </trkpt>
      <trkpt lat="43.40319" lon="6.62572">
        <ele>409.6</ele>
        <time>2014-10-05T07:18:18Z</time>
      </trkpt>
      <trkpt lat="43.40316" lon="6.6258">
        <ele>410.7</ele>
        <time>2014-10-05T07:18:20Z</time>
      </trkpt>
      <trkpt lat="43.40313" lon="6.62585">
        <ele>411.3</ele>
        <time>2014-10-05T07:18:21Z</time>
      </trkpt>
      <trkpt lat="43.40312" lon="6.62589">
        <ele>412</ele>
        <time>2014-10-05T07:18:22Z</time>
      </trkpt>
      <trkpt lat="43.4031" lon="6.62593">
        <ele>412.7</ele>
        <time>2014-10-05T07:18:23Z</time>
      </trkpt>
      <trkpt lat="43.4031" lon="6.62597">
        <ele>413.7</ele>
        <time>2014-10-05T07:18:24Z</time>
      </trkpt>
      <trkpt lat="43.40308" lon="6.62604">
        <ele>415.2</ele>
        <time>2014-10-05T07:18:26Z</time>
      </trkpt>
      <trkpt lat="43.40305" lon="6.62608">
        <ele>415.5</ele>
        <time>2014-10-05T07:18:28Z</time>
      </trkpt>
      <trkpt lat="43.40301" lon="6.62608">
        <ele>414.8</ele>
        <time>2014-10-05T07:18:30Z</time>
      </trkpt>
      <trkpt lat="43.40297" lon="6.62606">
        <ele>413.4</ele>
        <time>2014-10-05T07:18:32Z</time>
      </trkpt>
      <trkpt lat="43.40294" lon="6.62605">
        <ele>412.8</ele>
        <time>2014-10-05T07:18:33Z</time>
      </trkpt>
      <trkpt lat="43.40289" lon="6.62603">
        <ele>410.8</ele>
        <time>2014-10-05T07:18:35Z</time>
      </trkpt>
      <trkpt lat="43.40286" lon="6.62604">
        <ele>410</ele>
        <time>2014-10-05T07:18:36Z</time>
      </trkpt>
      <trkpt lat="43.40283" lon="6.62605">
        <ele>409.2</ele>
        <time>2014-10-05T07:18:37Z</time>
      </trkpt>
      <trkpt lat="43.40277" lon="6.62606">
        <ele>407.8</ele>
        <time>2014-10-05T07:18:39Z</time>
      </trkpt>
      <trkpt lat="43.40274" lon="6.62608">
        <ele>407</ele>
        <time>2014-10-05T07:18:40Z</time>
      </trkpt>
      <trkpt lat="43.4027" lon="6.62609">
        <ele>406.2</ele>
        <time>2014-10-05T07:18:41Z</time>
      </trkpt>
      <trkpt lat="43.4026" lon="6.62613">
        <ele>403.9</ele>
        <time>2014-10-05T07:18:42Z</time>
      </trkpt>
      <trkpt lat="43.40255" lon="6.62611">
        <ele>401.6</ele>
        <time>2014-10-05T07:18:43Z</time>
      </trkpt>
      <trkpt lat="43.4025" lon="6.62613">
        <ele>400.5</ele>
        <time>2014-10-05T07:18:44Z</time>
      </trkpt>
      <trkpt lat="43.40246" lon="6.62616">
        <ele>400</ele>
        <time>2014-10-05T07:18:45Z</time>
      </trkpt>
      <trkpt lat="43.40242" lon="6.62617">
        <ele>398.9</ele>
        <time>2014-10-05T07:18:46Z</time>
      </trkpt>
      <trkpt lat="43.40238" lon="6.62618">
        <ele>397.7</ele>
        <time>2014-10-05T07:18:47Z</time>
      </trkpt>
      <trkpt lat="43.40233" lon="6.62623">
        <ele>397.6</ele>
        <time>2014-10-05T07:18:48Z</time>
      </trkpt>
      <trkpt lat="43.40227" lon="6.62626">
        <ele>396.4</ele>
        <time>2014-10-05T07:18:49Z</time>
      </trkpt>
      <trkpt lat="43.40222" lon="6.62629">
        <ele>395.2</ele>
        <time>2014-10-05T07:18:50Z</time>
      </trkpt>
      <trkpt lat="43.40215" lon="6.6263">
        <ele>393.5</ele>
        <time>2014-10-05T07:18:51Z</time>
      </trkpt>
      <trkpt lat="43.40209" lon="6.62633">
        <ele>392.3</ele>
        <time>2014-10-05T07:18:52Z</time>
      </trkpt>
      <trkpt lat="43.40203" lon="6.62636">
        <ele>391.3</ele>
        <time>2014-10-05T07:18:53Z</time>
      </trkpt>
      <trkpt lat="43.40197" lon="6.6264">
        <ele>390.4</ele>
        <time>2014-10-05T07:18:54Z</time>
      </trkpt>
      <trkpt lat="43.40192" lon="6.62642">
        <ele>389.6</ele>
        <time>2014-10-05T07:18:55Z</time>
      </trkpt>
      <trkpt lat="43.40187" lon="6.62646">
        <ele>388.9</ele>
        <time>2014-10-05T07:18:56Z</time>
      </trkpt>
      <trkpt lat="43.40182" lon="6.62649">
        <ele>388.5</ele>
        <time>2014-10-05T07:18:57Z</time>
      </trkpt>
      <trkpt lat="43.40178" lon="6.62653">
        <ele>388.2</ele>
        <time>2014-10-05T07:18:58Z</time>
      </trkpt>
      <trkpt lat="43.40173" lon="6.62658">
        <ele>388.1</ele>
        <time>2014-10-05T07:18:59Z</time>
      </trkpt>
      <trkpt lat="43.40168" lon="6.62662">
        <ele>387.8</ele>
        <time>2014-10-05T07:19:00Z</time>
      </trkpt>
      <trkpt lat="43.40163" lon="6.62666">
        <ele>387.5</ele>
        <time>2014-10-05T07:19:01Z</time>
      </trkpt>
      <trkpt lat="43.40158" lon="6.62669">
        <ele>386.9</ele>
        <time>2014-10-05T07:19:02Z</time>
      </trkpt>
      <trkpt lat="43.40153" lon="6.62672">
        <ele>386.3</ele>
        <time>2014-10-05T07:19:03Z</time>
      </trkpt>
      <trkpt lat="43.40148" lon="6.6267">
        <ele>384.4</ele>
        <time>2014-10-05T07:19:04Z</time>
      </trkpt>
      <trkpt lat="43.40142" lon="6.62671">
        <ele>383</ele>
        <time>2014-10-05T07:19:05Z</time>
      </trkpt>
      <trkpt lat="43.40139" lon="6.62675">
        <ele>383.4</ele>
        <time>2014-10-05T07:19:06Z</time>
      </trkpt>
      <trkpt lat="43.40137" lon="6.6268">
        <ele>384.2</ele>
        <time>2014-10-05T07:19:07Z</time>
      </trkpt>
      <trkpt lat="43.40134" lon="6.62686">
        <ele>384.9</ele>
        <time>2014-10-05T07:19:08Z</time>
      </trkpt>
      <trkpt lat="43.4013" lon="6.62691">
        <ele>385.3</ele>
        <time>2014-10-05T07:19:09Z</time>
      </trkpt>
      <trkpt lat="43.40127" lon="6.62696">
        <ele>386.1</ele>
        <time>2014-10-05T07:19:10Z</time>
      </trkpt>
      <trkpt lat="43.40124" lon="6.62702">
        <ele>386.8</ele>
        <time>2014-10-05T07:19:11Z</time>
      </trkpt>
      <trkpt lat="43.40122" lon="6.62709">
        <ele>387.7</ele>
        <time>2014-10-05T07:19:12Z</time>
      </trkpt>
      <trkpt lat="43.40119" lon="6.62715">
        <ele>387.8</ele>
        <time>2014-10-05T07:19:13Z</time>
      </trkpt>
      <trkpt lat="43.40115" lon="6.62716">
        <ele>386.3</ele>
        <time>2014-10-05T07:19:15Z</time>
      </trkpt>
      <trkpt lat="43.40113" lon="6.62713">
        <ele>384.8</ele>
        <time>2014-10-05T07:19:16Z</time>
      </trkpt>
      <trkpt lat="43.40109" lon="6.62713">
        <ele>382.9</ele>
        <time>2014-10-05T07:19:18Z</time>
      </trkpt>
      <trkpt lat="43.40107" lon="6.62718">
        <ele>383.1</ele>
        <time>2014-10-05T07:19:19Z</time>
      </trkpt>
      <trkpt lat="43.40105" lon="6.62721">
        <ele>382.9</ele>
        <time>2014-10-05T07:19:20Z</time>
      </trkpt>
      <trkpt lat="43.40106" lon="6.62729">
        <ele>385</ele>
        <time>2014-10-05T07:19:21Z</time>
      </trkpt>
      <trkpt lat="43.40105" lon="6.62733">
        <ele>385.6</ele>
        <time>2014-10-05T07:19:22Z</time>
      </trkpt>
      <trkpt lat="43.40103" lon="6.62737">
        <ele>386.1</ele>
        <time>2014-10-05T07:19:23Z</time>
      </trkpt>
      <trkpt lat="43.40102" lon="6.62741">
        <ele>386.1</ele>
        <time>2014-10-05T07:19:24Z</time>
      </trkpt>
      <trkpt lat="43.401" lon="6.62744">
        <ele>386.3</ele>
        <time>2014-10-05T07:19:25Z</time>
      </trkpt>
      <trkpt lat="43.40098" lon="6.62748">
        <ele>386.5</ele>
        <time>2014-10-05T07:19:26Z</time>
      </trkpt>
      <trkpt lat="43.40099" lon="6.62753">
        <ele>387.7</ele>
        <time>2014-10-05T07:19:27Z</time>
      </trkpt>
      <trkpt lat="43.40098" lon="6.62757">
        <ele>388.3</ele>
        <time>2014-10-05T07:19:28Z</time>
      </trkpt>
      <trkpt lat="43.40097" lon="6.62761">
        <ele>388.8</ele>
        <time>2014-10-05T07:19:33Z</time>
      </trkpt>
      <trkpt lat="43.40093" lon="6.62765">
        <ele>388.1</ele>
        <time>2014-10-05T07:19:35Z</time>
      </trkpt>
      <trkpt lat="43.4009" lon="6.6277">
        <ele>388.3</ele>
        <time>2014-10-05T07:19:37Z</time>
      </trkpt>
      <trkpt lat="43.40088" lon="6.62776">
        <ele>388.9</ele>
        <time>2014-10-05T07:19:39Z</time>
      </trkpt>
      <trkpt lat="43.40085" lon="6.6278">
        <ele>388.8</ele>
        <time>2014-10-05T07:19:41Z</time>
      </trkpt>
      <trkpt lat="43.4008" lon="6.62783">
        <ele>387.5</ele>
        <time>2014-10-05T07:19:43Z</time>
      </trkpt>
      <trkpt lat="43.40076" lon="6.62784">
        <ele>386.3</ele>
        <time>2014-10-05T07:19:45Z</time>
      </trkpt>
      <trkpt lat="43.40073" lon="6.62788">
        <ele>386.1</ele>
        <time>2014-10-05T07:19:46Z</time>
      </trkpt>
      <trkpt lat="43.40071" lon="6.62794">
        <ele>386.5</ele>
        <time>2014-10-05T07:19:48Z</time>
      </trkpt>
      <trkpt lat="43.40071" lon="6.62797">
        <ele>387.1</ele>
        <time>2014-10-05T07:19:55Z</time>
      </trkpt>
      <trkpt lat="43.40068" lon="6.62802">
        <ele>386.8</ele>
        <time>2014-10-05T07:19:58Z</time>
      </trkpt>
      <trkpt lat="43.40066" lon="6.62808">
        <ele>386.8</ele>
        <time>2014-10-05T07:20:00Z</time>
      </trkpt>
      <trkpt lat="43.40062" lon="6.62817">
        <ele>386.9</ele>
        <time>2014-10-05T07:20:02Z</time>
      </trkpt>
      <trkpt lat="43.4006" lon="6.62822">
        <ele>386.9</ele>
        <time>2014-10-05T07:20:03Z</time>
      </trkpt>
      <trkpt lat="43.40058" lon="6.62826">
        <ele>387</ele>
        <time>2014-10-05T07:20:04Z</time>
      </trkpt>
      <trkpt lat="43.40057" lon="6.6283">
        <ele>387.4</ele>
        <time>2014-10-05T07:20:05Z</time>
      </trkpt>
      <trkpt lat="43.40057" lon="6.62837">
        <ele>388.5</ele>
        <time>2014-10-05T07:20:07Z</time>
      </trkpt>
      <trkpt lat="43.40056" lon="6.62841">
        <ele>388.9</ele>
        <time>2014-10-05T07:20:08Z</time>
      </trkpt>
      <trkpt lat="43.40055" lon="6.62844">
        <ele>389.1</ele>
        <time>2014-10-05T07:20:09Z</time>
      </trkpt>
      <trkpt lat="43.40053" lon="6.62848">
        <ele>389.2</ele>
        <time>2014-10-05T07:20:10Z</time>
      </trkpt>
      <trkpt lat="43.40052" lon="6.62852">
        <ele>389.5</ele>
        <time>2014-10-05T07:20:11Z</time>
      </trkpt>
      <trkpt lat="43.40048" lon="6.62859">
        <ele>389.8</ele>
        <time>2014-10-05T07:20:13Z</time>
      </trkpt>
      <trkpt lat="43.40046" lon="6.62864">
        <ele>390.1</ele>
        <time>2014-10-05T07:20:14Z</time>
      </trkpt>
      <trkpt lat="43.40045" lon="6.62868">
        <ele>390.6</ele>
        <time>2014-10-05T07:20:15Z</time>
      </trkpt>
      <trkpt lat="43.40044" lon="6.62873">
        <ele>391.1</ele>
        <time>2014-10-05T07:20:16Z</time>
      </trkpt>
      <trkpt lat="43.40042" lon="6.62877">
        <ele>391.6</ele>
        <time>2014-10-05T07:20:17Z</time>
      </trkpt>
      <trkpt lat="43.40041" lon="6.62882">
        <ele>391.8</ele>
        <time>2014-10-05T07:20:18Z</time>
      </trkpt>
      <trkpt lat="43.40039" lon="6.62886">
        <ele>392</ele>
        <time>2014-10-05T07:20:19Z</time>
      </trkpt>
      <trkpt lat="43.40038" lon="6.6289">
        <ele>392.4</ele>
        <time>2014-10-05T07:20:20Z</time>
      </trkpt>
      <trkpt lat="43.40037" lon="6.62894">
        <ele>392.7</ele>
        <time>2014-10-05T07:20:21Z</time>
      </trkpt>
      <trkpt lat="43.40036" lon="6.62898">
        <ele>392.9</ele>
        <time>2014-10-05T07:20:22Z</time>
      </trkpt>
      <trkpt lat="43.40033" lon="6.62905">
        <ele>393</ele>
        <time>2014-10-05T07:20:24Z</time>
      </trkpt>
      <trkpt lat="43.40032" lon="6.6291">
        <ele>393.3</ele>
        <time>2014-10-05T07:20:25Z</time>
      </trkpt>
      <trkpt lat="43.40031" lon="6.62914">
        <ele>393.8</ele>
        <time>2014-10-05T07:20:26Z</time>
      </trkpt>
      <trkpt lat="43.4003" lon="6.62917">
        <ele>394.1</ele>
        <time>2014-10-05T07:20:27Z</time>
      </trkpt>
      <trkpt lat="43.40028" lon="6.62924">
        <ele>394.6</ele>
        <time>2014-10-05T07:20:29Z</time>
      </trkpt>
      <trkpt lat="43.40025" lon="6.6293">
        <ele>394.6</ele>
        <time>2014-10-05T07:20:31Z</time>
      </trkpt>
      <trkpt lat="43.40024" lon="6.62933">
        <ele>394.7</ele>
        <time>2014-10-05T07:20:32Z</time>
      </trkpt>
      <trkpt lat="43.40022" lon="6.62937">
        <ele>394.8</ele>
        <time>2014-10-05T07:20:33Z</time>
      </trkpt>
      <trkpt lat="43.40021" lon="6.62941">
        <ele>395.1</ele>
        <time>2014-10-05T07:20:34Z</time>
      </trkpt>
      <trkpt lat="43.40019" lon="6.62946">
        <ele>395.4</ele>
        <time>2014-10-05T07:20:35Z</time>
      </trkpt>
      <trkpt lat="43.40018" lon="6.6295">
        <ele>395.7</ele>
        <time>2014-10-05T07:20:36Z</time>
      </trkpt>
      <trkpt lat="43.40016" lon="6.62955">
        <ele>395.9</ele>
        <time>2014-10-05T07:20:37Z</time>
      </trkpt>
      <trkpt lat="43.40015" lon="6.62962">
        <ele>396.5</ele>
        <time>2014-10-05T07:20:38Z</time>
      </trkpt>
      <trkpt lat="43.40014" lon="6.62968">
        <ele>396.5</ele>
        <time>2014-10-05T07:20:39Z</time>
      </trkpt>
      <trkpt lat="43.40013" lon="6.62972">
        <ele>396.5</ele>
        <time>2014-10-05T07:20:40Z</time>
      </trkpt>
      <trkpt lat="43.40009" lon="6.62977">
        <ele>395.6</ele>
        <time>2014-10-05T07:20:41Z</time>
      </trkpt>
      <trkpt lat="43.40006" lon="6.6298">
        <ele>394.7</ele>
        <time>2014-10-05T07:20:42Z</time>
      </trkpt>
      <trkpt lat="43.40003" lon="6.62984">
        <ele>393.9</ele>
        <time>2014-10-05T07:20:43Z</time>
      </trkpt>
      <trkpt lat="43.40001" lon="6.62988">
        <ele>393.5</ele>
        <time>2014-10-05T07:20:44Z</time>
      </trkpt>
      <trkpt lat="43.4" lon="6.62993">
        <ele>393.6</ele>
        <time>2014-10-05T07:20:45Z</time>
      </trkpt>
      <trkpt lat="43.39998" lon="6.62998">
        <ele>393.6</ele>
        <time>2014-10-05T07:20:46Z</time>
      </trkpt>
      <trkpt lat="43.39996" lon="6.63005">
        <ele>393.7</ele>
        <time>2014-10-05T07:20:47Z</time>
      </trkpt>
      <trkpt lat="43.39994" lon="6.63013">
        <ele>394</ele>
        <time>2014-10-05T07:20:48Z</time>
      </trkpt>
      <trkpt lat="43.39993" lon="6.6302">
        <ele>394.4</ele>
        <time>2014-10-05T07:20:49Z</time>
      </trkpt>
      <trkpt lat="43.39991" lon="6.63026">
        <ele>394.5</ele>
        <time>2014-10-05T07:20:50Z</time>
      </trkpt>
      <trkpt lat="43.39989" lon="6.6303">
        <ele>394.4</ele>
        <time>2014-10-05T07:20:51Z</time>
      </trkpt>
      <trkpt lat="43.39987" lon="6.63033">
        <ele>394.2</ele>
        <time>2014-10-05T07:20:52Z</time>
      </trkpt>
      <trkpt lat="43.39986" lon="6.63038">
        <ele>394.3</ele>
        <time>2014-10-05T07:20:53Z</time>
      </trkpt>
      <trkpt lat="43.39984" lon="6.63042">
        <ele>394.4</ele>
        <time>2014-10-05T07:20:54Z</time>
      </trkpt>
      <trkpt lat="43.39981" lon="6.63047">
        <ele>394.2</ele>
        <time>2014-10-05T07:20:55Z</time>
      </trkpt>
      <trkpt lat="43.39978" lon="6.63053">
        <ele>393.8</ele>
        <time>2014-10-05T07:20:56Z</time>
      </trkpt>
      <trkpt lat="43.39974" lon="6.63058">
        <ele>393.2</ele>
        <time>2014-10-05T07:20:57Z</time>
      </trkpt>
      <trkpt lat="43.39969" lon="6.63061">
        <ele>392.4</ele>
        <time>2014-10-05T07:20:58Z</time>
      </trkpt>
      <trkpt lat="43.39964" lon="6.63064">
        <ele>391.5</ele>
        <time>2014-10-05T07:20:59Z</time>
      </trkpt>
      <trkpt lat="43.3996" lon="6.63067">
        <ele>390.8</ele>
        <time>2014-10-05T07:21:00Z</time>
      </trkpt>
      <trkpt lat="43.39956" lon="6.63072">
        <ele>389.7</ele>
        <time>2014-10-05T07:21:01Z</time>
      </trkpt>
      <trkpt lat="43.39952" lon="6.63077">
        <ele>388.8</ele>
        <time>2014-10-05T07:21:02Z</time>
      </trkpt>
      <trkpt lat="43.3995" lon="6.63083">
        <ele>388.1</ele>
        <time>2014-10-05T07:21:03Z</time>
      </trkpt>
      <trkpt lat="43.39948" lon="6.63087">
        <ele>387.9</ele>
        <time>2014-10-05T07:21:04Z</time>
      </trkpt>
      <trkpt lat="43.39948" lon="6.63092">
        <ele>388.4</ele>
        <time>2014-10-05T07:21:06Z</time>
      </trkpt>
      <trkpt lat="43.39947" lon="6.63096">
        <ele>388.8</ele>
        <time>2014-10-05T07:21:09Z</time>
      </trkpt>
      <trkpt lat="43.39946" lon="6.63099">
        <ele>388.6</ele>
        <time>2014-10-05T07:21:11Z</time>
      </trkpt>
      <trkpt lat="43.39944" lon="6.63102">
        <ele>388.2</ele>
        <time>2014-10-05T07:21:13Z</time>
      </trkpt>
      <trkpt lat="43.3994" lon="6.63107">
        <ele>386.8</ele>
        <time>2014-10-05T07:21:15Z</time>
      </trkpt>
      <trkpt lat="43.39938" lon="6.6311">
        <ele>386</ele>
        <time>2014-10-05T07:21:16Z</time>
      </trkpt>
      <trkpt lat="43.39935" lon="6.63113">
        <ele>385.2</ele>
        <time>2014-10-05T07:21:17Z</time>
      </trkpt>
      <trkpt lat="43.39933" lon="6.63115">
        <ele>384.2</ele>
        <time>2014-10-05T07:21:18Z</time>
      </trkpt>
      <trkpt lat="43.39927" lon="6.63115">
        <ele>381.6</ele>
        <time>2014-10-05T07:21:20Z</time>
      </trkpt>
      <trkpt lat="43.39923" lon="6.63116">
        <ele>380</ele>
        <time>2014-10-05T07:21:21Z</time>
      </trkpt>
      <trkpt lat="43.3992" lon="6.63119">
        <ele>378.7</ele>
        <time>2014-10-05T07:21:22Z</time>
      </trkpt>
      <trkpt lat="43.39917" lon="6.63124">
        <ele>377.8</ele>
        <time>2014-10-05T07:21:23Z</time>
      </trkpt>
      <trkpt lat="43.39914" lon="6.6313">
        <ele>377.5</ele>
        <time>2014-10-05T07:21:24Z</time>
      </trkpt>
      <trkpt lat="43.39913" lon="6.63136">
        <ele>377.5</ele>
        <time>2014-10-05T07:21:25Z</time>
      </trkpt>
      <trkpt lat="43.39911" lon="6.63143">
        <ele>377.5</ele>
        <time>2014-10-05T07:21:26Z</time>
      </trkpt>
      <trkpt lat="43.3991" lon="6.63149">
        <ele>377.7</ele>
        <time>2014-10-05T07:21:27Z</time>
      </trkpt>
      <trkpt lat="43.39908" lon="6.63156">
        <ele>377.9</ele>
        <time>2014-10-05T07:21:28Z</time>
      </trkpt>
      <trkpt lat="43.39906" lon="6.63161">
        <ele>377.6</ele>
        <time>2014-10-05T07:21:29Z</time>
      </trkpt>
      <trkpt lat="43.39904" lon="6.63166">
        <ele>376.9</ele>
        <time>2014-10-05T07:21:30Z</time>
      </trkpt>
      <trkpt lat="43.39901" lon="6.63171">
        <ele>376.4</ele>
        <time>2014-10-05T07:21:31Z</time>
      </trkpt>
      <trkpt lat="43.39899" lon="6.63177">
        <ele>376.2</ele>
        <time>2014-10-05T07:21:32Z</time>
      </trkpt>
      <trkpt lat="43.39897" lon="6.63183">
        <ele>376.3</ele>
        <time>2014-10-05T07:21:33Z</time>
      </trkpt>
      <trkpt lat="43.39897" lon="6.63189">
        <ele>376.6</ele>
        <time>2014-10-05T07:21:34Z</time>
      </trkpt>
      <trkpt lat="43.39895" lon="6.63194">
        <ele>376.6</ele>
        <time>2014-10-05T07:21:35Z</time>
      </trkpt>
      <trkpt lat="43.39892" lon="6.63202">
        <ele>375.9</ele>
        <time>2014-10-05T07:21:38Z</time>
      </trkpt>
      <trkpt lat="43.3989" lon="6.63204">
        <ele>375.3</ele>
        <time>2014-10-05T07:21:39Z</time>
      </trkpt>
      <trkpt lat="43.39885" lon="6.63204">
        <ele>372.8</ele>
        <time>2014-10-05T07:21:41Z</time>
      </trkpt>
      <trkpt lat="43.39881" lon="6.63202">
        <ele>371.2</ele>
        <time>2014-10-05T07:21:42Z</time>
      </trkpt>
      <trkpt lat="43.39879" lon="6.632">
        <ele>369.8</ele>
        <time>2014-10-05T07:21:43Z</time>
      </trkpt>
      <trkpt lat="43.39876" lon="6.632">
        <ele>368.5</ele>
        <time>2014-10-05T07:21:44Z</time>
      </trkpt>
      <trkpt lat="43.39874" lon="6.63197">
        <ele>366.8</ele>
        <time>2014-10-05T07:21:45Z</time>
      </trkpt>
      <trkpt lat="43.39872" lon="6.63194">
        <ele>365.2</ele>
        <time>2014-10-05T07:21:46Z</time>
      </trkpt>
      <trkpt lat="43.39869" lon="6.63191">
        <ele>363.5</ele>
        <time>2014-10-05T07:21:47Z</time>
      </trkpt>
      <trkpt lat="43.39867" lon="6.63188">
        <ele>362.1</ele>
        <time>2014-10-05T07:21:48Z</time>
      </trkpt>
      <trkpt lat="43.39864" lon="6.63183">
        <ele>359.7</ele>
        <time>2014-10-05T07:21:50Z</time>
      </trkpt>
      <trkpt lat="43.39859" lon="6.63184">
        <ele>357.1</ele>
        <time>2014-10-05T07:21:52Z</time>
      </trkpt>
      <trkpt lat="43.39857" lon="6.6319">
        <ele>356.6</ele>
        <time>2014-10-05T07:21:53Z</time>
      </trkpt>
      <trkpt lat="43.39856" lon="6.63194">
        <ele>356.2</ele>
        <time>2014-10-05T07:21:54Z</time>
      </trkpt>
      <trkpt lat="43.39854" lon="6.63197">
        <ele>355.7</ele>
        <time>2014-10-05T07:21:55Z</time>
      </trkpt>
      <trkpt lat="43.39854" lon="6.63204">
        <ele>356.6</ele>
        <time>2014-10-05T07:21:56Z</time>
      </trkpt>
      <trkpt lat="43.39854" lon="6.6321">
        <ele>357.6</ele>
        <time>2014-10-05T07:21:57Z</time>
      </trkpt>
      <trkpt lat="43.39853" lon="6.63217">
        <ele>357.8</ele>
        <time>2014-10-05T07:21:58Z</time>
      </trkpt>
      <trkpt lat="43.39852" lon="6.63223">
        <ele>358.2</ele>
        <time>2014-10-05T07:21:59Z</time>
      </trkpt>
      <trkpt lat="43.39851" lon="6.63229">
        <ele>358.8</ele>
        <time>2014-10-05T07:22:00Z</time>
      </trkpt>
      <trkpt lat="43.39851" lon="6.63234">
        <ele>359.5</ele>
        <time>2014-10-05T07:22:01Z</time>
      </trkpt>
      <trkpt lat="43.39851" lon="6.63237">
        <ele>359.8</ele>
        <time>2014-10-05T07:22:02Z</time>
      </trkpt>
      <trkpt lat="43.39848" lon="6.63241">
        <ele>358.6</ele>
        <time>2014-10-05T07:22:03Z</time>
      </trkpt>
      <trkpt lat="43.39844" lon="6.63243">
        <ele>357</ele>
        <time>2014-10-05T07:22:04Z</time>
      </trkpt>
      <trkpt lat="43.3984" lon="6.63246">
        <ele>355.3</ele>
        <time>2014-10-05T07:22:05Z</time>
      </trkpt>
      <trkpt lat="43.39836" lon="6.63248">
        <ele>353.8</ele>
        <time>2014-10-05T07:22:06Z</time>
      </trkpt>
      <trkpt lat="43.39832" lon="6.63248">
        <ele>351.9</ele>
        <time>2014-10-05T07:22:07Z</time>
      </trkpt>
      <trkpt lat="43.39828" lon="6.63248">
        <ele>349.9</ele>
        <time>2014-10-05T07:22:08Z</time>
      </trkpt>
      <trkpt lat="43.39825" lon="6.63247">
        <ele>348.2</ele>
        <time>2014-10-05T07:22:09Z</time>
      </trkpt>
      <trkpt lat="43.39821" lon="6.63247">
        <ele>346.4</ele>
        <time>2014-10-05T07:22:10Z</time>
      </trkpt>
      <trkpt lat="43.39816" lon="6.63251">
        <ele>344.7</ele>
        <time>2014-10-05T07:22:12Z</time>
      </trkpt>
      <trkpt lat="43.39813" lon="6.63248">
        <ele>342.7</ele>
        <time>2014-10-05T07:22:14Z</time>
      </trkpt>
      <trkpt lat="43.39809" lon="6.63247">
        <ele>340.6</ele>
        <time>2014-10-05T07:22:16Z</time>
      </trkpt>
      <trkpt lat="43.39807" lon="6.63249">
        <ele>339.9</ele>
        <time>2014-10-05T07:22:17Z</time>
      </trkpt>
      <trkpt lat="43.39805" lon="6.63253">
        <ele>339.6</ele>
        <time>2014-10-05T07:22:18Z</time>
      </trkpt>
      <trkpt lat="43.39803" lon="6.63258">
        <ele>339.8</ele>
        <time>2014-10-05T07:22:19Z</time>
      </trkpt>
      <trkpt lat="43.39801" lon="6.63263">
        <ele>340</ele>
        <time>2014-10-05T07:22:20Z</time>
      </trkpt>
      <trkpt lat="43.39799" lon="6.63268">
        <ele>339.9</ele>
        <time>2014-10-05T07:22:21Z</time>
      </trkpt>
      <trkpt lat="43.39796" lon="6.63274">
        <ele>339.8</ele>
        <time>2014-10-05T07:22:22Z</time>
      </trkpt>
      <trkpt lat="43.39793" lon="6.63279">
        <ele>339.6</ele>
        <time>2014-10-05T07:22:23Z</time>
      </trkpt>
      <trkpt lat="43.39788" lon="6.63291">
        <ele>340.5</ele>
        <time>2014-10-05T07:22:24Z</time>
      </trkpt>
      <trkpt lat="43.39785" lon="6.633">
        <ele>340.5</ele>
        <time>2014-10-05T07:22:25Z</time>
      </trkpt>
      <trkpt lat="43.39782" lon="6.63309">
        <ele>340.2</ele>
        <time>2014-10-05T07:22:26Z</time>
      </trkpt>
      <trkpt lat="43.39777" lon="6.63315">
        <ele>339.3</ele>
        <time>2014-10-05T07:22:27Z</time>
      </trkpt>
      <trkpt lat="43.39772" lon="6.63321">
        <ele>338.2</ele>
        <time>2014-10-05T07:22:28Z</time>
      </trkpt>
      <trkpt lat="43.39767" lon="6.63325">
        <ele>336.5</ele>
        <time>2014-10-05T07:22:29Z</time>
      </trkpt>
      <trkpt lat="43.39762" lon="6.6333">
        <ele>335.3</ele>
        <time>2014-10-05T07:22:30Z</time>
      </trkpt>
      <trkpt lat="43.39757" lon="6.63336">
        <ele>334.5</ele>
        <time>2014-10-05T07:22:31Z</time>
      </trkpt>
      <trkpt lat="43.39753" lon="6.63343">
        <ele>334</ele>
        <time>2014-10-05T07:22:32Z</time>
      </trkpt>
      <trkpt lat="43.39749" lon="6.6335">
        <ele>333.6</ele>
        <time>2014-10-05T07:22:33Z</time>
      </trkpt>
      <trkpt lat="43.39745" lon="6.63358">
        <ele>333.1</ele>
        <time>2014-10-05T07:22:34Z</time>
      </trkpt>
      <trkpt lat="43.3974" lon="6.63365">
        <ele>332.5</ele>
        <time>2014-10-05T07:22:35Z</time>
      </trkpt>
      <trkpt lat="43.39735" lon="6.63371">
        <ele>331.8</ele>
        <time>2014-10-05T07:22:36Z</time>
      </trkpt>
      <trkpt lat="43.39731" lon="6.63377">
        <ele>331</ele>
        <time>2014-10-05T07:22:37Z</time>
      </trkpt>
      <trkpt lat="43.39727" lon="6.63382">
        <ele>330</ele>
        <time>2014-10-05T07:22:38Z</time>
      </trkpt>
      <trkpt lat="43.39724" lon="6.63385">
        <ele>329.5</ele>
        <time>2014-10-05T07:22:39Z</time>
      </trkpt>
      <trkpt lat="43.39721" lon="6.63388">
        <ele>328.8</ele>
        <time>2014-10-05T07:22:40Z</time>
      </trkpt>
      <trkpt lat="43.39723" lon="6.63387">
        <ele>329.5</ele>
        <time>2014-10-05T07:22:41Z</time>
      </trkpt>
      <trkpt lat="43.3972" lon="6.6339">
        <ele>328.8</ele>
        <time>2014-10-05T07:22:45Z</time>
      </trkpt>
      <trkpt lat="43.39715" lon="6.63391">
        <ele>327.3</ele>
        <time>2014-10-05T07:22:47Z</time>
      </trkpt>
      <trkpt lat="43.3971" lon="6.63395">
        <ele>326.3</ele>
        <time>2014-10-05T07:22:48Z</time>
      </trkpt>
      <trkpt lat="43.39704" lon="6.63399">
        <ele>324.7</ele>
        <time>2014-10-05T07:22:49Z</time>
      </trkpt>
      <trkpt lat="43.39697" lon="6.63405">
        <ele>323.2</ele>
        <time>2014-10-05T07:22:50Z</time>
      </trkpt>
      <trkpt lat="43.39692" lon="6.63409">
        <ele>322</ele>
        <time>2014-10-05T07:22:51Z</time>
      </trkpt>
      <trkpt lat="43.39687" lon="6.63419">
        <ele>321.9</ele>
        <time>2014-10-05T07:22:52Z</time>
      </trkpt>
      <trkpt lat="43.39682" lon="6.63427">
        <ele>321.7</ele>
        <time>2014-10-05T07:22:53Z</time>
      </trkpt>
      <trkpt lat="43.39677" lon="6.63433">
        <ele>321</ele>
        <time>2014-10-05T07:22:54Z</time>
      </trkpt>
      <trkpt lat="43.39671" lon="6.63437">
        <ele>320.1</ele>
        <time>2014-10-05T07:22:55Z</time>
      </trkpt>
      <trkpt lat="43.39666" lon="6.63442">
        <ele>319.5</ele>
        <time>2014-10-05T07:22:56Z</time>
      </trkpt>
      <trkpt lat="43.39663" lon="6.63447">
        <ele>319.7</ele>
        <time>2014-10-05T07:22:57Z</time>
      </trkpt>
      <trkpt lat="43.3966" lon="6.63452">
        <ele>319.9</ele>
        <time>2014-10-05T07:22:58Z</time>
      </trkpt>
      <trkpt lat="43.39657" lon="6.63457">
        <ele>320.1</ele>
        <time>2014-10-05T07:22:59Z</time>
      </trkpt>
      <trkpt lat="43.39652" lon="6.63458">
        <ele>318.6</ele>
        <time>2014-10-05T07:23:00Z</time>
      </trkpt>
      <trkpt lat="43.39647" lon="6.63461">
        <ele>317.6</ele>
        <time>2014-10-05T07:23:01Z</time>
      </trkpt>
      <trkpt lat="43.39641" lon="6.63464">
        <ele>316.3</ele>
        <time>2014-10-05T07:23:02Z</time>
      </trkpt>
      <trkpt lat="43.39636" lon="6.63468">
        <ele>315.2</ele>
        <time>2014-10-05T07:23:03Z</time>
      </trkpt>
      <trkpt lat="43.39631" lon="6.63472">
        <ele>314.3</ele>
        <time>2014-10-05T07:23:04Z</time>
      </trkpt>
      <trkpt lat="43.39626" lon="6.63478">
        <ele>313.7</ele>
        <time>2014-10-05T07:23:05Z</time>
      </trkpt>
      <trkpt lat="43.3962" lon="6.63482">
        <ele>312.6</ele>
        <time>2014-10-05T07:23:06Z</time>
      </trkpt>
      <trkpt lat="43.39614" lon="6.63485">
        <ele>311.3</ele>
        <time>2014-10-05T07:23:07Z</time>
      </trkpt>
      <trkpt lat="43.39609" lon="6.63489">
        <ele>310.5</ele>
        <time>2014-10-05T07:23:08Z</time>
      </trkpt>
      <trkpt lat="43.39603" lon="6.63494">
        <ele>309.8</ele>
        <time>2014-10-05T07:23:09Z</time>
      </trkpt>
      <trkpt lat="43.39598" lon="6.63499">
        <ele>309.2</ele>
        <time>2014-10-05T07:23:10Z</time>
      </trkpt>
      <trkpt lat="43.39593" lon="6.63502">
        <ele>308.4</ele>
        <time>2014-10-05T07:23:11Z</time>
      </trkpt>
      <trkpt lat="43.39586" lon="6.63505">
        <ele>307.2</ele>
        <time>2014-10-05T07:23:12Z</time>
      </trkpt>
      <trkpt lat="43.3958" lon="6.63507">
        <ele>305.8</ele>
        <time>2014-10-05T07:23:13Z</time>
      </trkpt>
      <trkpt lat="43.39574" lon="6.63508">
        <ele>304.5</ele>
        <time>2014-10-05T07:23:14Z</time>
      </trkpt>
      <trkpt lat="43.39564" lon="6.63512">
        <ele>302.8</ele>
        <time>2014-10-05T07:23:15Z</time>
      </trkpt>
      <trkpt lat="43.39557" lon="6.63514">
        <ele>301.5</ele>
        <time>2014-10-05T07:23:16Z</time>
      </trkpt>
      <trkpt lat="43.39548" lon="6.63517">
        <ele>299.9</ele>
        <time>2014-10-05T07:23:17Z</time>
      </trkpt>
      <trkpt lat="43.3954" lon="6.63517">
        <ele>298</ele>
        <time>2014-10-05T07:23:18Z</time>
      </trkpt>
      <trkpt lat="43.39534" lon="6.63517">
        <ele>296.3</ele>
        <time>2014-10-05T07:23:19Z</time>
      </trkpt>
      <trkpt lat="43.39528" lon="6.63514">
        <ele>294.3</ele>
        <time>2014-10-05T07:23:20Z</time>
      </trkpt>
      <trkpt lat="43.39525" lon="6.63515">
        <ele>293.8</ele>
        <time>2014-10-05T07:23:21Z</time>
      </trkpt>
      <trkpt lat="43.39518" lon="6.63518">
        <ele>292.9</ele>
        <time>2014-10-05T07:23:22Z</time>
      </trkpt>
      <trkpt lat="43.39514" lon="6.63523">
        <ele>292.8</ele>
        <time>2014-10-05T07:23:23Z</time>
      </trkpt>
      <trkpt lat="43.39508" lon="6.63526">
        <ele>292</ele>
        <time>2014-10-05T07:23:24Z</time>
      </trkpt>
      <trkpt lat="43.39502" lon="6.63528">
        <ele>290.8</ele>
        <time>2014-10-05T07:23:25Z</time>
      </trkpt>
      <trkpt lat="43.39495" lon="6.63529">
        <ele>289.4</ele>
        <time>2014-10-05T07:23:26Z</time>
      </trkpt>
      <trkpt lat="43.39488" lon="6.6353">
        <ele>287.8</ele>
        <time>2014-10-05T07:23:27Z</time>
      </trkpt>
      <trkpt lat="43.39481" lon="6.63531">
        <ele>286.1</ele>
        <time>2014-10-05T07:23:28Z</time>
      </trkpt>
      <trkpt lat="43.39473" lon="6.63533">
        <ele>284.4</ele>
        <time>2014-10-05T07:23:29Z</time>
      </trkpt>
      <trkpt lat="43.39462" lon="6.63538">
        <ele>282.4</ele>
        <time>2014-10-05T07:23:30Z</time>
      </trkpt>
      <trkpt lat="43.39455" lon="6.63548">
        <ele>280.5</ele>
        <time>2014-10-05T07:23:31Z</time>
      </trkpt>
      <trkpt lat="43.3945" lon="6.63555">
        <ele>278.6</ele>
        <time>2014-10-05T07:23:32Z</time>
      </trkpt>
      <trkpt lat="43.39446" lon="6.63562">
        <ele>277.3</ele>
        <time>2014-10-05T07:23:33Z</time>
      </trkpt>
      <trkpt lat="43.39442" lon="6.63569">
        <ele>275.6</ele>
        <time>2014-10-05T07:23:34Z</time>
      </trkpt>
      <trkpt lat="43.39436" lon="6.63573">
        <ele>273.2</ele>
        <time>2014-10-05T07:23:35Z</time>
      </trkpt>
      <trkpt lat="43.3943" lon="6.63577">
        <ele>270.8</ele>
        <time>2014-10-05T07:23:36Z</time>
      </trkpt>
      <trkpt lat="43.39424" lon="6.63581">
        <ele>268.2</ele>
        <time>2014-10-05T07:23:37Z</time>
      </trkpt>
      <trkpt lat="43.39418" lon="6.63585">
        <ele>265.9</ele>
        <time>2014-10-05T07:23:38Z</time>
      </trkpt>
      <trkpt lat="43.39413" lon="6.63589">
        <ele>264</ele>
        <time>2014-10-05T07:23:39Z</time>
      </trkpt>
      <trkpt lat="43.39411" lon="6.63595">
        <ele>263</ele>
        <time>2014-10-05T07:23:40Z</time>
      </trkpt>
      <trkpt lat="43.39409" lon="6.63601">
        <ele>262.4</ele>
        <time>2014-10-05T07:23:41Z</time>
      </trkpt>
      <trkpt lat="43.39407" lon="6.63609">
        <ele>261.8</ele>
        <time>2014-10-05T07:23:42Z</time>
      </trkpt>
      <trkpt lat="43.39405" lon="6.63616">
        <ele>261.1</ele>
        <time>2014-10-05T07:23:43Z</time>
      </trkpt>
      <trkpt lat="43.39404" lon="6.63623">
        <ele>260.8</ele>
        <time>2014-10-05T07:23:44Z</time>
      </trkpt>
      <trkpt lat="43.39402" lon="6.6363">
        <ele>260</ele>
        <time>2014-10-05T07:23:45Z</time>
      </trkpt>
      <trkpt lat="43.39399" lon="6.63637">
        <ele>259.1</ele>
        <time>2014-10-05T07:23:46Z</time>
      </trkpt>
      <trkpt lat="43.39396" lon="6.63644">
        <ele>258</ele>
        <time>2014-10-05T07:23:47Z</time>
      </trkpt>
      <trkpt lat="43.39393" lon="6.63651">
        <ele>256.7</ele>
        <time>2014-10-05T07:23:48Z</time>
      </trkpt>
      <trkpt lat="43.39388" lon="6.63659">
        <ele>255.3</ele>
        <time>2014-10-05T07:23:49Z</time>
      </trkpt>
      <trkpt lat="43.39385" lon="6.63668">
        <ele>254.6</ele>
        <time>2014-10-05T07:23:50Z</time>
      </trkpt>
      <trkpt lat="43.39384" lon="6.63676">
        <ele>254.3</ele>
        <time>2014-10-05T07:23:51Z</time>
      </trkpt>
      <trkpt lat="43.39384" lon="6.63684">
        <ele>254.6</ele>
        <time>2014-10-05T07:23:52Z</time>
      </trkpt>
      <trkpt lat="43.39386" lon="6.63688">
        <ele>255.4</ele>
        <time>2014-10-05T07:23:54Z</time>
      </trkpt>
      <trkpt lat="43.39385" lon="6.63692">
        <ele>255.4</ele>
        <time>2014-10-05T07:23:56Z</time>
      </trkpt>
      <trkpt lat="43.39383" lon="6.63691">
        <ele>254.5</ele>
        <time>2014-10-05T07:23:58Z</time>
      </trkpt>
      <trkpt lat="43.3938" lon="6.6369">
        <ele>253.6</ele>
        <time>2014-10-05T07:24:00Z</time>
      </trkpt>
      <trkpt lat="43.39376" lon="6.63696">
        <ele>252.6</ele>
        <time>2014-10-05T07:24:02Z</time>
      </trkpt>
      <trkpt lat="43.39373" lon="6.63702">
        <ele>251.8</ele>
        <time>2014-10-05T07:24:03Z</time>
      </trkpt>
      <trkpt lat="43.39371" lon="6.63708">
        <ele>251.1</ele>
        <time>2014-10-05T07:24:04Z</time>
      </trkpt>
      <trkpt lat="43.39368" lon="6.63714">
        <ele>250.1</ele>
        <time>2014-10-05T07:24:05Z</time>
      </trkpt>
      <trkpt lat="43.39365" lon="6.63721">
        <ele>248.8</ele>
        <time>2014-10-05T07:24:06Z</time>
      </trkpt>
      <trkpt lat="43.39363" lon="6.63726">
        <ele>247.9</ele>
        <time>2014-10-05T07:24:07Z</time>
      </trkpt>
      <trkpt lat="43.39361" lon="6.63731">
        <ele>247.1</ele>
        <time>2014-10-05T07:24:08Z</time>
      </trkpt>
      <trkpt lat="43.39358" lon="6.63734">
        <ele>246.2</ele>
        <time>2014-10-05T07:24:11Z</time>
      </trkpt>
      <trkpt lat="43.39352" lon="6.63735">
        <ele>243.8</ele>
        <time>2014-10-05T07:24:13Z</time>
      </trkpt>
      <trkpt lat="43.39349" lon="6.63737">
        <ele>242.3</ele>
        <time>2014-10-05T07:24:14Z</time>
      </trkpt>
      <trkpt lat="43.39343" lon="6.63741">
        <ele>240.1</ele>
        <time>2014-10-05T07:24:15Z</time>
      </trkpt>
      <trkpt lat="43.39338" lon="6.63746">
        <ele>238.5</ele>
        <time>2014-10-05T07:24:16Z</time>
      </trkpt>
      <trkpt lat="43.39335" lon="6.6375">
        <ele>237.5</ele>
        <time>2014-10-05T07:24:17Z</time>
      </trkpt>
      <trkpt lat="43.39333" lon="6.63759">
        <ele>236.9</ele>
        <time>2014-10-05T07:24:18Z</time>
      </trkpt>
      <trkpt lat="43.3933" lon="6.63764">
        <ele>236</ele>
        <time>2014-10-05T07:24:19Z</time>
      </trkpt>
      <trkpt lat="43.39327" lon="6.63769">
        <ele>235.2</ele>
        <time>2014-10-05T07:24:20Z</time>
      </trkpt>
      <trkpt lat="43.39324" lon="6.63773">
        <ele>234.4</ele>
        <time>2014-10-05T07:24:21Z</time>
      </trkpt>
      <trkpt lat="43.39321" lon="6.63776">
        <ele>233.3</ele>
        <time>2014-10-05T07:24:22Z</time>
      </trkpt>
      <trkpt lat="43.39316" lon="6.63776">
        <ele>231.6</ele>
        <time>2014-10-05T07:24:23Z</time>
      </trkpt>
      <trkpt lat="43.39311" lon="6.63775">
        <ele>229.7</ele>
        <time>2014-10-05T07:24:24Z</time>
      </trkpt>
      <trkpt lat="43.39307" lon="6.63774">
        <ele>228.2</ele>
        <time>2014-10-05T07:24:25Z</time>
      </trkpt>
      <trkpt lat="43.39302" lon="6.6377">
        <ele>225.8</ele>
        <time>2014-10-05T07:24:26Z</time>
      </trkpt>
      <trkpt lat="43.39297" lon="6.63767">
        <ele>223.9</ele>
        <time>2014-10-05T07:24:27Z</time>
      </trkpt>
      <trkpt lat="43.39293" lon="6.63764">
        <ele>222</ele>
        <time>2014-10-05T07:24:28Z</time>
      </trkpt>
      <trkpt lat="43.39289" lon="6.63761">
        <ele>220.4</ele>
        <time>2014-10-05T07:24:29Z</time>
      </trkpt>
      <trkpt lat="43.39286" lon="6.63759">
        <ele>219.2</ele>
        <time>2014-10-05T07:24:30Z</time>
      </trkpt>
      <trkpt lat="43.39283" lon="6.63759">
        <ele>218.1</ele>
        <time>2014-10-05T07:24:31Z</time>
      </trkpt>
      <trkpt lat="43.3928" lon="6.63762">
        <ele>217.5</ele>
        <time>2014-10-05T07:24:32Z</time>
      </trkpt>
      <trkpt lat="43.39277" lon="6.63765">
        <ele>216.6</ele>
        <time>2014-10-05T07:24:33Z</time>
      </trkpt>
      <trkpt lat="43.39278" lon="6.63773">
        <ele>217.4</ele>
        <time>2014-10-05T07:24:34Z</time>
      </trkpt>
      <trkpt lat="43.39277" lon="6.63779">
        <ele>217.7</ele>
        <time>2014-10-05T07:24:35Z</time>
      </trkpt>
      <trkpt lat="43.39277" lon="6.63786">
        <ele>218.1</ele>
        <time>2014-10-05T07:24:36Z</time>
      </trkpt>
      <trkpt lat="43.39277" lon="6.63792">
        <ele>218.4</ele>
        <time>2014-10-05T07:24:37Z</time>
      </trkpt>
      <trkpt lat="43.39276" lon="6.63798">
        <ele>218</ele>
        <time>2014-10-05T07:24:38Z</time>
      </trkpt>
      <trkpt lat="43.39276" lon="6.63804">
        <ele>217.7</ele>
        <time>2014-10-05T07:24:39Z</time>
      </trkpt>
      <trkpt lat="43.39275" lon="6.63809">
        <ele>217.3</ele>
        <time>2014-10-05T07:24:40Z</time>
      </trkpt>
      <trkpt lat="43.39274" lon="6.63815">
        <ele>216.7</ele>
        <time>2014-10-05T07:24:41Z</time>
      </trkpt>
      <trkpt lat="43.39272" lon="6.63821">
        <ele>215.9</ele>
        <time>2014-10-05T07:24:42Z</time>
      </trkpt>
      <trkpt lat="43.39271" lon="6.63827">
        <ele>215.2</ele>
        <time>2014-10-05T07:24:43Z</time>
      </trkpt>
      <trkpt lat="43.3927" lon="6.63834">
        <ele>214.6</ele>
        <time>2014-10-05T07:24:44Z</time>
      </trkpt>
      <trkpt lat="43.39269" lon="6.63841">
        <ele>214.2</ele>
        <time>2014-10-05T07:24:45Z</time>
      </trkpt>
      <trkpt lat="43.39268" lon="6.63848">
        <ele>213.8</ele>
        <time>2014-10-05T07:24:46Z</time>
      </trkpt>
      <trkpt lat="43.39267" lon="6.63856">
        <ele>213.2</ele>
        <time>2014-10-05T07:24:47Z</time>
      </trkpt>
      <trkpt lat="43.39265" lon="6.63865">
        <ele>212.2</ele>
        <time>2014-10-05T07:24:48Z</time>
      </trkpt>
      <trkpt lat="43.39262" lon="6.63875">
        <ele>211.2</ele>
        <time>2014-10-05T07:24:49Z</time>
      </trkpt>
      <trkpt lat="43.39252" lon="6.63891">
        <ele>208.8</ele>
        <time>2014-10-05T07:24:50Z</time>
      </trkpt>
      <trkpt lat="43.39254" lon="6.63895">
        <ele>209.5</ele>
        <time>2014-10-05T07:24:52Z</time>
      </trkpt>
      <trkpt lat="43.39254" lon="6.63899">
        <ele>209.5</ele>
        <time>2014-10-05T07:24:53Z</time>
      </trkpt>
      <trkpt lat="43.39254" lon="6.63903">
        <ele>209.6</ele>
        <time>2014-10-05T07:24:54Z</time>
      </trkpt>
      <trkpt lat="43.39253" lon="6.63907">
        <ele>209.7</ele>
        <time>2014-10-05T07:24:55Z</time>
      </trkpt>
      <trkpt lat="43.3925" lon="6.63912">
        <ele>209.3</ele>
        <time>2014-10-05T07:24:57Z</time>
      </trkpt>
      <trkpt lat="43.39247" lon="6.63912">
        <ele>208.6</ele>
        <time>2014-10-05T07:24:58Z</time>
      </trkpt>
      <trkpt lat="43.39243" lon="6.63911">
        <ele>207.9</ele>
        <time>2014-10-05T07:24:59Z</time>
      </trkpt>
      <trkpt lat="43.39236" lon="6.63911">
        <ele>206.4</ele>
        <time>2014-10-05T07:25:00Z</time>
      </trkpt>
      <trkpt lat="43.3923" lon="6.63912">
        <ele>205.2</ele>
        <time>2014-10-05T07:25:01Z</time>
      </trkpt>
      <trkpt lat="43.39221" lon="6.63913">
        <ele>203.6</ele>
        <time>2014-10-05T07:25:02Z</time>
      </trkpt>
      <trkpt lat="43.39213" lon="6.63916">
        <ele>202.4</ele>
        <time>2014-10-05T07:25:03Z</time>
      </trkpt>
      <trkpt lat="43.39206" lon="6.6392">
        <ele>201.8</ele>
        <time>2014-10-05T07:25:04Z</time>
      </trkpt>
      <trkpt lat="43.39198" lon="6.63925">
        <ele>201.8</ele>
        <time>2014-10-05T07:25:05Z</time>
      </trkpt>
      <trkpt lat="43.39192" lon="6.63929">
        <ele>201.8</ele>
        <time>2014-10-05T07:25:06Z</time>
      </trkpt>
      <trkpt lat="43.39184" lon="6.63934">
        <ele>201.9</ele>
        <time>2014-10-05T07:25:07Z</time>
      </trkpt>
      <trkpt lat="43.39177" lon="6.63938">
        <ele>201.9</ele>
        <time>2014-10-05T07:25:08Z</time>
      </trkpt>
      <trkpt lat="43.39171" lon="6.63941">
        <ele>201.8</ele>
        <time>2014-10-05T07:25:09Z</time>
      </trkpt>
      <trkpt lat="43.39164" lon="6.63944">
        <ele>201.8</ele>
        <time>2014-10-05T07:25:10Z</time>
      </trkpt>
      <trkpt lat="43.39159" lon="6.63946">
        <ele>201.7</ele>
        <time>2014-10-05T07:25:11Z</time>
      </trkpt>
      <trkpt lat="43.39153" lon="6.63949">
        <ele>201.7</ele>
        <time>2014-10-05T07:25:12Z</time>
      </trkpt>
      <trkpt lat="43.39148" lon="6.63953">
        <ele>201.8</ele>
        <time>2014-10-05T07:25:14Z</time>
      </trkpt>
      <trkpt lat="43.39145" lon="6.63953">
        <ele>201.6</ele>
        <time>2014-10-05T07:25:15Z</time>
      </trkpt>
      <trkpt lat="43.39142" lon="6.63953">
        <ele>201.5</ele>
        <time>2014-10-05T07:25:16Z</time>
      </trkpt>
      <trkpt lat="43.39139" lon="6.63954">
        <ele>201.5</ele>
        <time>2014-10-05T07:25:17Z</time>
      </trkpt>
      <trkpt lat="43.39136" lon="6.63956">
        <ele>201.5</ele>
        <time>2014-10-05T07:25:18Z</time>
      </trkpt>
      <trkpt lat="43.39133" lon="6.63956">
        <ele>201.3</ele>
        <time>2014-10-05T07:25:19Z</time>
      </trkpt>
      <trkpt lat="43.3913" lon="6.63957">
        <ele>201.1</ele>
        <time>2014-10-05T07:25:20Z</time>
      </trkpt>
      <trkpt lat="43.39127" lon="6.63957">
        <ele>200.9</ele>
        <time>2014-10-05T07:25:21Z</time>
      </trkpt>
      <trkpt lat="43.39123" lon="6.6396">
        <ele>200.8</ele>
        <time>2014-10-05T07:25:23Z</time>
      </trkpt>
      <trkpt lat="43.3912" lon="6.63961">
        <ele>200.5</ele>
        <time>2014-10-05T07:25:24Z</time>
      </trkpt>
      <trkpt lat="43.39117" lon="6.63963">
        <ele>200.1</ele>
        <time>2014-10-05T07:25:25Z</time>
      </trkpt>
      <trkpt lat="43.39114" lon="6.63963">
        <ele>199.6</ele>
        <time>2014-10-05T07:25:26Z</time>
      </trkpt>
      <trkpt lat="43.3911" lon="6.63965">
        <ele>199.3</ele>
        <time>2014-10-05T07:25:27Z</time>
      </trkpt>
      <trkpt lat="43.39107" lon="6.63967">
        <ele>198.9</ele>
        <time>2014-10-05T07:25:28Z</time>
      </trkpt>
      <trkpt lat="43.39104" lon="6.63968">
        <ele>198.6</ele>
        <time>2014-10-05T07:25:29Z</time>
      </trkpt>
      <trkpt lat="43.391" lon="6.63969">
        <ele>198.2</ele>
        <time>2014-10-05T07:25:30Z</time>
      </trkpt>
      <trkpt lat="43.39097" lon="6.6397">
        <ele>197.8</ele>
        <time>2014-10-05T07:25:31Z</time>
      </trkpt>
      <trkpt lat="43.39094" lon="6.63972">
        <ele>197.5</ele>
        <time>2014-10-05T07:25:32Z</time>
      </trkpt>
      <trkpt lat="43.39091" lon="6.63974">
        <ele>197.4</ele>
        <time>2014-10-05T07:25:33Z</time>
      </trkpt>
      <trkpt lat="43.39088" lon="6.63976">
        <ele>197.2</ele>
        <time>2014-10-05T07:25:34Z</time>
      </trkpt>
      <trkpt lat="43.39086" lon="6.6398">
        <ele>197.4</ele>
        <time>2014-10-05T07:25:35Z</time>
      </trkpt>
      <trkpt lat="43.39083" lon="6.63983">
        <ele>197.4</ele>
        <time>2014-10-05T07:25:36Z</time>
      </trkpt>
      <trkpt lat="43.39081" lon="6.63986">
        <ele>197.5</ele>
        <time>2014-10-05T07:25:37Z</time>
      </trkpt>
      <trkpt lat="43.39078" lon="6.63989">
        <ele>197.5</ele>
        <time>2014-10-05T07:25:38Z</time>
      </trkpt>
      <trkpt lat="43.39075" lon="6.63991">
        <ele>197.5</ele>
        <time>2014-10-05T07:25:39Z</time>
      </trkpt>
      <trkpt lat="43.39072" lon="6.63994">
        <ele>197.6</ele>
        <time>2014-10-05T07:25:40Z</time>
      </trkpt>
      <trkpt lat="43.39069" lon="6.63997">
        <ele>197.6</ele>
        <time>2014-10-05T07:25:41Z</time>
      </trkpt>
      <trkpt lat="43.39066" lon="6.63999">
        <ele>197.6</ele>
        <time>2014-10-05T07:25:42Z</time>
      </trkpt>
      <trkpt lat="43.39062" lon="6.64004">
        <ele>197.9</ele>
        <time>2014-10-05T07:25:43Z</time>
      </trkpt>
      <trkpt lat="43.39058" lon="6.64008">
        <ele>198</ele>
        <time>2014-10-05T07:25:44Z</time>
      </trkpt>
      <trkpt lat="43.39053" lon="6.64013">
        <ele>198.1</ele>
        <time>2014-10-05T07:25:45Z</time>
      </trkpt>
      <trkpt lat="43.39047" lon="6.64017">
        <ele>198</ele>
        <time>2014-10-05T07:25:46Z</time>
      </trkpt>
      <trkpt lat="43.39044" lon="6.64022">
        <ele>198.5</ele>
        <time>2014-10-05T07:25:47Z</time>
      </trkpt>
      <trkpt lat="43.39033" lon="6.64031">
        <ele>198.4</ele>
        <time>2014-10-05T07:25:48Z</time>
      </trkpt>
      <trkpt lat="43.39027" lon="6.64037">
        <ele>198.4</ele>
        <time>2014-10-05T07:25:49Z</time>
      </trkpt>
      <trkpt lat="43.39023" lon="6.64041">
        <ele>198.6</ele>
        <time>2014-10-05T07:25:50Z</time>
      </trkpt>
      <trkpt lat="43.39016" lon="6.64052">
        <ele>197.7</ele>
        <time>2014-10-05T07:25:51Z</time>
      </trkpt>
      <trkpt lat="43.3901" lon="6.64061">
        <ele>197</ele>
        <time>2014-10-05T07:25:52Z</time>
      </trkpt>
      <trkpt lat="43.39004" lon="6.6407">
        <ele>196.4</ele>
        <time>2014-10-05T07:25:53Z</time>
      </trkpt>
      <trkpt lat="43.39" lon="6.64077">
        <ele>195.9</ele>
        <time>2014-10-05T07:25:54Z</time>
      </trkpt>
      <trkpt lat="43.38996" lon="6.64082">
        <ele>195.6</ele>
        <time>2014-10-05T07:25:55Z</time>
      </trkpt>
      <trkpt lat="43.38991" lon="6.64088">
        <ele>195.1</ele>
        <time>2014-10-05T07:25:56Z</time>
      </trkpt>
      <trkpt lat="43.38988" lon="6.64093">
        <ele>195</ele>
        <time>2014-10-05T07:25:57Z</time>
      </trkpt>
      <trkpt lat="43.38986" lon="6.64095">
        <ele>194.7</ele>
        <time>2014-10-05T07:25:58Z</time>
      </trkpt>
      <trkpt lat="43.38982" lon="6.64099">
        <ele>194.4</ele>
        <time>2014-10-05T07:25:59Z</time>
      </trkpt>
      <trkpt lat="43.3895" lon="6.64073">
        <ele>186.8</ele>
        <time>2014-10-05T07:26:01Z</time>
      </trkpt>
      <trkpt lat="43.38945" lon="6.64071">
        <ele>185.3</ele>
        <time>2014-10-05T07:26:02Z</time>
      </trkpt>
      <trkpt lat="43.3894" lon="6.64068">
        <ele>183.9</ele>
        <time>2014-10-05T07:26:03Z</time>
      </trkpt>
      <trkpt lat="43.38941" lon="6.64063">
        <ele>183.7</ele>
        <time>2014-10-05T07:26:04Z</time>
      </trkpt>
      <trkpt lat="43.38938" lon="6.64057">
        <ele>182.7</ele>
        <time>2014-10-05T07:26:05Z</time>
      </trkpt>
      <trkpt lat="43.38938" lon="6.64052">
        <ele>182.4</ele>
        <time>2014-10-05T07:26:06Z</time>
      </trkpt>
      <trkpt lat="43.38939" lon="6.64046">
        <ele>182.3</ele>
        <time>2014-10-05T07:26:07Z</time>
      </trkpt>
      <trkpt lat="43.3894" lon="6.64043">
        <ele>182.5</ele>
        <time>2014-10-05T07:26:08Z</time>
      </trkpt>
      <trkpt lat="43.38942" lon="6.64038">
        <ele>182.3</ele>
        <time>2014-10-05T07:26:09Z</time>
      </trkpt>
      <trkpt lat="43.38944" lon="6.64031">
        <ele>181.3</ele>
        <time>2014-10-05T07:26:10Z</time>
      </trkpt>
      <trkpt lat="43.38945" lon="6.64024">
        <ele>180.4</ele>
        <time>2014-10-05T07:26:11Z</time>
      </trkpt>
      <trkpt lat="43.38948" lon="6.64017">
        <ele>179.7</ele>
        <time>2014-10-05T07:26:12Z</time>
      </trkpt>
      <trkpt lat="43.38951" lon="6.64013">
        <ele>179.3</ele>
        <time>2014-10-05T07:26:13Z</time>
      </trkpt>
      <trkpt lat="43.38957" lon="6.64008">
        <ele>179.5</ele>
        <time>2014-10-05T07:26:14Z</time>
      </trkpt>
      <trkpt lat="43.38962" lon="6.64003">
        <ele>179.4</ele>
        <time>2014-10-05T07:26:15Z</time>
      </trkpt>
      <trkpt lat="43.38967" lon="6.63998">
        <ele>179.3</ele>
        <time>2014-10-05T07:26:16Z</time>
      </trkpt>
      <trkpt lat="43.38973" lon="6.63994">
        <ele>179.4</ele>
        <time>2014-10-05T07:26:17Z</time>
      </trkpt>
      <trkpt lat="43.38979" lon="6.6399">
        <ele>179.9</ele>
        <time>2014-10-05T07:26:18Z</time>
      </trkpt>
      <trkpt lat="43.38985" lon="6.63986">
        <ele>180.2</ele>
        <time>2014-10-05T07:26:19Z</time>
      </trkpt>
      <trkpt lat="43.38991" lon="6.6398">
        <ele>180.2</ele>
        <time>2014-10-05T07:26:20Z</time>
      </trkpt>
      <trkpt lat="43.38997" lon="6.63975">
        <ele>180.3</ele>
        <time>2014-10-05T07:26:21Z</time>
      </trkpt>
      <trkpt lat="43.39003" lon="6.6397">
        <ele>180.3</ele>
        <time>2014-10-05T07:26:22Z</time>
      </trkpt>
      <trkpt lat="43.39007" lon="6.63964">
        <ele>180.2</ele>
        <time>2014-10-05T07:26:23Z</time>
      </trkpt>
      <trkpt lat="43.39012" lon="6.63959">
        <ele>180.1</ele>
        <time>2014-10-05T07:26:24Z</time>
      </trkpt>
      <trkpt lat="43.39017" lon="6.63954">
        <ele>180.4</ele>
        <time>2014-10-05T07:26:25Z</time>
      </trkpt>
      <trkpt lat="43.39021" lon="6.6395">
        <ele>180.8</ele>
        <time>2014-10-05T07:26:26Z</time>
      </trkpt>
      <trkpt lat="43.39026" lon="6.63945">
        <ele>181.3</ele>
        <time>2014-10-05T07:26:27Z</time>
      </trkpt>
      <trkpt lat="43.3903" lon="6.6394">
        <ele>181.7</ele>
        <time>2014-10-05T07:26:28Z</time>
      </trkpt>
      <trkpt lat="43.39034" lon="6.63935">
        <ele>182</ele>
        <time>2014-10-05T07:26:29Z</time>
      </trkpt>
      <trkpt lat="43.39037" lon="6.6393">
        <ele>182</ele>
        <time>2014-10-05T07:26:30Z</time>
      </trkpt>
      <trkpt lat="43.39038" lon="6.63925">
        <ele>181.7</ele>
        <time>2014-10-05T07:26:31Z</time>
      </trkpt>
      <trkpt lat="43.39038" lon="6.6392">
        <ele>181</ele>
        <time>2014-10-05T07:26:32Z</time>
      </trkpt>
      <trkpt lat="43.39037" lon="6.63913">
        <ele>180.2</ele>
        <time>2014-10-05T07:26:33Z</time>
      </trkpt>
      <trkpt lat="43.39036" lon="6.63908">
        <ele>179.4</ele>
        <time>2014-10-05T07:26:34Z</time>
      </trkpt>
      <trkpt lat="43.39034" lon="6.63903">
        <ele>178.5</ele>
        <time>2014-10-05T07:26:35Z</time>
      </trkpt>
      <trkpt lat="43.39031" lon="6.63899">
        <ele>177.3</ele>
        <time>2014-10-05T07:26:36Z</time>
      </trkpt>
      <trkpt lat="43.39027" lon="6.63893">
        <ele>175.9</ele>
        <time>2014-10-05T07:26:37Z</time>
      </trkpt>
      <trkpt lat="43.39024" lon="6.63887">
        <ele>174.6</ele>
        <time>2014-10-05T07:26:38Z</time>
      </trkpt>
      <trkpt lat="43.3902" lon="6.63881">
        <ele>173</ele>
        <time>2014-10-05T07:26:39Z</time>
      </trkpt>
      <trkpt lat="43.39015" lon="6.63874">
        <ele>171.1</ele>
        <time>2014-10-05T07:26:40Z</time>
      </trkpt>
      <trkpt lat="43.39008" lon="6.63871">
        <ele>169.7</ele>
        <time>2014-10-05T07:26:41Z</time>
      </trkpt>
      <trkpt lat="43.39002" lon="6.6387">
        <ele>168.3</ele>
        <time>2014-10-05T07:26:42Z</time>
      </trkpt>
      <trkpt lat="43.38996" lon="6.6387">
        <ele>167</ele>
        <time>2014-10-05T07:26:43Z</time>
      </trkpt>
      <trkpt lat="43.3899" lon="6.63868">
        <ele>165.7</ele>
        <time>2014-10-05T07:26:44Z</time>
      </trkpt>
      <trkpt lat="43.38984" lon="6.63864">
        <ele>164.4</ele>
        <time>2014-10-05T07:26:45Z</time>
      </trkpt>
      <trkpt lat="43.38978" lon="6.63859">
        <ele>163.4</ele>
        <time>2014-10-05T07:26:46Z</time>
      </trkpt>
      <trkpt lat="43.38973" lon="6.63853">
        <ele>162.4</ele>
        <time>2014-10-05T07:26:47Z</time>
      </trkpt>
      <trkpt lat="43.38969" lon="6.63848">
        <ele>161.6</ele>
        <time>2014-10-05T07:26:48Z</time>
      </trkpt>
      <trkpt lat="43.38965" lon="6.63842">
        <ele>161</ele>
        <time>2014-10-05T07:26:49Z</time>
      </trkpt>
      <trkpt lat="43.38962" lon="6.63838">
        <ele>160.6</ele>
        <time>2014-10-05T07:26:50Z</time>
      </trkpt>
      <trkpt lat="43.38959" lon="6.63832">
        <ele>160.2</ele>
        <time>2014-10-05T07:26:51Z</time>
      </trkpt>
      <trkpt lat="43.38956" lon="6.63825">
        <ele>159.9</ele>
        <time>2014-10-05T07:26:52Z</time>
      </trkpt>
      <trkpt lat="43.38953" lon="6.63817">
        <ele>159.7</ele>
        <time>2014-10-05T07:26:53Z</time>
      </trkpt>
      <trkpt lat="43.3895" lon="6.63808">
        <ele>159.3</ele>
        <time>2014-10-05T07:26:54Z</time>
      </trkpt>
      <trkpt lat="43.38947" lon="6.63799">
        <ele>158.9</ele>
        <time>2014-10-05T07:26:55Z</time>
      </trkpt>
      <trkpt lat="43.38944" lon="6.63792">
        <ele>158.4</ele>
        <time>2014-10-05T07:26:56Z</time>
      </trkpt>
      <trkpt lat="43.3894" lon="6.63785">
        <ele>157.7</ele>
        <time>2014-10-05T07:26:57Z</time>
      </trkpt>
      <trkpt lat="43.38936" lon="6.63779">
        <ele>156.9</ele>
        <time>2014-10-05T07:26:58Z</time>
      </trkpt>
      <trkpt lat="43.3893" lon="6.63773">
        <ele>156</ele>
        <time>2014-10-05T07:26:59Z</time>
      </trkpt>
      <trkpt lat="43.38925" lon="6.63767">
        <ele>155.1</ele>
        <time>2014-10-05T07:27:00Z</time>
      </trkpt>
      <trkpt lat="43.38919" lon="6.63763">
        <ele>154.1</ele>
        <time>2014-10-05T07:27:01Z</time>
      </trkpt>
      <trkpt lat="43.38913" lon="6.63759">
        <ele>153</ele>
        <time>2014-10-05T07:27:02Z</time>
      </trkpt>
      <trkpt lat="43.38907" lon="6.63754">
        <ele>152</ele>
        <time>2014-10-05T07:27:03Z</time>
      </trkpt>
      <trkpt lat="43.38902" lon="6.63749">
        <ele>151.1</ele>
        <time>2014-10-05T07:27:04Z</time>
      </trkpt>
      <trkpt lat="43.38897" lon="6.63744">
        <ele>150.5</ele>
        <time>2014-10-05T07:27:05Z</time>
      </trkpt>
      <trkpt lat="43.38895" lon="6.63737">
        <ele>150</ele>
        <time>2014-10-05T07:27:06Z</time>
      </trkpt>
      <trkpt lat="43.38893" lon="6.63732">
        <ele>149.8</ele>
        <time>2014-10-05T07:27:07Z</time>
      </trkpt>
      <trkpt lat="43.3889" lon="6.63727">
        <ele>149.3</ele>
        <time>2014-10-05T07:27:08Z</time>
      </trkpt>
      <trkpt lat="43.38886" lon="6.63723">
        <ele>148.7</ele>
        <time>2014-10-05T07:27:09Z</time>
      </trkpt>
      <trkpt lat="43.38882" lon="6.63718">
        <ele>148.1</ele>
        <time>2014-10-05T07:27:10Z</time>
      </trkpt>
      <trkpt lat="43.3888" lon="6.63712">
        <ele>147.8</ele>
        <time>2014-10-05T07:27:11Z</time>
      </trkpt>
      <trkpt lat="43.38877" lon="6.63706">
        <ele>147.5</ele>
        <time>2014-10-05T07:27:12Z</time>
      </trkpt>
      <trkpt lat="43.38873" lon="6.637">
        <ele>147.1</ele>
        <time>2014-10-05T07:27:13Z</time>
      </trkpt>
      <trkpt lat="43.38866" lon="6.63694">
        <ele>146.4</ele>
        <time>2014-10-05T07:27:14Z</time>
      </trkpt>
      <trkpt lat="43.3886" lon="6.63688">
        <ele>145.8</ele>
        <time>2014-10-05T07:27:15Z</time>
      </trkpt>
      <trkpt lat="43.38855" lon="6.63682">
        <ele>145.4</ele>
        <time>2014-10-05T07:27:16Z</time>
      </trkpt>
      <trkpt lat="43.3885" lon="6.63676">
        <ele>145</ele>
        <time>2014-10-05T07:27:17Z</time>
      </trkpt>
      <trkpt lat="43.38845" lon="6.6367">
        <ele>144.5</ele>
        <time>2014-10-05T07:27:18Z</time>
      </trkpt>
      <trkpt lat="43.38839" lon="6.63665">
        <ele>144</ele>
        <time>2014-10-05T07:27:19Z</time>
      </trkpt>
      <trkpt lat="43.38835" lon="6.6366">
        <ele>143.5</ele>
        <time>2014-10-05T07:27:20Z</time>
      </trkpt>
      <trkpt lat="43.38831" lon="6.63655">
        <ele>143.1</ele>
        <time>2014-10-05T07:27:21Z</time>
      </trkpt>
      <trkpt lat="43.38828" lon="6.6365">
        <ele>142.9</ele>
        <time>2014-10-05T07:27:22Z</time>
      </trkpt>
      <trkpt lat="43.38824" lon="6.63645">
        <ele>142.7</ele>
        <time>2014-10-05T07:27:23Z</time>
      </trkpt>
      <trkpt lat="43.38821" lon="6.6364">
        <ele>142.5</ele>
        <time>2014-10-05T07:27:24Z</time>
      </trkpt>
      <trkpt lat="43.38817" lon="6.63635">
        <ele>142.2</ele>
        <time>2014-10-05T07:27:25Z</time>
      </trkpt>
      <trkpt lat="43.38814" lon="6.6363">
        <ele>142</ele>
        <time>2014-10-05T07:27:26Z</time>
      </trkpt>
      <trkpt lat="43.38811" lon="6.63625">
        <ele>141.8</ele>
        <time>2014-10-05T07:27:27Z</time>
      </trkpt>
      <trkpt lat="43.38808" lon="6.6362">
        <ele>141.6</ele>
        <time>2014-10-05T07:27:28Z</time>
      </trkpt>
      <trkpt lat="43.38805" lon="6.63613">
        <ele>141.4</ele>
        <time>2014-10-05T07:27:29Z</time>
      </trkpt>
      <trkpt lat="43.38801" lon="6.63603">
        <ele>141.3</ele>
        <time>2014-10-05T07:27:30Z</time>
      </trkpt>
      <trkpt lat="43.38798" lon="6.63595">
        <ele>141.3</ele>
        <time>2014-10-05T07:27:31Z</time>
      </trkpt>
      <trkpt lat="43.38795" lon="6.63586">
        <ele>141.2</ele>
        <time>2014-10-05T07:27:32Z</time>
      </trkpt>
      <trkpt lat="43.38791" lon="6.63577">
        <ele>141.2</ele>
        <time>2014-10-05T07:27:33Z</time>
      </trkpt>
      <trkpt lat="43.38788" lon="6.63568">
        <ele>141</ele>
        <time>2014-10-05T07:27:34Z</time>
      </trkpt>
      <trkpt lat="43.38786" lon="6.63561">
        <ele>140.8</ele>
        <time>2014-10-05T07:27:35Z</time>
      </trkpt>
      <trkpt lat="43.38783" lon="6.63555">
        <ele>140.6</ele>
        <time>2014-10-05T07:27:36Z</time>
      </trkpt>
      <trkpt lat="43.38781" lon="6.6355">
        <ele>140.3</ele>
        <time>2014-10-05T07:27:37Z</time>
      </trkpt>
      <trkpt lat="43.38779" lon="6.63545">
        <ele>140</ele>
        <time>2014-10-05T07:27:38Z</time>
      </trkpt>
      <trkpt lat="43.38777" lon="6.63539">
        <ele>139.5</ele>
        <time>2014-10-05T07:27:39Z</time>
      </trkpt>
      <trkpt lat="43.38776" lon="6.63534">
        <ele>138.8</ele>
        <time>2014-10-05T07:27:40Z</time>
      </trkpt>
      <trkpt lat="43.38776" lon="6.63528">
        <ele>138.4</ele>
        <time>2014-10-05T07:27:41Z</time>
      </trkpt>
      <trkpt lat="43.38777" lon="6.63523">
        <ele>138.2</ele>
        <time>2014-10-05T07:27:42Z</time>
      </trkpt>
      <trkpt lat="43.38779" lon="6.63519">
        <ele>138.2</ele>
        <time>2014-10-05T07:27:43Z</time>
      </trkpt>
      <trkpt lat="43.38781" lon="6.63515">
        <ele>138.3</ele>
        <time>2014-10-05T07:27:44Z</time>
      </trkpt>
      <trkpt lat="43.38782" lon="6.63511">
        <ele>138.2</ele>
        <time>2014-10-05T07:27:45Z</time>
      </trkpt>
      <trkpt lat="43.38785" lon="6.63506">
        <ele>138.3</ele>
        <time>2014-10-05T07:27:47Z</time>
      </trkpt>
      <trkpt lat="43.38786" lon="6.63502">
        <ele>138.1</ele>
        <time>2014-10-05T07:27:48Z</time>
      </trkpt>
      <trkpt lat="43.38789" lon="6.63501">
        <ele>138.7</ele>
        <time>2014-10-05T07:27:50Z</time>
      </trkpt>
      <trkpt lat="43.38793" lon="6.635">
        <ele>139.1</ele>
        <time>2014-10-05T07:27:53Z</time>
      </trkpt>
      <trkpt lat="43.38796" lon="6.635">
        <ele>139.3</ele>
        <time>2014-10-05T07:27:56Z</time>
      </trkpt>
      <trkpt lat="43.38793" lon="6.63501">
        <ele>139.2</ele>
        <time>2014-10-05T07:28:01Z</time>
      </trkpt>
      <trkpt lat="43.38791" lon="6.63505">
        <ele>139.3</ele>
        <time>2014-10-05T07:28:05Z</time>
      </trkpt>
      <trkpt lat="43.38788" lon="6.63504">
        <ele>138.7</ele>
        <time>2014-10-05T07:28:40Z</time>
      </trkpt>
      <trkpt lat="43.38795" lon="6.63505">
        <ele>139.7</ele>
        <time>2014-10-05T07:36:13Z</time>
      </trkpt>
      <trkpt lat="43.388" lon="6.63505">
        <ele>140.1</ele>
        <time>2014-10-05T07:36:15Z</time>
      </trkpt>
      <trkpt lat="43.38806" lon="6.63505">
        <ele>140.5</ele>
        <time>2014-10-05T07:36:17Z</time>
      </trkpt>
      <trkpt lat="43.38809" lon="6.63504">
        <ele>140.7</ele>
        <time>2014-10-05T07:36:18Z</time>
      </trkpt>
      <trkpt lat="43.38814" lon="6.63503">
        <ele>140.9</ele>
        <time>2014-10-05T07:36:20Z</time>
      </trkpt>
      <trkpt lat="43.38818" lon="6.63504">
        <ele>141.3</ele>
        <time>2014-10-05T07:36:22Z</time>
      </trkpt>
      <trkpt lat="43.38823" lon="6.63505">
        <ele>141.8</ele>
        <time>2014-10-05T07:36:24Z</time>
      </trkpt>
      <trkpt lat="43.38827" lon="6.63505">
        <ele>142.1</ele>
        <time>2014-10-05T07:36:26Z</time>
      </trkpt>
      <trkpt lat="43.38832" lon="6.63506">
        <ele>142.5</ele>
        <time>2014-10-05T07:36:28Z</time>
      </trkpt>
      <trkpt lat="43.38836" lon="6.63506">
        <ele>142.9</ele>
        <time>2014-10-05T07:36:30Z</time>
      </trkpt>
      <trkpt lat="43.3884" lon="6.63508">
        <ele>143.4</ele>
        <time>2014-10-05T07:36:32Z</time>
      </trkpt>
      <trkpt lat="43.38844" lon="6.63509">
        <ele>143.8</ele>
        <time>2014-10-05T07:36:34Z</time>
      </trkpt>
      <trkpt lat="43.38848" lon="6.63509">
        <ele>144.2</ele>
        <time>2014-10-05T07:36:36Z</time>
      </trkpt>
      <trkpt lat="43.38852" lon="6.6351">
        <ele>144.6</ele>
        <time>2014-10-05T07:36:38Z</time>
      </trkpt>
      <trkpt lat="43.38856" lon="6.63511">
        <ele>145.1</ele>
        <time>2014-10-05T07:36:40Z</time>
      </trkpt>
      <trkpt lat="43.3886" lon="6.63512">
        <ele>145.6</ele>
        <time>2014-10-05T07:36:42Z</time>
      </trkpt>
      <trkpt lat="43.38865" lon="6.63513">
        <ele>146.1</ele>
        <time>2014-10-05T07:36:44Z</time>
      </trkpt>
      <trkpt lat="43.38869" lon="6.63517">
        <ele>146.9</ele>
        <time>2014-10-05T07:36:46Z</time>
      </trkpt>
      <trkpt lat="43.38872" lon="6.63522">
        <ele>147.8</ele>
        <time>2014-10-05T07:36:48Z</time>
      </trkpt>
      <trkpt lat="43.38874" lon="6.63528">
        <ele>148.9</ele>
        <time>2014-10-05T07:36:50Z</time>
      </trkpt>
      <trkpt lat="43.38877" lon="6.63534">
        <ele>149.8</ele>
        <time>2014-10-05T07:36:52Z</time>
      </trkpt>
      <trkpt lat="43.3888" lon="6.63539">
        <ele>150.6</ele>
        <time>2014-10-05T07:36:54Z</time>
      </trkpt>
      <trkpt lat="43.38882" lon="6.63542">
        <ele>150.9</ele>
        <time>2014-10-05T07:36:55Z</time>
      </trkpt>
      <trkpt lat="43.38886" lon="6.63547">
        <ele>150.9</ele>
        <time>2014-10-05T07:36:57Z</time>
      </trkpt>
      <trkpt lat="43.3889" lon="6.63551">
        <ele>151</ele>
        <time>2014-10-05T07:36:59Z</time>
      </trkpt>
      <trkpt lat="43.38894" lon="6.63555">
        <ele>151.1</ele>
        <time>2014-10-05T07:37:01Z</time>
      </trkpt>
      <trkpt lat="43.38899" lon="6.63559">
        <ele>151.2</ele>
        <time>2014-10-05T07:37:03Z</time>
      </trkpt>
      <trkpt lat="43.38902" lon="6.63564">
        <ele>151.4</ele>
        <time>2014-10-05T07:37:05Z</time>
      </trkpt>
      <trkpt lat="43.38903" lon="6.63568">
        <ele>151.5</ele>
        <time>2014-10-05T07:37:06Z</time>
      </trkpt>
      <trkpt lat="43.38905" lon="6.63571">
        <ele>151.6</ele>
        <time>2014-10-05T07:37:07Z</time>
      </trkpt>
      <trkpt lat="43.38906" lon="6.63574">
        <ele>151.8</ele>
        <time>2014-10-05T07:37:08Z</time>
      </trkpt>
      <trkpt lat="43.38907" lon="6.63578">
        <ele>152</ele>
        <time>2014-10-05T07:37:09Z</time>
      </trkpt>
      <trkpt lat="43.38908" lon="6.63582">
        <ele>152.1</ele>
        <time>2014-10-05T07:37:10Z</time>
      </trkpt>
      <trkpt lat="43.38909" lon="6.63586">
        <ele>152.3</ele>
        <time>2014-10-05T07:37:11Z</time>
      </trkpt>
      <trkpt lat="43.38913" lon="6.63592">
        <ele>152.7</ele>
        <time>2014-10-05T07:37:13Z</time>
      </trkpt>
      <trkpt lat="43.38915" lon="6.63595">
        <ele>153</ele>
        <time>2014-10-05T07:37:14Z</time>
      </trkpt>
      <trkpt lat="43.38916" lon="6.63599">
        <ele>153.2</ele>
        <time>2014-10-05T07:37:15Z</time>
      </trkpt>
      <trkpt lat="43.38918" lon="6.63602">
        <ele>153.5</ele>
        <time>2014-10-05T07:37:16Z</time>
      </trkpt>
      <trkpt lat="43.38919" lon="6.63605">
        <ele>153.7</ele>
        <time>2014-10-05T07:37:17Z</time>
      </trkpt>
      <trkpt lat="43.3892" lon="6.63609">
        <ele>154</ele>
        <time>2014-10-05T07:37:18Z</time>
      </trkpt>
      <trkpt lat="43.38922" lon="6.63612">
        <ele>154.2</ele>
        <time>2014-10-05T07:37:19Z</time>
      </trkpt>
      <trkpt lat="43.38924" lon="6.63618">
        <ele>154.7</ele>
        <time>2014-10-05T07:37:21Z</time>
      </trkpt>
      <trkpt lat="43.38927" lon="6.63624">
        <ele>155.3</ele>
        <time>2014-10-05T07:37:23Z</time>
      </trkpt>
      <trkpt lat="43.38931" lon="6.63629">
        <ele>155.7</ele>
        <time>2014-10-05T07:37:25Z</time>
      </trkpt>
      <trkpt lat="43.38933" lon="6.63635">
        <ele>156</ele>
        <time>2014-10-05T07:37:27Z</time>
      </trkpt>
      <trkpt lat="43.38935" lon="6.63641">
        <ele>156.3</ele>
        <time>2014-10-05T07:37:29Z</time>
      </trkpt>
      <trkpt lat="43.38936" lon="6.63648">
        <ele>156.4</ele>
        <time>2014-10-05T07:37:31Z</time>
      </trkpt>
      <trkpt lat="43.38936" lon="6.63655">
        <ele>156.5</ele>
        <time>2014-10-05T07:37:33Z</time>
      </trkpt>
      <trkpt lat="43.38936" lon="6.6366">
        <ele>156.6</ele>
        <time>2014-10-05T07:37:35Z</time>
      </trkpt>
      <trkpt lat="43.38937" lon="6.63666">
        <ele>156.8</ele>
        <time>2014-10-05T07:37:37Z</time>
      </trkpt>
      <trkpt lat="43.38937" lon="6.63672">
        <ele>156.9</ele>
        <time>2014-10-05T07:37:39Z</time>
      </trkpt>
      <trkpt lat="43.38938" lon="6.63678">
        <ele>157.1</ele>
        <time>2014-10-05T07:37:41Z</time>
      </trkpt>
      <trkpt lat="43.3894" lon="6.63683">
        <ele>157.5</ele>
        <time>2014-10-05T07:37:43Z</time>
      </trkpt>
      <trkpt lat="43.38941" lon="6.6369">
        <ele>157.7</ele>
        <time>2014-10-05T07:37:45Z</time>
      </trkpt>
      <trkpt lat="43.38943" lon="6.63696">
        <ele>158.1</ele>
        <time>2014-10-05T07:37:47Z</time>
      </trkpt>
      <trkpt lat="43.38945" lon="6.63702">
        <ele>158.6</ele>
        <time>2014-10-05T07:37:49Z</time>
      </trkpt>
      <trkpt lat="43.38948" lon="6.63707">
        <ele>159.2</ele>
        <time>2014-10-05T07:37:51Z</time>
      </trkpt>
      <trkpt lat="43.38951" lon="6.63711">
        <ele>159.8</ele>
        <time>2014-10-05T07:37:53Z</time>
      </trkpt>
      <trkpt lat="43.38955" lon="6.63715">
        <ele>160.4</ele>
        <time>2014-10-05T07:37:55Z</time>
      </trkpt>
      <trkpt lat="43.38957" lon="6.6372">
        <ele>160.8</ele>
        <time>2014-10-05T07:37:57Z</time>
      </trkpt>
      <trkpt lat="43.3896" lon="6.63725">
        <ele>161.1</ele>
        <time>2014-10-05T07:37:59Z</time>
      </trkpt>
      <trkpt lat="43.38962" lon="6.63727">
        <ele>161.2</ele>
        <time>2014-10-05T07:38:01Z</time>
      </trkpt>
      <trkpt lat="43.38967" lon="6.63728">
        <ele>161.5</ele>
        <time>2014-10-05T07:38:03Z</time>
      </trkpt>
      <trkpt lat="43.38971" lon="6.6373">
        <ele>161.7</ele>
        <time>2014-10-05T07:38:05Z</time>
      </trkpt>
      <trkpt lat="43.38975" lon="6.63731">
        <ele>162</ele>
        <time>2014-10-05T07:38:07Z</time>
      </trkpt>
      <trkpt lat="43.38979" lon="6.63733">
        <ele>162.3</ele>
        <time>2014-10-05T07:38:09Z</time>
      </trkpt>
      <trkpt lat="43.38984" lon="6.63734">
        <ele>162.7</ele>
        <time>2014-10-05T07:38:11Z</time>
      </trkpt>
      <trkpt lat="43.38988" lon="6.63737">
        <ele>163</ele>
        <time>2014-10-05T07:38:13Z</time>
      </trkpt>
      <trkpt lat="43.38992" lon="6.6374">
        <ele>163.4</ele>
        <time>2014-10-05T07:38:15Z</time>
      </trkpt>
      <trkpt lat="43.38996" lon="6.63743">
        <ele>163.9</ele>
        <time>2014-10-05T07:38:17Z</time>
      </trkpt>
      <trkpt lat="43.39" lon="6.63746">
        <ele>164.3</ele>
        <time>2014-10-05T07:38:19Z</time>
      </trkpt>
      <trkpt lat="43.39003" lon="6.6375">
        <ele>164.8</ele>
        <time>2014-10-05T07:38:21Z</time>
      </trkpt>
      <trkpt lat="43.39007" lon="6.63754">
        <ele>165.3</ele>
        <time>2014-10-05T07:38:23Z</time>
      </trkpt>
      <trkpt lat="43.3901" lon="6.63758">
        <ele>165.8</ele>
        <time>2014-10-05T07:38:25Z</time>
      </trkpt>
      <trkpt lat="43.39013" lon="6.63762">
        <ele>166.3</ele>
        <time>2014-10-05T07:38:27Z</time>
      </trkpt>
      <trkpt lat="43.39015" lon="6.63766">
        <ele>166.8</ele>
        <time>2014-10-05T07:38:29Z</time>
      </trkpt>
      <trkpt lat="43.39018" lon="6.6377">
        <ele>167.4</ele>
        <time>2014-10-05T07:38:31Z</time>
      </trkpt>
      <trkpt lat="43.39021" lon="6.63774">
        <ele>168</ele>
        <time>2014-10-05T07:38:33Z</time>
      </trkpt>
      <trkpt lat="43.39025" lon="6.63778">
        <ele>168.7</ele>
        <time>2014-10-05T07:38:35Z</time>
      </trkpt>
      <trkpt lat="43.39028" lon="6.63781">
        <ele>169.4</ele>
        <time>2014-10-05T07:38:37Z</time>
      </trkpt>
      <trkpt lat="43.39032" lon="6.63785">
        <ele>170.1</ele>
        <time>2014-10-05T07:38:39Z</time>
      </trkpt>
      <trkpt lat="43.39036" lon="6.63789">
        <ele>171</ele>
        <time>2014-10-05T07:38:41Z</time>
      </trkpt>
      <trkpt lat="43.39039" lon="6.63793">
        <ele>171.8</ele>
        <time>2014-10-05T07:38:43Z</time>
      </trkpt>
      <trkpt lat="43.39043" lon="6.63798">
        <ele>172.4</ele>
        <time>2014-10-05T07:38:45Z</time>
      </trkpt>
      <trkpt lat="43.39047" lon="6.63802">
        <ele>172.9</ele>
        <time>2014-10-05T07:38:47Z</time>
      </trkpt>
      <trkpt lat="43.39051" lon="6.63806">
        <ele>173.4</ele>
        <time>2014-10-05T07:38:49Z</time>
      </trkpt>
      <trkpt lat="43.39054" lon="6.63811">
        <ele>173.9</ele>
        <time>2014-10-05T07:38:51Z</time>
      </trkpt>
      <trkpt lat="43.39057" lon="6.63815">
        <ele>174.4</ele>
        <time>2014-10-05T07:38:53Z</time>
      </trkpt>
      <trkpt lat="43.3906" lon="6.6382">
        <ele>174.9</ele>
        <time>2014-10-05T07:38:55Z</time>
      </trkpt>
      <trkpt lat="43.39063" lon="6.63824">
        <ele>175.4</ele>
        <time>2014-10-05T07:38:57Z</time>
      </trkpt>
      <trkpt lat="43.39067" lon="6.63829">
        <ele>175.9</ele>
        <time>2014-10-05T07:38:59Z</time>
      </trkpt>
      <trkpt lat="43.3907" lon="6.63832">
        <ele>176.5</ele>
        <time>2014-10-05T07:39:01Z</time>
      </trkpt>
      <trkpt lat="43.39074" lon="6.63836">
        <ele>177</ele>
        <time>2014-10-05T07:39:03Z</time>
      </trkpt>
      <trkpt lat="43.39078" lon="6.63837">
        <ele>177.4</ele>
        <time>2014-10-05T07:39:05Z</time>
      </trkpt>
      <trkpt lat="43.39082" lon="6.63839">
        <ele>177.9</ele>
        <time>2014-10-05T07:39:07Z</time>
      </trkpt>
      <trkpt lat="43.39088" lon="6.63839">
        <ele>178.4</ele>
        <time>2014-10-05T07:39:09Z</time>
      </trkpt>
      <trkpt lat="43.39091" lon="6.63839">
        <ele>178.6</ele>
        <time>2014-10-05T07:39:10Z</time>
      </trkpt>
      <trkpt lat="43.39095" lon="6.63838">
        <ele>178.8</ele>
        <time>2014-10-05T07:39:11Z</time>
      </trkpt>
      <trkpt lat="43.39098" lon="6.63837">
        <ele>178.9</ele>
        <time>2014-10-05T07:39:12Z</time>
      </trkpt>
      <trkpt lat="43.39101" lon="6.63835">
        <ele>179</ele>
        <time>2014-10-05T07:39:13Z</time>
      </trkpt>
      <trkpt lat="43.39104" lon="6.63834">
        <ele>179</ele>
        <time>2014-10-05T07:39:14Z</time>
      </trkpt>
      <trkpt lat="43.39106" lon="6.63831">
        <ele>178.9</ele>
        <time>2014-10-05T07:39:15Z</time>
      </trkpt>
      <trkpt lat="43.39108" lon="6.63828">
        <ele>178.8</ele>
        <time>2014-10-05T07:39:16Z</time>
      </trkpt>
      <trkpt lat="43.3911" lon="6.63824">
        <ele>178.5</ele>
        <time>2014-10-05T07:39:17Z</time>
      </trkpt>
      <trkpt lat="43.39112" lon="6.63821">
        <ele>178.3</ele>
        <time>2014-10-05T07:39:18Z</time>
      </trkpt>
      <trkpt lat="43.39113" lon="6.63818">
        <ele>178.1</ele>
        <time>2014-10-05T07:39:19Z</time>
      </trkpt>
      <trkpt lat="43.39116" lon="6.63815">
        <ele>177.9</ele>
        <time>2014-10-05T07:39:20Z</time>
      </trkpt>
      <trkpt lat="43.39118" lon="6.63813">
        <ele>177.9</ele>
        <time>2014-10-05T07:39:21Z</time>
      </trkpt>
      <trkpt lat="43.3912" lon="6.63811">
        <ele>177.8</ele>
        <time>2014-10-05T07:39:22Z</time>
      </trkpt>
      <trkpt lat="43.39123" lon="6.6381">
        <ele>177.9</ele>
        <time>2014-10-05T07:39:23Z</time>
      </trkpt>
      <trkpt lat="43.39126" lon="6.6381">
        <ele>178.1</ele>
        <time>2014-10-05T07:39:24Z</time>
      </trkpt>
      <trkpt lat="43.39129" lon="6.6381">
        <ele>178.7</ele>
        <time>2014-10-05T07:39:25Z</time>
      </trkpt>
      <trkpt lat="43.39132" lon="6.63811">
        <ele>179.4</ele>
        <time>2014-10-05T07:39:26Z</time>
      </trkpt>
      <trkpt lat="43.39135" lon="6.63811">
        <ele>180</ele>
        <time>2014-10-05T07:39:27Z</time>
      </trkpt>
      <trkpt lat="43.39138" lon="6.63813">
        <ele>180.7</ele>
        <time>2014-10-05T07:39:28Z</time>
      </trkpt>
      <trkpt lat="43.39142" lon="6.63813">
        <ele>181.5</ele>
        <time>2014-10-05T07:39:29Z</time>
      </trkpt>
      <trkpt lat="43.39147" lon="6.63814">
        <ele>182.3</ele>
        <time>2014-10-05T07:39:30Z</time>
      </trkpt>
      <trkpt lat="43.39151" lon="6.63813">
        <ele>183.1</ele>
        <time>2014-10-05T07:39:31Z</time>
      </trkpt>
      <trkpt lat="43.39156" lon="6.63811">
        <ele>183.8</ele>
        <time>2014-10-05T07:39:32Z</time>
      </trkpt>
      <trkpt lat="43.3916" lon="6.6381">
        <ele>184.4</ele>
        <time>2014-10-05T07:39:33Z</time>
      </trkpt>
      <trkpt lat="43.39164" lon="6.63806">
        <ele>184.9</ele>
        <time>2014-10-05T07:39:34Z</time>
      </trkpt>
      <trkpt lat="43.39166" lon="6.63801">
        <ele>185</ele>
        <time>2014-10-05T07:39:35Z</time>
      </trkpt>
      <trkpt lat="43.39167" lon="6.63795">
        <ele>184.8</ele>
        <time>2014-10-05T07:39:36Z</time>
      </trkpt>
      <trkpt lat="43.39167" lon="6.63788">
        <ele>184.5</ele>
        <time>2014-10-05T07:39:37Z</time>
      </trkpt>
      <trkpt lat="43.39167" lon="6.63782">
        <ele>184.5</ele>
        <time>2014-10-05T07:39:38Z</time>
      </trkpt>
      <trkpt lat="43.39166" lon="6.63775">
        <ele>184.4</ele>
        <time>2014-10-05T07:39:39Z</time>
      </trkpt>
      <trkpt lat="43.39165" lon="6.63768">
        <ele>184.2</ele>
        <time>2014-10-05T07:39:40Z</time>
      </trkpt>
      <trkpt lat="43.39164" lon="6.63762">
        <ele>184</ele>
        <time>2014-10-05T07:39:41Z</time>
      </trkpt>
      <trkpt lat="43.39163" lon="6.63756">
        <ele>183.7</ele>
        <time>2014-10-05T07:39:42Z</time>
      </trkpt>
      <trkpt lat="43.39162" lon="6.63751">
        <ele>183.5</ele>
        <time>2014-10-05T07:39:43Z</time>
      </trkpt>
      <trkpt lat="43.39162" lon="6.63746">
        <ele>183.4</ele>
        <time>2014-10-05T07:39:44Z</time>
      </trkpt>
      <trkpt lat="43.39161" lon="6.63742">
        <ele>183.3</ele>
        <time>2014-10-05T07:39:45Z</time>
      </trkpt>
      <trkpt lat="43.3916" lon="6.63737">
        <ele>183</ele>
        <time>2014-10-05T07:39:46Z</time>
      </trkpt>
      <trkpt lat="43.39157" lon="6.63731">
        <ele>182.6</ele>
        <time>2014-10-05T07:39:47Z</time>
      </trkpt>
      <trkpt lat="43.39155" lon="6.63727">
        <ele>182.1</ele>
        <time>2014-10-05T07:39:48Z</time>
      </trkpt>
      <trkpt lat="43.39152" lon="6.63722">
        <ele>181.5</ele>
        <time>2014-10-05T07:39:49Z</time>
      </trkpt>
      <trkpt lat="43.39149" lon="6.63717">
        <ele>180.9</ele>
        <time>2014-10-05T07:39:50Z</time>
      </trkpt>
      <trkpt lat="43.39147" lon="6.63712">
        <ele>180.5</ele>
        <time>2014-10-05T07:39:51Z</time>
      </trkpt>
      <trkpt lat="43.39146" lon="6.63707">
        <ele>180.2</ele>
        <time>2014-10-05T07:39:52Z</time>
      </trkpt>
      <trkpt lat="43.39145" lon="6.63702">
        <ele>179.9</ele>
        <time>2014-10-05T07:39:53Z</time>
      </trkpt>
      <trkpt lat="43.39145" lon="6.63698">
        <ele>179.7</ele>
        <time>2014-10-05T07:39:54Z</time>
      </trkpt>
      <trkpt lat="43.39145" lon="6.63694">
        <ele>179.6</ele>
        <time>2014-10-05T07:39:55Z</time>
      </trkpt>
      <trkpt lat="43.39146" lon="6.6369">
        <ele>179.7</ele>
        <time>2014-10-05T07:39:56Z</time>
      </trkpt>
      <trkpt lat="43.39148" lon="6.63685">
        <ele>179.8</ele>
        <time>2014-10-05T07:39:57Z</time>
      </trkpt>
      <trkpt lat="43.3915" lon="6.63681">
        <ele>180.2</ele>
        <time>2014-10-05T07:39:58Z</time>
      </trkpt>
      <trkpt lat="43.39153" lon="6.63677">
        <ele>180.6</ele>
        <time>2014-10-05T07:39:59Z</time>
      </trkpt>
      <trkpt lat="43.39157" lon="6.63675">
        <ele>181.2</ele>
        <time>2014-10-05T07:40:00Z</time>
      </trkpt>
      <trkpt lat="43.3916" lon="6.63675">
        <ele>181.9</ele>
        <time>2014-10-05T07:40:01Z</time>
      </trkpt>
      <trkpt lat="43.39165" lon="6.63678">
        <ele>182.8</ele>
        <time>2014-10-05T07:40:03Z</time>
      </trkpt>
      <trkpt lat="43.39166" lon="6.63685">
        <ele>183.4</ele>
        <time>2014-10-05T07:40:05Z</time>
      </trkpt>
      <trkpt lat="43.39167" lon="6.63692">
        <ele>183.8</ele>
        <time>2014-10-05T07:40:07Z</time>
      </trkpt>
      <trkpt lat="43.39167" lon="6.63698">
        <ele>184.2</ele>
        <time>2014-10-05T07:40:09Z</time>
      </trkpt>
      <trkpt lat="43.39169" lon="6.63703">
        <ele>184.8</ele>
        <time>2014-10-05T07:40:11Z</time>
      </trkpt>
      <trkpt lat="43.39172" lon="6.63708">
        <ele>185.5</ele>
        <time>2014-10-05T07:40:13Z</time>
      </trkpt>
      <trkpt lat="43.39174" lon="6.63713">
        <ele>186</ele>
        <time>2014-10-05T07:40:15Z</time>
      </trkpt>
      <trkpt lat="43.39176" lon="6.63717">
        <ele>186.4</ele>
        <time>2014-10-05T07:40:17Z</time>
      </trkpt>
      <trkpt lat="43.39178" lon="6.63721">
        <ele>186.9</ele>
        <time>2014-10-05T07:40:19Z</time>
      </trkpt>
      <trkpt lat="43.3918" lon="6.63726">
        <ele>187.2</ele>
        <time>2014-10-05T07:40:21Z</time>
      </trkpt>
      <trkpt lat="43.39181" lon="6.6373">
        <ele>187.5</ele>
        <time>2014-10-05T07:40:23Z</time>
      </trkpt>
      <trkpt lat="43.39183" lon="6.63734">
        <ele>187.8</ele>
        <time>2014-10-05T07:40:25Z</time>
      </trkpt>
      <trkpt lat="43.39184" lon="6.63738">
        <ele>188.1</ele>
        <time>2014-10-05T07:40:27Z</time>
      </trkpt>
      <trkpt lat="43.39186" lon="6.63742">
        <ele>188.3</ele>
        <time>2014-10-05T07:40:29Z</time>
      </trkpt>
      <trkpt lat="43.39187" lon="6.63746">
        <ele>188.7</ele>
        <time>2014-10-05T07:40:31Z</time>
      </trkpt>
      <trkpt lat="43.39189" lon="6.6375">
        <ele>189</ele>
        <time>2014-10-05T07:40:33Z</time>
      </trkpt>
      <trkpt lat="43.3919" lon="6.63754">
        <ele>189.3</ele>
        <time>2014-10-05T07:40:35Z</time>
      </trkpt>
      <trkpt lat="43.39191" lon="6.63758">
        <ele>189.4</ele>
        <time>2014-10-05T07:40:37Z</time>
      </trkpt>
      <trkpt lat="43.39191" lon="6.63763">
        <ele>189.5</ele>
        <time>2014-10-05T07:40:39Z</time>
      </trkpt>
      <trkpt lat="43.39193" lon="6.63767">
        <ele>189.8</ele>
        <time>2014-10-05T07:40:41Z</time>
      </trkpt>
      <trkpt lat="43.39194" lon="6.63771">
        <ele>190</ele>
        <time>2014-10-05T07:40:43Z</time>
      </trkpt>
      <trkpt lat="43.39195" lon="6.63775">
        <ele>190.4</ele>
        <time>2014-10-05T07:40:45Z</time>
      </trkpt>
      <trkpt lat="43.39198" lon="6.6378">
        <ele>190.8</ele>
        <time>2014-10-05T07:40:47Z</time>
      </trkpt>
      <trkpt lat="43.392" lon="6.63784">
        <ele>191.2</ele>
        <time>2014-10-05T07:40:49Z</time>
      </trkpt>
      <trkpt lat="43.39202" lon="6.63787">
        <ele>191.7</ele>
        <time>2014-10-05T07:40:51Z</time>
      </trkpt>
      <trkpt lat="43.39205" lon="6.63791">
        <ele>192.3</ele>
        <time>2014-10-05T07:40:53Z</time>
      </trkpt>
      <trkpt lat="43.39208" lon="6.63794">
        <ele>192.9</ele>
        <time>2014-10-05T07:40:55Z</time>
      </trkpt>
      <trkpt lat="43.3921" lon="6.63797">
        <ele>193.9</ele>
        <time>2014-10-05T07:40:57Z</time>
      </trkpt>
      <trkpt lat="43.39214" lon="6.63801">
        <ele>195.1</ele>
        <time>2014-10-05T07:40:59Z</time>
      </trkpt>
      <trkpt lat="43.39215" lon="6.63805">
        <ele>195.7</ele>
        <time>2014-10-05T07:41:01Z</time>
      </trkpt>
      <trkpt lat="43.39216" lon="6.6381">
        <ele>196</ele>
        <time>2014-10-05T07:41:03Z</time>
      </trkpt>
      <trkpt lat="43.39216" lon="6.63814">
        <ele>196.2</ele>
        <time>2014-10-05T07:41:05Z</time>
      </trkpt>
      <trkpt lat="43.39216" lon="6.63819">
        <ele>196.5</ele>
        <time>2014-10-05T07:41:08Z</time>
      </trkpt>
      <trkpt lat="43.39217" lon="6.63823">
        <ele>196.8</ele>
        <time>2014-10-05T07:41:10Z</time>
      </trkpt>
      <trkpt lat="43.39219" lon="6.63828">
        <ele>197.3</ele>
        <time>2014-10-05T07:41:12Z</time>
      </trkpt>
      <trkpt lat="43.3922" lon="6.63834">
        <ele>198</ele>
        <time>2014-10-05T07:41:14Z</time>
      </trkpt>
      <trkpt lat="43.39222" lon="6.6384">
        <ele>198.7</ele>
        <time>2014-10-05T07:41:16Z</time>
      </trkpt>
      <trkpt lat="43.39223" lon="6.63846">
        <ele>199.2</ele>
        <time>2014-10-05T07:41:18Z</time>
      </trkpt>
      <trkpt lat="43.39224" lon="6.63852">
        <ele>199.6</ele>
        <time>2014-10-05T07:41:20Z</time>
      </trkpt>
      <trkpt lat="43.39226" lon="6.63857">
        <ele>200.1</ele>
        <time>2014-10-05T07:41:22Z</time>
      </trkpt>
      <trkpt lat="43.39227" lon="6.63863">
        <ele>200.6</ele>
        <time>2014-10-05T07:41:24Z</time>
      </trkpt>
      <trkpt lat="43.39229" lon="6.63869">
        <ele>201.1</ele>
        <time>2014-10-05T07:41:26Z</time>
      </trkpt>
      <trkpt lat="43.3923" lon="6.63874">
        <ele>201.4</ele>
        <time>2014-10-05T07:41:28Z</time>
      </trkpt>
      <trkpt lat="43.3923" lon="6.6388">
        <ele>201.9</ele>
        <time>2014-10-05T07:41:30Z</time>
      </trkpt>
      <trkpt lat="43.39228" lon="6.63885">
        <ele>202.1</ele>
        <time>2014-10-05T07:41:32Z</time>
      </trkpt>
      <trkpt lat="43.39227" lon="6.6389">
        <ele>202.1</ele>
        <time>2014-10-05T07:41:34Z</time>
      </trkpt>
      <trkpt lat="43.39225" lon="6.63893">
        <ele>202</ele>
        <time>2014-10-05T07:41:36Z</time>
      </trkpt>
      <trkpt lat="43.39222" lon="6.63897">
        <ele>201.7</ele>
        <time>2014-10-05T07:41:38Z</time>
      </trkpt>
      <trkpt lat="43.39219" lon="6.639">
        <ele>201.4</ele>
        <time>2014-10-05T07:41:40Z</time>
      </trkpt>
      <trkpt lat="43.39216" lon="6.63901">
        <ele>200.8</ele>
        <time>2014-10-05T07:41:42Z</time>
      </trkpt>
      <trkpt lat="43.39214" lon="6.63905">
        <ele>200.8</ele>
        <time>2014-10-05T07:41:44Z</time>
      </trkpt>
      <trkpt lat="43.39212" lon="6.6391">
        <ele>201.2</ele>
        <time>2014-10-05T07:41:46Z</time>
      </trkpt>
      <trkpt lat="43.39213" lon="6.63916">
        <ele>202.3</ele>
        <time>2014-10-05T07:41:48Z</time>
      </trkpt>
      <trkpt lat="43.39217" lon="6.63919">
        <ele>203.4</ele>
        <time>2014-10-05T07:41:50Z</time>
      </trkpt>
      <trkpt lat="43.3922" lon="6.63915">
        <ele>203.6</ele>
        <time>2014-10-05T07:41:52Z</time>
      </trkpt>
      <trkpt lat="43.39224" lon="6.63913">
        <ele>204.1</ele>
        <time>2014-10-05T07:41:54Z</time>
      </trkpt>
      <trkpt lat="43.39229" lon="6.63911">
        <ele>204.8</ele>
        <time>2014-10-05T07:41:56Z</time>
      </trkpt>
      <trkpt lat="43.39232" lon="6.63909">
        <ele>205.4</ele>
        <time>2014-10-05T07:41:58Z</time>
      </trkpt>
      <trkpt lat="43.39236" lon="6.63908">
        <ele>206</ele>
        <time>2014-10-05T07:42:00Z</time>
      </trkpt>
      <trkpt lat="43.3924" lon="6.63906">
        <ele>206.7</ele>
        <time>2014-10-05T07:42:02Z</time>
      </trkpt>
      <trkpt lat="43.39244" lon="6.63904">
        <ele>207.6</ele>
        <time>2014-10-05T07:42:04Z</time>
      </trkpt>
      <trkpt lat="43.39249" lon="6.63903">
        <ele>208.5</ele>
        <time>2014-10-05T07:42:06Z</time>
      </trkpt>
      <trkpt lat="43.39252" lon="6.63904">
        <ele>209.4</ele>
        <time>2014-10-05T07:42:08Z</time>
      </trkpt>
      <trkpt lat="43.39256" lon="6.63904">
        <ele>210.2</ele>
        <time>2014-10-05T07:42:10Z</time>
      </trkpt>
      <trkpt lat="43.39259" lon="6.63905">
        <ele>211</ele>
        <time>2014-10-05T07:42:12Z</time>
      </trkpt>
      <trkpt lat="43.39262" lon="6.63899">
        <ele>211.5</ele>
        <time>2014-10-05T07:42:59Z</time>
      </trkpt>
      <trkpt lat="43.39265" lon="6.63896">
        <ele>212.1</ele>
        <time>2014-10-05T07:43:01Z</time>
      </trkpt>
      <trkpt lat="43.39266" lon="6.63891">
        <ele>212.3</ele>
        <time>2014-10-05T07:43:03Z</time>
      </trkpt>
      <trkpt lat="43.39266" lon="6.63887">
        <ele>212.4</ele>
        <time>2014-10-05T07:43:05Z</time>
      </trkpt>
      <trkpt lat="43.39266" lon="6.63882">
        <ele>212.3</ele>
        <time>2014-10-05T07:43:07Z</time>
      </trkpt>
      <trkpt lat="43.39267" lon="6.63878">
        <ele>212.6</ele>
        <time>2014-10-05T07:43:09Z</time>
      </trkpt>
      <trkpt lat="43.3927" lon="6.63875">
        <ele>213.4</ele>
        <time>2014-10-05T07:43:11Z</time>
      </trkpt>
      <trkpt lat="43.39273" lon="6.63874">
        <ele>214.5</ele>
        <time>2014-10-05T07:43:13Z</time>
      </trkpt>
      <trkpt lat="43.39277" lon="6.63873">
        <ele>215.6</ele>
        <time>2014-10-05T07:43:15Z</time>
      </trkpt>
      <trkpt lat="43.3928" lon="6.63871">
        <ele>216.7</ele>
        <time>2014-10-05T07:43:17Z</time>
      </trkpt>
      <trkpt lat="43.39283" lon="6.63868">
        <ele>217.7</ele>
        <time>2014-10-05T07:43:19Z</time>
      </trkpt>
      <trkpt lat="43.39286" lon="6.63867">
        <ele>218.5</ele>
        <time>2014-10-05T07:43:21Z</time>
      </trkpt>
      <trkpt lat="43.39288" lon="6.63864">
        <ele>219.4</ele>
        <time>2014-10-05T07:43:23Z</time>
      </trkpt>
      <trkpt lat="43.3929" lon="6.63862">
        <ele>220.2</ele>
        <time>2014-10-05T07:43:25Z</time>
      </trkpt>
      <trkpt lat="43.39293" lon="6.63859">
        <ele>221.1</ele>
        <time>2014-10-05T07:43:28Z</time>
      </trkpt>
      <trkpt lat="43.39296" lon="6.63862">
        <ele>221.4</ele>
        <time>2014-10-05T07:43:31Z</time>
      </trkpt>
      <trkpt lat="43.39299" lon="6.63863">
        <ele>222</ele>
        <time>2014-10-05T07:43:34Z</time>
      </trkpt>
      <trkpt lat="43.39302" lon="6.6386">
        <ele>222.7</ele>
        <time>2014-10-05T07:43:38Z</time>
      </trkpt>
      <trkpt lat="43.39305" lon="6.63857">
        <ele>223.6</ele>
        <time>2014-10-05T07:43:41Z</time>
      </trkpt>
      <trkpt lat="43.39308" lon="6.6386">
        <ele>223.9</ele>
        <time>2014-10-05T07:43:44Z</time>
      </trkpt>
      <trkpt lat="43.39311" lon="6.63863">
        <ele>224.3</ele>
        <time>2014-10-05T07:43:46Z</time>
      </trkpt>
      <trkpt lat="43.39314" lon="6.63865">
        <ele>224.6</ele>
        <time>2014-10-05T07:43:48Z</time>
      </trkpt>
      <trkpt lat="43.39317" lon="6.63867">
        <ele>225</ele>
        <time>2014-10-05T07:43:50Z</time>
      </trkpt>
      <trkpt lat="43.39319" lon="6.63867">
        <ele>225.6</ele>
        <time>2014-10-05T07:43:52Z</time>
      </trkpt>
      <trkpt lat="43.39323" lon="6.63865">
        <ele>226.4</ele>
        <time>2014-10-05T07:43:55Z</time>
      </trkpt>
      <trkpt lat="43.39326" lon="6.63862">
        <ele>227.4</ele>
        <time>2014-10-05T07:43:58Z</time>
      </trkpt>
      <trkpt lat="43.39328" lon="6.63857">
        <ele>228.4</ele>
        <time>2014-10-05T07:44:01Z</time>
      </trkpt>
      <trkpt lat="43.3933" lon="6.63853">
        <ele>229.3</ele>
        <time>2014-10-05T07:44:04Z</time>
      </trkpt>
      <trkpt lat="43.39331" lon="6.63849">
        <ele>230</ele>
        <time>2014-10-05T07:44:06Z</time>
      </trkpt>
      <trkpt lat="43.39332" lon="6.63845">
        <ele>230.7</ele>
        <time>2014-10-05T07:44:08Z</time>
      </trkpt>
      <trkpt lat="43.39333" lon="6.63842">
        <ele>231.4</ele>
        <time>2014-10-05T07:44:10Z</time>
      </trkpt>
      <trkpt lat="43.39335" lon="6.6384">
        <ele>232.4</ele>
        <time>2014-10-05T07:44:13Z</time>
      </trkpt>
      <trkpt lat="43.39338" lon="6.63838">
        <ele>233.2</ele>
        <time>2014-10-05T07:44:16Z</time>
      </trkpt>
      <trkpt lat="43.3934" lon="6.63834">
        <ele>234.3</ele>
        <time>2014-10-05T07:44:19Z</time>
      </trkpt>
      <trkpt lat="43.39342" lon="6.63832">
        <ele>235.2</ele>
        <time>2014-10-05T07:44:21Z</time>
      </trkpt>
      <trkpt lat="43.39345" lon="6.63829">
        <ele>236.3</ele>
        <time>2014-10-05T07:44:23Z</time>
      </trkpt>
      <trkpt lat="43.39348" lon="6.63829">
        <ele>237.3</ele>
        <time>2014-10-05T07:44:25Z</time>
      </trkpt>
      <trkpt lat="43.39351" lon="6.63828">
        <ele>238.2</ele>
        <time>2014-10-05T07:44:27Z</time>
      </trkpt>
      <trkpt lat="43.39354" lon="6.63826">
        <ele>239.4</ele>
        <time>2014-10-05T07:44:29Z</time>
      </trkpt>
      <trkpt lat="43.39356" lon="6.63823">
        <ele>240.7</ele>
        <time>2014-10-05T07:44:31Z</time>
      </trkpt>
      <trkpt lat="43.39359" lon="6.63819">
        <ele>242.1</ele>
        <time>2014-10-05T07:44:33Z</time>
      </trkpt>
      <trkpt lat="43.3936" lon="6.63814">
        <ele>243.3</ele>
        <time>2014-10-05T07:44:35Z</time>
      </trkpt>
      <trkpt lat="43.3936" lon="6.6381">
        <ele>244.1</ele>
        <time>2014-10-05T07:44:37Z</time>
      </trkpt>
      <trkpt lat="43.39358" lon="6.63806">
        <ele>244.4</ele>
        <time>2014-10-05T07:44:39Z</time>
      </trkpt>
      <trkpt lat="43.39356" lon="6.63805">
        <ele>243.8</ele>
        <time>2014-10-05T07:44:41Z</time>
      </trkpt>
      <trkpt lat="43.39353" lon="6.63805">
        <ele>242.9</ele>
        <time>2014-10-05T07:44:43Z</time>
      </trkpt>
      <trkpt lat="43.3935" lon="6.63804">
        <ele>242.1</ele>
        <time>2014-10-05T07:44:45Z</time>
      </trkpt>
      <trkpt lat="43.39346" lon="6.63805">
        <ele>240.8</ele>
        <time>2014-10-05T07:44:47Z</time>
      </trkpt>
      <trkpt lat="43.39343" lon="6.63807">
        <ele>239.4</ele>
        <time>2014-10-05T07:44:48Z</time>
      </trkpt>
      <trkpt lat="43.39339" lon="6.63809">
        <ele>237.9</ele>
        <time>2014-10-05T07:44:50Z</time>
      </trkpt>
      <trkpt lat="43.39335" lon="6.63811">
        <ele>236.4</ele>
        <time>2014-10-05T07:44:52Z</time>
      </trkpt>
      <trkpt lat="43.39332" lon="6.63811">
        <ele>235.3</ele>
        <time>2014-10-05T07:44:54Z</time>
      </trkpt>
      <trkpt lat="43.39329" lon="6.63812">
        <ele>234.2</ele>
        <time>2014-10-05T07:44:57Z</time>
      </trkpt>
      <trkpt lat="43.39325" lon="6.63811">
        <ele>233.3</ele>
        <time>2014-10-05T07:45:02Z</time>
      </trkpt>
      <trkpt lat="43.39322" lon="6.63809">
        <ele>232.6</ele>
        <time>2014-10-05T07:45:07Z</time>
      </trkpt>
      <trkpt lat="43.3932" lon="6.63806">
        <ele>232.3</ele>
        <time>2014-10-05T07:45:11Z</time>
      </trkpt>
      <trkpt lat="43.39318" lon="6.63802">
        <ele>232.1</ele>
        <time>2014-10-05T07:45:15Z</time>
      </trkpt>
      <trkpt lat="43.39317" lon="6.63798">
        <ele>232</ele>
        <time>2014-10-05T07:45:18Z</time>
      </trkpt>
      <trkpt lat="43.39319" lon="6.63794">
        <ele>233.1</ele>
        <time>2014-10-05T07:45:21Z</time>
      </trkpt>
      <trkpt lat="43.39321" lon="6.63791">
        <ele>234.2</ele>
        <time>2014-10-05T07:45:24Z</time>
      </trkpt>
      <trkpt lat="43.39323" lon="6.63787">
        <ele>234.7</ele>
        <time>2014-10-05T07:45:27Z</time>
      </trkpt>
      <trkpt lat="43.39326" lon="6.63783">
        <ele>235.3</ele>
        <time>2014-10-05T07:45:30Z</time>
      </trkpt>
      <trkpt lat="43.39328" lon="6.63781">
        <ele>236.1</ele>
        <time>2014-10-05T07:45:33Z</time>
      </trkpt>
      <trkpt lat="43.39331" lon="6.63779">
        <ele>237</ele>
        <time>2014-10-05T07:45:36Z</time>
      </trkpt>
      <trkpt lat="43.39334" lon="6.63777">
        <ele>237.9</ele>
        <time>2014-10-05T07:45:39Z</time>
      </trkpt>
      <trkpt lat="43.39337" lon="6.63775">
        <ele>238.9</ele>
        <time>2014-10-05T07:45:42Z</time>
      </trkpt>
      <trkpt lat="43.39339" lon="6.63772">
        <ele>239.9</ele>
        <time>2014-10-05T07:45:45Z</time>
      </trkpt>
      <trkpt lat="43.39341" lon="6.6377">
        <ele>240.4</ele>
        <time>2014-10-05T07:45:48Z</time>
      </trkpt>
      <trkpt lat="43.39344" lon="6.63766">
        <ele>241.2</ele>
        <time>2014-10-05T07:45:52Z</time>
      </trkpt>
      <trkpt lat="43.39345" lon="6.63761">
        <ele>241.4</ele>
        <time>2014-10-05T07:45:55Z</time>
      </trkpt>
      <trkpt lat="43.39346" lon="6.63757">
        <ele>241.8</ele>
        <time>2014-10-05T07:45:58Z</time>
      </trkpt>
      <trkpt lat="43.39349" lon="6.63753">
        <ele>242.9</ele>
        <time>2014-10-05T07:46:01Z</time>
      </trkpt>
      <trkpt lat="43.39352" lon="6.63752">
        <ele>243.9</ele>
        <time>2014-10-05T07:46:03Z</time>
      </trkpt>
      <trkpt lat="43.39356" lon="6.6375">
        <ele>245.6</ele>
        <time>2014-10-05T07:46:06Z</time>
      </trkpt>
      <trkpt lat="43.39359" lon="6.63749">
        <ele>246.7</ele>
        <time>2014-10-05T07:46:08Z</time>
      </trkpt>
      <trkpt lat="43.39362" lon="6.63749">
        <ele>248</ele>
        <time>2014-10-05T07:46:10Z</time>
      </trkpt>
      <trkpt lat="43.39365" lon="6.63748">
        <ele>249.1</ele>
        <time>2014-10-05T07:46:12Z</time>
      </trkpt>
      <trkpt lat="43.39369" lon="6.63748">
        <ele>250.5</ele>
        <time>2014-10-05T07:46:15Z</time>
      </trkpt>
      <trkpt lat="43.39372" lon="6.63746">
        <ele>251.9</ele>
        <time>2014-10-05T07:46:18Z</time>
      </trkpt>
      <trkpt lat="43.39375" lon="6.63745">
        <ele>253</ele>
        <time>2014-10-05T07:46:20Z</time>
      </trkpt>
      <trkpt lat="43.39378" lon="6.63743">
        <ele>253.6</ele>
        <time>2014-10-05T07:46:22Z</time>
      </trkpt>
      <trkpt lat="43.39381" lon="6.63742">
        <ele>254.2</ele>
        <time>2014-10-05T07:46:25Z</time>
      </trkpt>
      <trkpt lat="43.39384" lon="6.63742">
        <ele>254.9</ele>
        <time>2014-10-05T07:46:28Z</time>
      </trkpt>
      <trkpt lat="43.39388" lon="6.63742">
        <ele>255.5</ele>
        <time>2014-10-05T07:46:31Z</time>
      </trkpt>
      <trkpt lat="43.3939" lon="6.6374">
        <ele>256.1</ele>
        <time>2014-10-05T07:46:34Z</time>
      </trkpt>
      <trkpt lat="43.39391" lon="6.63737">
        <ele>256.4</ele>
        <time>2014-10-05T07:46:37Z</time>
      </trkpt>
      <trkpt lat="43.39394" lon="6.63734">
        <ele>257</ele>
        <time>2014-10-05T07:46:41Z</time>
      </trkpt>
      <trkpt lat="43.39396" lon="6.63734">
        <ele>257.7</ele>
        <time>2014-10-05T07:46:45Z</time>
      </trkpt>
      <trkpt lat="43.39399" lon="6.63737">
        <ele>258.1</ele>
        <time>2014-10-05T07:46:48Z</time>
      </trkpt>
      <trkpt lat="43.39403" lon="6.6374">
        <ele>258.6</ele>
        <time>2014-10-05T07:46:51Z</time>
      </trkpt>
      <trkpt lat="43.39405" lon="6.63739">
        <ele>259.2</ele>
        <time>2014-10-05T07:46:53Z</time>
      </trkpt>
      <trkpt lat="43.39408" lon="6.63736">
        <ele>259.9</ele>
        <time>2014-10-05T07:46:56Z</time>
      </trkpt>
      <trkpt lat="43.39409" lon="6.63731">
        <ele>260.6</ele>
        <time>2014-10-05T07:46:59Z</time>
      </trkpt>
      <trkpt lat="43.39412" lon="6.63728">
        <ele>261.4</ele>
        <time>2014-10-05T07:47:02Z</time>
      </trkpt>
      <trkpt lat="43.39414" lon="6.63726">
        <ele>262.2</ele>
        <time>2014-10-05T07:47:04Z</time>
      </trkpt>
      <trkpt lat="43.39417" lon="6.63724">
        <ele>263</ele>
        <time>2014-10-05T07:47:06Z</time>
      </trkpt>
      <trkpt lat="43.39419" lon="6.63722">
        <ele>263.9</ele>
        <time>2014-10-05T07:47:08Z</time>
      </trkpt>
      <trkpt lat="43.39421" lon="6.63718">
        <ele>264.7</ele>
        <time>2014-10-05T07:47:11Z</time>
      </trkpt>
      <trkpt lat="43.39423" lon="6.63714">
        <ele>265.6</ele>
        <time>2014-10-05T07:47:14Z</time>
      </trkpt>
      <trkpt lat="43.39426" lon="6.6371">
        <ele>266.8</ele>
        <time>2014-10-05T07:47:17Z</time>
      </trkpt>
      <trkpt lat="43.39427" lon="6.63707">
        <ele>267.5</ele>
        <time>2014-10-05T07:47:19Z</time>
      </trkpt>
      <trkpt lat="43.39428" lon="6.63702">
        <ele>267.7</ele>
        <time>2014-10-05T07:47:21Z</time>
      </trkpt>
      <trkpt lat="43.39428" lon="6.63698">
        <ele>268</ele>
        <time>2014-10-05T07:47:23Z</time>
      </trkpt>
      <trkpt lat="43.39428" lon="6.63695">
        <ele>268.1</ele>
        <time>2014-10-05T07:47:25Z</time>
      </trkpt>
      <trkpt lat="43.39428" lon="6.63689">
        <ele>268.2</ele>
        <time>2014-10-05T07:47:28Z</time>
      </trkpt>
      <trkpt lat="43.39428" lon="6.63685">
        <ele>268.4</ele>
        <time>2014-10-05T07:47:31Z</time>
      </trkpt>
      <trkpt lat="43.39427" lon="6.6368">
        <ele>268.4</ele>
        <time>2014-10-05T07:47:34Z</time>
      </trkpt>
      <trkpt lat="43.39427" lon="6.63677">
        <ele>268.5</ele>
        <time>2014-10-05T07:47:37Z</time>
      </trkpt>
      <trkpt lat="43.39426" lon="6.63672">
        <ele>268.2</ele>
        <time>2014-10-05T07:47:40Z</time>
      </trkpt>
      <trkpt lat="43.39424" lon="6.63669">
        <ele>267.7</ele>
        <time>2014-10-05T07:47:43Z</time>
      </trkpt>
      <trkpt lat="43.39424" lon="6.63663">
        <ele>267.7</ele>
        <time>2014-10-05T07:47:46Z</time>
      </trkpt>
      <trkpt lat="43.39422" lon="6.63659">
        <ele>267.1</ele>
        <time>2014-10-05T07:47:49Z</time>
      </trkpt>
      <trkpt lat="43.3942" lon="6.63656">
        <ele>266.5</ele>
        <time>2014-10-05T07:47:51Z</time>
      </trkpt>
      <trkpt lat="43.39417" lon="6.63654">
        <ele>265.5</ele>
        <time>2014-10-05T07:47:54Z</time>
      </trkpt>
      <trkpt lat="43.39419" lon="6.63653">
        <ele>266.4</ele>
        <time>2014-10-05T07:47:56Z</time>
      </trkpt>
      <trkpt lat="43.39422" lon="6.63652">
        <ele>267.5</ele>
        <time>2014-10-05T07:47:58Z</time>
      </trkpt>
      <trkpt lat="43.39424" lon="6.6365">
        <ele>268.4</ele>
        <time>2014-10-05T07:48:00Z</time>
      </trkpt>
      <trkpt lat="43.39427" lon="6.63647">
        <ele>269.3</ele>
        <time>2014-10-05T07:48:02Z</time>
      </trkpt>
      <trkpt lat="43.39429" lon="6.63644">
        <ele>270.3</ele>
        <time>2014-10-05T07:48:05Z</time>
      </trkpt>
      <trkpt lat="43.3943" lon="6.63639">
        <ele>271</ele>
        <time>2014-10-05T07:48:08Z</time>
      </trkpt>
      <trkpt lat="43.39432" lon="6.63634">
        <ele>271.8</ele>
        <time>2014-10-05T07:48:11Z</time>
      </trkpt>
      <trkpt lat="43.39433" lon="6.63629">
        <ele>272.5</ele>
        <time>2014-10-05T07:48:13Z</time>
      </trkpt>
      <trkpt lat="43.39435" lon="6.63625">
        <ele>273.5</ele>
        <time>2014-10-05T07:48:15Z</time>
      </trkpt>
      <trkpt lat="43.39437" lon="6.63622">
        <ele>274.3</ele>
        <time>2014-10-05T07:48:17Z</time>
      </trkpt>
      <trkpt lat="43.39439" lon="6.63619">
        <ele>275.1</ele>
        <time>2014-10-05T07:48:19Z</time>
      </trkpt>
      <trkpt lat="43.39442" lon="6.63615">
        <ele>276.2</ele>
        <time>2014-10-05T07:48:22Z</time>
      </trkpt>
      <trkpt lat="43.39444" lon="6.63612">
        <ele>276.9</ele>
        <time>2014-10-05T07:48:25Z</time>
      </trkpt>
      <trkpt lat="43.39446" lon="6.63608">
        <ele>277.9</ele>
        <time>2014-10-05T07:48:29Z</time>
      </trkpt>
      <trkpt lat="43.39449" lon="6.63605">
        <ele>278.9</ele>
        <time>2014-10-05T07:48:33Z</time>
      </trkpt>
      <trkpt lat="43.3945" lon="6.63601">
        <ele>279.4</ele>
        <time>2014-10-05T07:48:36Z</time>
      </trkpt>
      <trkpt lat="43.39453" lon="6.63598">
        <ele>280.5</ele>
        <time>2014-10-05T07:48:39Z</time>
      </trkpt>
      <trkpt lat="43.39456" lon="6.63598">
        <ele>281.9</ele>
        <time>2014-10-05T07:48:42Z</time>
      </trkpt>
      <trkpt lat="43.39459" lon="6.63597">
        <ele>282.9</ele>
        <time>2014-10-05T07:48:45Z</time>
      </trkpt>
      <trkpt lat="43.39462" lon="6.63596">
        <ele>283.5</ele>
        <time>2014-10-05T07:48:48Z</time>
      </trkpt>
      <trkpt lat="43.39467" lon="6.63591">
        <ele>284.3</ele>
        <time>2014-10-05T07:48:51Z</time>
      </trkpt>
      <trkpt lat="43.39469" lon="6.63588">
        <ele>284.8</ele>
        <time>2014-10-05T07:48:53Z</time>
      </trkpt>
      <trkpt lat="43.39471" lon="6.63586">
        <ele>285.3</ele>
        <time>2014-10-05T07:48:57Z</time>
      </trkpt>
      <trkpt lat="43.39474" lon="6.63585">
        <ele>285.9</ele>
        <time>2014-10-05T07:49:00Z</time>
      </trkpt>
      <trkpt lat="43.39477" lon="6.63583">
        <ele>286.6</ele>
        <time>2014-10-05T07:49:03Z</time>
      </trkpt>
      <trkpt lat="43.39478" lon="6.63579">
        <ele>286.9</ele>
        <time>2014-10-05T07:49:07Z</time>
      </trkpt>
      <trkpt lat="43.3948" lon="6.63576">
        <ele>287.4</ele>
        <time>2014-10-05T07:49:10Z</time>
      </trkpt>
      <trkpt lat="43.39484" lon="6.63573">
        <ele>288.3</ele>
        <time>2014-10-05T07:49:13Z</time>
      </trkpt>
      <trkpt lat="43.39486" lon="6.6357">
        <ele>288.8</ele>
        <time>2014-10-05T07:49:15Z</time>
      </trkpt>
      <trkpt lat="43.39489" lon="6.63567">
        <ele>289.5</ele>
        <time>2014-10-05T07:49:18Z</time>
      </trkpt>
      <trkpt lat="43.39492" lon="6.63566">
        <ele>290.3</ele>
        <time>2014-10-05T07:49:21Z</time>
      </trkpt>
      <trkpt lat="43.39495" lon="6.63565">
        <ele>291.2</ele>
        <time>2014-10-05T07:49:24Z</time>
      </trkpt>
      <trkpt lat="43.39498" lon="6.63563">
        <ele>291.9</ele>
        <time>2014-10-05T07:49:26Z</time>
      </trkpt>
      <trkpt lat="43.39501" lon="6.63562">
        <ele>292.6</ele>
        <time>2014-10-05T07:49:28Z</time>
      </trkpt>
      <trkpt lat="43.39504" lon="6.6356">
        <ele>293.4</ele>
        <time>2014-10-05T07:49:30Z</time>
      </trkpt>
      <trkpt lat="43.39507" lon="6.63558">
        <ele>294.2</ele>
        <time>2014-10-05T07:49:32Z</time>
      </trkpt>
      <trkpt lat="43.39509" lon="6.63556">
        <ele>294.9</ele>
        <time>2014-10-05T07:49:34Z</time>
      </trkpt>
      <trkpt lat="43.39513" lon="6.63554">
        <ele>295.8</ele>
        <time>2014-10-05T07:49:37Z</time>
      </trkpt>
      <trkpt lat="43.39515" lon="6.63555">
        <ele>296.5</ele>
        <time>2014-10-05T07:49:44Z</time>
      </trkpt>
      <trkpt lat="43.39518" lon="6.63553">
        <ele>297.3</ele>
        <time>2014-10-05T07:49:48Z</time>
      </trkpt>
      <trkpt lat="43.39523" lon="6.63551">
        <ele>298.5</ele>
        <time>2014-10-05T07:49:51Z</time>
      </trkpt>
      <trkpt lat="43.39527" lon="6.6355">
        <ele>299.6</ele>
        <time>2014-10-05T07:49:53Z</time>
      </trkpt>
      <trkpt lat="43.3953" lon="6.63547">
        <ele>300.7</ele>
        <time>2014-10-05T07:49:55Z</time>
      </trkpt>
      <trkpt lat="43.39534" lon="6.63545">
        <ele>301.7</ele>
        <time>2014-10-05T07:49:57Z</time>
      </trkpt>
      <trkpt lat="43.39537" lon="6.63542">
        <ele>302.7</ele>
        <time>2014-10-05T07:49:59Z</time>
      </trkpt>
      <trkpt lat="43.3954" lon="6.63541">
        <ele>303.2</ele>
        <time>2014-10-05T07:50:01Z</time>
      </trkpt>
      <trkpt lat="43.39542" lon="6.63539">
        <ele>303.5</ele>
        <time>2014-10-05T07:50:03Z</time>
      </trkpt>
      <trkpt lat="43.39545" lon="6.63537">
        <ele>303.7</ele>
        <time>2014-10-05T07:50:06Z</time>
      </trkpt>
      <trkpt lat="43.39548" lon="6.63535">
        <ele>303.9</ele>
        <time>2014-10-05T07:50:09Z</time>
      </trkpt>
      <trkpt lat="43.39551" lon="6.63533">
        <ele>304.3</ele>
        <time>2014-10-05T07:50:13Z</time>
      </trkpt>
      <trkpt lat="43.39555" lon="6.63533">
        <ele>304.9</ele>
        <time>2014-10-05T07:50:16Z</time>
      </trkpt>
      <trkpt lat="43.39558" lon="6.63531">
        <ele>305.2</ele>
        <time>2014-10-05T07:50:19Z</time>
      </trkpt>
      <trkpt lat="43.39561" lon="6.6353">
        <ele>305.8</ele>
        <time>2014-10-05T07:50:23Z</time>
      </trkpt>
      <trkpt lat="43.39564" lon="6.63532">
        <ele>306.9</ele>
        <time>2014-10-05T07:50:27Z</time>
      </trkpt>
      <trkpt lat="43.39562" lon="6.63536">
        <ele>307.3</ele>
        <time>2014-10-05T07:50:31Z</time>
      </trkpt>
      <trkpt lat="43.3956" lon="6.63534">
        <ele>306.3</ele>
        <time>2014-10-05T07:50:34Z</time>
      </trkpt>
      <trkpt lat="43.39565" lon="6.63528">
        <ele>306.3</ele>
        <time>2014-10-05T07:53:07Z</time>
      </trkpt>
      <trkpt lat="43.39568" lon="6.63528">
        <ele>307</ele>
        <time>2014-10-05T07:53:09Z</time>
      </trkpt>
      <trkpt lat="43.39571" lon="6.63528">
        <ele>307.7</ele>
        <time>2014-10-05T07:53:11Z</time>
      </trkpt>
      <trkpt lat="43.39575" lon="6.63527">
        <ele>308.4</ele>
        <time>2014-10-05T07:53:14Z</time>
      </trkpt>
      <trkpt lat="43.39578" lon="6.63524">
        <ele>308.6</ele>
        <time>2014-10-05T07:53:17Z</time>
      </trkpt>
      <trkpt lat="43.39581" lon="6.63523">
        <ele>309.1</ele>
        <time>2014-10-05T07:53:20Z</time>
      </trkpt>
      <trkpt lat="43.39585" lon="6.63525">
        <ele>310.3</ele>
        <time>2014-10-05T07:53:23Z</time>
      </trkpt>
      <trkpt lat="43.39588" lon="6.63527">
        <ele>311.4</ele>
        <time>2014-10-05T07:53:26Z</time>
      </trkpt>
      <trkpt lat="43.39591" lon="6.63529">
        <ele>312.4</ele>
        <time>2014-10-05T07:53:29Z</time>
      </trkpt>
      <trkpt lat="43.39594" lon="6.63529">
        <ele>313.2</ele>
        <time>2014-10-05T07:53:32Z</time>
      </trkpt>
      <trkpt lat="43.39597" lon="6.63529">
        <ele>313.7</ele>
        <time>2014-10-05T07:53:34Z</time>
      </trkpt>
      <trkpt lat="43.396" lon="6.63528">
        <ele>314.3</ele>
        <time>2014-10-05T07:53:36Z</time>
      </trkpt>
      <trkpt lat="43.39602" lon="6.63526">
        <ele>314.6</ele>
        <time>2014-10-05T07:53:38Z</time>
      </trkpt>
      <trkpt lat="43.39604" lon="6.63523">
        <ele>314.4</ele>
        <time>2014-10-05T07:53:40Z</time>
      </trkpt>
      <trkpt lat="43.39607" lon="6.63522">
        <ele>315</ele>
        <time>2014-10-05T07:53:52Z</time>
      </trkpt>
      <trkpt lat="43.39609" lon="6.6352">
        <ele>315.4</ele>
        <time>2014-10-05T07:54:02Z</time>
      </trkpt>
      <trkpt lat="43.39611" lon="6.63517">
        <ele>315.2</ele>
        <time>2014-10-05T07:54:18Z</time>
      </trkpt>
      <trkpt lat="43.39611" lon="6.63513">
        <ele>314.8</ele>
        <time>2014-10-05T07:54:25Z</time>
      </trkpt>
      <trkpt lat="43.39615" lon="6.63512">
        <ele>315.4</ele>
        <time>2014-10-05T07:54:34Z</time>
      </trkpt>
      <trkpt lat="43.39618" lon="6.63508">
        <ele>315.8</ele>
        <time>2014-10-05T07:54:36Z</time>
      </trkpt>
      <trkpt lat="43.39621" lon="6.63504">
        <ele>316</ele>
        <time>2014-10-05T07:54:38Z</time>
      </trkpt>
      <trkpt lat="43.39623" lon="6.63501">
        <ele>316.1</ele>
        <time>2014-10-05T07:54:40Z</time>
      </trkpt>
      <trkpt lat="43.39625" lon="6.63497">
        <ele>316.2</ele>
        <time>2014-10-05T07:54:42Z</time>
      </trkpt>
      <trkpt lat="43.39628" lon="6.63494">
        <ele>316.3</ele>
        <time>2014-10-05T07:54:44Z</time>
      </trkpt>
      <trkpt lat="43.3963" lon="6.63491">
        <ele>316.5</ele>
        <time>2014-10-05T07:54:46Z</time>
      </trkpt>
      <trkpt lat="43.39633" lon="6.63489">
        <ele>316.9</ele>
        <time>2014-10-05T07:54:48Z</time>
      </trkpt>
      <trkpt lat="43.39636" lon="6.63487">
        <ele>317.3</ele>
        <time>2014-10-05T07:54:50Z</time>
      </trkpt>
      <trkpt lat="43.39638" lon="6.63484">
        <ele>317.6</ele>
        <time>2014-10-05T07:54:52Z</time>
      </trkpt>
      <trkpt lat="43.39639" lon="6.63481">
        <ele>317.5</ele>
        <time>2014-10-05T07:54:54Z</time>
      </trkpt>
      <trkpt lat="43.3964" lon="6.63477">
        <ele>317.3</ele>
        <time>2014-10-05T07:54:57Z</time>
      </trkpt>
      <trkpt lat="43.39642" lon="6.63474">
        <ele>317.6</ele>
        <time>2014-10-05T07:55:01Z</time>
      </trkpt>
      <trkpt lat="43.39645" lon="6.6347">
        <ele>317.9</ele>
        <time>2014-10-05T07:55:04Z</time>
      </trkpt>
      <trkpt lat="43.39647" lon="6.63466">
        <ele>318.2</ele>
        <time>2014-10-05T07:55:06Z</time>
      </trkpt>
      <trkpt lat="43.39651" lon="6.63463">
        <ele>318.8</ele>
        <time>2014-10-05T07:55:08Z</time>
      </trkpt>
      <trkpt lat="43.39653" lon="6.63461">
        <ele>319.4</ele>
        <time>2014-10-05T07:55:10Z</time>
      </trkpt>
      <trkpt lat="43.39656" lon="6.63459">
        <ele>320</ele>
        <time>2014-10-05T07:55:12Z</time>
      </trkpt>
      <trkpt lat="43.39659" lon="6.63457">
        <ele>320.5</ele>
        <time>2014-10-05T07:55:14Z</time>
      </trkpt>
      <trkpt lat="43.39662" lon="6.63456">
        <ele>321.1</ele>
        <time>2014-10-05T07:55:16Z</time>
      </trkpt>
      <trkpt lat="43.39665" lon="6.63455">
        <ele>321.8</ele>
        <time>2014-10-05T07:55:18Z</time>
      </trkpt>
      <trkpt lat="43.39668" lon="6.63455">
        <ele>322.5</ele>
        <time>2014-10-05T07:55:20Z</time>
      </trkpt>
      <trkpt lat="43.39671" lon="6.63453">
        <ele>323.4</ele>
        <time>2014-10-05T07:55:23Z</time>
      </trkpt>
      <trkpt lat="43.39675" lon="6.63451">
        <ele>324</ele>
        <time>2014-10-05T07:55:26Z</time>
      </trkpt>
      <trkpt lat="43.39678" lon="6.6345">
        <ele>324.8</ele>
        <time>2014-10-05T07:55:29Z</time>
      </trkpt>
      <trkpt lat="43.39681" lon="6.63447">
        <ele>325.1</ele>
        <time>2014-10-05T07:55:32Z</time>
      </trkpt>
      <trkpt lat="43.39684" lon="6.63443">
        <ele>325.2</ele>
        <time>2014-10-05T07:55:35Z</time>
      </trkpt>
      <trkpt lat="43.39687" lon="6.6344">
        <ele>325.5</ele>
        <time>2014-10-05T07:55:37Z</time>
      </trkpt>
      <trkpt lat="43.3969" lon="6.63436">
        <ele>325.8</ele>
        <time>2014-10-05T07:55:39Z</time>
      </trkpt>
      <trkpt lat="43.39692" lon="6.63432">
        <ele>326</ele>
        <time>2014-10-05T07:55:41Z</time>
      </trkpt>
      <trkpt lat="43.39695" lon="6.63428">
        <ele>326.4</ele>
        <time>2014-10-05T07:55:43Z</time>
      </trkpt>
      <trkpt lat="43.39698" lon="6.63425">
        <ele>326.9</ele>
        <time>2014-10-05T07:55:45Z</time>
      </trkpt>
      <trkpt lat="43.39702" lon="6.63422">
        <ele>327.5</ele>
        <time>2014-10-05T07:55:47Z</time>
      </trkpt>
      <trkpt lat="43.39705" lon="6.63419">
        <ele>328.1</ele>
        <time>2014-10-05T07:55:49Z</time>
      </trkpt>
      <trkpt lat="43.39708" lon="6.63416">
        <ele>328.9</ele>
        <time>2014-10-05T07:55:51Z</time>
      </trkpt>
      <trkpt lat="43.39712" lon="6.63415">
        <ele>329.5</ele>
        <time>2014-10-05T07:55:53Z</time>
      </trkpt>
      <trkpt lat="43.39715" lon="6.63413">
        <ele>330.1</ele>
        <time>2014-10-05T07:55:55Z</time>
      </trkpt>
      <trkpt lat="43.39718" lon="6.63411">
        <ele>330.6</ele>
        <time>2014-10-05T07:55:57Z</time>
      </trkpt>
      <trkpt lat="43.3972" lon="6.63408">
        <ele>331</ele>
        <time>2014-10-05T07:55:59Z</time>
      </trkpt>
      <trkpt lat="43.39723" lon="6.63406">
        <ele>331.4</ele>
        <time>2014-10-05T07:56:01Z</time>
      </trkpt>
      <trkpt lat="43.39725" lon="6.63403">
        <ele>331.8</ele>
        <time>2014-10-05T07:56:03Z</time>
      </trkpt>
      <trkpt lat="43.39728" lon="6.63401">
        <ele>332.3</ele>
        <time>2014-10-05T07:56:05Z</time>
      </trkpt>
      <trkpt lat="43.3973" lon="6.63398">
        <ele>332.6</ele>
        <time>2014-10-05T07:56:07Z</time>
      </trkpt>
      <trkpt lat="43.39731" lon="6.63394">
        <ele>332.6</ele>
        <time>2014-10-05T07:56:09Z</time>
      </trkpt>
      <trkpt lat="43.39732" lon="6.6339">
        <ele>332.6</ele>
        <time>2014-10-05T07:56:11Z</time>
      </trkpt>
      <trkpt lat="43.39733" lon="6.63386">
        <ele>332.5</ele>
        <time>2014-10-05T07:56:13Z</time>
      </trkpt>
      <trkpt lat="43.39733" lon="6.63381">
        <ele>332.2</ele>
        <time>2014-10-05T07:56:15Z</time>
      </trkpt>
      <trkpt lat="43.39733" lon="6.63377">
        <ele>331.6</ele>
        <time>2014-10-05T07:56:17Z</time>
      </trkpt>
      <trkpt lat="43.39732" lon="6.63373">
        <ele>330.9</ele>
        <time>2014-10-05T07:56:19Z</time>
      </trkpt>
      <trkpt lat="43.39734" lon="6.63369">
        <ele>331</ele>
        <time>2014-10-05T07:56:23Z</time>
      </trkpt>
      <trkpt lat="43.39735" lon="6.63366">
        <ele>331.1</ele>
        <time>2014-10-05T07:56:25Z</time>
      </trkpt>
      <trkpt lat="43.39736" lon="6.63362">
        <ele>330.6</ele>
        <time>2014-10-05T07:56:27Z</time>
      </trkpt>
      <trkpt lat="43.39735" lon="6.63365">
        <ele>330.6</ele>
        <time>2014-10-05T07:56:31Z</time>
      </trkpt>
      <trkpt lat="43.39737" lon="6.6337">
        <ele>332.3</ele>
        <time>2014-10-05T07:56:33Z</time>
      </trkpt>
      <trkpt lat="43.39739" lon="6.63376">
        <ele>333.7</ele>
        <time>2014-10-05T07:56:35Z</time>
      </trkpt>
      <trkpt lat="43.39739" lon="6.63379">
        <ele>333.8</ele>
        <time>2014-10-05T07:56:37Z</time>
      </trkpt>
      <trkpt lat="43.39742" lon="6.63383">
        <ele>335</ele>
        <time>2014-10-05T07:56:40Z</time>
      </trkpt>
      <trkpt lat="43.39743" lon="6.63386">
        <ele>335.6</ele>
        <time>2014-10-05T07:56:42Z</time>
      </trkpt>
      <trkpt lat="43.39739" lon="6.63386">
        <ele>334.4</ele>
        <time>2014-10-05T07:56:45Z</time>
      </trkpt>
      <trkpt lat="43.39737" lon="6.63382">
        <ele>333.5</ele>
        <time>2014-10-05T07:56:47Z</time>
      </trkpt>
      <trkpt lat="43.39736" lon="6.63379">
        <ele>332.7</ele>
        <time>2014-10-05T07:56:49Z</time>
      </trkpt>
      <trkpt lat="43.39734" lon="6.63374">
        <ele>331.8</ele>
        <time>2014-10-05T07:56:52Z</time>
      </trkpt>
      <trkpt lat="43.39733" lon="6.6337">
        <ele>330.7</ele>
        <time>2014-10-05T07:58:08Z</time>
      </trkpt>
      <trkpt lat="43.39735" lon="6.63364">
        <ele>330.4</ele>
        <time>2014-10-05T07:58:10Z</time>
      </trkpt>
      <trkpt lat="43.39735" lon="6.63359">
        <ele>329.8</ele>
        <time>2014-10-05T07:58:11Z</time>
      </trkpt>
      <trkpt lat="43.39735" lon="6.63354">
        <ele>329.2</ele>
        <time>2014-10-05T07:58:12Z</time>
      </trkpt>
      <trkpt lat="43.39736" lon="6.63349">
        <ele>328.7</ele>
        <time>2014-10-05T07:58:13Z</time>
      </trkpt>
      <trkpt lat="43.39737" lon="6.63345">
        <ele>328.2</ele>
        <time>2014-10-05T07:58:14Z</time>
      </trkpt>
      <trkpt lat="43.39737" lon="6.6334">
        <ele>327.7</ele>
        <time>2014-10-05T07:58:15Z</time>
      </trkpt>
      <trkpt lat="43.39738" lon="6.63335">
        <ele>327.3</ele>
        <time>2014-10-05T07:58:16Z</time>
      </trkpt>
      <trkpt lat="43.39739" lon="6.6333">
        <ele>327</ele>
        <time>2014-10-05T07:58:17Z</time>
      </trkpt>
      <trkpt lat="43.3974" lon="6.63326">
        <ele>326.8</ele>
        <time>2014-10-05T07:58:18Z</time>
      </trkpt>
      <trkpt lat="43.39742" lon="6.63322">
        <ele>326.7</ele>
        <time>2014-10-05T07:58:19Z</time>
      </trkpt>
      <trkpt lat="43.39743" lon="6.63318">
        <ele>326.6</ele>
        <time>2014-10-05T07:58:20Z</time>
      </trkpt>
      <trkpt lat="43.39745" lon="6.63314">
        <ele>326.7</ele>
        <time>2014-10-05T07:58:21Z</time>
      </trkpt>
      <trkpt lat="43.39747" lon="6.63309">
        <ele>326.6</ele>
        <time>2014-10-05T07:58:22Z</time>
      </trkpt>
      <trkpt lat="43.39749" lon="6.63304">
        <ele>326.7</ele>
        <time>2014-10-05T07:58:23Z</time>
      </trkpt>
      <trkpt lat="43.39751" lon="6.63299">
        <ele>326.8</ele>
        <time>2014-10-05T07:58:24Z</time>
      </trkpt>
      <trkpt lat="43.39753" lon="6.63295">
        <ele>327.1</ele>
        <time>2014-10-05T07:58:25Z</time>
      </trkpt>
      <trkpt lat="43.39756" lon="6.6329">
        <ele>327.3</ele>
        <time>2014-10-05T07:58:26Z</time>
      </trkpt>
      <trkpt lat="43.39758" lon="6.63286">
        <ele>327.6</ele>
        <time>2014-10-05T07:58:27Z</time>
      </trkpt>
      <trkpt lat="43.39761" lon="6.63283">
        <ele>328</ele>
        <time>2014-10-05T07:58:28Z</time>
      </trkpt>
      <trkpt lat="43.39765" lon="6.6328">
        <ele>328.5</ele>
        <time>2014-10-05T07:58:29Z</time>
      </trkpt>
      <trkpt lat="43.39768" lon="6.63276">
        <ele>328.9</ele>
        <time>2014-10-05T07:58:30Z</time>
      </trkpt>
      <trkpt lat="43.39771" lon="6.63272">
        <ele>329.2</ele>
        <time>2014-10-05T07:58:31Z</time>
      </trkpt>
      <trkpt lat="43.39774" lon="6.63267">
        <ele>329.3</ele>
        <time>2014-10-05T07:58:32Z</time>
      </trkpt>
      <trkpt lat="43.39776" lon="6.63262">
        <ele>329.1</ele>
        <time>2014-10-05T07:58:33Z</time>
      </trkpt>
      <trkpt lat="43.39779" lon="6.63257">
        <ele>328.8</ele>
        <time>2014-10-05T07:58:34Z</time>
      </trkpt>
      <trkpt lat="43.39781" lon="6.63252">
        <ele>328.4</ele>
        <time>2014-10-05T07:58:35Z</time>
      </trkpt>
      <trkpt lat="43.39783" lon="6.63247">
        <ele>328.1</ele>
        <time>2014-10-05T07:58:36Z</time>
      </trkpt>
      <trkpt lat="43.39785" lon="6.63242">
        <ele>327.7</ele>
        <time>2014-10-05T07:58:37Z</time>
      </trkpt>
      <trkpt lat="43.39786" lon="6.63237">
        <ele>327.3</ele>
        <time>2014-10-05T07:58:38Z</time>
      </trkpt>
      <trkpt lat="43.39788" lon="6.63232">
        <ele>327</ele>
        <time>2014-10-05T07:58:39Z</time>
      </trkpt>
      <trkpt lat="43.3979" lon="6.63227">
        <ele>326.7</ele>
        <time>2014-10-05T07:58:40Z</time>
      </trkpt>
      <trkpt lat="43.39792" lon="6.63223">
        <ele>326.5</ele>
        <time>2014-10-05T07:58:41Z</time>
      </trkpt>
      <trkpt lat="43.39794" lon="6.63219">
        <ele>326.5</ele>
        <time>2014-10-05T07:58:42Z</time>
      </trkpt>
      <trkpt lat="43.39796" lon="6.63214">
        <ele>326.6</ele>
        <time>2014-10-05T07:58:43Z</time>
      </trkpt>
      <trkpt lat="43.39798" lon="6.6321">
        <ele>326.6</ele>
        <time>2014-10-05T07:58:44Z</time>
      </trkpt>
      <trkpt lat="43.39799" lon="6.63206">
        <ele>326.9</ele>
        <time>2014-10-05T07:58:45Z</time>
      </trkpt>
      <trkpt lat="43.39801" lon="6.63201">
        <ele>327.3</ele>
        <time>2014-10-05T07:58:46Z</time>
      </trkpt>
      <trkpt lat="43.39804" lon="6.63197">
        <ele>327.9</ele>
        <time>2014-10-05T07:58:47Z</time>
      </trkpt>
      <trkpt lat="43.39806" lon="6.63193">
        <ele>328.4</ele>
        <time>2014-10-05T07:58:48Z</time>
      </trkpt>
      <trkpt lat="43.39808" lon="6.63188">
        <ele>328.9</ele>
        <time>2014-10-05T07:58:49Z</time>
      </trkpt>
      <trkpt lat="43.3981" lon="6.63184">
        <ele>329.6</ele>
        <time>2014-10-05T07:58:50Z</time>
      </trkpt>
      <trkpt lat="43.39812" lon="6.6318">
        <ele>330.1</ele>
        <time>2014-10-05T07:58:51Z</time>
      </trkpt>
      <trkpt lat="43.39814" lon="6.63175">
        <ele>330.6</ele>
        <time>2014-10-05T07:58:52Z</time>
      </trkpt>
      <trkpt lat="43.39816" lon="6.6317">
        <ele>330.9</ele>
        <time>2014-10-05T07:58:53Z</time>
      </trkpt>
      <trkpt lat="43.39818" lon="6.63166">
        <ele>331</ele>
        <time>2014-10-05T07:58:54Z</time>
      </trkpt>
      <trkpt lat="43.39819" lon="6.6316">
        <ele>330.8</ele>
        <time>2014-10-05T07:58:55Z</time>
      </trkpt>
      <trkpt lat="43.3982" lon="6.63155">
        <ele>330.6</ele>
        <time>2014-10-05T07:58:56Z</time>
      </trkpt>
      <trkpt lat="43.39821" lon="6.6315">
        <ele>330.3</ele>
        <time>2014-10-05T07:58:57Z</time>
      </trkpt>
      <trkpt lat="43.39821" lon="6.63144">
        <ele>330</ele>
        <time>2014-10-05T07:58:58Z</time>
      </trkpt>
      <trkpt lat="43.39823" lon="6.63139">
        <ele>329.8</ele>
        <time>2014-10-05T07:58:59Z</time>
      </trkpt>
      <trkpt lat="43.39824" lon="6.63134">
        <ele>329.9</ele>
        <time>2014-10-05T07:59:00Z</time>
      </trkpt>
      <trkpt lat="43.39826" lon="6.63129">
        <ele>330.2</ele>
        <time>2014-10-05T07:59:01Z</time>
      </trkpt>
      <trkpt lat="43.39828" lon="6.63124">
        <ele>330.7</ele>
        <time>2014-10-05T07:59:02Z</time>
      </trkpt>
      <trkpt lat="43.3983" lon="6.63119">
        <ele>331.6</ele>
        <time>2014-10-05T07:59:03Z</time>
      </trkpt>
      <trkpt lat="43.39832" lon="6.63115">
        <ele>332.5</ele>
        <time>2014-10-05T07:59:04Z</time>
      </trkpt>
      <trkpt lat="43.39834" lon="6.6311">
        <ele>333.3</ele>
        <time>2014-10-05T07:59:05Z</time>
      </trkpt>
      <trkpt lat="43.39836" lon="6.63106">
        <ele>333.9</ele>
        <time>2014-10-05T07:59:06Z</time>
      </trkpt>
      <trkpt lat="43.39837" lon="6.63101">
        <ele>334.5</ele>
        <time>2014-10-05T07:59:07Z</time>
      </trkpt>
      <trkpt lat="43.39839" lon="6.63097">
        <ele>335</ele>
        <time>2014-10-05T07:59:08Z</time>
      </trkpt>
      <trkpt lat="43.39841" lon="6.63092">
        <ele>335.6</ele>
        <time>2014-10-05T07:59:09Z</time>
      </trkpt>
      <trkpt lat="43.39842" lon="6.63088">
        <ele>336.1</ele>
        <time>2014-10-05T07:59:10Z</time>
      </trkpt>
      <trkpt lat="43.39844" lon="6.63084">
        <ele>336.5</ele>
        <time>2014-10-05T07:59:11Z</time>
      </trkpt>
      <trkpt lat="43.39846" lon="6.63079">
        <ele>336.9</ele>
        <time>2014-10-05T07:59:12Z</time>
      </trkpt>
      <trkpt lat="43.39847" lon="6.63074">
        <ele>337.2</ele>
        <time>2014-10-05T07:59:13Z</time>
      </trkpt>
      <trkpt lat="43.39848" lon="6.6307">
        <ele>337.4</ele>
        <time>2014-10-05T07:59:14Z</time>
      </trkpt>
      <trkpt lat="43.3985" lon="6.63066">
        <ele>337.6</ele>
        <time>2014-10-05T07:59:15Z</time>
      </trkpt>
      <trkpt lat="43.39851" lon="6.63061">
        <ele>337.7</ele>
        <time>2014-10-05T07:59:16Z</time>
      </trkpt>
      <trkpt lat="43.39852" lon="6.63057">
        <ele>338</ele>
        <time>2014-10-05T07:59:17Z</time>
      </trkpt>
      <trkpt lat="43.39854" lon="6.63052">
        <ele>338.3</ele>
        <time>2014-10-05T07:59:18Z</time>
      </trkpt>
      <trkpt lat="43.39856" lon="6.63048">
        <ele>338.7</ele>
        <time>2014-10-05T07:59:19Z</time>
      </trkpt>
      <trkpt lat="43.39858" lon="6.63044">
        <ele>338.9</ele>
        <time>2014-10-05T07:59:20Z</time>
      </trkpt>
      <trkpt lat="43.39859" lon="6.63039">
        <ele>339.1</ele>
        <time>2014-10-05T07:59:21Z</time>
      </trkpt>
      <trkpt lat="43.3986" lon="6.63035">
        <ele>339.2</ele>
        <time>2014-10-05T07:59:22Z</time>
      </trkpt>
      <trkpt lat="43.39861" lon="6.6303">
        <ele>339.4</ele>
        <time>2014-10-05T07:59:23Z</time>
      </trkpt>
      <trkpt lat="43.39862" lon="6.63026">
        <ele>339.5</ele>
        <time>2014-10-05T07:59:24Z</time>
      </trkpt>
      <trkpt lat="43.39863" lon="6.63021">
        <ele>339.7</ele>
        <time>2014-10-05T07:59:25Z</time>
      </trkpt>
      <trkpt lat="43.39864" lon="6.63017">
        <ele>339.9</ele>
        <time>2014-10-05T07:59:26Z</time>
      </trkpt>
      <trkpt lat="43.39865" lon="6.63012">
        <ele>339.8</ele>
        <time>2014-10-05T07:59:27Z</time>
      </trkpt>
      <trkpt lat="43.39866" lon="6.63008">
        <ele>340</ele>
        <time>2014-10-05T07:59:28Z</time>
      </trkpt>
      <trkpt lat="43.39867" lon="6.63003">
        <ele>340</ele>
        <time>2014-10-05T07:59:29Z</time>
      </trkpt>
      <trkpt lat="43.39869" lon="6.62998">
        <ele>340.1</ele>
        <time>2014-10-05T07:59:30Z</time>
      </trkpt>
      <trkpt lat="43.3987" lon="6.62993">
        <ele>340.1</ele>
        <time>2014-10-05T07:59:31Z</time>
      </trkpt>
      <trkpt lat="43.39871" lon="6.62988">
        <ele>340</ele>
        <time>2014-10-05T07:59:32Z</time>
      </trkpt>
      <trkpt lat="43.39872" lon="6.62983">
        <ele>339.9</ele>
        <time>2014-10-05T07:59:33Z</time>
      </trkpt>
      <trkpt lat="43.39873" lon="6.62979">
        <ele>340.1</ele>
        <time>2014-10-05T07:59:34Z</time>
      </trkpt>
      <trkpt lat="43.39875" lon="6.62974">
        <ele>340.2</ele>
        <time>2014-10-05T07:59:35Z</time>
      </trkpt>
      <trkpt lat="43.39876" lon="6.6297">
        <ele>340.4</ele>
        <time>2014-10-05T07:59:36Z</time>
      </trkpt>
      <trkpt lat="43.39878" lon="6.62965">
        <ele>340.6</ele>
        <time>2014-10-05T07:59:37Z</time>
      </trkpt>
      <trkpt lat="43.39879" lon="6.62961">
        <ele>340.9</ele>
        <time>2014-10-05T07:59:38Z</time>
      </trkpt>
      <trkpt lat="43.39881" lon="6.62957">
        <ele>341</ele>
        <time>2014-10-05T07:59:39Z</time>
      </trkpt>
      <trkpt lat="43.39882" lon="6.62953">
        <ele>341</ele>
        <time>2014-10-05T07:59:40Z</time>
      </trkpt>
      <trkpt lat="43.39884" lon="6.62949">
        <ele>340.9</ele>
        <time>2014-10-05T07:59:41Z</time>
      </trkpt>
      <trkpt lat="43.39886" lon="6.62945">
        <ele>340.9</ele>
        <time>2014-10-05T07:59:42Z</time>
      </trkpt>
      <trkpt lat="43.39887" lon="6.62941">
        <ele>341</ele>
        <time>2014-10-05T07:59:43Z</time>
      </trkpt>
      <trkpt lat="43.39889" lon="6.62938">
        <ele>341.1</ele>
        <time>2014-10-05T07:59:44Z</time>
      </trkpt>
      <trkpt lat="43.39891" lon="6.62934">
        <ele>341.2</ele>
        <time>2014-10-05T07:59:45Z</time>
      </trkpt>
      <trkpt lat="43.39893" lon="6.62931">
        <ele>341.3</ele>
        <time>2014-10-05T07:59:46Z</time>
      </trkpt>
      <trkpt lat="43.39895" lon="6.62927">
        <ele>341.5</ele>
        <time>2014-10-05T07:59:47Z</time>
      </trkpt>
      <trkpt lat="43.39897" lon="6.62924">
        <ele>341.6</ele>
        <time>2014-10-05T07:59:48Z</time>
      </trkpt>
      <trkpt lat="43.39899" lon="6.6292">
        <ele>341.7</ele>
        <time>2014-10-05T07:59:49Z</time>
      </trkpt>
      <trkpt lat="43.39901" lon="6.62917">
        <ele>341.8</ele>
        <time>2014-10-05T07:59:50Z</time>
      </trkpt>
      <trkpt lat="43.39903" lon="6.62913">
        <ele>341.8</ele>
        <time>2014-10-05T07:59:51Z</time>
      </trkpt>
      <trkpt lat="43.39905" lon="6.62909">
        <ele>341.9</ele>
        <time>2014-10-05T07:59:52Z</time>
      </trkpt>
      <trkpt lat="43.39907" lon="6.62906">
        <ele>342</ele>
        <time>2014-10-05T07:59:53Z</time>
      </trkpt>
      <trkpt lat="43.39909" lon="6.62902">
        <ele>342</ele>
        <time>2014-10-05T07:59:54Z</time>
      </trkpt>
      <trkpt lat="43.39911" lon="6.62899">
        <ele>342.1</ele>
        <time>2014-10-05T07:59:55Z</time>
      </trkpt>
      <trkpt lat="43.39913" lon="6.62895">
        <ele>342.1</ele>
        <time>2014-10-05T07:59:56Z</time>
      </trkpt>
      <trkpt lat="43.39915" lon="6.62892">
        <ele>342.2</ele>
        <time>2014-10-05T07:59:57Z</time>
      </trkpt>
      <trkpt lat="43.39917" lon="6.62888">
        <ele>342.3</ele>
        <time>2014-10-05T07:59:58Z</time>
      </trkpt>
      <trkpt lat="43.39919" lon="6.62885">
        <ele>342.3</ele>
        <time>2014-10-05T07:59:59Z</time>
      </trkpt>
      <trkpt lat="43.39921" lon="6.62881">
        <ele>342.2</ele>
        <time>2014-10-05T08:00:00Z</time>
      </trkpt>
      <trkpt lat="43.39923" lon="6.62878">
        <ele>342.1</ele>
        <time>2014-10-05T08:00:01Z</time>
      </trkpt>
      <trkpt lat="43.39925" lon="6.62874">
        <ele>342.1</ele>
        <time>2014-10-05T08:00:02Z</time>
      </trkpt>
      <trkpt lat="43.39926" lon="6.62871">
        <ele>341.9</ele>
        <time>2014-10-05T08:00:03Z</time>
      </trkpt>
      <trkpt lat="43.39928" lon="6.62867">
        <ele>341.7</ele>
        <time>2014-10-05T08:00:04Z</time>
      </trkpt>
      <trkpt lat="43.3993" lon="6.62864">
        <ele>341.5</ele>
        <time>2014-10-05T08:00:05Z</time>
      </trkpt>
      <trkpt lat="43.39932" lon="6.6286">
        <ele>341.3</ele>
        <time>2014-10-05T08:00:06Z</time>
      </trkpt>
      <trkpt lat="43.39934" lon="6.62857">
        <ele>341.3</ele>
        <time>2014-10-05T08:00:07Z</time>
      </trkpt>
      <trkpt lat="43.39936" lon="6.62854">
        <ele>341.3</ele>
        <time>2014-10-05T08:00:08Z</time>
      </trkpt>
      <trkpt lat="43.39939" lon="6.62851">
        <ele>341.3</ele>
        <time>2014-10-05T08:00:09Z</time>
      </trkpt>
      <trkpt lat="43.39941" lon="6.62848">
        <ele>341.3</ele>
        <time>2014-10-05T08:00:10Z</time>
      </trkpt>
      <trkpt lat="43.39943" lon="6.62844">
        <ele>341.3</ele>
        <time>2014-10-05T08:00:11Z</time>
      </trkpt>
      <trkpt lat="43.39946" lon="6.62841">
        <ele>341.3</ele>
        <time>2014-10-05T08:00:12Z</time>
      </trkpt>
      <trkpt lat="43.39948" lon="6.62838">
        <ele>341.2</ele>
        <time>2014-10-05T08:00:13Z</time>
      </trkpt>
      <trkpt lat="43.3995" lon="6.62835">
        <ele>341.2</ele>
        <time>2014-10-05T08:00:14Z</time>
      </trkpt>
      <trkpt lat="43.39952" lon="6.62832">
        <ele>341.1</ele>
        <time>2014-10-05T08:00:15Z</time>
      </trkpt>
      <trkpt lat="43.39955" lon="6.62829">
        <ele>341.1</ele>
        <time>2014-10-05T08:00:16Z</time>
      </trkpt>
      <trkpt lat="43.39957" lon="6.62825">
        <ele>341</ele>
        <time>2014-10-05T08:00:17Z</time>
      </trkpt>
      <trkpt lat="43.39959" lon="6.62822">
        <ele>340.9</ele>
        <time>2014-10-05T08:00:18Z</time>
      </trkpt>
      <trkpt lat="43.39961" lon="6.62819">
        <ele>341</ele>
        <time>2014-10-05T08:00:19Z</time>
      </trkpt>
      <trkpt lat="43.39963" lon="6.62815">
        <ele>341.1</ele>
        <time>2014-10-05T08:00:20Z</time>
      </trkpt>
      <trkpt lat="43.39965" lon="6.62812">
        <ele>341.3</ele>
        <time>2014-10-05T08:00:21Z</time>
      </trkpt>
      <trkpt lat="43.39967" lon="6.62809">
        <ele>341.5</ele>
        <time>2014-10-05T08:00:22Z</time>
      </trkpt>
      <trkpt lat="43.39969" lon="6.62806">
        <ele>341.7</ele>
        <time>2014-10-05T08:00:23Z</time>
      </trkpt>
      <trkpt lat="43.39971" lon="6.62803">
        <ele>341.9</ele>
        <time>2014-10-05T08:00:24Z</time>
      </trkpt>
      <trkpt lat="43.39973" lon="6.628">
        <ele>342.1</ele>
        <time>2014-10-05T08:00:25Z</time>
      </trkpt>
      <trkpt lat="43.39975" lon="6.62796">
        <ele>342.3</ele>
        <time>2014-10-05T08:00:26Z</time>
      </trkpt>
      <trkpt lat="43.39976" lon="6.62793">
        <ele>342.2</ele>
        <time>2014-10-05T08:00:27Z</time>
      </trkpt>
      <trkpt lat="43.39978" lon="6.62789">
        <ele>342.1</ele>
        <time>2014-10-05T08:00:28Z</time>
      </trkpt>
      <trkpt lat="43.39979" lon="6.62785">
        <ele>341.8</ele>
        <time>2014-10-05T08:00:29Z</time>
      </trkpt>
      <trkpt lat="43.39981" lon="6.62782">
        <ele>341.7</ele>
        <time>2014-10-05T08:00:30Z</time>
      </trkpt>
      <trkpt lat="43.39983" lon="6.62778">
        <ele>341.7</ele>
        <time>2014-10-05T08:00:31Z</time>
      </trkpt>
      <trkpt lat="43.39984" lon="6.62775">
        <ele>341.7</ele>
        <time>2014-10-05T08:00:32Z</time>
      </trkpt>
      <trkpt lat="43.39986" lon="6.62772">
        <ele>341.6</ele>
        <time>2014-10-05T08:00:33Z</time>
      </trkpt>
      <trkpt lat="43.39987" lon="6.62768">
        <ele>341.3</ele>
        <time>2014-10-05T08:00:34Z</time>
      </trkpt>
      <trkpt lat="43.39988" lon="6.62765">
        <ele>340.9</ele>
        <time>2014-10-05T08:00:35Z</time>
      </trkpt>
      <trkpt lat="43.39989" lon="6.62761">
        <ele>340.6</ele>
        <time>2014-10-05T08:00:36Z</time>
      </trkpt>
      <trkpt lat="43.3999" lon="6.62757">
        <ele>340.1</ele>
        <time>2014-10-05T08:00:37Z</time>
      </trkpt>
      <trkpt lat="43.39992" lon="6.62754">
        <ele>339.9</ele>
        <time>2014-10-05T08:00:38Z</time>
      </trkpt>
      <trkpt lat="43.39993" lon="6.6275">
        <ele>339.6</ele>
        <time>2014-10-05T08:00:39Z</time>
      </trkpt>
      <trkpt lat="43.39995" lon="6.62746">
        <ele>339.3</ele>
        <time>2014-10-05T08:00:40Z</time>
      </trkpt>
      <trkpt lat="43.39996" lon="6.62743">
        <ele>339.2</ele>
        <time>2014-10-05T08:00:41Z</time>
      </trkpt>
      <trkpt lat="43.39998" lon="6.6274">
        <ele>339.2</ele>
        <time>2014-10-05T08:00:42Z</time>
      </trkpt>
      <trkpt lat="43.4" lon="6.62737">
        <ele>339.2</ele>
        <time>2014-10-05T08:00:43Z</time>
      </trkpt>
      <trkpt lat="43.40001" lon="6.62733">
        <ele>339.1</ele>
        <time>2014-10-05T08:00:44Z</time>
      </trkpt>
      <trkpt lat="43.40003" lon="6.6273">
        <ele>339</ele>
        <time>2014-10-05T08:00:45Z</time>
      </trkpt>
      <trkpt lat="43.40005" lon="6.62727">
        <ele>339.1</ele>
        <time>2014-10-05T08:00:46Z</time>
      </trkpt>
      <trkpt lat="43.40007" lon="6.62724">
        <ele>339.2</ele>
        <time>2014-10-05T08:00:47Z</time>
      </trkpt>
      <trkpt lat="43.40009" lon="6.62721">
        <ele>339.4</ele>
        <time>2014-10-05T08:00:48Z</time>
      </trkpt>
      <trkpt lat="43.40011" lon="6.62717">
        <ele>339.6</ele>
        <time>2014-10-05T08:00:49Z</time>
      </trkpt>
      <trkpt lat="43.40013" lon="6.62714">
        <ele>339.7</ele>
        <time>2014-10-05T08:00:50Z</time>
      </trkpt>
      <trkpt lat="43.40015" lon="6.62711">
        <ele>339.7</ele>
        <time>2014-10-05T08:00:51Z</time>
      </trkpt>
      <trkpt lat="43.40017" lon="6.62708">
        <ele>339.8</ele>
        <time>2014-10-05T08:00:52Z</time>
      </trkpt>
      <trkpt lat="43.40019" lon="6.62705">
        <ele>339.9</ele>
        <time>2014-10-05T08:00:53Z</time>
      </trkpt>
      <trkpt lat="43.40021" lon="6.62702">
        <ele>340.1</ele>
        <time>2014-10-05T08:00:54Z</time>
      </trkpt>
      <trkpt lat="43.40023" lon="6.62699">
        <ele>340.5</ele>
        <time>2014-10-05T08:00:55Z</time>
      </trkpt>
      <trkpt lat="43.40025" lon="6.62696">
        <ele>340.9</ele>
        <time>2014-10-05T08:00:56Z</time>
      </trkpt>
      <trkpt lat="43.40028" lon="6.62694">
        <ele>341.3</ele>
        <time>2014-10-05T08:00:57Z</time>
      </trkpt>
      <trkpt lat="43.4003" lon="6.62691">
        <ele>341.6</ele>
        <time>2014-10-05T08:00:58Z</time>
      </trkpt>
      <trkpt lat="43.40032" lon="6.62688">
        <ele>342</ele>
        <time>2014-10-05T08:00:59Z</time>
      </trkpt>
      <trkpt lat="43.40035" lon="6.62685">
        <ele>342.4</ele>
        <time>2014-10-05T08:01:00Z</time>
      </trkpt>
      <trkpt lat="43.40037" lon="6.62683">
        <ele>342.7</ele>
        <time>2014-10-05T08:01:01Z</time>
      </trkpt>
      <trkpt lat="43.40039" lon="6.6268">
        <ele>343.1</ele>
        <time>2014-10-05T08:01:02Z</time>
      </trkpt>
      <trkpt lat="43.40042" lon="6.62677">
        <ele>343.5</ele>
        <time>2014-10-05T08:01:03Z</time>
      </trkpt>
      <trkpt lat="43.40045" lon="6.62675">
        <ele>344</ele>
        <time>2014-10-05T08:01:04Z</time>
      </trkpt>
      <trkpt lat="43.40047" lon="6.62673">
        <ele>344.5</ele>
        <time>2014-10-05T08:01:05Z</time>
      </trkpt>
      <trkpt lat="43.40049" lon="6.6267">
        <ele>344.8</ele>
        <time>2014-10-05T08:01:06Z</time>
      </trkpt>
      <trkpt lat="43.40052" lon="6.62667">
        <ele>345.1</ele>
        <time>2014-10-05T08:01:07Z</time>
      </trkpt>
      <trkpt lat="43.40054" lon="6.62665">
        <ele>345.2</ele>
        <time>2014-10-05T08:01:08Z</time>
      </trkpt>
      <trkpt lat="43.40056" lon="6.62662">
        <ele>345.3</ele>
        <time>2014-10-05T08:01:09Z</time>
      </trkpt>
      <trkpt lat="43.40058" lon="6.62659">
        <ele>345.5</ele>
        <time>2014-10-05T08:01:10Z</time>
      </trkpt>
      <trkpt lat="43.4006" lon="6.62656">
        <ele>345.6</ele>
        <time>2014-10-05T08:01:11Z</time>
      </trkpt>
      <trkpt lat="43.40062" lon="6.62654">
        <ele>345.8</ele>
        <time>2014-10-05T08:01:12Z</time>
      </trkpt>
      <trkpt lat="43.40064" lon="6.62651">
        <ele>345.8</ele>
        <time>2014-10-05T08:01:13Z</time>
      </trkpt>
      <trkpt lat="43.40066" lon="6.62648">
        <ele>346</ele>
        <time>2014-10-05T08:01:14Z</time>
      </trkpt>
      <trkpt lat="43.40068" lon="6.62645">
        <ele>346.1</ele>
        <time>2014-10-05T08:01:15Z</time>
      </trkpt>
      <trkpt lat="43.4007" lon="6.62642">
        <ele>346.1</ele>
        <time>2014-10-05T08:01:16Z</time>
      </trkpt>
      <trkpt lat="43.40072" lon="6.62639">
        <ele>346.1</ele>
        <time>2014-10-05T08:01:17Z</time>
      </trkpt>
      <trkpt lat="43.40075" lon="6.62635">
        <ele>346.1</ele>
        <time>2014-10-05T08:01:18Z</time>
      </trkpt>
      <trkpt lat="43.40077" lon="6.62632">
        <ele>346.1</ele>
        <time>2014-10-05T08:01:19Z</time>
      </trkpt>
      <trkpt lat="43.40079" lon="6.62629">
        <ele>346.1</ele>
        <time>2014-10-05T08:01:20Z</time>
      </trkpt>
      <trkpt lat="43.40081" lon="6.62626">
        <ele>346.1</ele>
        <time>2014-10-05T08:01:21Z</time>
      </trkpt>
      <trkpt lat="43.40083" lon="6.62623">
        <ele>346.2</ele>
        <time>2014-10-05T08:01:22Z</time>
      </trkpt>
      <trkpt lat="43.40085" lon="6.6262">
        <ele>346.3</ele>
        <time>2014-10-05T08:01:23Z</time>
      </trkpt>
      <trkpt lat="43.40088" lon="6.62617">
        <ele>346.5</ele>
        <time>2014-10-05T08:01:24Z</time>
      </trkpt>
      <trkpt lat="43.4009" lon="6.62613">
        <ele>346.7</ele>
        <time>2014-10-05T08:01:25Z</time>
      </trkpt>
      <trkpt lat="43.40093" lon="6.6261">
        <ele>346.9</ele>
        <time>2014-10-05T08:01:26Z</time>
      </trkpt>
      <trkpt lat="43.40095" lon="6.62607">
        <ele>347.1</ele>
        <time>2014-10-05T08:01:27Z</time>
      </trkpt>
      <trkpt lat="43.40098" lon="6.62605">
        <ele>347.4</ele>
        <time>2014-10-05T08:01:28Z</time>
      </trkpt>
      <trkpt lat="43.401" lon="6.62602">
        <ele>347.6</ele>
        <time>2014-10-05T08:01:29Z</time>
      </trkpt>
      <trkpt lat="43.40102" lon="6.62599">
        <ele>347.8</ele>
        <time>2014-10-05T08:01:30Z</time>
      </trkpt>
      <trkpt lat="43.40105" lon="6.62596">
        <ele>348.1</ele>
        <time>2014-10-05T08:01:31Z</time>
      </trkpt>
      <trkpt lat="43.40107" lon="6.62594">
        <ele>348.4</ele>
        <time>2014-10-05T08:01:32Z</time>
      </trkpt>
      <trkpt lat="43.4011" lon="6.62591">
        <ele>348.8</ele>
        <time>2014-10-05T08:01:33Z</time>
      </trkpt>
      <trkpt lat="43.40112" lon="6.62589">
        <ele>349.2</ele>
        <time>2014-10-05T08:01:34Z</time>
      </trkpt>
      <trkpt lat="43.40115" lon="6.62587">
        <ele>349.6</ele>
        <time>2014-10-05T08:01:35Z</time>
      </trkpt>
      <trkpt lat="43.40117" lon="6.62585">
        <ele>350.1</ele>
        <time>2014-10-05T08:01:36Z</time>
      </trkpt>
      <trkpt lat="43.4012" lon="6.62582">
        <ele>350.6</ele>
        <time>2014-10-05T08:01:37Z</time>
      </trkpt>
      <trkpt lat="43.40123" lon="6.6258">
        <ele>351.2</ele>
        <time>2014-10-05T08:01:38Z</time>
      </trkpt>
      <trkpt lat="43.40126" lon="6.62577">
        <ele>351.5</ele>
        <time>2014-10-05T08:01:39Z</time>
      </trkpt>
      <trkpt lat="43.40129" lon="6.62575">
        <ele>351.7</ele>
        <time>2014-10-05T08:01:40Z</time>
      </trkpt>
      <trkpt lat="43.40132" lon="6.62573">
        <ele>351.9</ele>
        <time>2014-10-05T08:01:41Z</time>
      </trkpt>
      <trkpt lat="43.40135" lon="6.6257">
        <ele>352.1</ele>
        <time>2014-10-05T08:01:42Z</time>
      </trkpt>
      <trkpt lat="43.40138" lon="6.62568">
        <ele>352.4</ele>
        <time>2014-10-05T08:01:43Z</time>
      </trkpt>
      <trkpt lat="43.40141" lon="6.62566">
        <ele>352.6</ele>
        <time>2014-10-05T08:01:44Z</time>
      </trkpt>
      <trkpt lat="43.40144" lon="6.62563">
        <ele>352.8</ele>
        <time>2014-10-05T08:01:45Z</time>
      </trkpt>
      <trkpt lat="43.40147" lon="6.62561">
        <ele>353.1</ele>
        <time>2014-10-05T08:01:46Z</time>
      </trkpt>
      <trkpt lat="43.4015" lon="6.62558">
        <ele>353.4</ele>
        <time>2014-10-05T08:01:47Z</time>
      </trkpt>
      <trkpt lat="43.40153" lon="6.62556">
        <ele>353.6</ele>
        <time>2014-10-05T08:01:48Z</time>
      </trkpt>
      <trkpt lat="43.40156" lon="6.62553">
        <ele>353.7</ele>
        <time>2014-10-05T08:01:49Z</time>
      </trkpt>
      <trkpt lat="43.40159" lon="6.62551">
        <ele>353.8</ele>
        <time>2014-10-05T08:01:50Z</time>
      </trkpt>
      <trkpt lat="43.40162" lon="6.62548">
        <ele>354</ele>
        <time>2014-10-05T08:01:51Z</time>
      </trkpt>
      <trkpt lat="43.40165" lon="6.62546">
        <ele>354.2</ele>
        <time>2014-10-05T08:01:52Z</time>
      </trkpt>
      <trkpt lat="43.40168" lon="6.62543">
        <ele>354.4</ele>
        <time>2014-10-05T08:01:53Z</time>
      </trkpt>
      <trkpt lat="43.40172" lon="6.62541">
        <ele>354.7</ele>
        <time>2014-10-05T08:01:54Z</time>
      </trkpt>
      <trkpt lat="43.40175" lon="6.62539">
        <ele>354.9</ele>
        <time>2014-10-05T08:01:55Z</time>
      </trkpt>
      <trkpt lat="43.40178" lon="6.62537">
        <ele>355.2</ele>
        <time>2014-10-05T08:01:56Z</time>
      </trkpt>
      <trkpt lat="43.40181" lon="6.62534">
        <ele>355.4</ele>
        <time>2014-10-05T08:01:57Z</time>
      </trkpt>
      <trkpt lat="43.40184" lon="6.62532">
        <ele>355.6</ele>
        <time>2014-10-05T08:01:58Z</time>
      </trkpt>
      <trkpt lat="43.40187" lon="6.6253">
        <ele>355.7</ele>
        <time>2014-10-05T08:01:59Z</time>
      </trkpt>
      <trkpt lat="43.4019" lon="6.62527">
        <ele>355.7</ele>
        <time>2014-10-05T08:02:00Z</time>
      </trkpt>
      <trkpt lat="43.40194" lon="6.62525">
        <ele>355.9</ele>
        <time>2014-10-05T08:02:01Z</time>
      </trkpt>
      <trkpt lat="43.40197" lon="6.62522">
        <ele>356.1</ele>
        <time>2014-10-05T08:02:02Z</time>
      </trkpt>
      <trkpt lat="43.402" lon="6.6252">
        <ele>356.2</ele>
        <time>2014-10-05T08:02:03Z</time>
      </trkpt>
      <trkpt lat="43.40203" lon="6.62518">
        <ele>356.5</ele>
        <time>2014-10-05T08:02:04Z</time>
      </trkpt>
      <trkpt lat="43.40206" lon="6.62515">
        <ele>356.6</ele>
        <time>2014-10-05T08:02:05Z</time>
      </trkpt>
      <trkpt lat="43.4021" lon="6.62513">
        <ele>356.8</ele>
        <time>2014-10-05T08:02:06Z</time>
      </trkpt>
      <trkpt lat="43.40213" lon="6.62511">
        <ele>357</ele>
        <time>2014-10-05T08:02:07Z</time>
      </trkpt>
      <trkpt lat="43.40216" lon="6.62508">
        <ele>357</ele>
        <time>2014-10-05T08:02:08Z</time>
      </trkpt>
      <trkpt lat="43.40219" lon="6.62505">
        <ele>357.1</ele>
        <time>2014-10-05T08:02:09Z</time>
      </trkpt>
      <trkpt lat="43.40221" lon="6.62503">
        <ele>357.1</ele>
        <time>2014-10-05T08:02:10Z</time>
      </trkpt>
      <trkpt lat="43.40224" lon="6.625">
        <ele>357.3</ele>
        <time>2014-10-05T08:02:11Z</time>
      </trkpt>
      <trkpt lat="43.40227" lon="6.62498">
        <ele>357.4</ele>
        <time>2014-10-05T08:02:12Z</time>
      </trkpt>
      <trkpt lat="43.4023" lon="6.62496">
        <ele>357.6</ele>
        <time>2014-10-05T08:02:13Z</time>
      </trkpt>
      <trkpt lat="43.40233" lon="6.62493">
        <ele>357.8</ele>
        <time>2014-10-05T08:02:14Z</time>
      </trkpt>
      <trkpt lat="43.40236" lon="6.6249">
        <ele>357.7</ele>
        <time>2014-10-05T08:02:15Z</time>
      </trkpt>
      <trkpt lat="43.40239" lon="6.62487">
        <ele>357.7</ele>
        <time>2014-10-05T08:02:16Z</time>
      </trkpt>
      <trkpt lat="43.40242" lon="6.62484">
        <ele>357.8</ele>
        <time>2014-10-05T08:02:17Z</time>
      </trkpt>
      <trkpt lat="43.40245" lon="6.62482">
        <ele>357.8</ele>
        <time>2014-10-05T08:02:18Z</time>
      </trkpt>
      <trkpt lat="43.40248" lon="6.62479">
        <ele>357.9</ele>
        <time>2014-10-05T08:02:19Z</time>
      </trkpt>
      <trkpt lat="43.4025" lon="6.62477">
        <ele>357.9</ele>
        <time>2014-10-05T08:02:20Z</time>
      </trkpt>
      <trkpt lat="43.40253" lon="6.62475">
        <ele>358</ele>
        <time>2014-10-05T08:02:21Z</time>
      </trkpt>
      <trkpt lat="43.40256" lon="6.62472">
        <ele>358.1</ele>
        <time>2014-10-05T08:02:22Z</time>
      </trkpt>
      <trkpt lat="43.40259" lon="6.6247">
        <ele>358.2</ele>
        <time>2014-10-05T08:02:23Z</time>
      </trkpt>
      <trkpt lat="43.40262" lon="6.62467">
        <ele>358.2</ele>
        <time>2014-10-05T08:02:24Z</time>
      </trkpt>
      <trkpt lat="43.40265" lon="6.62465">
        <ele>358.3</ele>
        <time>2014-10-05T08:02:25Z</time>
      </trkpt>
      <trkpt lat="43.40268" lon="6.62462">
        <ele>358.4</ele>
        <time>2014-10-05T08:02:26Z</time>
      </trkpt>
      <trkpt lat="43.4027" lon="6.62459">
        <ele>358.4</ele>
        <time>2014-10-05T08:02:27Z</time>
      </trkpt>
      <trkpt lat="43.40273" lon="6.62457">
        <ele>358.7</ele>
        <time>2014-10-05T08:02:28Z</time>
      </trkpt>
      <trkpt lat="43.40277" lon="6.62454">
        <ele>359.1</ele>
        <time>2014-10-05T08:02:29Z</time>
      </trkpt>
      <trkpt lat="43.4028" lon="6.62452">
        <ele>359.5</ele>
        <time>2014-10-05T08:02:30Z</time>
      </trkpt>
      <trkpt lat="43.40282" lon="6.62449">
        <ele>359.8</ele>
        <time>2014-10-05T08:02:31Z</time>
      </trkpt>
      <trkpt lat="43.40285" lon="6.62447">
        <ele>359.9</ele>
        <time>2014-10-05T08:02:32Z</time>
      </trkpt>
      <trkpt lat="43.40288" lon="6.62444">
        <ele>360.1</ele>
        <time>2014-10-05T08:02:33Z</time>
      </trkpt>
      <trkpt lat="43.40291" lon="6.62441">
        <ele>360.2</ele>
        <time>2014-10-05T08:02:34Z</time>
      </trkpt>
      <trkpt lat="43.40294" lon="6.62437">
        <ele>360.5</ele>
        <time>2014-10-05T08:02:35Z</time>
      </trkpt>
      <trkpt lat="43.40296" lon="6.62434">
        <ele>360.8</ele>
        <time>2014-10-05T08:02:36Z</time>
      </trkpt>
      <trkpt lat="43.40299" lon="6.62431">
        <ele>361.1</ele>
        <time>2014-10-05T08:02:37Z</time>
      </trkpt>
      <trkpt lat="43.40301" lon="6.62428">
        <ele>361.4</ele>
        <time>2014-10-05T08:02:38Z</time>
      </trkpt>
      <trkpt lat="43.40303" lon="6.62424">
        <ele>361.5</ele>
        <time>2014-10-05T08:02:39Z</time>
      </trkpt>
      <trkpt lat="43.40306" lon="6.6242">
        <ele>361.5</ele>
        <time>2014-10-05T08:02:40Z</time>
      </trkpt>
      <trkpt lat="43.40308" lon="6.62417">
        <ele>361.6</ele>
        <time>2014-10-05T08:02:41Z</time>
      </trkpt>
      <trkpt lat="43.4031" lon="6.62413">
        <ele>361.5</ele>
        <time>2014-10-05T08:02:42Z</time>
      </trkpt>
      <trkpt lat="43.40312" lon="6.62409">
        <ele>361.7</ele>
        <time>2014-10-05T08:02:43Z</time>
      </trkpt>
      <trkpt lat="43.40314" lon="6.62405">
        <ele>361.9</ele>
        <time>2014-10-05T08:02:44Z</time>
      </trkpt>
      <trkpt lat="43.40316" lon="6.62402">
        <ele>361.9</ele>
        <time>2014-10-05T08:02:45Z</time>
      </trkpt>
      <trkpt lat="43.40318" lon="6.62398">
        <ele>361.9</ele>
        <time>2014-10-05T08:02:46Z</time>
      </trkpt>
      <trkpt lat="43.4032" lon="6.62394">
        <ele>362</ele>
        <time>2014-10-05T08:02:47Z</time>
      </trkpt>
      <trkpt lat="43.40322" lon="6.6239">
        <ele>362.1</ele>
        <time>2014-10-05T08:02:48Z</time>
      </trkpt>
      <trkpt lat="43.40324" lon="6.62386">
        <ele>362.2</ele>
        <time>2014-10-05T08:02:49Z</time>
      </trkpt>
      <trkpt lat="43.40326" lon="6.62383">
        <ele>362.3</ele>
        <time>2014-10-05T08:02:50Z</time>
      </trkpt>
      <trkpt lat="43.40329" lon="6.62379">
        <ele>362.6</ele>
        <time>2014-10-05T08:02:51Z</time>
      </trkpt>
      <trkpt lat="43.40331" lon="6.62376">
        <ele>363</ele>
        <time>2014-10-05T08:02:52Z</time>
      </trkpt>
      <trkpt lat="43.40334" lon="6.62372">
        <ele>364</ele>
        <time>2014-10-05T08:02:53Z</time>
      </trkpt>
      <trkpt lat="43.40336" lon="6.62369">
        <ele>364.9</ele>
        <time>2014-10-05T08:02:54Z</time>
      </trkpt>
      <trkpt lat="43.40338" lon="6.62366">
        <ele>365.9</ele>
        <time>2014-10-05T08:02:55Z</time>
      </trkpt>
      <trkpt lat="43.40341" lon="6.62363">
        <ele>366.9</ele>
        <time>2014-10-05T08:02:56Z</time>
      </trkpt>
      <trkpt lat="43.40343" lon="6.62361">
        <ele>368</ele>
        <time>2014-10-05T08:02:57Z</time>
      </trkpt>
      <trkpt lat="43.40345" lon="6.62357">
        <ele>368.8</ele>
        <time>2014-10-05T08:02:58Z</time>
      </trkpt>
      <trkpt lat="43.40348" lon="6.62354">
        <ele>369.6</ele>
        <time>2014-10-05T08:02:59Z</time>
      </trkpt>
      <trkpt lat="43.40349" lon="6.6235">
        <ele>370.2</ele>
        <time>2014-10-05T08:03:00Z</time>
      </trkpt>
      <trkpt lat="43.40351" lon="6.62345">
        <ele>370.7</ele>
        <time>2014-10-05T08:03:01Z</time>
      </trkpt>
      <trkpt lat="43.40352" lon="6.62341">
        <ele>371.1</ele>
        <time>2014-10-05T08:03:02Z</time>
      </trkpt>
      <trkpt lat="43.40354" lon="6.62336">
        <ele>371.4</ele>
        <time>2014-10-05T08:03:03Z</time>
      </trkpt>
      <trkpt lat="43.40354" lon="6.62332">
        <ele>371.4</ele>
        <time>2014-10-05T08:03:04Z</time>
      </trkpt>
      <trkpt lat="43.40355" lon="6.62327">
        <ele>371.4</ele>
        <time>2014-10-05T08:03:05Z</time>
      </trkpt>
      <trkpt lat="43.40355" lon="6.62323">
        <ele>371.3</ele>
        <time>2014-10-05T08:03:06Z</time>
      </trkpt>
      <trkpt lat="43.40356" lon="6.62318">
        <ele>371.2</ele>
        <time>2014-10-05T08:03:07Z</time>
      </trkpt>
      <trkpt lat="43.40356" lon="6.62313">
        <ele>371.2</ele>
        <time>2014-10-05T08:03:08Z</time>
      </trkpt>
      <trkpt lat="43.40357" lon="6.62309">
        <ele>371.1</ele>
        <time>2014-10-05T08:03:09Z</time>
      </trkpt>
      <trkpt lat="43.40357" lon="6.62304">
        <ele>371.1</ele>
        <time>2014-10-05T08:03:10Z</time>
      </trkpt>
      <trkpt lat="43.40358" lon="6.62299">
        <ele>371</ele>
        <time>2014-10-05T08:03:11Z</time>
      </trkpt>
      <trkpt lat="43.40358" lon="6.62295">
        <ele>370.9</ele>
        <time>2014-10-05T08:03:12Z</time>
      </trkpt>
      <trkpt lat="43.40359" lon="6.6229">
        <ele>371.2</ele>
        <time>2014-10-05T08:03:13Z</time>
      </trkpt>
      <trkpt lat="43.40359" lon="6.62285">
        <ele>372</ele>
        <time>2014-10-05T08:03:14Z</time>
      </trkpt>
      <trkpt lat="43.40359" lon="6.6228">
        <ele>372.8</ele>
        <time>2014-10-05T08:03:15Z</time>
      </trkpt>
      <trkpt lat="43.40359" lon="6.62275">
        <ele>373.5</ele>
        <time>2014-10-05T08:03:16Z</time>
      </trkpt>
      <trkpt lat="43.40359" lon="6.6227">
        <ele>374.3</ele>
        <time>2014-10-05T08:03:17Z</time>
      </trkpt>
      <trkpt lat="43.40359" lon="6.62265">
        <ele>375.1</ele>
        <time>2014-10-05T08:03:18Z</time>
      </trkpt>
      <trkpt lat="43.4036" lon="6.62261">
        <ele>376</ele>
        <time>2014-10-05T08:03:19Z</time>
      </trkpt>
      <trkpt lat="43.4036" lon="6.62256">
        <ele>376.8</ele>
        <time>2014-10-05T08:03:20Z</time>
      </trkpt>
      <trkpt lat="43.40361" lon="6.62252">
        <ele>377.6</ele>
        <time>2014-10-05T08:03:21Z</time>
      </trkpt>
      <trkpt lat="43.40361" lon="6.62247">
        <ele>378.2</ele>
        <time>2014-10-05T08:03:22Z</time>
      </trkpt>
      <trkpt lat="43.40361" lon="6.62243">
        <ele>378.9</ele>
        <time>2014-10-05T08:03:23Z</time>
      </trkpt>
      <trkpt lat="43.40361" lon="6.62238">
        <ele>379.6</ele>
        <time>2014-10-05T08:03:24Z</time>
      </trkpt>
      <trkpt lat="43.40362" lon="6.62234">
        <ele>380.4</ele>
        <time>2014-10-05T08:03:25Z</time>
      </trkpt>
      <trkpt lat="43.40362" lon="6.62229">
        <ele>381.2</ele>
        <time>2014-10-05T08:03:26Z</time>
      </trkpt>
      <trkpt lat="43.40363" lon="6.62225">
        <ele>382.1</ele>
        <time>2014-10-05T08:03:27Z</time>
      </trkpt>
      <trkpt lat="43.40364" lon="6.6222">
        <ele>383</ele>
        <time>2014-10-05T08:03:28Z</time>
      </trkpt>
      <trkpt lat="43.40366" lon="6.62216">
        <ele>383.9</ele>
        <time>2014-10-05T08:03:29Z</time>
      </trkpt>
      <trkpt lat="43.40367" lon="6.62212">
        <ele>384.8</ele>
        <time>2014-10-05T08:03:30Z</time>
      </trkpt>
      <trkpt lat="43.40369" lon="6.62209">
        <ele>385.6</ele>
        <time>2014-10-05T08:03:31Z</time>
      </trkpt>
      <trkpt lat="43.40371" lon="6.62205">
        <ele>386.9</ele>
        <time>2014-10-05T08:03:32Z</time>
      </trkpt>
      <trkpt lat="43.40372" lon="6.62202">
        <ele>388.2</ele>
        <time>2014-10-05T08:03:33Z</time>
      </trkpt>
      <trkpt lat="43.40376" lon="6.62196">
        <ele>390.4</ele>
        <time>2014-10-05T08:03:35Z</time>
      </trkpt>
      <trkpt lat="43.40379" lon="6.62191">
        <ele>391.9</ele>
        <time>2014-10-05T08:03:37Z</time>
      </trkpt>
      <trkpt lat="43.40383" lon="6.62188">
        <ele>392.9</ele>
        <time>2014-10-05T08:03:39Z</time>
      </trkpt>
      <trkpt lat="43.40387" lon="6.62185">
        <ele>393.7</ele>
        <time>2014-10-05T08:03:41Z</time>
      </trkpt>
      <trkpt lat="43.40391" lon="6.62182">
        <ele>394.5</ele>
        <time>2014-10-05T08:03:43Z</time>
      </trkpt>
      <trkpt lat="43.40395" lon="6.62181">
        <ele>394.8</ele>
        <time>2014-10-05T08:03:45Z</time>
      </trkpt>
      <trkpt lat="43.40398" lon="6.62182">
        <ele>394.6</ele>
        <time>2014-10-05T08:03:48Z</time>
      </trkpt>
      <trkpt lat="43.40401" lon="6.62181">
        <ele>394.9</ele>
        <time>2014-10-05T08:03:52Z</time>
      </trkpt>
      <trkpt lat="43.40404" lon="6.62178">
        <ele>395.3</ele>
        <time>2014-10-05T08:03:55Z</time>
      </trkpt>
      <trkpt lat="43.40401" lon="6.62185">
        <ele>394</ele>
        <time>2014-10-05T08:15:44Z</time>
      </trkpt>
      <trkpt lat="43.40402" lon="6.62189">
        <ele>393.2</ele>
        <time>2014-10-05T08:15:46Z</time>
      </trkpt>
      <trkpt lat="43.40402" lon="6.62193">
        <ele>392.4</ele>
        <time>2014-10-05T08:15:50Z</time>
      </trkpt>
      <trkpt lat="43.40402" lon="6.62197">
        <ele>391.5</ele>
        <time>2014-10-05T08:15:55Z</time>
      </trkpt>
      <trkpt lat="43.40403" lon="6.62201">
        <ele>390.8</ele>
        <time>2014-10-05T08:15:59Z</time>
      </trkpt>
      <trkpt lat="43.40403" lon="6.62205">
        <ele>390</ele>
        <time>2014-10-05T08:16:05Z</time>
      </trkpt>
      <trkpt lat="43.40402" lon="6.62209">
        <ele>389.2</ele>
        <time>2014-10-05T08:16:12Z</time>
      </trkpt>
      <trkpt lat="43.40402" lon="6.62212">
        <ele>389.1</ele>
        <time>2014-10-05T08:16:27Z</time>
      </trkpt>
      <trkpt lat="43.40402" lon="6.62216">
        <ele>389</ele>
        <time>2014-10-05T08:16:36Z</time>
      </trkpt>
      <trkpt lat="43.40403" lon="6.6222">
        <ele>388.9</ele>
        <time>2014-10-05T08:16:43Z</time>
      </trkpt>
      <trkpt lat="43.40404" lon="6.62224">
        <ele>388.9</ele>
        <time>2014-10-05T08:16:51Z</time>
      </trkpt>
      <trkpt lat="43.40407" lon="6.62226">
        <ele>389.1</ele>
        <time>2014-10-05T08:16:56Z</time>
      </trkpt>
      <trkpt lat="43.40408" lon="6.6223">
        <ele>389.2</ele>
        <time>2014-10-05T08:17:01Z</time>
      </trkpt>
      <trkpt lat="43.4041" lon="6.62233">
        <ele>389.3</ele>
        <time>2014-10-05T08:17:08Z</time>
      </trkpt>
      <trkpt lat="43.40411" lon="6.62236">
        <ele>389.5</ele>
        <time>2014-10-05T08:17:17Z</time>
      </trkpt>
      <trkpt lat="43.40412" lon="6.62239">
        <ele>389.5</ele>
        <time>2014-10-05T08:17:26Z</time>
      </trkpt>
      <trkpt lat="43.40413" lon="6.62244">
        <ele>389.6</ele>
        <time>2014-10-05T08:17:32Z</time>
      </trkpt>
      <trkpt lat="43.40413" lon="6.62248">
        <ele>389.6</ele>
        <time>2014-10-05T08:17:37Z</time>
      </trkpt>
      <trkpt lat="43.40415" lon="6.62252">
        <ele>389.9</ele>
        <time>2014-10-05T08:17:42Z</time>
      </trkpt>
      <trkpt lat="43.40416" lon="6.62255">
        <ele>390.1</ele>
        <time>2014-10-05T08:17:48Z</time>
      </trkpt>
      <trkpt lat="43.40418" lon="6.62259">
        <ele>390.5</ele>
        <time>2014-10-05T08:17:54Z</time>
      </trkpt>
      <trkpt lat="43.40419" lon="6.62263">
        <ele>390.7</ele>
        <time>2014-10-05T08:17:59Z</time>
      </trkpt>
      <trkpt lat="43.4042" lon="6.62266">
        <ele>390.9</ele>
        <time>2014-10-05T08:18:04Z</time>
      </trkpt>
      <trkpt lat="43.4042" lon="6.6227">
        <ele>390.9</ele>
        <time>2014-10-05T08:18:10Z</time>
      </trkpt>
      <trkpt lat="43.4042" lon="6.62274">
        <ele>391</ele>
        <time>2014-10-05T08:18:16Z</time>
      </trkpt>
      <trkpt lat="43.40421" lon="6.62279">
        <ele>391.2</ele>
        <time>2014-10-05T08:18:21Z</time>
      </trkpt>
      <trkpt lat="43.40421" lon="6.62283">
        <ele>391.2</ele>
        <time>2014-10-05T08:18:25Z</time>
      </trkpt>
      <trkpt lat="43.40421" lon="6.62287">
        <ele>391.1</ele>
        <time>2014-10-05T08:18:30Z</time>
      </trkpt>
      <trkpt lat="43.4042" lon="6.62292">
        <ele>390.9</ele>
        <time>2014-10-05T08:18:35Z</time>
      </trkpt>
      <trkpt lat="43.4042" lon="6.62296">
        <ele>391.4</ele>
        <time>2014-10-05T08:18:42Z</time>
      </trkpt>
      <trkpt lat="43.40418" lon="6.62298">
        <ele>391.1</ele>
        <time>2014-10-05T08:18:47Z</time>
      </trkpt>
      <trkpt lat="43.40416" lon="6.62302">
        <ele>391.1</ele>
        <time>2014-10-05T08:18:51Z</time>
      </trkpt>
      <trkpt lat="43.40416" lon="6.62306">
        <ele>391.6</ele>
        <time>2014-10-05T08:18:55Z</time>
      </trkpt>
      <trkpt lat="43.40418" lon="6.6231">
        <ele>392.6</ele>
        <time>2014-10-05T08:18:59Z</time>
      </trkpt>
      <trkpt lat="43.4042" lon="6.62312">
        <ele>393.6</ele>
        <time>2014-10-05T08:19:05Z</time>
      </trkpt>
      <trkpt lat="43.4042" lon="6.62316">
        <ele>394.2</ele>
        <time>2014-10-05T08:19:15Z</time>
      </trkpt>
      <trkpt lat="43.40422" lon="6.6232">
        <ele>395.3</ele>
        <time>2014-10-05T08:19:22Z</time>
      </trkpt>
      <trkpt lat="43.40424" lon="6.62322">
        <ele>396.3</ele>
        <time>2014-10-05T08:19:25Z</time>
      </trkpt>
      <trkpt lat="43.40427" lon="6.62324">
        <ele>397.4</ele>
        <time>2014-10-05T08:19:29Z</time>
      </trkpt>
      <trkpt lat="43.40429" lon="6.62326">
        <ele>398.4</ele>
        <time>2014-10-05T08:19:34Z</time>
      </trkpt>
      <trkpt lat="43.4043" lon="6.6233">
        <ele>399.2</ele>
        <time>2014-10-05T08:19:52Z</time>
      </trkpt>
      <trkpt lat="43.40433" lon="6.62353">
        <ele>403.7</ele>
        <time>2014-10-05T08:20:49Z</time>
      </trkpt>
      <trkpt lat="43.40433" lon="6.62357">
        <ele>404.4</ele>
        <time>2014-10-05T08:20:53Z</time>
      </trkpt>
      <trkpt lat="43.40436" lon="6.6236">
        <ele>405.8</ele>
        <time>2014-10-05T08:20:57Z</time>
      </trkpt>
      <trkpt lat="43.40438" lon="6.62362">
        <ele>407</ele>
        <time>2014-10-05T08:21:04Z</time>
      </trkpt>
      <trkpt lat="43.40438" lon="6.62366">
        <ele>407.5</ele>
        <time>2014-10-05T08:21:22Z</time>
      </trkpt>
      <trkpt lat="43.40439" lon="6.6237">
        <ele>408.4</ele>
        <time>2014-10-05T08:21:29Z</time>
      </trkpt>
      <trkpt lat="43.40439" lon="6.62374">
        <ele>409.1</ele>
        <time>2014-10-05T08:21:34Z</time>
      </trkpt>
      <trkpt lat="43.40439" lon="6.62378">
        <ele>409.8</ele>
        <time>2014-10-05T08:21:40Z</time>
      </trkpt>
      <trkpt lat="43.4044" lon="6.62381">
        <ele>411.1</ele>
        <time>2014-10-05T08:21:47Z</time>
      </trkpt>
      <trkpt lat="43.40442" lon="6.62384">
        <ele>412.5</ele>
        <time>2014-10-05T08:21:54Z</time>
      </trkpt>
      <trkpt lat="43.40445" lon="6.62387">
        <ele>414</ele>
        <time>2014-10-05T08:22:00Z</time>
      </trkpt>
      <trkpt lat="43.40446" lon="6.62391">
        <ele>415.1</ele>
        <time>2014-10-05T08:22:06Z</time>
      </trkpt>
      <trkpt lat="43.40447" lon="6.62394">
        <ele>416.2</ele>
        <time>2014-10-05T08:22:11Z</time>
      </trkpt>
      <trkpt lat="43.40448" lon="6.62398">
        <ele>417.5</ele>
        <time>2014-10-05T08:22:17Z</time>
      </trkpt>
      <trkpt lat="43.40449" lon="6.62401">
        <ele>418.7</ele>
        <time>2014-10-05T08:22:24Z</time>
      </trkpt>
      <trkpt lat="43.4045" lon="6.62405">
        <ele>419.7</ele>
        <time>2014-10-05T08:22:33Z</time>
      </trkpt>
      <trkpt lat="43.40451" lon="6.62409">
        <ele>420.9</ele>
        <time>2014-10-05T08:22:40Z</time>
      </trkpt>
      <trkpt lat="43.40452" lon="6.62413">
        <ele>422.1</ele>
        <time>2014-10-05T08:22:48Z</time>
      </trkpt>
      <trkpt lat="43.40452" lon="6.62417">
        <ele>423</ele>
        <time>2014-10-05T08:22:56Z</time>
      </trkpt>
      <trkpt lat="43.40453" lon="6.62421">
        <ele>424.2</ele>
        <time>2014-10-05T08:23:06Z</time>
      </trkpt>
      <trkpt lat="43.40454" lon="6.62425">
        <ele>425.2</ele>
        <time>2014-10-05T08:23:11Z</time>
      </trkpt>
      <trkpt lat="43.40455" lon="6.62429">
        <ele>426.5</ele>
        <time>2014-10-05T08:23:16Z</time>
      </trkpt>
      <trkpt lat="43.40456" lon="6.62433">
        <ele>427.7</ele>
        <time>2014-10-05T08:23:21Z</time>
      </trkpt>
      <trkpt lat="43.40456" lon="6.62437">
        <ele>428.8</ele>
        <time>2014-10-05T08:23:32Z</time>
      </trkpt>
      <trkpt lat="43.40458" lon="6.6244">
        <ele>430</ele>
        <time>2014-10-05T08:23:40Z</time>
      </trkpt>
      <trkpt lat="43.40458" lon="6.62444">
        <ele>431</ele>
        <time>2014-10-05T08:23:46Z</time>
      </trkpt>
      <trkpt lat="43.4046" lon="6.62448">
        <ele>432</ele>
        <time>2014-10-05T08:23:54Z</time>
      </trkpt>
      <trkpt lat="43.40459" lon="6.62452">
        <ele>432.7</ele>
        <time>2014-10-05T08:24:01Z</time>
      </trkpt>
      <trkpt lat="43.4046" lon="6.62456">
        <ele>433.7</ele>
        <time>2014-10-05T08:24:07Z</time>
      </trkpt>
      <trkpt lat="43.40461" lon="6.6246">
        <ele>434.6</ele>
        <time>2014-10-05T08:24:12Z</time>
      </trkpt>
      <trkpt lat="43.40462" lon="6.62463">
        <ele>435.4</ele>
        <time>2014-10-05T08:24:17Z</time>
      </trkpt>
      <trkpt lat="43.40463" lon="6.62467">
        <ele>436</ele>
        <time>2014-10-05T08:24:23Z</time>
      </trkpt>
      <trkpt lat="43.40463" lon="6.62471">
        <ele>436.6</ele>
        <time>2014-10-05T08:24:29Z</time>
      </trkpt>
      <trkpt lat="43.40465" lon="6.62475">
        <ele>437.4</ele>
        <time>2014-10-05T08:24:34Z</time>
      </trkpt>
      <trkpt lat="43.40466" lon="6.62478">
        <ele>438.1</ele>
        <time>2014-10-05T08:24:38Z</time>
      </trkpt>
      <trkpt lat="43.40467" lon="6.62482">
        <ele>438.8</ele>
        <time>2014-10-05T08:24:42Z</time>
      </trkpt>
      <trkpt lat="43.40467" lon="6.62481">
        <ele>438.6</ele>
        <time>2014-10-05T08:24:46Z</time>
      </trkpt>
      <trkpt lat="43.40466" lon="6.62481">
        <ele>438.5</ele>
        <time>2014-10-05T08:24:50Z</time>
      </trkpt>
      <trkpt lat="43.40466" lon="6.6248">
        <ele>438.4</ele>
        <time>2014-10-05T08:29:15Z</time>
      </trkpt>
      <trkpt lat="43.40466" lon="6.6248">
        <ele>438.3</ele>
        <time>2014-10-05T08:29:16Z</time>
      </trkpt>
      <trkpt lat="43.40465" lon="6.62474">
        <ele>437.4</ele>
        <time>2014-10-05T08:29:17Z</time>
      </trkpt>
      <trkpt lat="43.40465" lon="6.62467">
        <ele>436.4</ele>
        <time>2014-10-05T08:29:18Z</time>
      </trkpt>
      <trkpt lat="43.40462" lon="6.62458">
        <ele>434.6</ele>
        <time>2014-10-05T08:29:19Z</time>
      </trkpt>
      <trkpt lat="43.40461" lon="6.62451">
        <ele>432.9</ele>
        <time>2014-10-05T08:29:20Z</time>
      </trkpt>
      <trkpt lat="43.40458" lon="6.62446">
        <ele>431.5</ele>
        <time>2014-10-05T08:29:21Z</time>
      </trkpt>
      <trkpt lat="43.40456" lon="6.62441">
        <ele>429.6</ele>
        <time>2014-10-05T08:29:22Z</time>
      </trkpt>
      <trkpt lat="43.40455" lon="6.62433">
        <ele>427.5</ele>
        <time>2014-10-05T08:29:23Z</time>
      </trkpt>
      <trkpt lat="43.40451" lon="6.62429">
        <ele>424.9</ele>
        <time>2014-10-05T08:29:24Z</time>
      </trkpt>
      <trkpt lat="43.40449" lon="6.62423">
        <ele>423.1</ele>
        <time>2014-10-05T08:29:25Z</time>
      </trkpt>
      <trkpt lat="43.40447" lon="6.62416">
        <ele>420.6</ele>
        <time>2014-10-05T08:29:26Z</time>
      </trkpt>
      <trkpt lat="43.40445" lon="6.62409">
        <ele>418.5</ele>
        <time>2014-10-05T08:29:27Z</time>
      </trkpt>
      <trkpt lat="43.40446" lon="6.62401">
        <ele>417.2</ele>
        <time>2014-10-05T08:29:29Z</time>
      </trkpt>
      <trkpt lat="43.40442" lon="6.62395">
        <ele>414.6</ele>
        <time>2014-10-05T08:29:30Z</time>
      </trkpt>
      <trkpt lat="43.40441" lon="6.6239">
        <ele>413.3</ele>
        <time>2014-10-05T08:29:31Z</time>
      </trkpt>
      <trkpt lat="43.40441" lon="6.62385">
        <ele>412</ele>
        <time>2014-10-05T08:29:32Z</time>
      </trkpt>
      <trkpt lat="43.40439" lon="6.6238">
        <ele>410.4</ele>
        <time>2014-10-05T08:29:33Z</time>
      </trkpt>
      <trkpt lat="43.40435" lon="6.62373">
        <ele>407.5</ele>
        <time>2014-10-05T08:29:34Z</time>
      </trkpt>
      <trkpt lat="43.40435" lon="6.62368">
        <ele>406.6</ele>
        <time>2014-10-05T08:29:35Z</time>
      </trkpt>
      <trkpt lat="43.40435" lon="6.62362">
        <ele>405.7</ele>
        <time>2014-10-05T08:29:36Z</time>
      </trkpt>
      <trkpt lat="43.40433" lon="6.62359">
        <ele>404.6</ele>
        <time>2014-10-05T08:29:37Z</time>
      </trkpt>
      <trkpt lat="43.40429" lon="6.62355">
        <ele>402.6</ele>
        <time>2014-10-05T08:29:38Z</time>
      </trkpt>
      <trkpt lat="43.40432" lon="6.62351">
        <ele>402.9</ele>
        <time>2014-10-05T08:29:40Z</time>
      </trkpt>
      <trkpt lat="43.40433" lon="6.62345">
        <ele>402.5</ele>
        <time>2014-10-05T08:29:42Z</time>
      </trkpt>
      <trkpt lat="43.40432" lon="6.62339">
        <ele>401.3</ele>
        <time>2014-10-05T08:29:44Z</time>
      </trkpt>
      <trkpt lat="43.40432" lon="6.62335">
        <ele>400.6</ele>
        <time>2014-10-05T08:29:46Z</time>
      </trkpt>
      <trkpt lat="43.40432" lon="6.6233">
        <ele>399.9</ele>
        <time>2014-10-05T08:30:04Z</time>
      </trkpt>
      <trkpt lat="43.4043" lon="6.62327">
        <ele>398.7</ele>
        <time>2014-10-05T08:30:08Z</time>
      </trkpt>
      <trkpt lat="43.40426" lon="6.62325">
        <ele>397.4</ele>
        <time>2014-10-05T08:30:14Z</time>
      </trkpt>
      <trkpt lat="43.40424" lon="6.62322">
        <ele>396.1</ele>
        <time>2014-10-05T08:30:15Z</time>
      </trkpt>
      <trkpt lat="43.40423" lon="6.62318">
        <ele>395.2</ele>
        <time>2014-10-05T08:30:16Z</time>
      </trkpt>
      <trkpt lat="43.40421" lon="6.62312">
        <ele>393.8</ele>
        <time>2014-10-05T08:30:18Z</time>
      </trkpt>
      <trkpt lat="43.40419" lon="6.62307">
        <ele>392.6</ele>
        <time>2014-10-05T08:30:20Z</time>
      </trkpt>
      <trkpt lat="43.4042" lon="6.62301">
        <ele>392.3</ele>
        <time>2014-10-05T08:30:22Z</time>
      </trkpt>
      <trkpt lat="43.40422" lon="6.62294">
        <ele>391.7</ele>
        <time>2014-10-05T08:30:24Z</time>
      </trkpt>
      <trkpt lat="43.40422" lon="6.62288">
        <ele>391.5</ele>
        <time>2014-10-05T08:30:25Z</time>
      </trkpt>
      <trkpt lat="43.40422" lon="6.62282">
        <ele>391.5</ele>
        <time>2014-10-05T08:30:26Z</time>
      </trkpt>
      <trkpt lat="43.40423" lon="6.62274">
        <ele>391.5</ele>
        <time>2014-10-05T08:30:27Z</time>
      </trkpt>
      <trkpt lat="43.40422" lon="6.62268">
        <ele>391.5</ele>
        <time>2014-10-05T08:30:28Z</time>
      </trkpt>
      <trkpt lat="43.40422" lon="6.62262">
        <ele>391.3</ele>
        <time>2014-10-05T08:30:29Z</time>
      </trkpt>
      <trkpt lat="43.4042" lon="6.62257">
        <ele>390.8</ele>
        <time>2014-10-05T08:30:30Z</time>
      </trkpt>
      <trkpt lat="43.40417" lon="6.62252">
        <ele>390.3</ele>
        <time>2014-10-05T08:30:31Z</time>
      </trkpt>
      <trkpt lat="43.40414" lon="6.62247">
        <ele>389.7</ele>
        <time>2014-10-05T08:30:32Z</time>
      </trkpt>
      <trkpt lat="43.40411" lon="6.62242">
        <ele>389.4</ele>
        <time>2014-10-05T08:30:33Z</time>
      </trkpt>
      <trkpt lat="43.40409" lon="6.62236">
        <ele>389.2</ele>
        <time>2014-10-05T08:30:34Z</time>
      </trkpt>
      <trkpt lat="43.40407" lon="6.62231">
        <ele>389.1</ele>
        <time>2014-10-05T08:30:35Z</time>
      </trkpt>
      <trkpt lat="43.40405" lon="6.62225">
        <ele>388.9</ele>
        <time>2014-10-05T08:30:36Z</time>
      </trkpt>
      <trkpt lat="43.40403" lon="6.6222">
        <ele>388.8</ele>
        <time>2014-10-05T08:30:37Z</time>
      </trkpt>
      <trkpt lat="43.40401" lon="6.62215">
        <ele>388.9</ele>
        <time>2014-10-05T08:30:38Z</time>
      </trkpt>
      <trkpt lat="43.40401" lon="6.62208">
        <ele>389.2</ele>
        <time>2014-10-05T08:30:39Z</time>
      </trkpt>
      <trkpt lat="43.40401" lon="6.62201">
        <ele>390.7</ele>
        <time>2014-10-05T08:30:40Z</time>
      </trkpt>
      <trkpt lat="43.40401" lon="6.62191">
        <ele>392.8</ele>
        <time>2014-10-05T08:30:41Z</time>
      </trkpt>
      <trkpt lat="43.40401" lon="6.62183">
        <ele>394.5</ele>
        <time>2014-10-05T08:30:42Z</time>
      </trkpt>
      <trkpt lat="43.40401" lon="6.62176">
        <ele>395.9</ele>
        <time>2014-10-05T08:30:43Z</time>
      </trkpt>
      <trkpt lat="43.40401" lon="6.62169">
        <ele>397.2</ele>
        <time>2014-10-05T08:30:44Z</time>
      </trkpt>
      <trkpt lat="43.40401" lon="6.62164">
        <ele>398.3</ele>
        <time>2014-10-05T08:30:45Z</time>
      </trkpt>
      <trkpt lat="43.40401" lon="6.6216">
        <ele>399</ele>
        <time>2014-10-05T08:30:46Z</time>
      </trkpt>
      <trkpt lat="43.40401" lon="6.62154">
        <ele>400.4</ele>
        <time>2014-10-05T08:30:48Z</time>
      </trkpt>
      <trkpt lat="43.40402" lon="6.6215">
        <ele>401.1</ele>
        <time>2014-10-05T08:30:50Z</time>
      </trkpt>
      <trkpt lat="43.40405" lon="6.62147">
        <ele>401.5</ele>
        <time>2014-10-05T08:30:52Z</time>
      </trkpt>
      <trkpt lat="43.40409" lon="6.62139">
        <ele>402.6</ele>
        <time>2014-10-05T08:30:54Z</time>
      </trkpt>
      <trkpt lat="43.40412" lon="6.62134">
        <ele>403.2</ele>
        <time>2014-10-05T08:30:55Z</time>
      </trkpt>
      <trkpt lat="43.40416" lon="6.62129">
        <ele>403.6</ele>
        <time>2014-10-05T08:30:56Z</time>
      </trkpt>
      <trkpt lat="43.4042" lon="6.62123">
        <ele>403.9</ele>
        <time>2014-10-05T08:30:57Z</time>
      </trkpt>
      <trkpt lat="43.40415" lon="6.62108">
        <ele>407.8</ele>
        <time>2014-10-05T08:30:58Z</time>
      </trkpt>
      <trkpt lat="43.40433" lon="6.62076">
        <ele>410.2</ele>
        <time>2014-10-05T08:31:02Z</time>
      </trkpt>
      <trkpt lat="43.40438" lon="6.62068">
        <ele>410.5</ele>
        <time>2014-10-05T08:31:03Z</time>
      </trkpt>
      <trkpt lat="43.40442" lon="6.6206">
        <ele>410.8</ele>
        <time>2014-10-05T08:31:04Z</time>
      </trkpt>
      <trkpt lat="43.40446" lon="6.62052">
        <ele>411</ele>
        <time>2014-10-05T08:31:05Z</time>
      </trkpt>
      <trkpt lat="43.40449" lon="6.62045">
        <ele>411.3</ele>
        <time>2014-10-05T08:31:06Z</time>
      </trkpt>
      <trkpt lat="43.40452" lon="6.62035">
        <ele>412</ele>
        <time>2014-10-05T08:31:07Z</time>
      </trkpt>
      <trkpt lat="43.40454" lon="6.62026">
        <ele>412.6</ele>
        <time>2014-10-05T08:31:08Z</time>
      </trkpt>
      <trkpt lat="43.40457" lon="6.62015">
        <ele>413.5</ele>
        <time>2014-10-05T08:31:09Z</time>
      </trkpt>
      <trkpt lat="43.40458" lon="6.62008">
        <ele>414</ele>
        <time>2014-10-05T08:31:10Z</time>
      </trkpt>
      <trkpt lat="43.4046" lon="6.61995">
        <ele>415.1</ele>
        <time>2014-10-05T08:31:11Z</time>
      </trkpt>
      <trkpt lat="43.40461" lon="6.61986">
        <ele>415.9</ele>
        <time>2014-10-05T08:31:12Z</time>
      </trkpt>
      <trkpt lat="43.40462" lon="6.61974">
        <ele>417.3</ele>
        <time>2014-10-05T08:31:13Z</time>
      </trkpt>
      <trkpt lat="43.40462" lon="6.61968">
        <ele>418.1</ele>
        <time>2014-10-05T08:31:14Z</time>
      </trkpt>
      <trkpt lat="43.40462" lon="6.61958">
        <ele>419.6</ele>
        <time>2014-10-05T08:31:15Z</time>
      </trkpt>
      <trkpt lat="43.40463" lon="6.61949">
        <ele>421.8</ele>
        <time>2014-10-05T08:31:16Z</time>
      </trkpt>
      <trkpt lat="43.40463" lon="6.61937">
        <ele>424.6</ele>
        <time>2014-10-05T08:31:17Z</time>
      </trkpt>
      <trkpt lat="43.40465" lon="6.61923">
        <ele>427.8</ele>
        <time>2014-10-05T08:31:18Z</time>
      </trkpt>
      <trkpt lat="43.40469" lon="6.61915">
        <ele>428.6</ele>
        <time>2014-10-05T08:31:19Z</time>
      </trkpt>
      <trkpt lat="43.40477" lon="6.6191">
        <ele>427</ele>
        <time>2014-10-05T08:31:20Z</time>
      </trkpt>
      <trkpt lat="43.40484" lon="6.61906">
        <ele>425.8</ele>
        <time>2014-10-05T08:31:21Z</time>
      </trkpt>
      <trkpt lat="43.40489" lon="6.61903">
        <ele>424.7</ele>
        <time>2014-10-05T08:31:22Z</time>
      </trkpt>
      <trkpt lat="43.40496" lon="6.61899">
        <ele>423.1</ele>
        <time>2014-10-05T08:31:23Z</time>
      </trkpt>
      <trkpt lat="43.40503" lon="6.61896">
        <ele>421.8</ele>
        <time>2014-10-05T08:31:24Z</time>
      </trkpt>
      <trkpt lat="43.4051" lon="6.61892">
        <ele>420.4</ele>
        <time>2014-10-05T08:31:25Z</time>
      </trkpt>
      <trkpt lat="43.40514" lon="6.61889">
        <ele>419.8</ele>
        <time>2014-10-05T08:31:26Z</time>
      </trkpt>
      <trkpt lat="43.4052" lon="6.61885">
        <ele>419.2</ele>
        <time>2014-10-05T08:31:27Z</time>
      </trkpt>
      <trkpt lat="43.40524" lon="6.61881">
        <ele>418.8</ele>
        <time>2014-10-05T08:31:28Z</time>
      </trkpt>
      <trkpt lat="43.40528" lon="6.61878">
        <ele>418.6</ele>
        <time>2014-10-05T08:31:29Z</time>
      </trkpt>
      <trkpt lat="43.40532" lon="6.61874">
        <ele>418.6</ele>
        <time>2014-10-05T08:31:30Z</time>
      </trkpt>
      <trkpt lat="43.40536" lon="6.61868">
        <ele>418.8</ele>
        <time>2014-10-05T08:31:31Z</time>
      </trkpt>
      <trkpt lat="43.4054" lon="6.61861">
        <ele>419.3</ele>
        <time>2014-10-05T08:31:32Z</time>
      </trkpt>
      <trkpt lat="43.40543" lon="6.61857">
        <ele>419.7</ele>
        <time>2014-10-05T08:31:33Z</time>
      </trkpt>
      <trkpt lat="43.40547" lon="6.61849">
        <ele>419.9</ele>
        <time>2014-10-05T08:31:34Z</time>
      </trkpt>
      <trkpt lat="43.4055" lon="6.61843">
        <ele>420.2</ele>
        <time>2014-10-05T08:31:35Z</time>
      </trkpt>
      <trkpt lat="43.40554" lon="6.61835">
        <ele>420.5</ele>
        <time>2014-10-05T08:31:36Z</time>
      </trkpt>
      <trkpt lat="43.40558" lon="6.61827">
        <ele>420.7</ele>
        <time>2014-10-05T08:31:37Z</time>
      </trkpt>
      <trkpt lat="43.40562" lon="6.6182">
        <ele>420.9</ele>
        <time>2014-10-05T08:31:38Z</time>
      </trkpt>
      <trkpt lat="43.40565" lon="6.61813">
        <ele>421</ele>
        <time>2014-10-05T08:31:39Z</time>
      </trkpt>
      <trkpt lat="43.4057" lon="6.61805">
        <ele>421.1</ele>
        <time>2014-10-05T08:31:40Z</time>
      </trkpt>
      <trkpt lat="43.40574" lon="6.61797">
        <ele>421.1</ele>
        <time>2014-10-05T08:31:41Z</time>
      </trkpt>
      <trkpt lat="43.40579" lon="6.61789">
        <ele>420.5</ele>
        <time>2014-10-05T08:31:42Z</time>
      </trkpt>
      <trkpt lat="43.40582" lon="6.61782">
        <ele>419.2</ele>
        <time>2014-10-05T08:31:43Z</time>
      </trkpt>
      <trkpt lat="43.40587" lon="6.61775">
        <ele>417.9</ele>
        <time>2014-10-05T08:31:45Z</time>
      </trkpt>
      <trkpt lat="43.40598" lon="6.61758">
        <ele>414.8</ele>
        <time>2014-10-05T08:31:46Z</time>
      </trkpt>
      <trkpt lat="43.40603" lon="6.61751">
        <ele>413.3</ele>
        <time>2014-10-05T08:31:47Z</time>
      </trkpt>
      <trkpt lat="43.40609" lon="6.61745">
        <ele>411.9</ele>
        <time>2014-10-05T08:31:48Z</time>
      </trkpt>
      <trkpt lat="43.40615" lon="6.61738">
        <ele>410.3</ele>
        <time>2014-10-05T08:31:49Z</time>
      </trkpt>
      <trkpt lat="43.40621" lon="6.61732">
        <ele>408.9</ele>
        <time>2014-10-05T08:31:50Z</time>
      </trkpt>
      <trkpt lat="43.40633" lon="6.6174">
        <ele>403.9</ele>
        <time>2014-10-05T08:31:51Z</time>
      </trkpt>
      <trkpt lat="43.40639" lon="6.61735">
        <ele>403.1</ele>
        <time>2014-10-05T08:31:52Z</time>
      </trkpt>
      <trkpt lat="43.40645" lon="6.61732">
        <ele>402</ele>
        <time>2014-10-05T08:31:53Z</time>
      </trkpt>
      <trkpt lat="43.40653" lon="6.61708">
        <ele>404.2</ele>
        <time>2014-10-05T08:31:55Z</time>
      </trkpt>
      <trkpt lat="43.40662" lon="6.61707">
        <ele>401.9</ele>
        <time>2014-10-05T08:31:56Z</time>
      </trkpt>
      <trkpt lat="43.40668" lon="6.61706">
        <ele>400.3</ele>
        <time>2014-10-05T08:31:57Z</time>
      </trkpt>
      <trkpt lat="43.40674" lon="6.61704">
        <ele>398.5</ele>
        <time>2014-10-05T08:31:58Z</time>
      </trkpt>
      <trkpt lat="43.40678" lon="6.61702">
        <ele>397.3</ele>
        <time>2014-10-05T08:31:59Z</time>
      </trkpt>
      <trkpt lat="43.40685" lon="6.61697">
        <ele>394.7</ele>
        <time>2014-10-05T08:32:00Z</time>
      </trkpt>
      <trkpt lat="43.40692" lon="6.61692">
        <ele>392.5</ele>
        <time>2014-10-05T08:32:01Z</time>
      </trkpt>
      <trkpt lat="43.40698" lon="6.61688">
        <ele>390.6</ele>
        <time>2014-10-05T08:32:02Z</time>
      </trkpt>
      <trkpt lat="43.40705" lon="6.61683">
        <ele>388.4</ele>
        <time>2014-10-05T08:32:03Z</time>
      </trkpt>
      <trkpt lat="43.40712" lon="6.61678">
        <ele>386.3</ele>
        <time>2014-10-05T08:32:04Z</time>
      </trkpt>
      <trkpt lat="43.40717" lon="6.61674">
        <ele>384.6</ele>
        <time>2014-10-05T08:32:05Z</time>
      </trkpt>
      <trkpt lat="43.40726" lon="6.61669">
        <ele>382.3</ele>
        <time>2014-10-05T08:32:06Z</time>
      </trkpt>
      <trkpt lat="43.40732" lon="6.61665">
        <ele>380.7</ele>
        <time>2014-10-05T08:32:07Z</time>
      </trkpt>
      <trkpt lat="43.40739" lon="6.61661">
        <ele>378.9</ele>
        <time>2014-10-05T08:32:08Z</time>
      </trkpt>
      <trkpt lat="43.40745" lon="6.61657">
        <ele>377.4</ele>
        <time>2014-10-05T08:32:09Z</time>
      </trkpt>
      <trkpt lat="43.40752" lon="6.61652">
        <ele>375.6</ele>
        <time>2014-10-05T08:32:10Z</time>
      </trkpt>
      <trkpt lat="43.40759" lon="6.61648">
        <ele>373.8</ele>
        <time>2014-10-05T08:32:11Z</time>
      </trkpt>
      <trkpt lat="43.40765" lon="6.61644">
        <ele>372.7</ele>
        <time>2014-10-05T08:32:12Z</time>
      </trkpt>
      <trkpt lat="43.40771" lon="6.6164">
        <ele>371.3</ele>
        <time>2014-10-05T08:32:13Z</time>
      </trkpt>
      <trkpt lat="43.40776" lon="6.61636">
        <ele>370.1</ele>
        <time>2014-10-05T08:32:14Z</time>
      </trkpt>
      <trkpt lat="43.40781" lon="6.61633">
        <ele>369.1</ele>
        <time>2014-10-05T08:32:15Z</time>
      </trkpt>
      <trkpt lat="43.40787" lon="6.61629">
        <ele>367.9</ele>
        <time>2014-10-05T08:32:16Z</time>
      </trkpt>
      <trkpt lat="43.40793" lon="6.61625">
        <ele>366.6</ele>
        <time>2014-10-05T08:32:17Z</time>
      </trkpt>
      <trkpt lat="43.40795" lon="6.61623">
        <ele>365.4</ele>
        <time>2014-10-05T08:32:18Z</time>
      </trkpt>
      <trkpt lat="43.4082" lon="6.61627">
        <ele>360</ele>
        <time>2014-10-05T08:32:21Z</time>
      </trkpt>
      <trkpt lat="43.40826" lon="6.6163">
        <ele>358.8</ele>
        <time>2014-10-05T08:32:22Z</time>
      </trkpt>
      <trkpt lat="43.40831" lon="6.61632">
        <ele>357.6</ele>
        <time>2014-10-05T08:32:23Z</time>
      </trkpt>
      <trkpt lat="43.40841" lon="6.61634">
        <ele>355.4</ele>
        <time>2014-10-05T08:32:24Z</time>
      </trkpt>
      <trkpt lat="43.40851" lon="6.61637">
        <ele>353</ele>
        <time>2014-10-05T08:32:25Z</time>
      </trkpt>
      <trkpt lat="43.40859" lon="6.61639">
        <ele>351.3</ele>
        <time>2014-10-05T08:32:26Z</time>
      </trkpt>
      <trkpt lat="43.40868" lon="6.61642">
        <ele>349.4</ele>
        <time>2014-10-05T08:32:27Z</time>
      </trkpt>
      <trkpt lat="43.40875" lon="6.61642">
        <ele>347.7</ele>
        <time>2014-10-05T08:32:28Z</time>
      </trkpt>
      <trkpt lat="43.40881" lon="6.6164">
        <ele>346.4</ele>
        <time>2014-10-05T08:32:31Z</time>
      </trkpt>
      <trkpt lat="43.40892" lon="6.61635">
        <ele>343.9</ele>
        <time>2014-10-05T08:32:32Z</time>
      </trkpt>
      <trkpt lat="43.40906" lon="6.61633">
        <ele>341</ele>
        <time>2014-10-05T08:32:33Z</time>
      </trkpt>
      <trkpt lat="43.40912" lon="6.61632">
        <ele>339.8</ele>
        <time>2014-10-05T08:32:34Z</time>
      </trkpt>
      <trkpt lat="43.4092" lon="6.61631">
        <ele>338.2</ele>
        <time>2014-10-05T08:32:35Z</time>
      </trkpt>
      <trkpt lat="43.40926" lon="6.6163">
        <ele>337</ele>
        <time>2014-10-05T08:32:36Z</time>
      </trkpt>
      <trkpt lat="43.4093" lon="6.6163">
        <ele>336.2</ele>
        <time>2014-10-05T08:32:37Z</time>
      </trkpt>
      <trkpt lat="43.40936" lon="6.61629">
        <ele>334.9</ele>
        <time>2014-10-05T08:32:38Z</time>
      </trkpt>
      <trkpt lat="43.40941" lon="6.61628">
        <ele>333.8</ele>
        <time>2014-10-05T08:32:39Z</time>
      </trkpt>
      <trkpt lat="43.40945" lon="6.61627">
        <ele>332.8</ele>
        <time>2014-10-05T08:32:40Z</time>
      </trkpt>
      <trkpt lat="43.4095" lon="6.61625">
        <ele>331.5</ele>
        <time>2014-10-05T08:32:41Z</time>
      </trkpt>
      <trkpt lat="43.40955" lon="6.61622">
        <ele>329.8</ele>
        <time>2014-10-05T08:32:42Z</time>
      </trkpt>
      <trkpt lat="43.40961" lon="6.61619">
        <ele>327.8</ele>
        <time>2014-10-05T08:32:43Z</time>
      </trkpt>
      <trkpt lat="43.40967" lon="6.61616">
        <ele>326.1</ele>
        <time>2014-10-05T08:32:44Z</time>
      </trkpt>
      <trkpt lat="43.40979" lon="6.61615">
        <ele>324.1</ele>
        <time>2014-10-05T08:32:45Z</time>
      </trkpt>
      <trkpt lat="43.40987" lon="6.61616">
        <ele>323</ele>
        <time>2014-10-05T08:32:46Z</time>
      </trkpt>
      <trkpt lat="43.40995" lon="6.61616">
        <ele>321.9</ele>
        <time>2014-10-05T08:32:47Z</time>
      </trkpt>
      <trkpt lat="43.41001" lon="6.61616">
        <ele>321</ele>
        <time>2014-10-05T08:32:48Z</time>
      </trkpt>
      <trkpt lat="43.41007" lon="6.61617">
        <ele>320.2</ele>
        <time>2014-10-05T08:32:49Z</time>
      </trkpt>
      <trkpt lat="43.41017" lon="6.61627">
        <ele>321.2</ele>
        <time>2014-10-05T08:32:50Z</time>
      </trkpt>
      <trkpt lat="43.41021" lon="6.61632">
        <ele>321</ele>
        <time>2014-10-05T08:32:51Z</time>
      </trkpt>
      <trkpt lat="43.41032" lon="6.61635">
        <ele>319.7</ele>
        <time>2014-10-05T08:32:52Z</time>
      </trkpt>
      <trkpt lat="43.4104" lon="6.6164">
        <ele>318.9</ele>
        <time>2014-10-05T08:32:54Z</time>
      </trkpt>
      <trkpt lat="43.41048" lon="6.61646">
        <ele>317.1</ele>
        <time>2014-10-05T08:32:56Z</time>
      </trkpt>
      <trkpt lat="43.41052" lon="6.6165">
        <ele>316</ele>
        <time>2014-10-05T08:32:58Z</time>
      </trkpt>
      <trkpt lat="43.41055" lon="6.61654">
        <ele>315.3</ele>
        <time>2014-10-05T08:32:59Z</time>
      </trkpt>
      <trkpt lat="43.41058" lon="6.61658">
        <ele>314.8</ele>
        <time>2014-10-05T08:33:00Z</time>
      </trkpt>
      <trkpt lat="43.41061" lon="6.61662">
        <ele>314.3</ele>
        <time>2014-10-05T08:33:02Z</time>
      </trkpt>
      <trkpt lat="43.41065" lon="6.61668">
        <ele>313.7</ele>
        <time>2014-10-05T08:33:04Z</time>
      </trkpt>
      <trkpt lat="43.41068" lon="6.61672">
        <ele>313.3</ele>
        <time>2014-10-05T08:33:05Z</time>
      </trkpt>
      <trkpt lat="43.41073" lon="6.61678">
        <ele>312.7</ele>
        <time>2014-10-05T08:33:07Z</time>
      </trkpt>
      <trkpt lat="43.4108" lon="6.61683">
        <ele>311.7</ele>
        <time>2014-10-05T08:33:11Z</time>
      </trkpt>
      <trkpt lat="43.41085" lon="6.61704">
        <ele>313.9</ele>
        <time>2014-10-05T08:33:13Z</time>
      </trkpt>
      <trkpt lat="43.41089" lon="6.61707">
        <ele>313.2</ele>
        <time>2014-10-05T08:33:14Z</time>
      </trkpt>
      <trkpt lat="43.41094" lon="6.61709">
        <ele>312.2</ele>
        <time>2014-10-05T08:33:15Z</time>
      </trkpt>
      <trkpt lat="43.41099" lon="6.61711">
        <ele>310.5</ele>
        <time>2014-10-05T08:33:16Z</time>
      </trkpt>
      <trkpt lat="43.41104" lon="6.61711">
        <ele>309.2</ele>
        <time>2014-10-05T08:33:17Z</time>
      </trkpt>
      <trkpt lat="43.41109" lon="6.61711">
        <ele>307.9</ele>
        <time>2014-10-05T08:33:18Z</time>
      </trkpt>
      <trkpt lat="43.41114" lon="6.61709">
        <ele>306.8</ele>
        <time>2014-10-05T08:33:20Z</time>
      </trkpt>
      <trkpt lat="43.41122" lon="6.61707">
        <ele>304.4</ele>
        <time>2014-10-05T08:33:21Z</time>
      </trkpt>
      <trkpt lat="43.41127" lon="6.61711">
        <ele>303.1</ele>
        <time>2014-10-05T08:33:23Z</time>
      </trkpt>
      <trkpt lat="43.41128" lon="6.61717">
        <ele>302.2</ele>
        <time>2014-10-05T08:33:24Z</time>
      </trkpt>
      <trkpt lat="43.41127" lon="6.61724">
        <ele>302</ele>
        <time>2014-10-05T08:33:25Z</time>
      </trkpt>
      <trkpt lat="43.41125" lon="6.6173">
        <ele>302</ele>
        <time>2014-10-05T08:33:26Z</time>
      </trkpt>
      <trkpt lat="43.41124" lon="6.61737">
        <ele>301.8</ele>
        <time>2014-10-05T08:33:27Z</time>
      </trkpt>
      <trkpt lat="43.41124" lon="6.61742">
        <ele>301.4</ele>
        <time>2014-10-05T08:33:28Z</time>
      </trkpt>
      <trkpt lat="43.41125" lon="6.61746">
        <ele>300.7</ele>
        <time>2014-10-05T08:33:29Z</time>
      </trkpt>
      <trkpt lat="43.41128" lon="6.61748">
        <ele>299.7</ele>
        <time>2014-10-05T08:33:30Z</time>
      </trkpt>
      <trkpt lat="43.41131" lon="6.61749">
        <ele>298.4</ele>
        <time>2014-10-05T08:33:31Z</time>
      </trkpt>
      <trkpt lat="43.41135" lon="6.61749">
        <ele>297.1</ele>
        <time>2014-10-05T08:33:32Z</time>
      </trkpt>
      <trkpt lat="43.41139" lon="6.61748">
        <ele>295.9</ele>
        <time>2014-10-05T08:33:33Z</time>
      </trkpt>
      <trkpt lat="43.41143" lon="6.61747">
        <ele>294.3</ele>
        <time>2014-10-05T08:33:34Z</time>
      </trkpt>
      <trkpt lat="43.41147" lon="6.61748">
        <ele>293</ele>
        <time>2014-10-05T08:33:35Z</time>
      </trkpt>
      <trkpt lat="43.41151" lon="6.6175">
        <ele>291.7</ele>
        <time>2014-10-05T08:33:36Z</time>
      </trkpt>
      <trkpt lat="43.41153" lon="6.61755">
        <ele>290.7</ele>
        <time>2014-10-05T08:33:37Z</time>
      </trkpt>
      <trkpt lat="43.41155" lon="6.61761">
        <ele>289.8</ele>
        <time>2014-10-05T08:33:38Z</time>
      </trkpt>
      <trkpt lat="43.41157" lon="6.61766">
        <ele>289.2</ele>
        <time>2014-10-05T08:33:39Z</time>
      </trkpt>
      <trkpt lat="43.41158" lon="6.61771">
        <ele>288.6</ele>
        <time>2014-10-05T08:33:40Z</time>
      </trkpt>
      <trkpt lat="43.41159" lon="6.61777">
        <ele>288.4</ele>
        <time>2014-10-05T08:33:41Z</time>
      </trkpt>
      <trkpt lat="43.41159" lon="6.61784">
        <ele>288.2</ele>
        <time>2014-10-05T08:33:42Z</time>
      </trkpt>
      <trkpt lat="43.41159" lon="6.6179">
        <ele>288</ele>
        <time>2014-10-05T08:33:43Z</time>
      </trkpt>
      <trkpt lat="43.41161" lon="6.61796">
        <ele>286.7</ele>
        <time>2014-10-05T08:33:44Z</time>
      </trkpt>
      <trkpt lat="43.41163" lon="6.61802">
        <ele>285</ele>
        <time>2014-10-05T08:33:45Z</time>
      </trkpt>
      <trkpt lat="43.41165" lon="6.61808">
        <ele>283.2</ele>
        <time>2014-10-05T08:33:46Z</time>
      </trkpt>
      <trkpt lat="43.41168" lon="6.61813">
        <ele>281.4</ele>
        <time>2014-10-05T08:33:47Z</time>
      </trkpt>
      <trkpt lat="43.41172" lon="6.61817">
        <ele>279.9</ele>
        <time>2014-10-05T08:33:48Z</time>
      </trkpt>
      <trkpt lat="43.41175" lon="6.61821">
        <ele>278.6</ele>
        <time>2014-10-05T08:33:49Z</time>
      </trkpt>
      <trkpt lat="43.41178" lon="6.61823">
        <ele>277.6</ele>
        <time>2014-10-05T08:33:50Z</time>
      </trkpt>
      <trkpt lat="43.41181" lon="6.61825">
        <ele>276.4</ele>
        <time>2014-10-05T08:33:51Z</time>
      </trkpt>
      <trkpt lat="43.41185" lon="6.61828">
        <ele>275.2</ele>
        <time>2014-10-05T08:33:52Z</time>
      </trkpt>
      <trkpt lat="43.4119" lon="6.6183">
        <ele>274</ele>
        <time>2014-10-05T08:33:53Z</time>
      </trkpt>
      <trkpt lat="43.41194" lon="6.61831">
        <ele>273.1</ele>
        <time>2014-10-05T08:33:54Z</time>
      </trkpt>
      <trkpt lat="43.41198" lon="6.6183">
        <ele>272.4</ele>
        <time>2014-10-05T08:33:55Z</time>
      </trkpt>
      <trkpt lat="43.41202" lon="6.61829">
        <ele>271.8</ele>
        <time>2014-10-05T08:33:56Z</time>
      </trkpt>
      <trkpt lat="43.41206" lon="6.61831">
        <ele>270.9</ele>
        <time>2014-10-05T08:33:57Z</time>
      </trkpt>
      <trkpt lat="43.41209" lon="6.61834">
        <ele>269.8</ele>
        <time>2014-10-05T08:33:58Z</time>
      </trkpt>
      <trkpt lat="43.41211" lon="6.61838">
        <ele>268.5</ele>
        <time>2014-10-05T08:33:59Z</time>
      </trkpt>
      <trkpt lat="43.41214" lon="6.61842">
        <ele>267.2</ele>
        <time>2014-10-05T08:34:00Z</time>
      </trkpt>
      <trkpt lat="43.41217" lon="6.61847">
        <ele>265.8</ele>
        <time>2014-10-05T08:34:01Z</time>
      </trkpt>
      <trkpt lat="43.41221" lon="6.61852">
        <ele>264</ele>
        <time>2014-10-05T08:34:02Z</time>
      </trkpt>
      <trkpt lat="43.41226" lon="6.61855">
        <ele>262.3</ele>
        <time>2014-10-05T08:34:03Z</time>
      </trkpt>
      <trkpt lat="43.41233" lon="6.61845">
        <ele>261</ele>
        <time>2014-10-05T08:34:04Z</time>
      </trkpt>
      <trkpt lat="43.41239" lon="6.61847">
        <ele>259.1</ele>
        <time>2014-10-05T08:34:05Z</time>
      </trkpt>
      <trkpt lat="43.41245" lon="6.61849">
        <ele>257.2</ele>
        <time>2014-10-05T08:34:06Z</time>
      </trkpt>
      <trkpt lat="43.41249" lon="6.6185">
        <ele>256</ele>
        <time>2014-10-05T08:34:07Z</time>
      </trkpt>
      <trkpt lat="43.41254" lon="6.61851">
        <ele>254.4</ele>
        <time>2014-10-05T08:34:08Z</time>
      </trkpt>
      <trkpt lat="43.41262" lon="6.61852">
        <ele>252.3</ele>
        <time>2014-10-05T08:34:09Z</time>
      </trkpt>
      <trkpt lat="43.41268" lon="6.61852">
        <ele>250.5</ele>
        <time>2014-10-05T08:34:10Z</time>
      </trkpt>
      <trkpt lat="43.41271" lon="6.61852">
        <ele>249.6</ele>
        <time>2014-10-05T08:34:11Z</time>
      </trkpt>
      <trkpt lat="43.41275" lon="6.6185">
        <ele>248.3</ele>
        <time>2014-10-05T08:34:13Z</time>
      </trkpt>
      <trkpt lat="43.41279" lon="6.61845">
        <ele>247.2</ele>
        <time>2014-10-05T08:34:14Z</time>
      </trkpt>
      <trkpt lat="43.41282" lon="6.61839">
        <ele>245.8</ele>
        <time>2014-10-05T08:34:15Z</time>
      </trkpt>
      <trkpt lat="43.41285" lon="6.61835">
        <ele>244.8</ele>
        <time>2014-10-05T08:34:16Z</time>
      </trkpt>
      <trkpt lat="43.41296" lon="6.61828">
        <ele>241.2</ele>
        <time>2014-10-05T08:34:17Z</time>
      </trkpt>
      <trkpt lat="43.41303" lon="6.61826">
        <ele>239.6</ele>
        <time>2014-10-05T08:34:18Z</time>
      </trkpt>
      <trkpt lat="43.41306" lon="6.61826">
        <ele>238.8</ele>
        <time>2014-10-05T08:34:19Z</time>
      </trkpt>
      <trkpt lat="43.41315" lon="6.61825">
        <ele>236.7</ele>
        <time>2014-10-05T08:34:20Z</time>
      </trkpt>
      <trkpt lat="43.41318" lon="6.61825">
        <ele>236</ele>
        <time>2014-10-05T08:34:21Z</time>
      </trkpt>
      <trkpt lat="43.41324" lon="6.61834">
        <ele>235.6</ele>
        <time>2014-10-05T08:34:22Z</time>
      </trkpt>
      <trkpt lat="43.41327" lon="6.61833">
        <ele>234.8</ele>
        <time>2014-10-05T08:34:23Z</time>
      </trkpt>
      <trkpt lat="43.41325" lon="6.61824">
        <ele>234.3</ele>
        <time>2014-10-05T08:34:25Z</time>
      </trkpt>
      <trkpt lat="43.41321" lon="6.61821">
        <ele>234.9</ele>
        <time>2014-10-05T08:34:26Z</time>
      </trkpt>
      <trkpt lat="43.41316" lon="6.61817">
        <ele>235.8</ele>
        <time>2014-10-05T08:34:27Z</time>
      </trkpt>
      <trkpt lat="43.41309" lon="6.61812">
        <ele>236.9</ele>
        <time>2014-10-05T08:34:28Z</time>
      </trkpt>
      <trkpt lat="43.41302" lon="6.61805">
        <ele>238.1</ele>
        <time>2014-10-05T08:34:29Z</time>
      </trkpt>
      <trkpt lat="43.413" lon="6.61793">
        <ele>237.9</ele>
        <time>2014-10-05T08:34:30Z</time>
      </trkpt>
      <trkpt lat="43.41294" lon="6.61787">
        <ele>239</ele>
        <time>2014-10-05T08:34:31Z</time>
      </trkpt>
      <trkpt lat="43.41289" lon="6.61783">
        <ele>240.5</ele>
        <time>2014-10-05T08:34:32Z</time>
      </trkpt>
      <trkpt lat="43.4128" lon="6.61781">
        <ele>243.9</ele>
        <time>2014-10-05T08:34:33Z</time>
      </trkpt>
      <trkpt lat="43.41277" lon="6.61778">
        <ele>245.1</ele>
        <time>2014-10-05T08:34:35Z</time>
      </trkpt>
      <trkpt lat="43.41266" lon="6.61762">
        <ele>248.3</ele>
        <time>2014-10-05T08:34:38Z</time>
      </trkpt>
      <trkpt lat="43.41271" lon="6.61757">
        <ele>245.4</ele>
        <time>2014-10-05T08:34:39Z</time>
      </trkpt>
      <trkpt lat="43.41276" lon="6.6177">
        <ele>244.8</ele>
        <time>2014-10-05T08:34:40Z</time>
      </trkpt>
      <trkpt lat="43.41323" lon="6.61715">
        <ele>226.4</ele>
        <time>2014-10-05T08:34:46Z</time>
      </trkpt>
      <trkpt lat="43.41325" lon="6.61709">
        <ele>225.6</ele>
        <time>2014-10-05T08:34:47Z</time>
      </trkpt>
      <trkpt lat="43.41332" lon="6.61712">
        <ele>224.4</ele>
        <time>2014-10-05T08:34:48Z</time>
      </trkpt>
      <trkpt lat="43.41338" lon="6.61709">
        <ele>223.1</ele>
        <time>2014-10-05T08:34:49Z</time>
      </trkpt>
      <trkpt lat="43.41343" lon="6.61706">
        <ele>222.5</ele>
        <time>2014-10-05T08:34:50Z</time>
      </trkpt>
      <trkpt lat="43.41346" lon="6.61705">
        <ele>221.9</ele>
        <time>2014-10-05T08:34:51Z</time>
      </trkpt>
      <trkpt lat="43.41349" lon="6.61703">
        <ele>221.6</ele>
        <time>2014-10-05T08:34:52Z</time>
      </trkpt>
      <trkpt lat="43.41347" lon="6.61701">
        <ele>222.3</ele>
        <time>2014-10-05T08:35:01Z</time>
      </trkpt>
      <trkpt lat="43.4135" lon="6.61696">
        <ele>222.5</ele>
        <time>2014-10-05T08:46:05Z</time>
      </trkpt>
      <trkpt lat="43.4135" lon="6.61691">
        <ele>223.1</ele>
        <time>2014-10-05T08:46:08Z</time>
      </trkpt>
      <trkpt lat="43.41352" lon="6.61687">
        <ele>223.4</ele>
        <time>2014-10-05T08:46:11Z</time>
      </trkpt>
      <trkpt lat="43.41354" lon="6.61684">
        <ele>223.5</ele>
        <time>2014-10-05T08:46:14Z</time>
      </trkpt>
      <trkpt lat="43.41356" lon="6.61681">
        <ele>223.7</ele>
        <time>2014-10-05T08:46:17Z</time>
      </trkpt>
      <trkpt lat="43.41359" lon="6.61679">
        <ele>223.8</ele>
        <time>2014-10-05T08:46:20Z</time>
      </trkpt>
      <trkpt lat="43.41362" lon="6.61678">
        <ele>223.7</ele>
        <time>2014-10-05T08:46:23Z</time>
      </trkpt>
      <trkpt lat="43.41365" lon="6.61676">
        <ele>223.7</ele>
        <time>2014-10-05T08:46:26Z</time>
      </trkpt>
      <trkpt lat="43.4137" lon="6.61673">
        <ele>224</ele>
        <time>2014-10-05T08:46:28Z</time>
      </trkpt>
      <trkpt lat="43.41372" lon="6.6167">
        <ele>224.4</ele>
        <time>2014-10-05T08:46:29Z</time>
      </trkpt>
      <trkpt lat="43.41374" lon="6.61667">
        <ele>225</ele>
        <time>2014-10-05T08:46:30Z</time>
      </trkpt>
      <trkpt lat="43.41376" lon="6.61664">
        <ele>225.6</ele>
        <time>2014-10-05T08:46:31Z</time>
      </trkpt>
      <trkpt lat="43.41379" lon="6.61661">
        <ele>226.1</ele>
        <time>2014-10-05T08:46:32Z</time>
      </trkpt>
      <trkpt lat="43.41382" lon="6.61659">
        <ele>226.7</ele>
        <time>2014-10-05T08:46:34Z</time>
      </trkpt>
      <trkpt lat="43.41385" lon="6.61657">
        <ele>227.1</ele>
        <time>2014-10-05T08:46:37Z</time>
      </trkpt>
      <trkpt lat="43.41388" lon="6.61654">
        <ele>227.6</ele>
        <time>2014-10-05T08:46:40Z</time>
      </trkpt>
      <trkpt lat="43.41391" lon="6.61653">
        <ele>227.8</ele>
        <time>2014-10-05T08:46:42Z</time>
      </trkpt>
      <trkpt lat="43.41394" lon="6.61649">
        <ele>228.5</ele>
        <time>2014-10-05T08:46:45Z</time>
      </trkpt>
      <trkpt lat="43.41396" lon="6.61645">
        <ele>229.2</ele>
        <time>2014-10-05T08:46:48Z</time>
      </trkpt>
      <trkpt lat="43.41398" lon="6.61642">
        <ele>229.7</ele>
        <time>2014-10-05T08:46:50Z</time>
      </trkpt>
      <trkpt lat="43.414" lon="6.61639">
        <ele>230.1</ele>
        <time>2014-10-05T08:46:52Z</time>
      </trkpt>
      <trkpt lat="43.41401" lon="6.61635">
        <ele>230.7</ele>
        <time>2014-10-05T08:46:54Z</time>
      </trkpt>
      <trkpt lat="43.41402" lon="6.61629">
        <ele>231.7</ele>
        <time>2014-10-05T08:46:57Z</time>
      </trkpt>
      <trkpt lat="43.41402" lon="6.61625">
        <ele>232.4</ele>
        <time>2014-10-05T08:46:59Z</time>
      </trkpt>
      <trkpt lat="43.41404" lon="6.61621">
        <ele>233.3</ele>
        <time>2014-10-05T08:47:01Z</time>
      </trkpt>
      <trkpt lat="43.41405" lon="6.61617">
        <ele>234.3</ele>
        <time>2014-10-05T08:47:03Z</time>
      </trkpt>
      <trkpt lat="43.41407" lon="6.61613">
        <ele>235.3</ele>
        <time>2014-10-05T08:47:05Z</time>
      </trkpt>
      <trkpt lat="43.41409" lon="6.61609">
        <ele>236</ele>
        <time>2014-10-05T08:47:07Z</time>
      </trkpt>
      <trkpt lat="43.41412" lon="6.61606">
        <ele>236.7</ele>
        <time>2014-10-05T08:47:09Z</time>
      </trkpt>
      <trkpt lat="43.41415" lon="6.61604">
        <ele>236.9</ele>
        <time>2014-10-05T08:47:11Z</time>
      </trkpt>
      <trkpt lat="43.4142" lon="6.61602">
        <ele>237</ele>
        <time>2014-10-05T08:47:13Z</time>
      </trkpt>
      <trkpt lat="43.41423" lon="6.616">
        <ele>237.2</ele>
        <time>2014-10-05T08:47:14Z</time>
      </trkpt>
      <trkpt lat="43.41426" lon="6.61599">
        <ele>237.4</ele>
        <time>2014-10-05T08:47:15Z</time>
      </trkpt>
      <trkpt lat="43.41429" lon="6.61597">
        <ele>237.6</ele>
        <time>2014-10-05T08:47:16Z</time>
      </trkpt>
      <trkpt lat="43.41432" lon="6.61595">
        <ele>237.8</ele>
        <time>2014-10-05T08:47:17Z</time>
      </trkpt>
      <trkpt lat="43.41434" lon="6.61594">
        <ele>237.9</ele>
        <time>2014-10-05T08:47:18Z</time>
      </trkpt>
      <trkpt lat="43.41439" lon="6.61589">
        <ele>238.6</ele>
        <time>2014-10-05T08:47:20Z</time>
      </trkpt>
      <trkpt lat="43.41441" lon="6.61586">
        <ele>239</ele>
        <time>2014-10-05T08:47:21Z</time>
      </trkpt>
      <trkpt lat="43.41444" lon="6.61584">
        <ele>239.3</ele>
        <time>2014-10-05T08:47:23Z</time>
      </trkpt>
      <trkpt lat="43.41447" lon="6.61584">
        <ele>239.1</ele>
        <time>2014-10-05T08:47:25Z</time>
      </trkpt>
      <trkpt lat="43.4145" lon="6.61583">
        <ele>239</ele>
        <time>2014-10-05T08:47:27Z</time>
      </trkpt>
      <trkpt lat="43.41453" lon="6.61583">
        <ele>238.7</ele>
        <time>2014-10-05T08:47:30Z</time>
      </trkpt>
      <trkpt lat="43.41457" lon="6.61583">
        <ele>238.2</ele>
        <time>2014-10-05T08:47:32Z</time>
      </trkpt>
      <trkpt lat="43.41461" lon="6.61583">
        <ele>238.1</ele>
        <time>2014-10-05T08:47:34Z</time>
      </trkpt>
      <trkpt lat="43.41465" lon="6.6158">
        <ele>238.5</ele>
        <time>2014-10-05T08:47:36Z</time>
      </trkpt>
      <trkpt lat="43.41469" lon="6.61577">
        <ele>239</ele>
        <time>2014-10-05T08:47:38Z</time>
      </trkpt>
      <trkpt lat="43.41472" lon="6.61574">
        <ele>239.5</ele>
        <time>2014-10-05T08:47:40Z</time>
      </trkpt>
      <trkpt lat="43.41474" lon="6.61571">
        <ele>240</ele>
        <time>2014-10-05T08:47:42Z</time>
      </trkpt>
      <trkpt lat="43.41475" lon="6.61567">
        <ele>240.7</ele>
        <time>2014-10-05T08:47:45Z</time>
      </trkpt>
      <trkpt lat="43.41476" lon="6.61564">
        <ele>241.3</ele>
        <time>2014-10-05T08:47:48Z</time>
      </trkpt>
      <trkpt lat="43.4148" lon="6.61563">
        <ele>241.2</ele>
        <time>2014-10-05T08:47:55Z</time>
      </trkpt>
      <trkpt lat="43.41483" lon="6.61564">
        <ele>240.9</ele>
        <time>2014-10-05T08:47:58Z</time>
      </trkpt>
      <trkpt lat="43.41487" lon="6.61566">
        <ele>240.4</ele>
        <time>2014-10-05T08:48:01Z</time>
      </trkpt>
      <trkpt lat="43.4149" lon="6.61565">
        <ele>240.3</ele>
        <time>2014-10-05T08:48:03Z</time>
      </trkpt>
      <trkpt lat="43.41494" lon="6.61565">
        <ele>240.2</ele>
        <time>2014-10-05T08:48:05Z</time>
      </trkpt>
      <trkpt lat="43.41497" lon="6.61565">
        <ele>240</ele>
        <time>2014-10-05T08:48:07Z</time>
      </trkpt>
      <trkpt lat="43.415" lon="6.61566">
        <ele>239.8</ele>
        <time>2014-10-05T08:48:09Z</time>
      </trkpt>
      <trkpt lat="43.41504" lon="6.61566">
        <ele>239.5</ele>
        <time>2014-10-05T08:48:12Z</time>
      </trkpt>
      <trkpt lat="43.41507" lon="6.61566">
        <ele>239.4</ele>
        <time>2014-10-05T08:48:14Z</time>
      </trkpt>
      <trkpt lat="43.4151" lon="6.61565">
        <ele>239.4</ele>
        <time>2014-10-05T08:48:16Z</time>
      </trkpt>
      <trkpt lat="43.41513" lon="6.61564">
        <ele>239.4</ele>
        <time>2014-10-05T08:48:18Z</time>
      </trkpt>
      <trkpt lat="43.41516" lon="6.61564">
        <ele>239.2</ele>
        <time>2014-10-05T08:48:20Z</time>
      </trkpt>
      <trkpt lat="43.4152" lon="6.61564">
        <ele>239</ele>
        <time>2014-10-05T08:48:22Z</time>
      </trkpt>
      <trkpt lat="43.41524" lon="6.61564">
        <ele>238.8</ele>
        <time>2014-10-05T08:48:24Z</time>
      </trkpt>
      <trkpt lat="43.41528" lon="6.61564">
        <ele>238.6</ele>
        <time>2014-10-05T08:48:26Z</time>
      </trkpt>
      <trkpt lat="43.41531" lon="6.61564">
        <ele>238.4</ele>
        <time>2014-10-05T08:48:28Z</time>
      </trkpt>
      <trkpt lat="43.41535" lon="6.61563">
        <ele>238.3</ele>
        <time>2014-10-05T08:48:30Z</time>
      </trkpt>
      <trkpt lat="43.41538" lon="6.61561">
        <ele>238.4</ele>
        <time>2014-10-05T08:48:32Z</time>
      </trkpt>
      <trkpt lat="43.41541" lon="6.61558">
        <ele>238.4</ele>
        <time>2014-10-05T08:48:34Z</time>
      </trkpt>
      <trkpt lat="43.41545" lon="6.61558">
        <ele>238.9</ele>
        <time>2014-10-05T08:48:36Z</time>
      </trkpt>
      <trkpt lat="43.41549" lon="6.61559">
        <ele>239.5</ele>
        <time>2014-10-05T08:48:38Z</time>
      </trkpt>
      <trkpt lat="43.41553" lon="6.6156">
        <ele>240</ele>
        <time>2014-10-05T08:48:40Z</time>
      </trkpt>
      <trkpt lat="43.41556" lon="6.61561">
        <ele>240.4</ele>
        <time>2014-10-05T08:48:42Z</time>
      </trkpt>
      <trkpt lat="43.41559" lon="6.61561">
        <ele>240.8</ele>
        <time>2014-10-05T08:48:44Z</time>
      </trkpt>
      <trkpt lat="43.41561" lon="6.61562">
        <ele>241.2</ele>
        <time>2014-10-05T08:48:46Z</time>
      </trkpt>
      <trkpt lat="43.41565" lon="6.61563">
        <ele>241.8</ele>
        <time>2014-10-05T08:48:49Z</time>
      </trkpt>
      <trkpt lat="43.41568" lon="6.61563">
        <ele>242.3</ele>
        <time>2014-10-05T08:48:52Z</time>
      </trkpt>
      <trkpt lat="43.41572" lon="6.61563">
        <ele>242.8</ele>
        <time>2014-10-05T08:48:55Z</time>
      </trkpt>
      <trkpt lat="43.41574" lon="6.61563">
        <ele>243.2</ele>
        <time>2014-10-05T08:48:58Z</time>
      </trkpt>
      <trkpt lat="43.41577" lon="6.61565">
        <ele>243.5</ele>
        <time>2014-10-05T08:49:01Z</time>
      </trkpt>
      <trkpt lat="43.41579" lon="6.61568">
        <ele>243.7</ele>
        <time>2014-10-05T08:49:03Z</time>
      </trkpt>
      <trkpt lat="43.41583" lon="6.6157">
        <ele>244.1</ele>
        <time>2014-10-05T08:49:06Z</time>
      </trkpt>
      <trkpt lat="43.41587" lon="6.61571">
        <ele>244.6</ele>
        <time>2014-10-05T08:49:09Z</time>
      </trkpt>
      <trkpt lat="43.4159" lon="6.61573">
        <ele>245</ele>
        <time>2014-10-05T08:49:12Z</time>
      </trkpt>
      <trkpt lat="43.41593" lon="6.61575">
        <ele>245.3</ele>
        <time>2014-10-05T08:49:14Z</time>
      </trkpt>
      <trkpt lat="43.41595" lon="6.61578">
        <ele>245.4</ele>
        <time>2014-10-05T08:49:17Z</time>
      </trkpt>
      <trkpt lat="43.41598" lon="6.61582">
        <ele>245.7</ele>
        <time>2014-10-05T08:49:20Z</time>
      </trkpt>
      <trkpt lat="43.41601" lon="6.61585">
        <ele>245.9</ele>
        <time>2014-10-05T08:49:23Z</time>
      </trkpt>
      <trkpt lat="43.41604" lon="6.61588">
        <ele>246.2</ele>
        <time>2014-10-05T08:49:26Z</time>
      </trkpt>
      <trkpt lat="43.41606" lon="6.6159">
        <ele>246.3</ele>
        <time>2014-10-05T08:49:29Z</time>
      </trkpt>
      <trkpt lat="43.4161" lon="6.61593">
        <ele>246.6</ele>
        <time>2014-10-05T08:49:32Z</time>
      </trkpt>
      <trkpt lat="43.41612" lon="6.61595">
        <ele>246.9</ele>
        <time>2014-10-05T08:49:34Z</time>
      </trkpt>
      <trkpt lat="43.41616" lon="6.61596">
        <ele>247.5</ele>
        <time>2014-10-05T08:49:37Z</time>
      </trkpt>
      <trkpt lat="43.41619" lon="6.61594">
        <ele>248.1</ele>
        <time>2014-10-05T08:49:40Z</time>
      </trkpt>
      <trkpt lat="43.41622" lon="6.61593">
        <ele>248.7</ele>
        <time>2014-10-05T08:49:43Z</time>
      </trkpt>
      <trkpt lat="43.41625" lon="6.61594">
        <ele>249.3</ele>
        <time>2014-10-05T08:49:46Z</time>
      </trkpt>
      <trkpt lat="43.41629" lon="6.61593">
        <ele>249.9</ele>
        <time>2014-10-05T08:49:49Z</time>
      </trkpt>
      <trkpt lat="43.41633" lon="6.61592">
        <ele>250.4</ele>
        <time>2014-10-05T08:49:52Z</time>
      </trkpt>
      <trkpt lat="43.41636" lon="6.61593">
        <ele>250.9</ele>
        <time>2014-10-05T08:49:55Z</time>
      </trkpt>
      <trkpt lat="43.4164" lon="6.61594">
        <ele>251.3</ele>
        <time>2014-10-05T08:49:58Z</time>
      </trkpt>
      <trkpt lat="43.41642" lon="6.61596">
        <ele>251.5</ele>
        <time>2014-10-05T08:50:01Z</time>
      </trkpt>
      <trkpt lat="43.41646" lon="6.61597">
        <ele>251.9</ele>
        <time>2014-10-05T08:50:04Z</time>
      </trkpt>
      <trkpt lat="43.4165" lon="6.61599">
        <ele>252.3</ele>
        <time>2014-10-05T08:50:07Z</time>
      </trkpt>
      <trkpt lat="43.41654" lon="6.61598">
        <ele>252.9</ele>
        <time>2014-10-05T08:50:10Z</time>
      </trkpt>
      <trkpt lat="43.41657" lon="6.616">
        <ele>253.3</ele>
        <time>2014-10-05T08:50:13Z</time>
      </trkpt>
      <trkpt lat="43.41661" lon="6.616">
        <ele>253.8</ele>
        <time>2014-10-05T08:50:16Z</time>
      </trkpt>
      <trkpt lat="43.41664" lon="6.61602">
        <ele>254.1</ele>
        <time>2014-10-05T08:50:19Z</time>
      </trkpt>
      <trkpt lat="43.41667" lon="6.61602">
        <ele>254.6</ele>
        <time>2014-10-05T08:50:22Z</time>
      </trkpt>
      <trkpt lat="43.41671" lon="6.61602">
        <ele>255.1</ele>
        <time>2014-10-05T08:50:25Z</time>
      </trkpt>
      <trkpt lat="43.41675" lon="6.61603">
        <ele>255.6</ele>
        <time>2014-10-05T08:50:28Z</time>
      </trkpt>
      <trkpt lat="43.41678" lon="6.61603">
        <ele>256</ele>
        <time>2014-10-05T08:50:30Z</time>
      </trkpt>
      <trkpt lat="43.4168" lon="6.61604">
        <ele>256.4</ele>
        <time>2014-10-05T08:50:32Z</time>
      </trkpt>
      <trkpt lat="43.41684" lon="6.61604">
        <ele>256.9</ele>
        <time>2014-10-05T08:50:35Z</time>
      </trkpt>
      <trkpt lat="43.41687" lon="6.61602">
        <ele>257.4</ele>
        <time>2014-10-05T08:50:38Z</time>
      </trkpt>
      <trkpt lat="43.41689" lon="6.61599">
        <ele>257.8</ele>
        <time>2014-10-05T08:52:19Z</time>
      </trkpt>
      <trkpt lat="43.4169" lon="6.61595">
        <ele>258.2</ele>
        <time>2014-10-05T08:52:21Z</time>
      </trkpt>
      <trkpt lat="43.41691" lon="6.61592">
        <ele>258.5</ele>
        <time>2014-10-05T08:52:23Z</time>
      </trkpt>
      <trkpt lat="43.41692" lon="6.61588">
        <ele>258.9</ele>
        <time>2014-10-05T08:52:25Z</time>
      </trkpt>
      <trkpt lat="43.41694" lon="6.61583">
        <ele>259.5</ele>
        <time>2014-10-05T08:52:27Z</time>
      </trkpt>
      <trkpt lat="43.41696" lon="6.61578">
        <ele>260.1</ele>
        <time>2014-10-05T08:52:29Z</time>
      </trkpt>
      <trkpt lat="43.41697" lon="6.61574">
        <ele>260.6</ele>
        <time>2014-10-05T08:52:31Z</time>
      </trkpt>
      <trkpt lat="43.41699" lon="6.61569">
        <ele>261.1</ele>
        <time>2014-10-05T08:52:33Z</time>
      </trkpt>
      <trkpt lat="43.41701" lon="6.61565">
        <ele>261.6</ele>
        <time>2014-10-05T08:52:35Z</time>
      </trkpt>
      <trkpt lat="43.41703" lon="6.61561">
        <ele>262.1</ele>
        <time>2014-10-05T08:52:37Z</time>
      </trkpt>
      <trkpt lat="43.41705" lon="6.61557">
        <ele>262.6</ele>
        <time>2014-10-05T08:52:39Z</time>
      </trkpt>
      <trkpt lat="43.41707" lon="6.61553">
        <ele>263.1</ele>
        <time>2014-10-05T08:52:42Z</time>
      </trkpt>
      <trkpt lat="43.41707" lon="6.61549">
        <ele>263.4</ele>
        <time>2014-10-05T08:52:44Z</time>
      </trkpt>
      <trkpt lat="43.41708" lon="6.61546">
        <ele>263.7</ele>
        <time>2014-10-05T08:52:46Z</time>
      </trkpt>
      <trkpt lat="43.41708" lon="6.61542">
        <ele>264</ele>
        <time>2014-10-05T08:52:48Z</time>
      </trkpt>
      <trkpt lat="43.41708" lon="6.61537">
        <ele>264</ele>
        <time>2014-10-05T08:52:50Z</time>
      </trkpt>
      <trkpt lat="43.41708" lon="6.61534">
        <ele>264</ele>
        <time>2014-10-05T08:52:52Z</time>
      </trkpt>
      <trkpt lat="43.41708" lon="6.6153">
        <ele>264.1</ele>
        <time>2014-10-05T08:52:54Z</time>
      </trkpt>
      <trkpt lat="43.41709" lon="6.61526">
        <ele>264.2</ele>
        <time>2014-10-05T08:52:56Z</time>
      </trkpt>
      <trkpt lat="43.41712" lon="6.61525">
        <ele>264.1</ele>
        <time>2014-10-05T08:55:44Z</time>
      </trkpt>
      <trkpt lat="43.41715" lon="6.61528">
        <ele>264</ele>
        <time>2014-10-05T08:55:45Z</time>
      </trkpt>
      <trkpt lat="43.41717" lon="6.6153">
        <ele>263.9</ele>
        <time>2014-10-05T08:55:46Z</time>
      </trkpt>
      <trkpt lat="43.4172" lon="6.61532">
        <ele>263.9</ele>
        <time>2014-10-05T08:55:47Z</time>
      </trkpt>
      <trkpt lat="43.41723" lon="6.61533">
        <ele>263.8</ele>
        <time>2014-10-05T08:55:48Z</time>
      </trkpt>
      <trkpt lat="43.41727" lon="6.61534">
        <ele>263.7</ele>
        <time>2014-10-05T08:55:49Z</time>
      </trkpt>
      <trkpt lat="43.41732" lon="6.61533">
        <ele>263.6</ele>
        <time>2014-10-05T08:55:50Z</time>
      </trkpt>
      <trkpt lat="43.41736" lon="6.61531">
        <ele>263.5</ele>
        <time>2014-10-05T08:55:51Z</time>
      </trkpt>
      <trkpt lat="43.41741" lon="6.61529">
        <ele>263.3</ele>
        <time>2014-10-05T08:55:52Z</time>
      </trkpt>
      <trkpt lat="43.41746" lon="6.61526">
        <ele>263.1</ele>
        <time>2014-10-05T08:55:53Z</time>
      </trkpt>
      <trkpt lat="43.41754" lon="6.61517">
        <ele>262.6</ele>
        <time>2014-10-05T08:55:54Z</time>
      </trkpt>
      <trkpt lat="43.41758" lon="6.61514">
        <ele>262.3</ele>
        <time>2014-10-05T08:55:55Z</time>
      </trkpt>
      <trkpt lat="43.41762" lon="6.61508">
        <ele>261.9</ele>
        <time>2014-10-05T08:55:56Z</time>
      </trkpt>
      <trkpt lat="43.41768" lon="6.61504">
        <ele>261.5</ele>
        <time>2014-10-05T08:55:57Z</time>
      </trkpt>
      <trkpt lat="43.41772" lon="6.61499">
        <ele>261</ele>
        <time>2014-10-05T08:55:58Z</time>
      </trkpt>
      <trkpt lat="43.41778" lon="6.61495">
        <ele>260.5</ele>
        <time>2014-10-05T08:55:59Z</time>
      </trkpt>
      <trkpt lat="43.41783" lon="6.61489">
        <ele>259.8</ele>
        <time>2014-10-05T08:56:00Z</time>
      </trkpt>
      <trkpt lat="43.41788" lon="6.61482">
        <ele>259</ele>
        <time>2014-10-05T08:56:01Z</time>
      </trkpt>
      <trkpt lat="43.41794" lon="6.61476">
        <ele>258.1</ele>
        <time>2014-10-05T08:56:02Z</time>
      </trkpt>
      <trkpt lat="43.418" lon="6.61471">
        <ele>257.3</ele>
        <time>2014-10-05T08:56:03Z</time>
      </trkpt>
      <trkpt lat="43.41808" lon="6.61468">
        <ele>256.6</ele>
        <time>2014-10-05T08:56:04Z</time>
      </trkpt>
      <trkpt lat="43.41815" lon="6.61464">
        <ele>255.9</ele>
        <time>2014-10-05T08:56:05Z</time>
      </trkpt>
      <trkpt lat="43.41822" lon="6.6146">
        <ele>255.3</ele>
        <time>2014-10-05T08:56:06Z</time>
      </trkpt>
      <trkpt lat="43.41829" lon="6.61457">
        <ele>254.5</ele>
        <time>2014-10-05T08:56:07Z</time>
      </trkpt>
      <trkpt lat="43.41836" lon="6.61454">
        <ele>253.6</ele>
        <time>2014-10-05T08:56:08Z</time>
      </trkpt>
      <trkpt lat="43.41844" lon="6.61454">
        <ele>253.1</ele>
        <time>2014-10-05T08:56:09Z</time>
      </trkpt>
      <trkpt lat="43.41848" lon="6.61453">
        <ele>252.7</ele>
        <time>2014-10-05T08:56:10Z</time>
      </trkpt>
      <trkpt lat="43.41853" lon="6.61453">
        <ele>252.3</ele>
        <time>2014-10-05T08:56:11Z</time>
      </trkpt>
      <trkpt lat="43.41858" lon="6.61452">
        <ele>252</ele>
        <time>2014-10-05T08:56:12Z</time>
      </trkpt>
      <trkpt lat="43.41862" lon="6.61452">
        <ele>251.7</ele>
        <time>2014-10-05T08:56:13Z</time>
      </trkpt>
      <trkpt lat="43.41866" lon="6.61452">
        <ele>251.5</ele>
        <time>2014-10-05T08:56:14Z</time>
      </trkpt>
      <trkpt lat="43.4187" lon="6.61452">
        <ele>251.3</ele>
        <time>2014-10-05T08:56:15Z</time>
      </trkpt>
      <trkpt lat="43.41874" lon="6.61453">
        <ele>251.1</ele>
        <time>2014-10-05T08:56:16Z</time>
      </trkpt>
      <trkpt lat="43.41877" lon="6.61453">
        <ele>251.1</ele>
        <time>2014-10-05T08:56:17Z</time>
      </trkpt>
      <trkpt lat="43.41883" lon="6.61453">
        <ele>251.3</ele>
        <time>2014-10-05T08:56:18Z</time>
      </trkpt>
      <trkpt lat="43.4189" lon="6.61453">
        <ele>251.4</ele>
        <time>2014-10-05T08:56:19Z</time>
      </trkpt>
      <trkpt lat="43.41895" lon="6.61452">
        <ele>251.5</ele>
        <time>2014-10-05T08:56:20Z</time>
      </trkpt>
      <trkpt lat="43.41902" lon="6.61451">
        <ele>251.5</ele>
        <time>2014-10-05T08:56:21Z</time>
      </trkpt>
      <trkpt lat="43.41909" lon="6.61449">
        <ele>251.4</ele>
        <time>2014-10-05T08:56:22Z</time>
      </trkpt>
      <trkpt lat="43.41914" lon="6.61447">
        <ele>251.3</ele>
        <time>2014-10-05T08:56:23Z</time>
      </trkpt>
      <trkpt lat="43.4192" lon="6.61445">
        <ele>251.3</ele>
        <time>2014-10-05T08:56:24Z</time>
      </trkpt>
      <trkpt lat="43.41925" lon="6.61445">
        <ele>251.3</ele>
        <time>2014-10-05T08:56:25Z</time>
      </trkpt>
      <trkpt lat="43.41929" lon="6.61445">
        <ele>251.4</ele>
        <time>2014-10-05T08:56:26Z</time>
      </trkpt>
      <trkpt lat="43.41936" lon="6.61445">
        <ele>251.7</ele>
        <time>2014-10-05T08:56:27Z</time>
      </trkpt>
      <trkpt lat="43.41941" lon="6.61446">
        <ele>252</ele>
        <time>2014-10-05T08:56:28Z</time>
      </trkpt>
      <trkpt lat="43.41945" lon="6.61451">
        <ele>252.7</ele>
        <time>2014-10-05T08:56:29Z</time>
      </trkpt>
      <trkpt lat="43.4195" lon="6.61452">
        <ele>253</ele>
        <time>2014-10-05T08:56:30Z</time>
      </trkpt>
      <trkpt lat="43.41954" lon="6.61453">
        <ele>253.3</ele>
        <time>2014-10-05T08:56:31Z</time>
      </trkpt>
      <trkpt lat="43.41959" lon="6.61451">
        <ele>253.1</ele>
        <time>2014-10-05T08:56:32Z</time>
      </trkpt>
      <trkpt lat="43.41965" lon="6.61452">
        <ele>253.5</ele>
        <time>2014-10-05T08:56:33Z</time>
      </trkpt>
      <trkpt lat="43.41969" lon="6.61454">
        <ele>253.8</ele>
        <time>2014-10-05T08:56:34Z</time>
      </trkpt>
      <trkpt lat="43.41974" lon="6.61455">
        <ele>254.1</ele>
        <time>2014-10-05T08:56:35Z</time>
      </trkpt>
      <trkpt lat="43.41978" lon="6.61456">
        <ele>254.4</ele>
        <time>2014-10-05T08:56:36Z</time>
      </trkpt>
      <trkpt lat="43.41983" lon="6.61457">
        <ele>254.7</ele>
        <time>2014-10-05T08:56:37Z</time>
      </trkpt>
      <trkpt lat="43.41987" lon="6.61458">
        <ele>255</ele>
        <time>2014-10-05T08:56:38Z</time>
      </trkpt>
      <trkpt lat="43.4199" lon="6.6146">
        <ele>255.1</ele>
        <time>2014-10-05T08:56:39Z</time>
      </trkpt>
      <trkpt lat="43.41994" lon="6.61461">
        <ele>255.2</ele>
        <time>2014-10-05T08:56:41Z</time>
      </trkpt>
      <trkpt lat="43.41999" lon="6.61462">
        <ele>255.4</ele>
        <time>2014-10-05T08:56:42Z</time>
      </trkpt>
      <trkpt lat="43.42002" lon="6.61463">
        <ele>255.5</ele>
        <time>2014-10-05T08:56:44Z</time>
      </trkpt>
      <trkpt lat="43.42006" lon="6.61463">
        <ele>255.6</ele>
        <time>2014-10-05T08:56:46Z</time>
      </trkpt>
      <trkpt lat="43.42011" lon="6.61463">
        <ele>255.8</ele>
        <time>2014-10-05T08:56:47Z</time>
      </trkpt>
      <trkpt lat="43.42015" lon="6.61463">
        <ele>256</ele>
        <time>2014-10-05T08:56:51Z</time>
      </trkpt>
      <trkpt lat="43.42018" lon="6.61464">
        <ele>256.1</ele>
        <time>2014-10-05T08:56:53Z</time>
      </trkpt>
      <trkpt lat="43.42021" lon="6.61464">
        <ele>256.2</ele>
        <time>2014-10-05T08:56:55Z</time>
      </trkpt>
      <trkpt lat="43.42025" lon="6.61463">
        <ele>256.4</ele>
        <time>2014-10-05T08:56:57Z</time>
      </trkpt>
      <trkpt lat="43.42028" lon="6.61463">
        <ele>256.5</ele>
        <time>2014-10-05T08:56:59Z</time>
      </trkpt>
      <trkpt lat="43.42032" lon="6.61463">
        <ele>256.7</ele>
        <time>2014-10-05T08:57:01Z</time>
      </trkpt>
      <trkpt lat="43.42035" lon="6.61464">
        <ele>256.8</ele>
        <time>2014-10-05T08:57:03Z</time>
      </trkpt>
      <trkpt lat="43.42039" lon="6.61464">
        <ele>257</ele>
        <time>2014-10-05T08:57:05Z</time>
      </trkpt>
      <trkpt lat="43.42043" lon="6.61464">
        <ele>257.2</ele>
        <time>2014-10-05T08:57:07Z</time>
      </trkpt>
      <trkpt lat="43.42045" lon="6.61467">
        <ele>257.5</ele>
        <time>2014-10-05T08:57:09Z</time>
      </trkpt>
      <trkpt lat="43.42049" lon="6.61469">
        <ele>257.9</ele>
        <time>2014-10-05T08:57:11Z</time>
      </trkpt>
      <trkpt lat="43.42052" lon="6.61471">
        <ele>258.3</ele>
        <time>2014-10-05T08:57:13Z</time>
      </trkpt>
      <trkpt lat="43.42055" lon="6.61473">
        <ele>258.6</ele>
        <time>2014-10-05T08:57:15Z</time>
      </trkpt>
      <trkpt lat="43.42057" lon="6.61474">
        <ele>258.9</ele>
        <time>2014-10-05T08:57:17Z</time>
      </trkpt>
      <trkpt lat="43.4206" lon="6.61479">
        <ele>259.3</ele>
        <time>2014-10-05T08:57:20Z</time>
      </trkpt>
      <trkpt lat="43.42063" lon="6.61482">
        <ele>259.7</ele>
        <time>2014-10-05T08:57:22Z</time>
      </trkpt>
      <trkpt lat="43.42066" lon="6.61483">
        <ele>260.1</ele>
        <time>2014-10-05T08:57:24Z</time>
      </trkpt>
      <trkpt lat="43.4207" lon="6.61484">
        <ele>260.5</ele>
        <time>2014-10-05T08:57:26Z</time>
      </trkpt>
      <trkpt lat="43.42074" lon="6.61485">
        <ele>261</ele>
        <time>2014-10-05T08:57:28Z</time>
      </trkpt>
      <trkpt lat="43.42078" lon="6.61486">
        <ele>261.5</ele>
        <time>2014-10-05T08:57:30Z</time>
      </trkpt>
      <trkpt lat="43.42082" lon="6.61486">
        <ele>262</ele>
        <time>2014-10-05T08:57:32Z</time>
      </trkpt>
      <trkpt lat="43.42086" lon="6.61486">
        <ele>262.5</ele>
        <time>2014-10-05T08:57:34Z</time>
      </trkpt>
      <trkpt lat="43.4209" lon="6.61487">
        <ele>263</ele>
        <time>2014-10-05T08:57:36Z</time>
      </trkpt>
      <trkpt lat="43.42093" lon="6.61489">
        <ele>263.4</ele>
        <time>2014-10-05T08:57:38Z</time>
      </trkpt>
      <trkpt lat="43.42097" lon="6.61492">
        <ele>263.9</ele>
        <time>2014-10-05T08:57:40Z</time>
      </trkpt>
      <trkpt lat="43.42101" lon="6.61494">
        <ele>264.4</ele>
        <time>2014-10-05T08:57:42Z</time>
      </trkpt>
      <trkpt lat="43.42105" lon="6.61496">
        <ele>264.9</ele>
        <time>2014-10-05T08:57:44Z</time>
      </trkpt>
      <trkpt lat="43.42108" lon="6.61498">
        <ele>265.4</ele>
        <time>2014-10-05T08:57:46Z</time>
      </trkpt>
      <trkpt lat="43.42111" lon="6.61501">
        <ele>265.8</ele>
        <time>2014-10-05T08:57:48Z</time>
      </trkpt>
      <trkpt lat="43.42114" lon="6.61505">
        <ele>266.3</ele>
        <time>2014-10-05T08:57:50Z</time>
      </trkpt>
      <trkpt lat="43.42115" lon="6.6151">
        <ele>266.6</ele>
        <time>2014-10-05T08:57:52Z</time>
      </trkpt>
      <trkpt lat="43.42116" lon="6.61513">
        <ele>266.9</ele>
        <time>2014-10-05T08:57:54Z</time>
      </trkpt>
      <trkpt lat="43.42118" lon="6.61518">
        <ele>267.3</ele>
        <time>2014-10-05T08:57:56Z</time>
      </trkpt>
      <trkpt lat="43.42121" lon="6.61524">
        <ele>267.8</ele>
        <time>2014-10-05T08:57:58Z</time>
      </trkpt>
      <trkpt lat="43.42122" lon="6.61528">
        <ele>268.1</ele>
        <time>2014-10-05T08:57:59Z</time>
      </trkpt>
      <trkpt lat="43.42124" lon="6.61531">
        <ele>268.5</ele>
        <time>2014-10-05T08:58:00Z</time>
      </trkpt>
      <trkpt lat="43.42126" lon="6.61534">
        <ele>268.8</ele>
        <time>2014-10-05T08:58:01Z</time>
      </trkpt>
      <trkpt lat="43.42127" lon="6.61538">
        <ele>269.1</ele>
        <time>2014-10-05T08:58:02Z</time>
      </trkpt>
      <trkpt lat="43.42128" lon="6.61541">
        <ele>269.3</ele>
        <time>2014-10-05T08:58:03Z</time>
      </trkpt>
      <trkpt lat="43.4213" lon="6.61545">
        <ele>269.4</ele>
        <time>2014-10-05T08:58:04Z</time>
      </trkpt>
      <trkpt lat="43.42131" lon="6.61548">
        <ele>269.5</ele>
        <time>2014-10-05T08:58:05Z</time>
      </trkpt>
      <trkpt lat="43.42133" lon="6.61551">
        <ele>269.5</ele>
        <time>2014-10-05T08:58:06Z</time>
      </trkpt>
      <trkpt lat="43.42136" lon="6.61553">
        <ele>269.7</ele>
        <time>2014-10-05T08:58:07Z</time>
      </trkpt>
      <trkpt lat="43.42138" lon="6.61554">
        <ele>270</ele>
        <time>2014-10-05T08:58:08Z</time>
      </trkpt>
      <trkpt lat="43.42141" lon="6.61554">
        <ele>270.3</ele>
        <time>2014-10-05T08:58:09Z</time>
      </trkpt>
      <trkpt lat="43.42144" lon="6.61553">
        <ele>270.6</ele>
        <time>2014-10-05T08:58:10Z</time>
      </trkpt>
      <trkpt lat="43.42149" lon="6.61551">
        <ele>271.2</ele>
        <time>2014-10-05T08:58:12Z</time>
      </trkpt>
      <trkpt lat="43.42152" lon="6.6155">
        <ele>271.5</ele>
        <time>2014-10-05T08:58:13Z</time>
      </trkpt>
      <trkpt lat="43.42154" lon="6.6155">
        <ele>271.9</ele>
        <time>2014-10-05T08:58:14Z</time>
      </trkpt>
      <trkpt lat="43.42157" lon="6.61548">
        <ele>272.2</ele>
        <time>2014-10-05T08:58:15Z</time>
      </trkpt>
      <trkpt lat="43.4216" lon="6.61547">
        <ele>272.5</ele>
        <time>2014-10-05T08:58:16Z</time>
      </trkpt>
      <trkpt lat="43.42162" lon="6.61545">
        <ele>272.9</ele>
        <time>2014-10-05T08:58:17Z</time>
      </trkpt>
      <trkpt lat="43.42165" lon="6.61543">
        <ele>273.3</ele>
        <time>2014-10-05T08:58:18Z</time>
      </trkpt>
      <trkpt lat="43.42168" lon="6.61541">
        <ele>273.6</ele>
        <time>2014-10-05T08:58:19Z</time>
      </trkpt>
      <trkpt lat="43.42173" lon="6.61538">
        <ele>274.1</ele>
        <time>2014-10-05T08:58:21Z</time>
      </trkpt>
      <trkpt lat="43.42176" lon="6.61535">
        <ele>274.4</ele>
        <time>2014-10-05T08:58:23Z</time>
      </trkpt>
      <trkpt lat="43.4218" lon="6.61532">
        <ele>274.8</ele>
        <time>2014-10-05T08:58:25Z</time>
      </trkpt>
      <trkpt lat="43.42182" lon="6.6153">
        <ele>275</ele>
        <time>2014-10-05T08:58:27Z</time>
      </trkpt>
      <trkpt lat="43.42185" lon="6.61526">
        <ele>275.3</ele>
        <time>2014-10-05T08:58:29Z</time>
      </trkpt>
      <trkpt lat="43.42188" lon="6.61522">
        <ele>275.6</ele>
        <time>2014-10-05T08:58:31Z</time>
      </trkpt>
      <trkpt lat="43.42191" lon="6.61517">
        <ele>276</ele>
        <time>2014-10-05T08:58:33Z</time>
      </trkpt>
      <trkpt lat="43.42194" lon="6.61514">
        <ele>276.2</ele>
        <time>2014-10-05T08:58:34Z</time>
      </trkpt>
      <trkpt lat="43.42196" lon="6.61512">
        <ele>276.5</ele>
        <time>2014-10-05T08:58:35Z</time>
      </trkpt>
      <trkpt lat="43.42198" lon="6.61509">
        <ele>276.8</ele>
        <time>2014-10-05T08:58:36Z</time>
      </trkpt>
      <trkpt lat="43.422" lon="6.61506">
        <ele>277</ele>
        <time>2014-10-05T08:58:37Z</time>
      </trkpt>
      <trkpt lat="43.42202" lon="6.61503">
        <ele>277.2</ele>
        <time>2014-10-05T08:58:38Z</time>
      </trkpt>
      <trkpt lat="43.42204" lon="6.61501">
        <ele>277.5</ele>
        <time>2014-10-05T08:58:39Z</time>
      </trkpt>
      <trkpt lat="43.42207" lon="6.61495">
        <ele>277.8</ele>
        <time>2014-10-05T08:58:41Z</time>
      </trkpt>
      <trkpt lat="43.42207" lon="6.6149">
        <ele>277.9</ele>
        <time>2014-10-05T08:58:43Z</time>
      </trkpt>
      <trkpt lat="43.4221" lon="6.61487">
        <ele>278.1</ele>
        <time>2014-10-05T08:58:45Z</time>
      </trkpt>
      <trkpt lat="43.42214" lon="6.61484">
        <ele>278.3</ele>
        <time>2014-10-05T08:58:47Z</time>
      </trkpt>
      <trkpt lat="43.42217" lon="6.61482">
        <ele>278.6</ele>
        <time>2014-10-05T08:58:49Z</time>
      </trkpt>
      <trkpt lat="43.42221" lon="6.61481">
        <ele>278.9</ele>
        <time>2014-10-05T08:58:51Z</time>
      </trkpt>
      <trkpt lat="43.42225" lon="6.6148">
        <ele>279.1</ele>
        <time>2014-10-05T08:58:53Z</time>
      </trkpt>
      <trkpt lat="43.42228" lon="6.61479">
        <ele>279.4</ele>
        <time>2014-10-05T08:58:55Z</time>
      </trkpt>
      <trkpt lat="43.42231" lon="6.61477">
        <ele>279.6</ele>
        <time>2014-10-05T08:58:57Z</time>
      </trkpt>
      <trkpt lat="43.42233" lon="6.61472">
        <ele>279.8</ele>
        <time>2014-10-05T08:59:00Z</time>
      </trkpt>
      <trkpt lat="43.42231" lon="6.61469">
        <ele>279.7</ele>
        <time>2014-10-05T08:59:02Z</time>
      </trkpt>
      <trkpt lat="43.42229" lon="6.61466">
        <ele>279.6</ele>
        <time>2014-10-05T08:59:04Z</time>
      </trkpt>
      <trkpt lat="43.42228" lon="6.61463">
        <ele>279.6</ele>
        <time>2014-10-05T08:59:06Z</time>
      </trkpt>
      <trkpt lat="43.42227" lon="6.61459">
        <ele>279.6</ele>
        <time>2014-10-05T08:59:19Z</time>
      </trkpt>
      <trkpt lat="43.42225" lon="6.61453">
        <ele>279.2</ele>
        <time>2014-10-05T09:03:46Z</time>
      </trkpt>
      <trkpt lat="43.42222" lon="6.61446">
        <ele>278.5</ele>
        <time>2014-10-05T09:03:48Z</time>
      </trkpt>
      <trkpt lat="43.42221" lon="6.61441">
        <ele>278.1</ele>
        <time>2014-10-05T09:03:49Z</time>
      </trkpt>
      <trkpt lat="43.4222" lon="6.61435">
        <ele>277.8</ele>
        <time>2014-10-05T09:03:50Z</time>
      </trkpt>
      <trkpt lat="43.4222" lon="6.61427">
        <ele>277.3</ele>
        <time>2014-10-05T09:03:51Z</time>
      </trkpt>
      <trkpt lat="43.42218" lon="6.61416">
        <ele>276.6</ele>
        <time>2014-10-05T09:03:52Z</time>
      </trkpt>
      <trkpt lat="43.42217" lon="6.61404">
        <ele>275.9</ele>
        <time>2014-10-05T09:03:53Z</time>
      </trkpt>
      <trkpt lat="43.42216" lon="6.61393">
        <ele>275.3</ele>
        <time>2014-10-05T09:03:54Z</time>
      </trkpt>
      <trkpt lat="43.42216" lon="6.6138">
        <ele>274.6</ele>
        <time>2014-10-05T09:03:55Z</time>
      </trkpt>
      <trkpt lat="43.42219" lon="6.61368">
        <ele>273.9</ele>
        <time>2014-10-05T09:03:56Z</time>
      </trkpt>
      <trkpt lat="43.42221" lon="6.61357">
        <ele>272.9</ele>
        <time>2014-10-05T09:03:57Z</time>
      </trkpt>
      <trkpt lat="43.42222" lon="6.61351">
        <ele>272.5</ele>
        <time>2014-10-05T09:03:58Z</time>
      </trkpt>
      <trkpt lat="43.42226" lon="6.61346">
        <ele>272.1</ele>
        <time>2014-10-05T09:03:59Z</time>
      </trkpt>
      <trkpt lat="43.4223" lon="6.61338">
        <ele>271.5</ele>
        <time>2014-10-05T09:04:00Z</time>
      </trkpt>
      <trkpt lat="43.42235" lon="6.61327">
        <ele>270.5</ele>
        <time>2014-10-05T09:04:01Z</time>
      </trkpt>
      <trkpt lat="43.42235" lon="6.61317">
        <ele>269.5</ele>
        <time>2014-10-05T09:04:03Z</time>
      </trkpt>
      <trkpt lat="43.4223" lon="6.6131">
        <ele>268.8</ele>
        <time>2014-10-05T09:04:04Z</time>
      </trkpt>
      <trkpt lat="43.42232" lon="6.613">
        <ele>267.8</ele>
        <time>2014-10-05T09:04:05Z</time>
      </trkpt>
      <trkpt lat="43.42232" lon="6.61294">
        <ele>267.2</ele>
        <time>2014-10-05T09:04:06Z</time>
      </trkpt>
      <trkpt lat="43.42234" lon="6.61287">
        <ele>266.2</ele>
        <time>2014-10-05T09:04:07Z</time>
      </trkpt>
      <trkpt lat="43.42235" lon="6.61282">
        <ele>265.3</ele>
        <time>2014-10-05T09:04:08Z</time>
      </trkpt>
      <trkpt lat="43.42238" lon="6.61274">
        <ele>263.9</ele>
        <time>2014-10-05T09:04:09Z</time>
      </trkpt>
      <trkpt lat="43.42248" lon="6.6126">
        <ele>261.4</ele>
        <time>2014-10-05T09:04:10Z</time>
      </trkpt>
      <trkpt lat="43.42251" lon="6.61251">
        <ele>259.7</ele>
        <time>2014-10-05T09:04:12Z</time>
      </trkpt>
      <trkpt lat="43.42249" lon="6.61243">
        <ele>258.3</ele>
        <time>2014-10-05T09:04:13Z</time>
      </trkpt>
      <trkpt lat="43.4225" lon="6.61236">
        <ele>257</ele>
        <time>2014-10-05T09:04:14Z</time>
      </trkpt>
      <trkpt lat="43.4225" lon="6.6123">
        <ele>255.8</ele>
        <time>2014-10-05T09:04:15Z</time>
      </trkpt>
      <trkpt lat="43.42251" lon="6.61224">
        <ele>254.8</ele>
        <time>2014-10-05T09:04:16Z</time>
      </trkpt>
      <trkpt lat="43.42254" lon="6.61219">
        <ele>253.8</ele>
        <time>2014-10-05T09:04:17Z</time>
      </trkpt>
      <trkpt lat="43.42258" lon="6.61214">
        <ele>252.9</ele>
        <time>2014-10-05T09:04:18Z</time>
      </trkpt>
      <trkpt lat="43.42263" lon="6.6121">
        <ele>252.1</ele>
        <time>2014-10-05T09:04:19Z</time>
      </trkpt>
      <trkpt lat="43.42268" lon="6.61206">
        <ele>251.1</ele>
        <time>2014-10-05T09:04:20Z</time>
      </trkpt>
      <trkpt lat="43.42272" lon="6.61199">
        <ele>250.1</ele>
        <time>2014-10-05T09:04:21Z</time>
      </trkpt>
      <trkpt lat="43.42273" lon="6.61192">
        <ele>249</ele>
        <time>2014-10-05T09:04:22Z</time>
      </trkpt>
      <trkpt lat="43.42273" lon="6.61184">
        <ele>247.8</ele>
        <time>2014-10-05T09:04:23Z</time>
      </trkpt>
      <trkpt lat="43.42274" lon="6.61175">
        <ele>246.5</ele>
        <time>2014-10-05T09:04:24Z</time>
      </trkpt>
      <trkpt lat="43.42276" lon="6.61168">
        <ele>245.4</ele>
        <time>2014-10-05T09:04:25Z</time>
      </trkpt>
      <trkpt lat="43.42279" lon="6.61162">
        <ele>244.7</ele>
        <time>2014-10-05T09:04:26Z</time>
      </trkpt>
      <trkpt lat="43.42284" lon="6.61159">
        <ele>244.4</ele>
        <time>2014-10-05T09:04:27Z</time>
      </trkpt>
      <trkpt lat="43.42288" lon="6.61158">
        <ele>244.3</ele>
        <time>2014-10-05T09:04:28Z</time>
      </trkpt>
      <trkpt lat="43.42288" lon="6.61151">
        <ele>243.3</ele>
        <time>2014-10-05T09:04:30Z</time>
      </trkpt>
      <trkpt lat="43.42284" lon="6.61148">
        <ele>242.8</ele>
        <time>2014-10-05T09:04:31Z</time>
      </trkpt>
      <trkpt lat="43.42279" lon="6.61147">
        <ele>242.5</ele>
        <time>2014-10-05T09:04:32Z</time>
      </trkpt>
      <trkpt lat="43.42273" lon="6.61144">
        <ele>241.9</ele>
        <time>2014-10-05T09:04:33Z</time>
      </trkpt>
      <trkpt lat="43.42268" lon="6.61141">
        <ele>241.3</ele>
        <time>2014-10-05T09:04:34Z</time>
      </trkpt>
      <trkpt lat="43.42263" lon="6.61138">
        <ele>240.6</ele>
        <time>2014-10-05T09:04:35Z</time>
      </trkpt>
      <trkpt lat="43.42258" lon="6.61133">
        <ele>239.6</ele>
        <time>2014-10-05T09:04:36Z</time>
      </trkpt>
      <trkpt lat="43.42255" lon="6.61125">
        <ele>238.3</ele>
        <time>2014-10-05T09:04:37Z</time>
      </trkpt>
      <trkpt lat="43.42252" lon="6.61115">
        <ele>236.5</ele>
        <time>2014-10-05T09:04:38Z</time>
      </trkpt>
      <trkpt lat="43.42251" lon="6.61105">
        <ele>235</ele>
        <time>2014-10-05T09:04:39Z</time>
      </trkpt>
      <trkpt lat="43.4225" lon="6.61097">
        <ele>233.6</ele>
        <time>2014-10-05T09:04:40Z</time>
      </trkpt>
      <trkpt lat="43.42251" lon="6.61088">
        <ele>232.3</ele>
        <time>2014-10-05T09:04:41Z</time>
      </trkpt>
      <trkpt lat="43.42253" lon="6.6108">
        <ele>231.3</ele>
        <time>2014-10-05T09:04:42Z</time>
      </trkpt>
      <trkpt lat="43.42256" lon="6.61072">
        <ele>230.3</ele>
        <time>2014-10-05T09:04:43Z</time>
      </trkpt>
      <trkpt lat="43.42259" lon="6.61065">
        <ele>229.6</ele>
        <time>2014-10-05T09:04:44Z</time>
      </trkpt>
      <trkpt lat="43.42264" lon="6.61058">
        <ele>229.1</ele>
        <time>2014-10-05T09:04:45Z</time>
      </trkpt>
      <trkpt lat="43.4227" lon="6.61053">
        <ele>229</ele>
        <time>2014-10-05T09:04:46Z</time>
      </trkpt>
      <trkpt lat="43.42275" lon="6.61049">
        <ele>229</ele>
        <time>2014-10-05T09:04:47Z</time>
      </trkpt>
      <trkpt lat="43.42281" lon="6.61046">
        <ele>229.2</ele>
        <time>2014-10-05T09:04:48Z</time>
      </trkpt>
      <trkpt lat="43.42286" lon="6.61041">
        <ele>229.3</ele>
        <time>2014-10-05T09:04:49Z</time>
      </trkpt>
      <trkpt lat="43.42292" lon="6.61036">
        <ele>229.5</ele>
        <time>2014-10-05T09:04:50Z</time>
      </trkpt>
      <trkpt lat="43.42298" lon="6.61031">
        <ele>229.1</ele>
        <time>2014-10-05T09:04:51Z</time>
      </trkpt>
      <trkpt lat="43.42303" lon="6.61027">
        <ele>228.6</ele>
        <time>2014-10-05T09:04:52Z</time>
      </trkpt>
      <trkpt lat="43.42308" lon="6.6102">
        <ele>228</ele>
        <time>2014-10-05T09:04:53Z</time>
      </trkpt>
      <trkpt lat="43.42312" lon="6.61013">
        <ele>227.4</ele>
        <time>2014-10-05T09:04:54Z</time>
      </trkpt>
      <trkpt lat="43.42316" lon="6.61005">
        <ele>226.8</ele>
        <time>2014-10-05T09:04:55Z</time>
      </trkpt>
      <trkpt lat="43.4232" lon="6.60997">
        <ele>226.1</ele>
        <time>2014-10-05T09:04:56Z</time>
      </trkpt>
      <trkpt lat="43.42323" lon="6.60987">
        <ele>225.3</ele>
        <time>2014-10-05T09:04:57Z</time>
      </trkpt>
      <trkpt lat="43.42325" lon="6.60978">
        <ele>224.6</ele>
        <time>2014-10-05T09:04:58Z</time>
      </trkpt>
      <trkpt lat="43.42327" lon="6.6097">
        <ele>223.9</ele>
        <time>2014-10-05T09:04:59Z</time>
      </trkpt>
      <trkpt lat="43.42331" lon="6.60965">
        <ele>223.5</ele>
        <time>2014-10-05T09:05:00Z</time>
      </trkpt>
      <trkpt lat="43.42337" lon="6.60962">
        <ele>223.3</ele>
        <time>2014-10-05T09:05:01Z</time>
      </trkpt>
      <trkpt lat="43.42342" lon="6.6096">
        <ele>223.1</ele>
        <time>2014-10-05T09:05:02Z</time>
      </trkpt>
      <trkpt lat="43.42347" lon="6.60956">
        <ele>222.6</ele>
        <time>2014-10-05T09:05:03Z</time>
      </trkpt>
      <trkpt lat="43.42352" lon="6.60952">
        <ele>222</ele>
        <time>2014-10-05T09:05:04Z</time>
      </trkpt>
      <trkpt lat="43.42357" lon="6.60948">
        <ele>221.3</ele>
        <time>2014-10-05T09:05:05Z</time>
      </trkpt>
      <trkpt lat="43.42362" lon="6.60943">
        <ele>220.6</ele>
        <time>2014-10-05T09:05:06Z</time>
      </trkpt>
      <trkpt lat="43.42367" lon="6.60938">
        <ele>219.8</ele>
        <time>2014-10-05T09:05:07Z</time>
      </trkpt>
      <trkpt lat="43.42371" lon="6.60933">
        <ele>219</ele>
        <time>2014-10-05T09:05:08Z</time>
      </trkpt>
      <trkpt lat="43.42377" lon="6.60928">
        <ele>218.1</ele>
        <time>2014-10-05T09:05:09Z</time>
      </trkpt>
      <trkpt lat="43.42382" lon="6.60924">
        <ele>216.7</ele>
        <time>2014-10-05T09:05:10Z</time>
      </trkpt>
      <trkpt lat="43.42386" lon="6.60919">
        <ele>215.3</ele>
        <time>2014-10-05T09:05:11Z</time>
      </trkpt>
      <trkpt lat="43.42389" lon="6.60913">
        <ele>214.1</ele>
        <time>2014-10-05T09:05:12Z</time>
      </trkpt>
      <trkpt lat="43.42392" lon="6.60906">
        <ele>212.8</ele>
        <time>2014-10-05T09:05:13Z</time>
      </trkpt>
      <trkpt lat="43.42392" lon="6.60901">
        <ele>211.9</ele>
        <time>2014-10-05T09:05:14Z</time>
      </trkpt>
      <trkpt lat="43.42393" lon="6.60896">
        <ele>211.2</ele>
        <time>2014-10-05T09:05:15Z</time>
      </trkpt>
      <trkpt lat="43.42394" lon="6.60892">
        <ele>210.6</ele>
        <time>2014-10-05T09:05:16Z</time>
      </trkpt>
      <trkpt lat="43.42397" lon="6.60887">
        <ele>209.6</ele>
        <time>2014-10-05T09:05:17Z</time>
      </trkpt>
      <trkpt lat="43.42401" lon="6.60883">
        <ele>208.5</ele>
        <time>2014-10-05T09:05:18Z</time>
      </trkpt>
      <trkpt lat="43.42406" lon="6.6088">
        <ele>207.7</ele>
        <time>2014-10-05T09:05:19Z</time>
      </trkpt>
      <trkpt lat="43.4241" lon="6.60879">
        <ele>207.1</ele>
        <time>2014-10-05T09:05:20Z</time>
      </trkpt>
      <trkpt lat="43.42415" lon="6.60879">
        <ele>206.7</ele>
        <time>2014-10-05T09:05:21Z</time>
      </trkpt>
      <trkpt lat="43.42418" lon="6.60879">
        <ele>206.4</ele>
        <time>2014-10-05T09:05:22Z</time>
      </trkpt>
      <trkpt lat="43.42423" lon="6.6088">
        <ele>206</ele>
        <time>2014-10-05T09:05:24Z</time>
      </trkpt>
      <trkpt lat="43.42426" lon="6.60881">
        <ele>205.8</ele>
        <time>2014-10-05T09:05:25Z</time>
      </trkpt>
      <trkpt lat="43.42428" lon="6.60882">
        <ele>205.6</ele>
        <time>2014-10-05T09:05:26Z</time>
      </trkpt>
      <trkpt lat="43.42431" lon="6.60883">
        <ele>205.5</ele>
        <time>2014-10-05T09:05:27Z</time>
      </trkpt>
      <trkpt lat="43.42436" lon="6.6088">
        <ele>204.7</ele>
        <time>2014-10-05T09:05:29Z</time>
      </trkpt>
      <trkpt lat="43.42438" lon="6.60877">
        <ele>204.2</ele>
        <time>2014-10-05T09:05:30Z</time>
      </trkpt>
      <trkpt lat="43.42443" lon="6.60875">
        <ele>203.4</ele>
        <time>2014-10-05T09:05:32Z</time>
      </trkpt>
      <trkpt lat="43.42447" lon="6.60875">
        <ele>203</ele>
        <time>2014-10-05T09:05:34Z</time>
      </trkpt>
      <trkpt lat="43.4245" lon="6.60878">
        <ele>203</ele>
        <time>2014-10-05T09:05:36Z</time>
      </trkpt>
      <trkpt lat="43.42452" lon="6.60883">
        <ele>203.3</ele>
        <time>2014-10-05T09:05:38Z</time>
      </trkpt>
      <trkpt lat="43.42456" lon="6.60885">
        <ele>203.1</ele>
        <time>2014-10-05T09:05:40Z</time>
      </trkpt>
      <trkpt lat="43.4246" lon="6.60883">
        <ele>202.2</ele>
        <time>2014-10-05T09:05:42Z</time>
      </trkpt>
      <trkpt lat="43.42463" lon="6.60881">
        <ele>201.3</ele>
        <time>2014-10-05T09:05:43Z</time>
      </trkpt>
      <trkpt lat="43.42467" lon="6.60875">
        <ele>199.7</ele>
        <time>2014-10-05T09:05:44Z</time>
      </trkpt>
      <trkpt lat="43.42469" lon="6.60871">
        <ele>197.9</ele>
        <time>2014-10-05T09:05:45Z</time>
      </trkpt>
      <trkpt lat="43.42472" lon="6.60867">
        <ele>195.9</ele>
        <time>2014-10-05T09:05:46Z</time>
      </trkpt>
      <trkpt lat="43.42474" lon="6.60863">
        <ele>194.1</ele>
        <time>2014-10-05T09:05:47Z</time>
      </trkpt>
      <trkpt lat="43.42477" lon="6.60859">
        <ele>192.3</ele>
        <time>2014-10-05T09:05:48Z</time>
      </trkpt>
      <trkpt lat="43.42477" lon="6.60853">
        <ele>190.5</ele>
        <time>2014-10-05T09:05:49Z</time>
      </trkpt>
      <trkpt lat="43.42477" lon="6.60848">
        <ele>189</ele>
        <time>2014-10-05T09:05:50Z</time>
      </trkpt>
      <trkpt lat="43.42476" lon="6.60842">
        <ele>187.7</ele>
        <time>2014-10-05T09:05:51Z</time>
      </trkpt>
      <trkpt lat="43.42475" lon="6.60837">
        <ele>186.4</ele>
        <time>2014-10-05T09:05:52Z</time>
      </trkpt>
      <trkpt lat="43.42476" lon="6.60832">
        <ele>184.8</ele>
        <time>2014-10-05T09:05:53Z</time>
      </trkpt>
      <trkpt lat="43.42479" lon="6.60828">
        <ele>183</ele>
        <time>2014-10-05T09:05:54Z</time>
      </trkpt>
      <trkpt lat="43.42483" lon="6.60827">
        <ele>181.6</ele>
        <time>2014-10-05T09:05:55Z</time>
      </trkpt>
      <trkpt lat="43.42488" lon="6.60825">
        <ele>179.8</ele>
        <time>2014-10-05T09:05:57Z</time>
      </trkpt>
      <trkpt lat="43.42491" lon="6.60826">
        <ele>179</ele>
        <time>2014-10-05T09:05:58Z</time>
      </trkpt>
      <trkpt lat="43.42495" lon="6.60827">
        <ele>178.3</ele>
        <time>2014-10-05T09:05:59Z</time>
      </trkpt>
      <trkpt lat="43.42499" lon="6.60827">
        <ele>177.4</ele>
        <time>2014-10-05T09:06:00Z</time>
      </trkpt>
      <trkpt lat="43.42502" lon="6.60826">
        <ele>176.2</ele>
        <time>2014-10-05T09:06:01Z</time>
      </trkpt>
      <trkpt lat="43.42505" lon="6.60823">
        <ele>174.5</ele>
        <time>2014-10-05T09:06:02Z</time>
      </trkpt>
      <trkpt lat="43.42507" lon="6.60819">
        <ele>172.7</ele>
        <time>2014-10-05T09:06:03Z</time>
      </trkpt>
      <trkpt lat="43.4251" lon="6.60814">
        <ele>170.8</ele>
        <time>2014-10-05T09:06:04Z</time>
      </trkpt>
      <trkpt lat="43.42512" lon="6.60811">
        <ele>169.1</ele>
        <time>2014-10-05T09:06:05Z</time>
      </trkpt>
      <trkpt lat="43.42515" lon="6.60808">
        <ele>167.6</ele>
        <time>2014-10-05T09:06:06Z</time>
      </trkpt>
      <trkpt lat="43.42518" lon="6.60807">
        <ele>166.3</ele>
        <time>2014-10-05T09:06:07Z</time>
      </trkpt>
      <trkpt lat="43.42522" lon="6.60805">
        <ele>165</ele>
        <time>2014-10-05T09:06:08Z</time>
      </trkpt>
      <trkpt lat="43.42524" lon="6.60802">
        <ele>163.5</ele>
        <time>2014-10-05T09:06:09Z</time>
      </trkpt>
      <trkpt lat="43.42526" lon="6.60799">
        <ele>162.1</ele>
        <time>2014-10-05T09:06:10Z</time>
      </trkpt>
      <trkpt lat="43.42528" lon="6.60795">
        <ele>160.6</ele>
        <time>2014-10-05T09:06:11Z</time>
      </trkpt>
      <trkpt lat="43.42531" lon="6.60792">
        <ele>159</ele>
        <time>2014-10-05T09:06:12Z</time>
      </trkpt>
      <trkpt lat="43.42534" lon="6.60789">
        <ele>157.3</ele>
        <time>2014-10-05T09:06:13Z</time>
      </trkpt>
      <trkpt lat="43.42537" lon="6.60788">
        <ele>156.1</ele>
        <time>2014-10-05T09:06:14Z</time>
      </trkpt>
      <trkpt lat="43.4254" lon="6.60787">
        <ele>154.9</ele>
        <time>2014-10-05T09:06:15Z</time>
      </trkpt>
      <trkpt lat="43.42543" lon="6.60786">
        <ele>153.8</ele>
        <time>2014-10-05T09:06:16Z</time>
      </trkpt>
      <trkpt lat="43.42547" lon="6.60783">
        <ele>152.3</ele>
        <time>2014-10-05T09:06:17Z</time>
      </trkpt>
      <trkpt lat="43.42549" lon="6.60779">
        <ele>150.8</ele>
        <time>2014-10-05T09:06:18Z</time>
      </trkpt>
      <trkpt lat="43.42551" lon="6.60776">
        <ele>149.4</ele>
        <time>2014-10-05T09:06:19Z</time>
      </trkpt>
      <trkpt lat="43.42552" lon="6.60772">
        <ele>148</ele>
        <time>2014-10-05T09:06:20Z</time>
      </trkpt>
      <trkpt lat="43.42553" lon="6.60768">
        <ele>146.5</ele>
        <time>2014-10-05T09:06:25Z</time>
      </trkpt>
      <trkpt lat="43.42557" lon="6.60766">
        <ele>145.4</ele>
        <time>2014-10-05T09:06:28Z</time>
      </trkpt>
      <trkpt lat="43.42561" lon="6.6077">
        <ele>146.1</ele>
        <time>2014-10-05T09:06:30Z</time>
      </trkpt>
      <trkpt lat="43.42563" lon="6.60773">
        <ele>146.7</ele>
        <time>2014-10-05T09:06:31Z</time>
      </trkpt>
      <trkpt lat="43.42565" lon="6.60777">
        <ele>147.4</ele>
        <time>2014-10-05T09:06:32Z</time>
      </trkpt>
      <trkpt lat="43.42566" lon="6.6078">
        <ele>148</ele>
        <time>2014-10-05T09:06:33Z</time>
      </trkpt>
      <trkpt lat="43.42571" lon="6.60777">
        <ele>146.5</ele>
        <time>2014-10-05T09:06:35Z</time>
      </trkpt>
      <trkpt lat="43.42572" lon="6.60772">
        <ele>145</ele>
        <time>2014-10-05T09:06:36Z</time>
      </trkpt>
      <trkpt lat="43.42572" lon="6.60765">
        <ele>143.1</ele>
        <time>2014-10-05T09:06:37Z</time>
      </trkpt>
      <trkpt lat="43.42572" lon="6.60757">
        <ele>141</ele>
        <time>2014-10-05T09:06:38Z</time>
      </trkpt>
      <trkpt lat="43.42571" lon="6.6075">
        <ele>139.2</ele>
        <time>2014-10-05T09:06:39Z</time>
      </trkpt>
      <trkpt lat="43.42569" lon="6.60743">
        <ele>137.5</ele>
        <time>2014-10-05T09:06:40Z</time>
      </trkpt>
      <trkpt lat="43.42567" lon="6.60737">
        <ele>136</ele>
        <time>2014-10-05T09:06:41Z</time>
      </trkpt>
      <trkpt lat="43.42566" lon="6.60731">
        <ele>134.3</ele>
        <time>2014-10-05T09:06:42Z</time>
      </trkpt>
      <trkpt lat="43.42569" lon="6.60727">
        <ele>133</ele>
        <time>2014-10-05T09:06:43Z</time>
      </trkpt>
      <trkpt lat="43.42573" lon="6.60729">
        <ele>133.3</ele>
        <time>2014-10-05T09:06:44Z</time>
      </trkpt>
      <trkpt lat="43.42576" lon="6.60734">
        <ele>134.5</ele>
        <time>2014-10-05T09:06:45Z</time>
      </trkpt>
      <trkpt lat="43.42577" lon="6.60741">
        <ele>136.2</ele>
        <time>2014-10-05T09:06:46Z</time>
      </trkpt>
      <trkpt lat="43.42579" lon="6.60749">
        <ele>138</ele>
        <time>2014-10-05T09:06:47Z</time>
      </trkpt>
      <trkpt lat="43.4258" lon="6.60757">
        <ele>139.8</ele>
        <time>2014-10-05T09:06:48Z</time>
      </trkpt>
      <trkpt lat="43.42583" lon="6.60767">
        <ele>142</ele>
        <time>2014-10-05T09:06:49Z</time>
      </trkpt>
      <trkpt lat="43.42585" lon="6.60776">
        <ele>143.9</ele>
        <time>2014-10-05T09:06:50Z</time>
      </trkpt>
      <trkpt lat="43.42587" lon="6.60785">
        <ele>145.7</ele>
        <time>2014-10-05T09:06:51Z</time>
      </trkpt>
      <trkpt lat="43.42592" lon="6.60804">
        <ele>148</ele>
        <time>2014-10-05T09:06:52Z</time>
      </trkpt>
      <trkpt lat="43.42595" lon="6.60813">
        <ele>148.6</ele>
        <time>2014-10-05T09:06:53Z</time>
      </trkpt>
      <trkpt lat="43.42596" lon="6.60821">
        <ele>149.4</ele>
        <time>2014-10-05T09:06:54Z</time>
      </trkpt>
      <trkpt lat="43.42596" lon="6.60832">
        <ele>150.7</ele>
        <time>2014-10-05T09:06:55Z</time>
      </trkpt>
      <trkpt lat="43.42597" lon="6.60839">
        <ele>151.5</ele>
        <time>2014-10-05T09:06:56Z</time>
      </trkpt>
      <trkpt lat="43.42598" lon="6.60846">
        <ele>151.7</ele>
        <time>2014-10-05T09:06:57Z</time>
      </trkpt>
      <trkpt lat="43.426" lon="6.60851">
        <ele>151.7</ele>
        <time>2014-10-05T09:06:58Z</time>
      </trkpt>
      <trkpt lat="43.42601" lon="6.60855">
        <ele>152</ele>
        <time>2014-10-05T09:06:59Z</time>
      </trkpt>
      <trkpt lat="43.42605" lon="6.60858">
        <ele>150.7</ele>
        <time>2014-10-05T09:07:00Z</time>
      </trkpt>
      <trkpt lat="43.42608" lon="6.60853">
        <ele>149.2</ele>
        <time>2014-10-05T09:07:02Z</time>
      </trkpt>
      <trkpt lat="43.42609" lon="6.60849">
        <ele>148.4</ele>
        <time>2014-10-05T09:07:03Z</time>
      </trkpt>
      <trkpt lat="43.42609" lon="6.60842">
        <ele>147.8</ele>
        <time>2014-10-05T09:07:04Z</time>
      </trkpt>
      <trkpt lat="43.42609" lon="6.60834">
        <ele>146.8</ele>
        <time>2014-10-05T09:07:05Z</time>
      </trkpt>
      <trkpt lat="43.42609" lon="6.60823">
        <ele>145.9</ele>
        <time>2014-10-05T09:07:06Z</time>
      </trkpt>
      <trkpt lat="43.4261" lon="6.60815">
        <ele>145</ele>
        <time>2014-10-05T09:07:07Z</time>
      </trkpt>
      <trkpt lat="43.4261" lon="6.60806">
        <ele>144.2</ele>
        <time>2014-10-05T09:07:08Z</time>
      </trkpt>
      <trkpt lat="43.42611" lon="6.60798">
        <ele>143.2</ele>
        <time>2014-10-05T09:07:09Z</time>
      </trkpt>
      <trkpt lat="43.42611" lon="6.60788">
        <ele>141.8</ele>
        <time>2014-10-05T09:07:10Z</time>
      </trkpt>
      <trkpt lat="43.42612" lon="6.60778">
        <ele>139.8</ele>
        <time>2014-10-05T09:07:11Z</time>
      </trkpt>
      <trkpt lat="43.42613" lon="6.60769">
        <ele>137.8</ele>
        <time>2014-10-05T09:07:12Z</time>
      </trkpt>
      <trkpt lat="43.42616" lon="6.60758">
        <ele>135.6</ele>
        <time>2014-10-05T09:07:13Z</time>
      </trkpt>
      <trkpt lat="43.42619" lon="6.60748">
        <ele>133.2</ele>
        <time>2014-10-05T09:07:14Z</time>
      </trkpt>
      <trkpt lat="43.42622" lon="6.60735">
        <ele>130.8</ele>
        <time>2014-10-05T09:07:15Z</time>
      </trkpt>
      <trkpt lat="43.42642" lon="6.60711">
        <ele>124.2</ele>
        <time>2014-10-05T09:07:17Z</time>
      </trkpt>
      <trkpt lat="43.42648" lon="6.60707">
        <ele>122.7</ele>
        <time>2014-10-05T09:07:18Z</time>
      </trkpt>
      <trkpt lat="43.42652" lon="6.60697">
        <ele>120.8</ele>
        <time>2014-10-05T09:07:19Z</time>
      </trkpt>
      <trkpt lat="43.42656" lon="6.60694">
        <ele>119.6</ele>
        <time>2014-10-05T09:07:20Z</time>
      </trkpt>
      <trkpt lat="43.4266" lon="6.60694">
        <ele>119.3</ele>
        <time>2014-10-05T09:07:21Z</time>
      </trkpt>
      <trkpt lat="43.42666" lon="6.60695">
        <ele>118.6</ele>
        <time>2014-10-05T09:07:22Z</time>
      </trkpt>
      <trkpt lat="43.42671" lon="6.60697">
        <ele>118.2</ele>
        <time>2014-10-05T09:07:23Z</time>
      </trkpt>
      <trkpt lat="43.42675" lon="6.60699">
        <ele>118.1</ele>
        <time>2014-10-05T09:07:24Z</time>
      </trkpt>
      <trkpt lat="43.42678" lon="6.60702">
        <ele>118.2</ele>
        <time>2014-10-05T09:07:25Z</time>
      </trkpt>
      <trkpt lat="43.42679" lon="6.60708">
        <ele>118.8</ele>
        <time>2014-10-05T09:07:26Z</time>
      </trkpt>
      <trkpt lat="43.42676" lon="6.60716">
        <ele>119.7</ele>
        <time>2014-10-05T09:07:27Z</time>
      </trkpt>
      <trkpt lat="43.42672" lon="6.60723">
        <ele>120.9</ele>
        <time>2014-10-05T09:07:28Z</time>
      </trkpt>
      <trkpt lat="43.42666" lon="6.6073">
        <ele>122.2</ele>
        <time>2014-10-05T09:07:29Z</time>
      </trkpt>
      <trkpt lat="43.42662" lon="6.60737">
        <ele>123.6</ele>
        <time>2014-10-05T09:07:30Z</time>
      </trkpt>
      <trkpt lat="43.42659" lon="6.60746">
        <ele>125</ele>
        <time>2014-10-05T09:07:31Z</time>
      </trkpt>
      <trkpt lat="43.42658" lon="6.60754">
        <ele>126.1</ele>
        <time>2014-10-05T09:07:32Z</time>
      </trkpt>
      <trkpt lat="43.42659" lon="6.60763">
        <ele>126.7</ele>
        <time>2014-10-05T09:07:33Z</time>
      </trkpt>
      <trkpt lat="43.42661" lon="6.60772">
        <ele>127</ele>
        <time>2014-10-05T09:07:34Z</time>
      </trkpt>
      <trkpt lat="43.42665" lon="6.60779">
        <ele>126.5</ele>
        <time>2014-10-05T09:07:35Z</time>
      </trkpt>
      <trkpt lat="43.42671" lon="6.60784">
        <ele>125.2</ele>
        <time>2014-10-05T09:07:36Z</time>
      </trkpt>
      <trkpt lat="43.42676" lon="6.60789">
        <ele>123.8</ele>
        <time>2014-10-05T09:07:37Z</time>
      </trkpt>
      <trkpt lat="43.42682" lon="6.60794">
        <ele>122.2</ele>
        <time>2014-10-05T09:07:38Z</time>
      </trkpt>
      <trkpt lat="43.42687" lon="6.60801">
        <ele>120.9</ele>
        <time>2014-10-05T09:07:39Z</time>
      </trkpt>
      <trkpt lat="43.4269" lon="6.60809">
        <ele>120</ele>
        <time>2014-10-05T09:07:40Z</time>
      </trkpt>
      <trkpt lat="43.4269" lon="6.60819">
        <ele>120</ele>
        <time>2014-10-05T09:07:41Z</time>
      </trkpt>
      <trkpt lat="43.42689" lon="6.60829">
        <ele>120.5</ele>
        <time>2014-10-05T09:07:42Z</time>
      </trkpt>
      <trkpt lat="43.42687" lon="6.60839">
        <ele>121.4</ele>
        <time>2014-10-05T09:07:43Z</time>
      </trkpt>
      <trkpt lat="43.42687" lon="6.60848">
        <ele>121.3</ele>
        <time>2014-10-05T09:07:44Z</time>
      </trkpt>
      <trkpt lat="43.42691" lon="6.60854">
        <ele>120.1</ele>
        <time>2014-10-05T09:07:45Z</time>
      </trkpt>
      <trkpt lat="43.42697" lon="6.60852">
        <ele>118</ele>
        <time>2014-10-05T09:07:46Z</time>
      </trkpt>
      <trkpt lat="43.42702" lon="6.60847">
        <ele>116.2</ele>
        <time>2014-10-05T09:07:47Z</time>
      </trkpt>
      <trkpt lat="43.42707" lon="6.6084">
        <ele>114.4</ele>
        <time>2014-10-05T09:07:48Z</time>
      </trkpt>
      <trkpt lat="43.42715" lon="6.60832">
        <ele>112.6</ele>
        <time>2014-10-05T09:07:49Z</time>
      </trkpt>
      <trkpt lat="43.42722" lon="6.60825">
        <ele>110.9</ele>
        <time>2014-10-05T09:07:50Z</time>
      </trkpt>
      <trkpt lat="43.42729" lon="6.60818">
        <ele>109.4</ele>
        <time>2014-10-05T09:07:51Z</time>
      </trkpt>
      <trkpt lat="43.42735" lon="6.6081">
        <ele>108.1</ele>
        <time>2014-10-05T09:07:52Z</time>
      </trkpt>
      <trkpt lat="43.42741" lon="6.60802">
        <ele>106.7</ele>
        <time>2014-10-05T09:07:53Z</time>
      </trkpt>
      <trkpt lat="43.42743" lon="6.60793">
        <ele>106.1</ele>
        <time>2014-10-05T09:07:54Z</time>
      </trkpt>
      <trkpt lat="43.42743" lon="6.60783">
        <ele>106.2</ele>
        <time>2014-10-05T09:07:55Z</time>
      </trkpt>
      <trkpt lat="43.42739" lon="6.60775">
        <ele>107.2</ele>
        <time>2014-10-05T09:07:56Z</time>
      </trkpt>
      <trkpt lat="43.42735" lon="6.60772">
        <ele>108</ele>
        <time>2014-10-05T09:07:57Z</time>
      </trkpt>
      <trkpt lat="43.42735" lon="6.60769">
        <ele>108.2</ele>
        <time>2014-10-05T09:07:59Z</time>
      </trkpt>
      <trkpt lat="43.42738" lon="6.60767">
        <ele>107.5</ele>
        <time>2014-10-05T09:08:00Z</time>
      </trkpt>
      <trkpt lat="43.42741" lon="6.60764">
        <ele>106.9</ele>
        <time>2014-10-05T09:08:01Z</time>
      </trkpt>
      <trkpt lat="43.42743" lon="6.6076">
        <ele>106.3</ele>
        <time>2014-10-05T09:08:02Z</time>
      </trkpt>
      <trkpt lat="43.42746" lon="6.60756">
        <ele>105.8</ele>
        <time>2014-10-05T09:08:03Z</time>
      </trkpt>
      <trkpt lat="43.42749" lon="6.60753">
        <ele>105</ele>
        <time>2014-10-05T09:08:04Z</time>
      </trkpt>
      <trkpt lat="43.42753" lon="6.60753">
        <ele>104</ele>
        <time>2014-10-05T09:08:05Z</time>
      </trkpt>
      <trkpt lat="43.42758" lon="6.60752">
        <ele>103</ele>
        <time>2014-10-05T09:08:06Z</time>
      </trkpt>
      <trkpt lat="43.42763" lon="6.60752">
        <ele>101.7</ele>
        <time>2014-10-05T09:08:07Z</time>
      </trkpt>
      <trkpt lat="43.42767" lon="6.60751">
        <ele>100.7</ele>
        <time>2014-10-05T09:08:08Z</time>
      </trkpt>
      <trkpt lat="43.42772" lon="6.60749">
        <ele>99.7</ele>
        <time>2014-10-05T09:08:09Z</time>
      </trkpt>
      <trkpt lat="43.42776" lon="6.60745">
        <ele>98.8</ele>
        <time>2014-10-05T09:08:10Z</time>
      </trkpt>
      <trkpt lat="43.42779" lon="6.60739">
        <ele>98.1</ele>
        <time>2014-10-05T09:08:11Z</time>
      </trkpt>
      <trkpt lat="43.42788" lon="6.60716">
        <ele>95.8</ele>
        <time>2014-10-05T09:08:13Z</time>
      </trkpt>
      <trkpt lat="43.42792" lon="6.60711">
        <ele>95</ele>
        <time>2014-10-05T09:08:14Z</time>
      </trkpt>
      <trkpt lat="43.42798" lon="6.60707">
        <ele>93.8</ele>
        <time>2014-10-05T09:08:15Z</time>
      </trkpt>
      <trkpt lat="43.42802" lon="6.607">
        <ele>92.7</ele>
        <time>2014-10-05T09:08:16Z</time>
      </trkpt>
      <trkpt lat="43.42807" lon="6.60702">
        <ele>91.9</ele>
        <time>2014-10-05T09:08:17Z</time>
      </trkpt>
      <trkpt lat="43.42813" lon="6.60699">
        <ele>90.8</ele>
        <time>2014-10-05T09:08:18Z</time>
      </trkpt>
      <trkpt lat="43.42819" lon="6.60695">
        <ele>89.6</ele>
        <time>2014-10-05T09:08:19Z</time>
      </trkpt>
      <trkpt lat="43.42826" lon="6.60691">
        <ele>88.5</ele>
        <time>2014-10-05T09:08:20Z</time>
      </trkpt>
      <trkpt lat="43.42832" lon="6.60687">
        <ele>87.3</ele>
        <time>2014-10-05T09:08:21Z</time>
      </trkpt>
      <trkpt lat="43.4284" lon="6.60683">
        <ele>86.1</ele>
        <time>2014-10-05T09:08:22Z</time>
      </trkpt>
      <trkpt lat="43.42846" lon="6.6068">
        <ele>85.1</ele>
        <time>2014-10-05T09:08:23Z</time>
      </trkpt>
      <trkpt lat="43.42852" lon="6.60677">
        <ele>84.2</ele>
        <time>2014-10-05T09:08:24Z</time>
      </trkpt>
      <trkpt lat="43.42858" lon="6.60674">
        <ele>83.4</ele>
        <time>2014-10-05T09:08:25Z</time>
      </trkpt>
      <trkpt lat="43.42862" lon="6.6067">
        <ele>82.8</ele>
        <time>2014-10-05T09:08:26Z</time>
      </trkpt>
      <trkpt lat="43.42867" lon="6.60667">
        <ele>82.2</ele>
        <time>2014-10-05T09:08:27Z</time>
      </trkpt>
      <trkpt lat="43.42873" lon="6.60666">
        <ele>81.4</ele>
        <time>2014-10-05T09:08:28Z</time>
      </trkpt>
      <trkpt lat="43.42878" lon="6.60668">
        <ele>80.7</ele>
        <time>2014-10-05T09:08:29Z</time>
      </trkpt>
      <trkpt lat="43.42884" lon="6.60672">
        <ele>80.2</ele>
        <time>2014-10-05T09:08:30Z</time>
      </trkpt>
      <trkpt lat="43.42889" lon="6.60675">
        <ele>79.7</ele>
        <time>2014-10-05T09:08:31Z</time>
      </trkpt>
      <trkpt lat="43.42895" lon="6.60677">
        <ele>79.2</ele>
        <time>2014-10-05T09:08:32Z</time>
      </trkpt>
      <trkpt lat="43.42902" lon="6.60679">
        <ele>78.7</ele>
        <time>2014-10-05T09:08:33Z</time>
      </trkpt>
      <trkpt lat="43.42909" lon="6.6068">
        <ele>78.2</ele>
        <time>2014-10-05T09:08:34Z</time>
      </trkpt>
      <trkpt lat="43.42915" lon="6.60681">
        <ele>77.7</ele>
        <time>2014-10-05T09:08:35Z</time>
      </trkpt>
      <trkpt lat="43.42921" lon="6.60681">
        <ele>77.3</ele>
        <time>2014-10-05T09:08:36Z</time>
      </trkpt>
      <trkpt lat="43.42928" lon="6.6068">
        <ele>77</ele>
        <time>2014-10-05T09:08:37Z</time>
      </trkpt>
      <trkpt lat="43.42934" lon="6.60679">
        <ele>76.7</ele>
        <time>2014-10-05T09:08:38Z</time>
      </trkpt>
      <trkpt lat="43.4294" lon="6.60677">
        <ele>76.4</ele>
        <time>2014-10-05T09:08:39Z</time>
      </trkpt>
      <trkpt lat="43.42946" lon="6.60677">
        <ele>76.1</ele>
        <time>2014-10-05T09:08:40Z</time>
      </trkpt>
      <trkpt lat="43.42952" lon="6.60679">
        <ele>75.5</ele>
        <time>2014-10-05T09:08:41Z</time>
      </trkpt>
      <trkpt lat="43.42957" lon="6.60684">
        <ele>74.8</ele>
        <time>2014-10-05T09:08:42Z</time>
      </trkpt>
      <trkpt lat="43.42962" lon="6.60691">
        <ele>73.9</ele>
        <time>2014-10-05T09:08:43Z</time>
      </trkpt>
      <trkpt lat="43.42967" lon="6.60699">
        <ele>73</ele>
        <time>2014-10-05T09:08:44Z</time>
      </trkpt>
      <trkpt lat="43.42971" lon="6.60706">
        <ele>72.2</ele>
        <time>2014-10-05T09:08:45Z</time>
      </trkpt>
      <trkpt lat="43.42976" lon="6.60713">
        <ele>71.7</ele>
        <time>2014-10-05T09:08:46Z</time>
      </trkpt>
      <trkpt lat="43.42981" lon="6.60719">
        <ele>71.3</ele>
        <time>2014-10-05T09:08:47Z</time>
      </trkpt>
      <trkpt lat="43.42983" lon="6.60723">
        <ele>71.1</ele>
        <time>2014-10-05T09:08:48Z</time>
      </trkpt>
      <trkpt lat="43.42986" lon="6.60726">
        <ele>70.9</ele>
        <time>2014-10-05T09:08:49Z</time>
      </trkpt>
      <trkpt lat="43.42988" lon="6.6073">
        <ele>70.7</ele>
        <time>2014-10-05T09:08:50Z</time>
      </trkpt>
      <trkpt lat="43.42991" lon="6.60733">
        <ele>70.5</ele>
        <time>2014-10-05T09:08:51Z</time>
      </trkpt>
      <trkpt lat="43.42992" lon="6.60737">
        <ele>70.4</ele>
        <time>2014-10-05T09:08:52Z</time>
      </trkpt>
      <trkpt lat="43.42993" lon="6.60741">
        <ele>70.3</ele>
        <time>2014-10-05T09:08:53Z</time>
      </trkpt>
      <trkpt lat="43.42993" lon="6.60746">
        <ele>70.2</ele>
        <time>2014-10-05T09:08:54Z</time>
      </trkpt>
      <trkpt lat="43.42994" lon="6.6075">
        <ele>70.2</ele>
        <time>2014-10-05T09:08:55Z</time>
      </trkpt>
      <trkpt lat="43.42993" lon="6.60755">
        <ele>70.2</ele>
        <time>2014-10-05T09:08:56Z</time>
      </trkpt>
      <trkpt lat="43.42992" lon="6.60759">
        <ele>70.2</ele>
        <time>2014-10-05T09:08:57Z</time>
      </trkpt>
      <trkpt lat="43.4299" lon="6.60763">
        <ele>70.3</ele>
        <time>2014-10-05T09:08:58Z</time>
      </trkpt>
      <trkpt lat="43.42988" lon="6.60767">
        <ele>70.4</ele>
        <time>2014-10-05T09:08:59Z</time>
      </trkpt>
      <trkpt lat="43.42988" lon="6.60772">
        <ele>70.4</ele>
        <time>2014-10-05T09:09:01Z</time>
      </trkpt>
      <trkpt lat="43.42988" lon="6.60777">
        <ele>70.4</ele>
        <time>2014-10-05T09:09:03Z</time>
      </trkpt>
      <trkpt lat="43.42982" lon="6.60784">
        <ele>70.7</ele>
        <time>2014-10-05T09:15:53Z</time>
      </trkpt>
      <trkpt lat="43.42981" lon="6.60788">
        <ele>70.7</ele>
        <time>2014-10-05T09:16:18Z</time>
      </trkpt>
      <trkpt lat="43.42982" lon="6.60792">
        <ele>70.6</ele>
        <time>2014-10-05T09:16:21Z</time>
      </trkpt>
      <trkpt lat="43.42982" lon="6.60797">
        <ele>71</ele>
        <time>2014-10-05T09:16:24Z</time>
      </trkpt>
      <trkpt lat="43.42984" lon="6.60802">
        <ele>71.3</ele>
        <time>2014-10-05T09:16:27Z</time>
      </trkpt>
      <trkpt lat="43.42985" lon="6.60806">
        <ele>71.5</ele>
        <time>2014-10-05T09:16:29Z</time>
      </trkpt>
      <trkpt lat="43.42985" lon="6.6081">
        <ele>71.8</ele>
        <time>2014-10-05T09:16:31Z</time>
      </trkpt>
      <trkpt lat="43.42986" lon="6.60814">
        <ele>72.1</ele>
        <time>2014-10-05T09:16:33Z</time>
      </trkpt>
      <trkpt lat="43.42987" lon="6.60819">
        <ele>72.5</ele>
        <time>2014-10-05T09:16:35Z</time>
      </trkpt>
      <trkpt lat="43.42987" lon="6.60823">
        <ele>72.7</ele>
        <time>2014-10-05T09:16:37Z</time>
      </trkpt>
      <trkpt lat="43.42988" lon="6.60827">
        <ele>73</ele>
        <time>2014-10-05T09:16:39Z</time>
      </trkpt>
      <trkpt lat="43.42989" lon="6.60832">
        <ele>73.3</ele>
        <time>2014-10-05T09:16:41Z</time>
      </trkpt>
      <trkpt lat="43.4299" lon="6.60836">
        <ele>73.6</ele>
        <time>2014-10-05T09:16:43Z</time>
      </trkpt>
      <trkpt lat="43.42992" lon="6.6084">
        <ele>73.8</ele>
        <time>2014-10-05T09:16:45Z</time>
      </trkpt>
      <trkpt lat="43.42994" lon="6.60844">
        <ele>74</ele>
        <time>2014-10-05T09:16:47Z</time>
      </trkpt>
      <trkpt lat="43.42996" lon="6.60847">
        <ele>74.1</ele>
        <time>2014-10-05T09:16:49Z</time>
      </trkpt>
      <trkpt lat="43.42997" lon="6.60851">
        <ele>74.3</ele>
        <time>2014-10-05T09:16:52Z</time>
      </trkpt>
      <trkpt lat="43.42996" lon="6.60855">
        <ele>74.7</ele>
        <time>2014-10-05T09:16:55Z</time>
      </trkpt>
      <trkpt lat="43.42998" lon="6.60859">
        <ele>74.9</ele>
        <time>2014-10-05T09:16:58Z</time>
      </trkpt>
      <trkpt lat="43.43" lon="6.60863">
        <ele>75.1</ele>
        <time>2014-10-05T09:17:00Z</time>
      </trkpt>
      <trkpt lat="43.43001" lon="6.60868">
        <ele>75.4</ele>
        <time>2014-10-05T09:17:02Z</time>
      </trkpt>
      <trkpt lat="43.43002" lon="6.60873">
        <ele>75.7</ele>
        <time>2014-10-05T09:17:04Z</time>
      </trkpt>
      <trkpt lat="43.43004" lon="6.60879">
        <ele>76.2</ele>
        <time>2014-10-05T09:17:06Z</time>
      </trkpt>
      <trkpt lat="43.43006" lon="6.60885">
        <ele>76.6</ele>
        <time>2014-10-05T09:17:08Z</time>
      </trkpt>
      <trkpt lat="43.43007" lon="6.60889">
        <ele>77</ele>
        <time>2014-10-05T09:17:10Z</time>
      </trkpt>
      <trkpt lat="43.43006" lon="6.60893">
        <ele>77.5</ele>
        <time>2014-10-05T09:17:12Z</time>
      </trkpt>
      <trkpt lat="43.43005" lon="6.60898">
        <ele>78.1</ele>
        <time>2014-10-05T09:17:14Z</time>
      </trkpt>
      <trkpt lat="43.43006" lon="6.60902">
        <ele>78.5</ele>
        <time>2014-10-05T09:17:16Z</time>
      </trkpt>
      <trkpt lat="43.43009" lon="6.60906">
        <ele>78.8</ele>
        <time>2014-10-05T09:17:19Z</time>
      </trkpt>
      <trkpt lat="43.4301" lon="6.60912">
        <ele>79.2</ele>
        <time>2014-10-05T09:17:21Z</time>
      </trkpt>
      <trkpt lat="43.4301" lon="6.60919">
        <ele>80</ele>
        <time>2014-10-05T09:17:23Z</time>
      </trkpt>
      <trkpt lat="43.43011" lon="6.60923">
        <ele>80.4</ele>
        <time>2014-10-05T09:17:25Z</time>
      </trkpt>
      <trkpt lat="43.43012" lon="6.60927">
        <ele>80.8</ele>
        <time>2014-10-05T09:17:27Z</time>
      </trkpt>
      <trkpt lat="43.43015" lon="6.60931">
        <ele>81</ele>
        <time>2014-10-05T09:17:29Z</time>
      </trkpt>
      <trkpt lat="43.43017" lon="6.60936">
        <ele>81.3</ele>
        <time>2014-10-05T09:17:31Z</time>
      </trkpt>
      <trkpt lat="43.4302" lon="6.60941">
        <ele>81.7</ele>
        <time>2014-10-05T09:17:33Z</time>
      </trkpt>
      <trkpt lat="43.43023" lon="6.60946">
        <ele>82</ele>
        <time>2014-10-05T09:17:35Z</time>
      </trkpt>
      <trkpt lat="43.43026" lon="6.60951">
        <ele>82.4</ele>
        <time>2014-10-05T09:17:37Z</time>
      </trkpt>
      <trkpt lat="43.43028" lon="6.60955">
        <ele>82.6</ele>
        <time>2014-10-05T09:17:39Z</time>
      </trkpt>
      <trkpt lat="43.43031" lon="6.6096">
        <ele>82.9</ele>
        <time>2014-10-05T09:17:41Z</time>
      </trkpt>
      <trkpt lat="43.43034" lon="6.60965">
        <ele>83.4</ele>
        <time>2014-10-05T09:17:43Z</time>
      </trkpt>
      <trkpt lat="43.43037" lon="6.60971">
        <ele>83.9</ele>
        <time>2014-10-05T09:17:45Z</time>
      </trkpt>
      <trkpt lat="43.43038" lon="6.60977">
        <ele>84.4</ele>
        <time>2014-10-05T09:17:47Z</time>
      </trkpt>
      <trkpt lat="43.43041" lon="6.60983">
        <ele>85</ele>
        <time>2014-10-05T09:17:49Z</time>
      </trkpt>
      <trkpt lat="43.43044" lon="6.60988">
        <ele>85.4</ele>
        <time>2014-10-05T09:17:51Z</time>
      </trkpt>
      <trkpt lat="43.43047" lon="6.60991">
        <ele>85.7</ele>
        <time>2014-10-05T09:17:53Z</time>
      </trkpt>
      <trkpt lat="43.43048" lon="6.60995">
        <ele>86.1</ele>
        <time>2014-10-05T09:17:55Z</time>
      </trkpt>
      <trkpt lat="43.4305" lon="6.61">
        <ele>86.4</ele>
        <time>2014-10-05T09:17:57Z</time>
      </trkpt>
      <trkpt lat="43.43052" lon="6.61003">
        <ele>86.7</ele>
        <time>2014-10-05T09:17:59Z</time>
      </trkpt>
      <trkpt lat="43.43055" lon="6.61005">
        <ele>86.8</ele>
        <time>2014-10-05T09:18:01Z</time>
      </trkpt>
      <trkpt lat="43.43058" lon="6.61009">
        <ele>87</ele>
        <time>2014-10-05T09:18:03Z</time>
      </trkpt>
      <trkpt lat="43.43061" lon="6.61015">
        <ele>87.4</ele>
        <time>2014-10-05T09:18:05Z</time>
      </trkpt>
      <trkpt lat="43.43063" lon="6.61019">
        <ele>87.7</ele>
        <time>2014-10-05T09:18:06Z</time>
      </trkpt>
      <trkpt lat="43.43065" lon="6.61023">
        <ele>87.9</ele>
        <time>2014-10-05T09:18:07Z</time>
      </trkpt>
      <trkpt lat="43.43066" lon="6.61027">
        <ele>88.2</ele>
        <time>2014-10-05T09:18:08Z</time>
      </trkpt>
      <trkpt lat="43.43068" lon="6.6103">
        <ele>88.3</ele>
        <time>2014-10-05T09:18:09Z</time>
      </trkpt>
      <trkpt lat="43.43071" lon="6.61034">
        <ele>88.4</ele>
        <time>2014-10-05T09:18:10Z</time>
      </trkpt>
      <trkpt lat="43.43073" lon="6.61037">
        <ele>88.6</ele>
        <time>2014-10-05T09:18:11Z</time>
      </trkpt>
      <trkpt lat="43.43075" lon="6.61041">
        <ele>88.7</ele>
        <time>2014-10-05T09:18:12Z</time>
      </trkpt>
      <trkpt lat="43.43076" lon="6.61045">
        <ele>88.9</ele>
        <time>2014-10-05T09:18:13Z</time>
      </trkpt>
      <trkpt lat="43.43077" lon="6.61048">
        <ele>89.1</ele>
        <time>2014-10-05T09:18:14Z</time>
      </trkpt>
      <trkpt lat="43.43077" lon="6.61052">
        <ele>89.4</ele>
        <time>2014-10-05T09:18:15Z</time>
      </trkpt>
      <trkpt lat="43.43077" lon="6.61056">
        <ele>89.7</ele>
        <time>2014-10-05T09:18:16Z</time>
      </trkpt>
      <trkpt lat="43.43076" lon="6.6106">
        <ele>90.1</ele>
        <time>2014-10-05T09:18:17Z</time>
      </trkpt>
      <trkpt lat="43.43075" lon="6.61064">
        <ele>90.5</ele>
        <time>2014-10-05T09:18:18Z</time>
      </trkpt>
      <trkpt lat="43.43074" lon="6.61068">
        <ele>90.9</ele>
        <time>2014-10-05T09:18:19Z</time>
      </trkpt>
      <trkpt lat="43.43073" lon="6.61072">
        <ele>91.3</ele>
        <time>2014-10-05T09:18:20Z</time>
      </trkpt>
      <trkpt lat="43.43072" lon="6.61075">
        <ele>91.7</ele>
        <time>2014-10-05T09:18:21Z</time>
      </trkpt>
      <trkpt lat="43.4307" lon="6.61083">
        <ele>92.5</ele>
        <time>2014-10-05T09:18:23Z</time>
      </trkpt>
      <trkpt lat="43.4307" lon="6.61087">
        <ele>92.9</ele>
        <time>2014-10-05T09:18:24Z</time>
      </trkpt>
      <trkpt lat="43.43069" lon="6.61091">
        <ele>93.4</ele>
        <time>2014-10-05T09:18:25Z</time>
      </trkpt>
      <trkpt lat="43.43068" lon="6.61097">
        <ele>94</ele>
        <time>2014-10-05T09:18:26Z</time>
      </trkpt>
      <trkpt lat="43.43069" lon="6.61102">
        <ele>94.3</ele>
        <time>2014-10-05T09:18:27Z</time>
      </trkpt>
      <trkpt lat="43.4307" lon="6.61106">
        <ele>94.4</ele>
        <time>2014-10-05T09:18:28Z</time>
      </trkpt>
      <trkpt lat="43.43069" lon="6.61111">
        <ele>94.9</ele>
        <time>2014-10-05T09:18:29Z</time>
      </trkpt>
      <trkpt lat="43.43073" lon="6.61116">
        <ele>94.7</ele>
        <time>2014-10-05T09:18:31Z</time>
      </trkpt>
      <trkpt lat="43.43075" lon="6.61118">
        <ele>94.4</ele>
        <time>2014-10-05T09:18:32Z</time>
      </trkpt>
      <trkpt lat="43.43078" lon="6.6112">
        <ele>94.1</ele>
        <time>2014-10-05T09:18:33Z</time>
      </trkpt>
      <trkpt lat="43.43081" lon="6.61122">
        <ele>93.7</ele>
        <time>2014-10-05T09:18:34Z</time>
      </trkpt>
      <trkpt lat="43.43084" lon="6.61125">
        <ele>93.3</ele>
        <time>2014-10-05T09:18:35Z</time>
      </trkpt>
      <trkpt lat="43.43087" lon="6.61127">
        <ele>93</ele>
        <time>2014-10-05T09:18:36Z</time>
      </trkpt>
      <trkpt lat="43.4309" lon="6.6113">
        <ele>92.6</ele>
        <time>2014-10-05T09:18:37Z</time>
      </trkpt>
      <trkpt lat="43.43093" lon="6.61133">
        <ele>92.3</ele>
        <time>2014-10-05T09:18:38Z</time>
      </trkpt>
      <trkpt lat="43.43096" lon="6.61136">
        <ele>91.9</ele>
        <time>2014-10-05T09:18:39Z</time>
      </trkpt>
      <trkpt lat="43.43099" lon="6.61139">
        <ele>91.6</ele>
        <time>2014-10-05T09:18:40Z</time>
      </trkpt>
      <trkpt lat="43.43102" lon="6.61142">
        <ele>91.2</ele>
        <time>2014-10-05T09:18:41Z</time>
      </trkpt>
      <trkpt lat="43.43105" lon="6.61144">
        <ele>90.9</ele>
        <time>2014-10-05T09:18:42Z</time>
      </trkpt>
      <trkpt lat="43.43107" lon="6.61147">
        <ele>90.7</ele>
        <time>2014-10-05T09:18:43Z</time>
      </trkpt>
      <trkpt lat="43.43109" lon="6.6115">
        <ele>90.6</ele>
        <time>2014-10-05T09:18:44Z</time>
      </trkpt>
      <trkpt lat="43.4311" lon="6.61153">
        <ele>90.5</ele>
        <time>2014-10-05T09:18:45Z</time>
      </trkpt>
      <trkpt lat="43.43112" lon="6.61156">
        <ele>90.3</ele>
        <time>2014-10-05T09:18:46Z</time>
      </trkpt>
      <trkpt lat="43.43114" lon="6.6116">
        <ele>90.1</ele>
        <time>2014-10-05T09:18:47Z</time>
      </trkpt>
      <trkpt lat="43.43115" lon="6.61163">
        <ele>90.1</ele>
        <time>2014-10-05T09:18:48Z</time>
      </trkpt>
      <trkpt lat="43.43116" lon="6.61168">
        <ele>90.3</ele>
        <time>2014-10-05T09:18:49Z</time>
      </trkpt>
      <trkpt lat="43.43117" lon="6.61172">
        <ele>90.4</ele>
        <time>2014-10-05T09:18:50Z</time>
      </trkpt>
      <trkpt lat="43.43118" lon="6.61176">
        <ele>90.5</ele>
        <time>2014-10-05T09:18:51Z</time>
      </trkpt>
      <trkpt lat="43.43119" lon="6.6118">
        <ele>90.4</ele>
        <time>2014-10-05T09:18:52Z</time>
      </trkpt>
      <trkpt lat="43.43121" lon="6.61184">
        <ele>90.4</ele>
        <time>2014-10-05T09:18:53Z</time>
      </trkpt>
      <trkpt lat="43.43123" lon="6.61186">
        <ele>90.1</ele>
        <time>2014-10-05T09:18:54Z</time>
      </trkpt>
      <trkpt lat="43.43127" lon="6.61191">
        <ele>89.8</ele>
        <time>2014-10-05T09:18:56Z</time>
      </trkpt>
      <trkpt lat="43.43129" lon="6.61193">
        <ele>89.6</ele>
        <time>2014-10-05T09:18:57Z</time>
      </trkpt>
      <trkpt lat="43.43133" lon="6.61195">
        <ele>89.3</ele>
        <time>2014-10-05T09:18:59Z</time>
      </trkpt>
      <trkpt lat="43.43133" lon="6.61201">
        <ele>89.7</ele>
        <time>2014-10-05T09:19:03Z</time>
      </trkpt>
      <trkpt lat="43.43133" lon="6.61207">
        <ele>90.2</ele>
        <time>2014-10-05T09:19:05Z</time>
      </trkpt>
      <trkpt lat="43.43131" lon="6.61215">
        <ele>90.9</ele>
        <time>2014-10-05T09:19:07Z</time>
      </trkpt>
      <trkpt lat="43.4313" lon="6.61219">
        <ele>91.3</ele>
        <time>2014-10-05T09:19:08Z</time>
      </trkpt>
      <trkpt lat="43.4313" lon="6.61223">
        <ele>91.7</ele>
        <time>2014-10-05T09:19:09Z</time>
      </trkpt>
      <trkpt lat="43.43129" lon="6.61227">
        <ele>92.2</ele>
        <time>2014-10-05T09:19:10Z</time>
      </trkpt>
      <trkpt lat="43.43128" lon="6.61231">
        <ele>92.6</ele>
        <time>2014-10-05T09:19:11Z</time>
      </trkpt>
      <trkpt lat="43.43127" lon="6.61235">
        <ele>93</ele>
        <time>2014-10-05T09:19:12Z</time>
      </trkpt>
      <trkpt lat="43.43127" lon="6.61239">
        <ele>93.4</ele>
        <time>2014-10-05T09:19:13Z</time>
      </trkpt>
      <trkpt lat="43.43126" lon="6.61242">
        <ele>93.7</ele>
        <time>2014-10-05T09:19:14Z</time>
      </trkpt>
      <trkpt lat="43.43125" lon="6.61246">
        <ele>94.2</ele>
        <time>2014-10-05T09:19:15Z</time>
      </trkpt>
      <trkpt lat="43.43124" lon="6.6125">
        <ele>94.6</ele>
        <time>2014-10-05T09:19:16Z</time>
      </trkpt>
      <trkpt lat="43.43123" lon="6.61253">
        <ele>95.1</ele>
        <time>2014-10-05T09:19:17Z</time>
      </trkpt>
      <trkpt lat="43.43121" lon="6.6126">
        <ele>96.2</ele>
        <time>2014-10-05T09:19:19Z</time>
      </trkpt>
      <trkpt lat="43.43119" lon="6.61264">
        <ele>96.8</ele>
        <time>2014-10-05T09:19:20Z</time>
      </trkpt>
      <trkpt lat="43.43117" lon="6.61269">
        <ele>97.6</ele>
        <time>2014-10-05T09:19:21Z</time>
      </trkpt>
      <trkpt lat="43.43115" lon="6.61273">
        <ele>98.4</ele>
        <time>2014-10-05T09:19:22Z</time>
      </trkpt>
      <trkpt lat="43.43113" lon="6.61276">
        <ele>99.1</ele>
        <time>2014-10-05T09:19:23Z</time>
      </trkpt>
      <trkpt lat="43.43111" lon="6.6128">
        <ele>99.7</ele>
        <time>2014-10-05T09:19:24Z</time>
      </trkpt>
      <trkpt lat="43.43108" lon="6.61285">
        <ele>100.7</ele>
        <time>2014-10-05T09:19:26Z</time>
      </trkpt>
      <trkpt lat="43.43107" lon="6.61291">
        <ele>101.5</ele>
        <time>2014-10-05T09:19:28Z</time>
      </trkpt>
      <trkpt lat="43.43105" lon="6.61297">
        <ele>101.9</ele>
        <time>2014-10-05T09:19:30Z</time>
      </trkpt>
      <trkpt lat="43.43102" lon="6.61302">
        <ele>102.5</ele>
        <time>2014-10-05T09:19:32Z</time>
      </trkpt>
      <trkpt lat="43.431" lon="6.61307">
        <ele>103</ele>
        <time>2014-10-05T09:19:34Z</time>
      </trkpt>
      <trkpt lat="43.43098" lon="6.61312">
        <ele>103.5</ele>
        <time>2014-10-05T09:19:36Z</time>
      </trkpt>
      <trkpt lat="43.43095" lon="6.61318">
        <ele>104.1</ele>
        <time>2014-10-05T09:19:38Z</time>
      </trkpt>
      <trkpt lat="43.43092" lon="6.61323">
        <ele>104.7</ele>
        <time>2014-10-05T09:19:40Z</time>
      </trkpt>
      <trkpt lat="43.43089" lon="6.61327">
        <ele>105.4</ele>
        <time>2014-10-05T09:19:42Z</time>
      </trkpt>
      <trkpt lat="43.43087" lon="6.61331">
        <ele>106</ele>
        <time>2014-10-05T09:19:44Z</time>
      </trkpt>
      <trkpt lat="43.43084" lon="6.61334">
        <ele>106.6</ele>
        <time>2014-10-05T09:19:46Z</time>
      </trkpt>
      <trkpt lat="43.43081" lon="6.61338">
        <ele>107.4</ele>
        <time>2014-10-05T09:19:49Z</time>
      </trkpt>
      <trkpt lat="43.43078" lon="6.61342">
        <ele>108</ele>
        <time>2014-10-05T09:19:51Z</time>
      </trkpt>
      <trkpt lat="43.43075" lon="6.61346">
        <ele>108.8</ele>
        <time>2014-10-05T09:19:53Z</time>
      </trkpt>
      <trkpt lat="43.43071" lon="6.61348">
        <ele>109.7</ele>
        <time>2014-10-05T09:19:55Z</time>
      </trkpt>
      <trkpt lat="43.43068" lon="6.61352">
        <ele>110.4</ele>
        <time>2014-10-05T09:19:57Z</time>
      </trkpt>
      <trkpt lat="43.43064" lon="6.61355">
        <ele>111.3</ele>
        <time>2014-10-05T09:19:59Z</time>
      </trkpt>
      <trkpt lat="43.4306" lon="6.61359">
        <ele>112.3</ele>
        <time>2014-10-05T09:20:01Z</time>
      </trkpt>
      <trkpt lat="43.43056" lon="6.61363">
        <ele>113.3</ele>
        <time>2014-10-05T09:20:03Z</time>
      </trkpt>
      <trkpt lat="43.43053" lon="6.61368">
        <ele>114.2</ele>
        <time>2014-10-05T09:20:05Z</time>
      </trkpt>
      <trkpt lat="43.4305" lon="6.61373">
        <ele>115</ele>
        <time>2014-10-05T09:20:07Z</time>
      </trkpt>
      <trkpt lat="43.43048" lon="6.61377">
        <ele>115.6</ele>
        <time>2014-10-05T09:20:09Z</time>
      </trkpt>
      <trkpt lat="43.43046" lon="6.61382">
        <ele>116</ele>
        <time>2014-10-05T09:20:11Z</time>
      </trkpt>
      <trkpt lat="43.43045" lon="6.61388">
        <ele>116.2</ele>
        <time>2014-10-05T09:20:13Z</time>
      </trkpt>
      <trkpt lat="43.43045" lon="6.61393">
        <ele>116.2</ele>
        <time>2014-10-05T09:20:15Z</time>
      </trkpt>
      <trkpt lat="43.43046" lon="6.61399">
        <ele>116.1</ele>
        <time>2014-10-05T09:20:17Z</time>
      </trkpt>
      <trkpt lat="43.43047" lon="6.61404">
        <ele>115.8</ele>
        <time>2014-10-05T09:20:19Z</time>
      </trkpt>
      <trkpt lat="43.43048" lon="6.61409">
        <ele>115.5</ele>
        <time>2014-10-05T09:20:21Z</time>
      </trkpt>
      <trkpt lat="43.43049" lon="6.61413">
        <ele>115.2</ele>
        <time>2014-10-05T09:20:23Z</time>
      </trkpt>
      <trkpt lat="43.4305" lon="6.61417">
        <ele>115.1</ele>
        <time>2014-10-05T09:20:25Z</time>
      </trkpt>
      <trkpt lat="43.4305" lon="6.61422">
        <ele>114.9</ele>
        <time>2014-10-05T09:20:28Z</time>
      </trkpt>
      <trkpt lat="43.43049" lon="6.61427">
        <ele>115.1</ele>
        <time>2014-10-05T09:20:30Z</time>
      </trkpt>
      <trkpt lat="43.43047" lon="6.6143">
        <ele>115.7</ele>
        <time>2014-10-05T09:20:32Z</time>
      </trkpt>
      <trkpt lat="43.43045" lon="6.61435">
        <ele>116.2</ele>
        <time>2014-10-05T09:20:35Z</time>
      </trkpt>
      <trkpt lat="43.43042" lon="6.61436">
        <ele>116.9</ele>
        <time>2014-10-05T09:20:38Z</time>
      </trkpt>
      <trkpt lat="43.43041" lon="6.61431">
        <ele>117.4</ele>
        <time>2014-10-05T09:20:42Z</time>
      </trkpt>
      <trkpt lat="43.43039" lon="6.61427">
        <ele>118.2</ele>
        <time>2014-10-05T09:20:45Z</time>
      </trkpt>
      <trkpt lat="43.43037" lon="6.61424">
        <ele>119.1</ele>
        <time>2014-10-05T09:20:47Z</time>
      </trkpt>
      <trkpt lat="43.43033" lon="6.61421">
        <ele>120.4</ele>
        <time>2014-10-05T09:20:49Z</time>
      </trkpt>
      <trkpt lat="43.43031" lon="6.61417">
        <ele>121.6</ele>
        <time>2014-10-05T09:20:51Z</time>
      </trkpt>
      <trkpt lat="43.43028" lon="6.61413">
        <ele>122.7</ele>
        <time>2014-10-05T09:20:53Z</time>
      </trkpt>
      <trkpt lat="43.43025" lon="6.61409">
        <ele>123.9</ele>
        <time>2014-10-05T09:20:55Z</time>
      </trkpt>
      <trkpt lat="43.43023" lon="6.61405">
        <ele>124.7</ele>
        <time>2014-10-05T09:20:57Z</time>
      </trkpt>
      <trkpt lat="43.43021" lon="6.61401">
        <ele>125.5</ele>
        <time>2014-10-05T09:20:59Z</time>
      </trkpt>
      <trkpt lat="43.4302" lon="6.61397">
        <ele>126</ele>
        <time>2014-10-05T09:21:01Z</time>
      </trkpt>
      <trkpt lat="43.43018" lon="6.61393">
        <ele>126.8</ele>
        <time>2014-10-05T09:21:03Z</time>
      </trkpt>
      <trkpt lat="43.43016" lon="6.61389">
        <ele>127.5</ele>
        <time>2014-10-05T09:21:05Z</time>
      </trkpt>
      <trkpt lat="43.43016" lon="6.61385">
        <ele>127.6</ele>
        <time>2014-10-05T09:21:07Z</time>
      </trkpt>
      <trkpt lat="43.43015" lon="6.61381">
        <ele>127.8</ele>
        <time>2014-10-05T09:21:09Z</time>
      </trkpt>
      <trkpt lat="43.43015" lon="6.61376">
        <ele>128</ele>
        <time>2014-10-05T09:21:11Z</time>
      </trkpt>
      <trkpt lat="43.43016" lon="6.61373">
        <ele>127.3</ele>
        <time>2014-10-05T09:21:13Z</time>
      </trkpt>
      <trkpt lat="43.43018" lon="6.61368">
        <ele>126.2</ele>
        <time>2014-10-05T09:21:15Z</time>
      </trkpt>
      <trkpt lat="43.43018" lon="6.61363">
        <ele>126.1</ele>
        <time>2014-10-05T09:21:17Z</time>
      </trkpt>
      <trkpt lat="43.43018" lon="6.61358">
        <ele>125.8</ele>
        <time>2014-10-05T09:21:19Z</time>
      </trkpt>
      <trkpt lat="43.43018" lon="6.61353">
        <ele>125.3</ele>
        <time>2014-10-05T09:21:21Z</time>
      </trkpt>
      <trkpt lat="43.43018" lon="6.61348">
        <ele>125.3</ele>
        <time>2014-10-05T09:21:23Z</time>
      </trkpt>
      <trkpt lat="43.43016" lon="6.61344">
        <ele>125.5</ele>
        <time>2014-10-05T09:21:25Z</time>
      </trkpt>
      <trkpt lat="43.43015" lon="6.61339">
        <ele>125.6</ele>
        <time>2014-10-05T09:21:27Z</time>
      </trkpt>
      <trkpt lat="43.43015" lon="6.61333">
        <ele>125.6</ele>
        <time>2014-10-05T09:21:29Z</time>
      </trkpt>
      <trkpt lat="43.43013" lon="6.61328">
        <ele>125.7</ele>
        <time>2014-10-05T09:21:31Z</time>
      </trkpt>
      <trkpt lat="43.43013" lon="6.61324">
        <ele>125.7</ele>
        <time>2014-10-05T09:21:33Z</time>
      </trkpt>
      <trkpt lat="43.43012" lon="6.6132">
        <ele>125.9</ele>
        <time>2014-10-05T09:21:35Z</time>
      </trkpt>
      <trkpt lat="43.43009" lon="6.61316">
        <ele>126.4</ele>
        <time>2014-10-05T09:21:37Z</time>
      </trkpt>
      <trkpt lat="43.43007" lon="6.61312">
        <ele>127</ele>
        <time>2014-10-05T09:21:39Z</time>
      </trkpt>
      <trkpt lat="43.43004" lon="6.61309">
        <ele>127.8</ele>
        <time>2014-10-05T09:21:41Z</time>
      </trkpt>
      <trkpt lat="43.43002" lon="6.61305">
        <ele>128.4</ele>
        <time>2014-10-05T09:21:43Z</time>
      </trkpt>
      <trkpt lat="43.42999" lon="6.61301">
        <ele>128.9</ele>
        <time>2014-10-05T09:21:45Z</time>
      </trkpt>
      <trkpt lat="43.42997" lon="6.61297">
        <ele>129.4</ele>
        <time>2014-10-05T09:21:47Z</time>
      </trkpt>
      <trkpt lat="43.42995" lon="6.61293">
        <ele>129.8</ele>
        <time>2014-10-05T09:21:49Z</time>
      </trkpt>
      <trkpt lat="43.42992" lon="6.61288">
        <ele>130.1</ele>
        <time>2014-10-05T09:21:51Z</time>
      </trkpt>
      <trkpt lat="43.4299" lon="6.61283">
        <ele>130.2</ele>
        <time>2014-10-05T09:21:53Z</time>
      </trkpt>
      <trkpt lat="43.42988" lon="6.61278">
        <ele>129.9</ele>
        <time>2014-10-05T09:21:55Z</time>
      </trkpt>
      <trkpt lat="43.42988" lon="6.61273">
        <ele>129.4</ele>
        <time>2014-10-05T09:21:57Z</time>
      </trkpt>
      <trkpt lat="43.42986" lon="6.61269">
        <ele>129.1</ele>
        <time>2014-10-05T09:21:59Z</time>
      </trkpt>
      <trkpt lat="43.42985" lon="6.61264">
        <ele>128.9</ele>
        <time>2014-10-05T09:22:01Z</time>
      </trkpt>
      <trkpt lat="43.42983" lon="6.61259">
        <ele>128.6</ele>
        <time>2014-10-05T09:22:03Z</time>
      </trkpt>
      <trkpt lat="43.42982" lon="6.61255">
        <ele>128.2</ele>
        <time>2014-10-05T09:22:05Z</time>
      </trkpt>
      <trkpt lat="43.42981" lon="6.6125">
        <ele>127.9</ele>
        <time>2014-10-05T09:22:07Z</time>
      </trkpt>
      <trkpt lat="43.42978" lon="6.61246">
        <ele>127.7</ele>
        <time>2014-10-05T09:22:09Z</time>
      </trkpt>
      <trkpt lat="43.42976" lon="6.61241">
        <ele>127.8</ele>
        <time>2014-10-05T09:22:11Z</time>
      </trkpt>
      <trkpt lat="43.42973" lon="6.61237">
        <ele>127.6</ele>
        <time>2014-10-05T09:22:13Z</time>
      </trkpt>
      <trkpt lat="43.4297" lon="6.61232">
        <ele>127.6</ele>
        <time>2014-10-05T09:22:15Z</time>
      </trkpt>
      <trkpt lat="43.42967" lon="6.61228">
        <ele>127.7</ele>
        <time>2014-10-05T09:22:17Z</time>
      </trkpt>
      <trkpt lat="43.42965" lon="6.61224">
        <ele>127.4</ele>
        <time>2014-10-05T09:22:19Z</time>
      </trkpt>
      <trkpt lat="43.42964" lon="6.61219">
        <ele>126.7</ele>
        <time>2014-10-05T09:22:21Z</time>
      </trkpt>
      <trkpt lat="43.42962" lon="6.61214">
        <ele>126.2</ele>
        <time>2014-10-05T09:22:23Z</time>
      </trkpt>
      <trkpt lat="43.4296" lon="6.6121">
        <ele>126</ele>
        <time>2014-10-05T09:22:25Z</time>
      </trkpt>
      <trkpt lat="43.42958" lon="6.61205">
        <ele>125.6</ele>
        <time>2014-10-05T09:22:27Z</time>
      </trkpt>
      <trkpt lat="43.42956" lon="6.612">
        <ele>125.4</ele>
        <time>2014-10-05T09:22:29Z</time>
      </trkpt>
      <trkpt lat="43.42954" lon="6.61196">
        <ele>125</ele>
        <time>2014-10-05T09:22:31Z</time>
      </trkpt>
      <trkpt lat="43.42953" lon="6.61191">
        <ele>124.5</ele>
        <time>2014-10-05T09:22:33Z</time>
      </trkpt>
      <trkpt lat="43.42951" lon="6.61187">
        <ele>124.6</ele>
        <time>2014-10-05T09:22:35Z</time>
      </trkpt>
      <trkpt lat="43.42947" lon="6.61185">
        <ele>125</ele>
        <time>2014-10-05T09:22:37Z</time>
      </trkpt>
      <trkpt lat="43.42944" lon="6.61184">
        <ele>125.9</ele>
        <time>2014-10-05T09:22:39Z</time>
      </trkpt>
      <trkpt lat="43.42939" lon="6.61185">
        <ele>127.2</ele>
        <time>2014-10-05T09:22:41Z</time>
      </trkpt>
      <trkpt lat="43.42935" lon="6.61185">
        <ele>128.5</ele>
        <time>2014-10-05T09:22:43Z</time>
      </trkpt>
      <trkpt lat="43.42931" lon="6.61185">
        <ele>129.5</ele>
        <time>2014-10-05T09:22:45Z</time>
      </trkpt>
      <trkpt lat="43.42928" lon="6.61184">
        <ele>130.1</ele>
        <time>2014-10-05T09:22:47Z</time>
      </trkpt>
      <trkpt lat="43.42925" lon="6.61183">
        <ele>130.6</ele>
        <time>2014-10-05T09:22:49Z</time>
      </trkpt>
      <trkpt lat="43.42922" lon="6.6118">
        <ele>130.9</ele>
        <time>2014-10-05T09:22:51Z</time>
      </trkpt>
      <trkpt lat="43.42918" lon="6.61177">
        <ele>131.2</ele>
        <time>2014-10-05T09:22:53Z</time>
      </trkpt>
      <trkpt lat="43.42914" lon="6.61175">
        <ele>131.7</ele>
        <time>2014-10-05T09:22:55Z</time>
      </trkpt>
      <trkpt lat="43.4291" lon="6.61172">
        <ele>131.9</ele>
        <time>2014-10-05T09:22:57Z</time>
      </trkpt>
      <trkpt lat="43.42907" lon="6.61168">
        <ele>131.9</ele>
        <time>2014-10-05T09:22:59Z</time>
      </trkpt>
      <trkpt lat="43.42904" lon="6.61164">
        <ele>131.7</ele>
        <time>2014-10-05T09:23:01Z</time>
      </trkpt>
      <trkpt lat="43.42901" lon="6.61159">
        <ele>131.1</ele>
        <time>2014-10-05T09:23:03Z</time>
      </trkpt>
      <trkpt lat="43.42899" lon="6.61154">
        <ele>130.4</ele>
        <time>2014-10-05T09:23:05Z</time>
      </trkpt>
      <trkpt lat="43.42897" lon="6.6115">
        <ele>130</ele>
        <time>2014-10-05T09:23:07Z</time>
      </trkpt>
      <trkpt lat="43.42895" lon="6.61146">
        <ele>129.5</ele>
        <time>2014-10-05T09:23:09Z</time>
      </trkpt>
      <trkpt lat="43.42893" lon="6.61143">
        <ele>129.1</ele>
        <time>2014-10-05T09:23:11Z</time>
      </trkpt>
      <trkpt lat="43.42891" lon="6.61139">
        <ele>128.6</ele>
        <time>2014-10-05T09:23:13Z</time>
      </trkpt>
      <trkpt lat="43.42888" lon="6.61135">
        <ele>128.2</ele>
        <time>2014-10-05T09:23:15Z</time>
      </trkpt>
      <trkpt lat="43.42884" lon="6.61132">
        <ele>128.1</ele>
        <time>2014-10-05T09:23:17Z</time>
      </trkpt>
      <trkpt lat="43.42881" lon="6.61129">
        <ele>127.9</ele>
        <time>2014-10-05T09:23:19Z</time>
      </trkpt>
      <trkpt lat="43.42877" lon="6.61127">
        <ele>128</ele>
        <time>2014-10-05T09:23:21Z</time>
      </trkpt>
      <trkpt lat="43.42874" lon="6.61125">
        <ele>128.1</ele>
        <time>2014-10-05T09:23:23Z</time>
      </trkpt>
      <trkpt lat="43.42869" lon="6.61124">
        <ele>128</ele>
        <time>2014-10-05T09:23:25Z</time>
      </trkpt>
      <trkpt lat="43.42865" lon="6.61122">
        <ele>127.9</ele>
        <time>2014-10-05T09:23:27Z</time>
      </trkpt>
      <trkpt lat="43.42861" lon="6.6112">
        <ele>127.8</ele>
        <time>2014-10-05T09:23:29Z</time>
      </trkpt>
      <trkpt lat="43.42856" lon="6.61117">
        <ele>127.6</ele>
        <time>2014-10-05T09:23:31Z</time>
      </trkpt>
      <trkpt lat="43.42851" lon="6.61116">
        <ele>127.6</ele>
        <time>2014-10-05T09:23:33Z</time>
      </trkpt>
      <trkpt lat="43.42847" lon="6.61115">
        <ele>127.7</ele>
        <time>2014-10-05T09:23:35Z</time>
      </trkpt>
      <trkpt lat="43.42842" lon="6.61114">
        <ele>127.8</ele>
        <time>2014-10-05T09:23:37Z</time>
      </trkpt>
      <trkpt lat="43.42837" lon="6.61113">
        <ele>127.9</ele>
        <time>2014-10-05T09:23:39Z</time>
      </trkpt>
      <trkpt lat="43.42833" lon="6.61111">
        <ele>127.7</ele>
        <time>2014-10-05T09:23:41Z</time>
      </trkpt>
      <trkpt lat="43.42829" lon="6.61106">
        <ele>127.2</ele>
        <time>2014-10-05T09:23:43Z</time>
      </trkpt>
      <trkpt lat="43.42826" lon="6.61102">
        <ele>126.6</ele>
        <time>2014-10-05T09:23:45Z</time>
      </trkpt>
      <trkpt lat="43.42823" lon="6.61097">
        <ele>126.1</ele>
        <time>2014-10-05T09:23:47Z</time>
      </trkpt>
      <trkpt lat="43.42819" lon="6.61093">
        <ele>125.6</ele>
        <time>2014-10-05T09:23:49Z</time>
      </trkpt>
      <trkpt lat="43.42815" lon="6.61088">
        <ele>125.1</ele>
        <time>2014-10-05T09:23:51Z</time>
      </trkpt>
      <trkpt lat="43.42812" lon="6.61086">
        <ele>124.9</ele>
        <time>2014-10-05T09:23:52Z</time>
      </trkpt>
      <trkpt lat="43.42808" lon="6.61082">
        <ele>124.4</ele>
        <time>2014-10-05T09:23:54Z</time>
      </trkpt>
      <trkpt lat="43.42803" lon="6.6108">
        <ele>124.4</ele>
        <time>2014-10-05T09:23:56Z</time>
      </trkpt>
      <trkpt lat="43.42798" lon="6.6108">
        <ele>124.6</ele>
        <time>2014-10-05T09:23:58Z</time>
      </trkpt>
      <trkpt lat="43.42795" lon="6.6108">
        <ele>124.8</ele>
        <time>2014-10-05T09:23:59Z</time>
      </trkpt>
      <trkpt lat="43.4279" lon="6.61081">
        <ele>125.2</ele>
        <time>2014-10-05T09:24:01Z</time>
      </trkpt>
      <trkpt lat="43.42785" lon="6.61082">
        <ele>125.7</ele>
        <time>2014-10-05T09:24:03Z</time>
      </trkpt>
      <trkpt lat="43.42781" lon="6.61082">
        <ele>126.1</ele>
        <time>2014-10-05T09:24:05Z</time>
      </trkpt>
      <trkpt lat="43.42777" lon="6.61084">
        <ele>126.6</ele>
        <time>2014-10-05T09:24:07Z</time>
      </trkpt>
      <trkpt lat="43.42773" lon="6.61089">
        <ele>127.7</ele>
        <time>2014-10-05T09:24:09Z</time>
      </trkpt>
      <trkpt lat="43.42771" lon="6.61093">
        <ele>128.4</ele>
        <time>2014-10-05T09:24:10Z</time>
      </trkpt>
      <trkpt lat="43.4277" lon="6.61096">
        <ele>129</ele>
        <time>2014-10-05T09:24:11Z</time>
      </trkpt>
      <trkpt lat="43.42766" lon="6.611">
        <ele>129.9</ele>
        <time>2014-10-05T09:24:13Z</time>
      </trkpt>
      <trkpt lat="43.42761" lon="6.61102">
        <ele>130.6</ele>
        <time>2014-10-05T09:24:15Z</time>
      </trkpt>
      <trkpt lat="43.42757" lon="6.61103">
        <ele>131.1</ele>
        <time>2014-10-05T09:24:17Z</time>
      </trkpt>
      <trkpt lat="43.42754" lon="6.61106">
        <ele>131.8</ele>
        <time>2014-10-05T09:24:19Z</time>
      </trkpt>
      <trkpt lat="43.42749" lon="6.61108">
        <ele>132.4</ele>
        <time>2014-10-05T09:24:21Z</time>
      </trkpt>
      <trkpt lat="43.42745" lon="6.61111">
        <ele>133.1</ele>
        <time>2014-10-05T09:24:23Z</time>
      </trkpt>
      <trkpt lat="43.42741" lon="6.61115">
        <ele>134</ele>
        <time>2014-10-05T09:24:25Z</time>
      </trkpt>
      <trkpt lat="43.42738" lon="6.61119">
        <ele>134.9</ele>
        <time>2014-10-05T09:24:27Z</time>
      </trkpt>
      <trkpt lat="43.42734" lon="6.61123">
        <ele>135.8</ele>
        <time>2014-10-05T09:24:29Z</time>
      </trkpt>
      <trkpt lat="43.42731" lon="6.61127">
        <ele>136.9</ele>
        <time>2014-10-05T09:24:31Z</time>
      </trkpt>
      <trkpt lat="43.42728" lon="6.61132">
        <ele>138.4</ele>
        <time>2014-10-05T09:24:33Z</time>
      </trkpt>
      <trkpt lat="43.42725" lon="6.61137">
        <ele>139.9</ele>
        <time>2014-10-05T09:24:35Z</time>
      </trkpt>
      <trkpt lat="43.42722" lon="6.61141">
        <ele>140.9</ele>
        <time>2014-10-05T09:24:37Z</time>
      </trkpt>
      <trkpt lat="43.42718" lon="6.61142">
        <ele>141.6</ele>
        <time>2014-10-05T09:24:39Z</time>
      </trkpt>
      <trkpt lat="43.42714" lon="6.61144">
        <ele>142.2</ele>
        <time>2014-10-05T09:24:41Z</time>
      </trkpt>
      <trkpt lat="43.42709" lon="6.61144">
        <ele>142.4</ele>
        <time>2014-10-05T09:24:43Z</time>
      </trkpt>
      <trkpt lat="43.42704" lon="6.61143">
        <ele>143.1</ele>
        <time>2014-10-05T09:24:45Z</time>
      </trkpt>
      <trkpt lat="43.42699" lon="6.61142">
        <ele>143.7</ele>
        <time>2014-10-05T09:24:47Z</time>
      </trkpt>
      <trkpt lat="43.42694" lon="6.61142">
        <ele>144.5</ele>
        <time>2014-10-05T09:24:49Z</time>
      </trkpt>
      <trkpt lat="43.42689" lon="6.61141">
        <ele>145.3</ele>
        <time>2014-10-05T09:24:51Z</time>
      </trkpt>
      <trkpt lat="43.42685" lon="6.61139">
        <ele>145.5</ele>
        <time>2014-10-05T09:24:53Z</time>
      </trkpt>
      <trkpt lat="43.42681" lon="6.61135">
        <ele>145.2</ele>
        <time>2014-10-05T09:24:55Z</time>
      </trkpt>
      <trkpt lat="43.42677" lon="6.61131">
        <ele>144.6</ele>
        <time>2014-10-05T09:24:57Z</time>
      </trkpt>
      <trkpt lat="43.42675" lon="6.61126">
        <ele>143.8</ele>
        <time>2014-10-05T09:24:59Z</time>
      </trkpt>
      <trkpt lat="43.42671" lon="6.61121">
        <ele>143.7</ele>
        <time>2014-10-05T09:25:01Z</time>
      </trkpt>
      <trkpt lat="43.42668" lon="6.61118">
        <ele>143.8</ele>
        <time>2014-10-05T09:25:03Z</time>
      </trkpt>
      <trkpt lat="43.42665" lon="6.61113">
        <ele>143.8</ele>
        <time>2014-10-05T09:25:05Z</time>
      </trkpt>
      <trkpt lat="43.4266" lon="6.61111">
        <ele>144.1</ele>
        <time>2014-10-05T09:25:07Z</time>
      </trkpt>
      <trkpt lat="43.42656" lon="6.61109">
        <ele>144.6</ele>
        <time>2014-10-05T09:25:09Z</time>
      </trkpt>
      <trkpt lat="43.42652" lon="6.61108">
        <ele>145.2</ele>
        <time>2014-10-05T09:25:11Z</time>
      </trkpt>
      <trkpt lat="43.42648" lon="6.61108">
        <ele>145.9</ele>
        <time>2014-10-05T09:25:13Z</time>
      </trkpt>
      <trkpt lat="43.42644" lon="6.61109">
        <ele>146.8</ele>
        <time>2014-10-05T09:25:15Z</time>
      </trkpt>
      <trkpt lat="43.4264" lon="6.61111">
        <ele>147.8</ele>
        <time>2014-10-05T09:25:17Z</time>
      </trkpt>
      <trkpt lat="43.42636" lon="6.61114">
        <ele>148.8</ele>
        <time>2014-10-05T09:25:19Z</time>
      </trkpt>
      <trkpt lat="43.42631" lon="6.61115">
        <ele>149.9</ele>
        <time>2014-10-05T09:25:21Z</time>
      </trkpt>
      <trkpt lat="43.42626" lon="6.61115">
        <ele>150.7</ele>
        <time>2014-10-05T09:25:23Z</time>
      </trkpt>
      <trkpt lat="43.42621" lon="6.61115">
        <ele>152.5</ele>
        <time>2014-10-05T09:25:25Z</time>
      </trkpt>
      <trkpt lat="43.42616" lon="6.61114">
        <ele>154.2</ele>
        <time>2014-10-05T09:25:27Z</time>
      </trkpt>
      <trkpt lat="43.42611" lon="6.6111">
        <ele>155.8</ele>
        <time>2014-10-05T09:25:29Z</time>
      </trkpt>
      <trkpt lat="43.42609" lon="6.61108">
        <ele>156.5</ele>
        <time>2014-10-05T09:25:30Z</time>
      </trkpt>
      <trkpt lat="43.42605" lon="6.61104">
        <ele>157.6</ele>
        <time>2014-10-05T09:25:32Z</time>
      </trkpt>
      <trkpt lat="43.42601" lon="6.611">
        <ele>158.9</ele>
        <time>2014-10-05T09:25:34Z</time>
      </trkpt>
      <trkpt lat="43.42597" lon="6.61097">
        <ele>160.2</ele>
        <time>2014-10-05T09:25:36Z</time>
      </trkpt>
      <trkpt lat="43.42594" lon="6.61093">
        <ele>161.4</ele>
        <time>2014-10-05T09:25:38Z</time>
      </trkpt>
      <trkpt lat="43.42589" lon="6.6109">
        <ele>162.8</ele>
        <time>2014-10-05T09:25:40Z</time>
      </trkpt>
      <trkpt lat="43.42584" lon="6.61088">
        <ele>164.8</ele>
        <time>2014-10-05T09:25:42Z</time>
      </trkpt>
      <trkpt lat="43.42579" lon="6.61085">
        <ele>166.6</ele>
        <time>2014-10-05T09:25:44Z</time>
      </trkpt>
      <trkpt lat="43.42576" lon="6.61083">
        <ele>167.7</ele>
        <time>2014-10-05T09:25:45Z</time>
      </trkpt>
      <trkpt lat="43.42574" lon="6.61082">
        <ele>168.8</ele>
        <time>2014-10-05T09:25:46Z</time>
      </trkpt>
      <trkpt lat="43.42571" lon="6.61081">
        <ele>170</ele>
        <time>2014-10-05T09:25:47Z</time>
      </trkpt>
      <trkpt lat="43.42567" lon="6.61077">
        <ele>171.3</ele>
        <time>2014-10-05T09:25:49Z</time>
      </trkpt>
      <trkpt lat="43.42565" lon="6.61073">
        <ele>172</ele>
        <time>2014-10-05T09:25:51Z</time>
      </trkpt>
      <trkpt lat="43.42562" lon="6.61068">
        <ele>172.8</ele>
        <time>2014-10-05T09:25:53Z</time>
      </trkpt>
      <trkpt lat="43.42559" lon="6.61062">
        <ele>173.5</ele>
        <time>2014-10-05T09:25:55Z</time>
      </trkpt>
      <trkpt lat="43.42557" lon="6.61056">
        <ele>174.1</ele>
        <time>2014-10-05T09:25:57Z</time>
      </trkpt>
      <trkpt lat="43.42556" lon="6.61049">
        <ele>174.2</ele>
        <time>2014-10-05T09:25:59Z</time>
      </trkpt>
      <trkpt lat="43.42555" lon="6.61045">
        <ele>174.1</ele>
        <time>2014-10-05T09:26:00Z</time>
      </trkpt>
      <trkpt lat="43.42555" lon="6.61042">
        <ele>174</ele>
        <time>2014-10-05T09:26:01Z</time>
      </trkpt>
      <trkpt lat="43.42555" lon="6.61038">
        <ele>173.9</ele>
        <time>2014-10-05T09:26:02Z</time>
      </trkpt>
      <trkpt lat="43.42555" lon="6.61034">
        <ele>174</ele>
        <time>2014-10-05T09:26:03Z</time>
      </trkpt>
      <trkpt lat="43.42554" lon="6.6103">
        <ele>174.6</ele>
        <time>2014-10-05T09:26:04Z</time>
      </trkpt>
      <trkpt lat="43.42553" lon="6.61026">
        <ele>175.3</ele>
        <time>2014-10-05T09:26:05Z</time>
      </trkpt>
      <trkpt lat="43.42551" lon="6.61023">
        <ele>176.2</ele>
        <time>2014-10-05T09:26:06Z</time>
      </trkpt>
      <trkpt lat="43.42549" lon="6.6102">
        <ele>177.1</ele>
        <time>2014-10-05T09:26:07Z</time>
      </trkpt>
      <trkpt lat="43.42547" lon="6.61018">
        <ele>178.1</ele>
        <time>2014-10-05T09:26:08Z</time>
      </trkpt>
      <trkpt lat="43.42545" lon="6.61015">
        <ele>179.2</ele>
        <time>2014-10-05T09:26:09Z</time>
      </trkpt>
      <trkpt lat="43.42543" lon="6.61013">
        <ele>180.3</ele>
        <time>2014-10-05T09:26:10Z</time>
      </trkpt>
      <trkpt lat="43.4254" lon="6.6101">
        <ele>181.2</ele>
        <time>2014-10-05T09:26:11Z</time>
      </trkpt>
      <trkpt lat="43.42538" lon="6.61007">
        <ele>181.9</ele>
        <time>2014-10-05T09:26:12Z</time>
      </trkpt>
      <trkpt lat="43.42537" lon="6.61004">
        <ele>182.5</ele>
        <time>2014-10-05T09:26:13Z</time>
      </trkpt>
      <trkpt lat="43.42536" lon="6.61">
        <ele>182.9</ele>
        <time>2014-10-05T09:26:14Z</time>
      </trkpt>
      <trkpt lat="43.42536" lon="6.60993">
        <ele>183</ele>
        <time>2014-10-05T09:26:16Z</time>
      </trkpt>
      <trkpt lat="43.42539" lon="6.60988">
        <ele>182.1</ele>
        <time>2014-10-05T09:26:18Z</time>
      </trkpt>
      <trkpt lat="43.42543" lon="6.60983">
        <ele>180.8</ele>
        <time>2014-10-05T09:26:20Z</time>
      </trkpt>
      <trkpt lat="43.42545" lon="6.6098">
        <ele>179.9</ele>
        <time>2014-10-05T09:26:21Z</time>
      </trkpt>
      <trkpt lat="43.42547" lon="6.60977">
        <ele>179.2</ele>
        <time>2014-10-05T09:26:22Z</time>
      </trkpt>
      <trkpt lat="43.42549" lon="6.60974">
        <ele>178.6</ele>
        <time>2014-10-05T09:26:23Z</time>
      </trkpt>
      <trkpt lat="43.4255" lon="6.60971">
        <ele>178</ele>
        <time>2014-10-05T09:26:24Z</time>
      </trkpt>
      <trkpt lat="43.42553" lon="6.60965">
        <ele>176.9</ele>
        <time>2014-10-05T09:26:26Z</time>
      </trkpt>
      <trkpt lat="43.42555" lon="6.60959">
        <ele>175.9</ele>
        <time>2014-10-05T09:26:28Z</time>
      </trkpt>
      <trkpt lat="43.42556" lon="6.60955">
        <ele>175.4</ele>
        <time>2014-10-05T09:26:29Z</time>
      </trkpt>
      <trkpt lat="43.42558" lon="6.60951">
        <ele>174.6</ele>
        <time>2014-10-05T09:26:30Z</time>
      </trkpt>
      <trkpt lat="43.42558" lon="6.60947">
        <ele>174.3</ele>
        <time>2014-10-05T09:26:31Z</time>
      </trkpt>
      <trkpt lat="43.42558" lon="6.60942">
        <ele>174.3</ele>
        <time>2014-10-05T09:26:32Z</time>
      </trkpt>
      <trkpt lat="43.42557" lon="6.60938">
        <ele>174.8</ele>
        <time>2014-10-05T09:26:33Z</time>
      </trkpt>
      <trkpt lat="43.42556" lon="6.60934">
        <ele>175.1</ele>
        <time>2014-10-05T09:26:34Z</time>
      </trkpt>
      <trkpt lat="43.42555" lon="6.6093">
        <ele>175.3</ele>
        <time>2014-10-05T09:26:35Z</time>
      </trkpt>
      <trkpt lat="43.42554" lon="6.60926">
        <ele>175.5</ele>
        <time>2014-10-05T09:26:36Z</time>
      </trkpt>
      <trkpt lat="43.42553" lon="6.60922">
        <ele>175.8</ele>
        <time>2014-10-05T09:26:37Z</time>
      </trkpt>
      <trkpt lat="43.42552" lon="6.60918">
        <ele>176.2</ele>
        <time>2014-10-05T09:26:38Z</time>
      </trkpt>
      <trkpt lat="43.42551" lon="6.60914">
        <ele>176.4</ele>
        <time>2014-10-05T09:26:39Z</time>
      </trkpt>
      <trkpt lat="43.4255" lon="6.60911">
        <ele>176.7</ele>
        <time>2014-10-05T09:26:40Z</time>
      </trkpt>
      <trkpt lat="43.42548" lon="6.60904">
        <ele>177.4</ele>
        <time>2014-10-05T09:26:42Z</time>
      </trkpt>
      <trkpt lat="43.42546" lon="6.60897">
        <ele>178</ele>
        <time>2014-10-05T09:26:44Z</time>
      </trkpt>
      <trkpt lat="43.42545" lon="6.60893">
        <ele>178.1</ele>
        <time>2014-10-05T09:26:45Z</time>
      </trkpt>
      <trkpt lat="43.42545" lon="6.60889">
        <ele>178.3</ele>
        <time>2014-10-05T09:26:46Z</time>
      </trkpt>
      <trkpt lat="43.42544" lon="6.60882">
        <ele>178.4</ele>
        <time>2014-10-05T09:26:48Z</time>
      </trkpt>
      <trkpt lat="43.42544" lon="6.60878">
        <ele>178</ele>
        <time>2014-10-05T09:26:49Z</time>
      </trkpt>
      <trkpt lat="43.42545" lon="6.60874">
        <ele>177.4</ele>
        <time>2014-10-05T09:26:50Z</time>
      </trkpt>
      <trkpt lat="43.42546" lon="6.6087">
        <ele>176.1</ele>
        <time>2014-10-05T09:26:51Z</time>
      </trkpt>
      <trkpt lat="43.42547" lon="6.60866">
        <ele>174.7</ele>
        <time>2014-10-05T09:26:52Z</time>
      </trkpt>
      <trkpt lat="43.42547" lon="6.60862">
        <ele>173.3</ele>
        <time>2014-10-05T09:26:53Z</time>
      </trkpt>
      <trkpt lat="43.42548" lon="6.60858">
        <ele>172</ele>
        <time>2014-10-05T09:26:54Z</time>
      </trkpt>
      <trkpt lat="43.42548" lon="6.60854">
        <ele>170.8</ele>
        <time>2014-10-05T09:26:55Z</time>
      </trkpt>
      <trkpt lat="43.42549" lon="6.6085">
        <ele>169.6</ele>
        <time>2014-10-05T09:26:56Z</time>
      </trkpt>
      <trkpt lat="43.42549" lon="6.60846">
        <ele>168.5</ele>
        <time>2014-10-05T09:26:57Z</time>
      </trkpt>
      <trkpt lat="43.42549" lon="6.60842">
        <ele>167.6</ele>
        <time>2014-10-05T09:26:58Z</time>
      </trkpt>
      <trkpt lat="43.42548" lon="6.60838">
        <ele>166.8</ele>
        <time>2014-10-05T09:26:59Z</time>
      </trkpt>
      <trkpt lat="43.42547" lon="6.60835">
        <ele>166</ele>
        <time>2014-10-05T09:27:00Z</time>
      </trkpt>
      <trkpt lat="43.42546" lon="6.60831">
        <ele>165.4</ele>
        <time>2014-10-05T09:27:01Z</time>
      </trkpt>
      <trkpt lat="43.42545" lon="6.60827">
        <ele>164.7</ele>
        <time>2014-10-05T09:27:02Z</time>
      </trkpt>
      <trkpt lat="43.42544" lon="6.60823">
        <ele>163.9</ele>
        <time>2014-10-05T09:27:03Z</time>
      </trkpt>
      <trkpt lat="43.42543" lon="6.60819">
        <ele>163.2</ele>
        <time>2014-10-05T09:27:04Z</time>
      </trkpt>
      <trkpt lat="43.42542" lon="6.60816">
        <ele>162.4</ele>
        <time>2014-10-05T09:27:05Z</time>
      </trkpt>
      <trkpt lat="43.42542" lon="6.60812">
        <ele>161.6</ele>
        <time>2014-10-05T09:27:06Z</time>
      </trkpt>
      <trkpt lat="43.42541" lon="6.60805">
        <ele>160</ele>
        <time>2014-10-05T09:27:08Z</time>
      </trkpt>
      <trkpt lat="43.4254" lon="6.60799">
        <ele>158.7</ele>
        <time>2014-10-05T09:27:10Z</time>
      </trkpt>
      <trkpt lat="43.42537" lon="6.60794">
        <ele>157.7</ele>
        <time>2014-10-05T09:27:12Z</time>
      </trkpt>
      <trkpt lat="43.42535" lon="6.60789">
        <ele>156.7</ele>
        <time>2014-10-05T09:27:14Z</time>
      </trkpt>
      <trkpt lat="43.42532" lon="6.60787">
        <ele>157.1</ele>
        <time>2014-10-05T09:27:31Z</time>
      </trkpt>
      <trkpt lat="43.42532" lon="6.60783">
        <ele>155.9</ele>
        <time>2014-10-05T09:33:20Z</time>
      </trkpt>
      <trkpt lat="43.42528" lon="6.60782">
        <ele>156.3</ele>
        <time>2014-10-05T09:33:23Z</time>
      </trkpt>
      <trkpt lat="43.42525" lon="6.6078">
        <ele>156.6</ele>
        <time>2014-10-05T09:33:34Z</time>
      </trkpt>
      <trkpt lat="43.42522" lon="6.60777">
        <ele>156.6</ele>
        <time>2014-10-05T09:33:36Z</time>
      </trkpt>
      <trkpt lat="43.42518" lon="6.60775">
        <ele>156.7</ele>
        <time>2014-10-05T09:33:38Z</time>
      </trkpt>
      <trkpt lat="43.42514" lon="6.60772">
        <ele>156.9</ele>
        <time>2014-10-05T09:33:40Z</time>
      </trkpt>
      <trkpt lat="43.4251" lon="6.60771">
        <ele>157.2</ele>
        <time>2014-10-05T09:33:42Z</time>
      </trkpt>
      <trkpt lat="43.42507" lon="6.60769">
        <ele>157.6</ele>
        <time>2014-10-05T09:33:44Z</time>
      </trkpt>
      <trkpt lat="43.42503" lon="6.60769">
        <ele>158.5</ele>
        <time>2014-10-05T09:33:46Z</time>
      </trkpt>
      <trkpt lat="43.42498" lon="6.60768">
        <ele>159.5</ele>
        <time>2014-10-05T09:33:48Z</time>
      </trkpt>
      <trkpt lat="43.42494" lon="6.60767">
        <ele>160.4</ele>
        <time>2014-10-05T09:33:50Z</time>
      </trkpt>
      <trkpt lat="43.42489" lon="6.60767">
        <ele>161.3</ele>
        <time>2014-10-05T09:33:52Z</time>
      </trkpt>
      <trkpt lat="43.42485" lon="6.60766">
        <ele>162.3</ele>
        <time>2014-10-05T09:33:54Z</time>
      </trkpt>
      <trkpt lat="43.42481" lon="6.60766">
        <ele>163.4</ele>
        <time>2014-10-05T09:33:56Z</time>
      </trkpt>
      <trkpt lat="43.42477" lon="6.60765">
        <ele>164</ele>
        <time>2014-10-05T09:33:58Z</time>
      </trkpt>
      <trkpt lat="43.42473" lon="6.60762">
        <ele>164</ele>
        <time>2014-10-05T09:34:00Z</time>
      </trkpt>
      <trkpt lat="43.4247" lon="6.60758">
        <ele>163.2</ele>
        <time>2014-10-05T09:34:02Z</time>
      </trkpt>
      <trkpt lat="43.42468" lon="6.60754">
        <ele>162.4</ele>
        <time>2014-10-05T09:34:04Z</time>
      </trkpt>
      <trkpt lat="43.42465" lon="6.6075">
        <ele>161.8</ele>
        <time>2014-10-05T09:34:06Z</time>
      </trkpt>
      <trkpt lat="43.42461" lon="6.60745">
        <ele>161.1</ele>
        <time>2014-10-05T09:34:08Z</time>
      </trkpt>
      <trkpt lat="43.42458" lon="6.60741">
        <ele>160.7</ele>
        <time>2014-10-05T09:34:10Z</time>
      </trkpt>
      <trkpt lat="43.42453" lon="6.60738">
        <ele>160.7</ele>
        <time>2014-10-05T09:34:12Z</time>
      </trkpt>
      <trkpt lat="43.42449" lon="6.60735">
        <ele>161.1</ele>
        <time>2014-10-05T09:34:14Z</time>
      </trkpt>
      <trkpt lat="43.42444" lon="6.60733">
        <ele>161.7</ele>
        <time>2014-10-05T09:34:16Z</time>
      </trkpt>
      <trkpt lat="43.4244" lon="6.60732">
        <ele>162.5</ele>
        <time>2014-10-05T09:34:18Z</time>
      </trkpt>
      <trkpt lat="43.42436" lon="6.60731">
        <ele>163.4</ele>
        <time>2014-10-05T09:34:20Z</time>
      </trkpt>
      <trkpt lat="43.42432" lon="6.6073">
        <ele>164.4</ele>
        <time>2014-10-05T09:34:22Z</time>
      </trkpt>
      <trkpt lat="43.42428" lon="6.60729">
        <ele>165.2</ele>
        <time>2014-10-05T09:34:24Z</time>
      </trkpt>
      <trkpt lat="43.42424" lon="6.60728">
        <ele>166.2</ele>
        <time>2014-10-05T09:34:26Z</time>
      </trkpt>
      <trkpt lat="43.4242" lon="6.60728">
        <ele>167.6</ele>
        <time>2014-10-05T09:34:28Z</time>
      </trkpt>
      <trkpt lat="43.42416" lon="6.60729">
        <ele>169.1</ele>
        <time>2014-10-05T09:34:30Z</time>
      </trkpt>
      <trkpt lat="43.42412" lon="6.60731">
        <ele>170.6</ele>
        <time>2014-10-05T09:34:32Z</time>
      </trkpt>
      <trkpt lat="43.42407" lon="6.60732">
        <ele>172.3</ele>
        <time>2014-10-05T09:34:34Z</time>
      </trkpt>
      <trkpt lat="43.42403" lon="6.60732">
        <ele>173.7</ele>
        <time>2014-10-05T09:34:36Z</time>
      </trkpt>
      <trkpt lat="43.42399" lon="6.60732">
        <ele>174.9</ele>
        <time>2014-10-05T09:34:38Z</time>
      </trkpt>
      <trkpt lat="43.42394" lon="6.60731">
        <ele>176</ele>
        <time>2014-10-05T09:34:40Z</time>
      </trkpt>
      <trkpt lat="43.4239" lon="6.6073">
        <ele>177.2</ele>
        <time>2014-10-05T09:34:42Z</time>
      </trkpt>
      <trkpt lat="43.42385" lon="6.60728">
        <ele>178.2</ele>
        <time>2014-10-05T09:34:44Z</time>
      </trkpt>
      <trkpt lat="43.42381" lon="6.60726">
        <ele>179</ele>
        <time>2014-10-05T09:34:46Z</time>
      </trkpt>
      <trkpt lat="43.42377" lon="6.60722">
        <ele>179.7</ele>
        <time>2014-10-05T09:34:48Z</time>
      </trkpt>
      <trkpt lat="43.42373" lon="6.60719">
        <ele>180</ele>
        <time>2014-10-05T09:34:50Z</time>
      </trkpt>
      <trkpt lat="43.4237" lon="6.60718">
        <ele>180.1</ele>
        <time>2014-10-05T09:34:52Z</time>
      </trkpt>
      <trkpt lat="43.42367" lon="6.60716">
        <ele>180</ele>
        <time>2014-10-05T09:34:54Z</time>
      </trkpt>
      <trkpt lat="43.42364" lon="6.60714">
        <ele>180.1</ele>
        <time>2014-10-05T09:34:56Z</time>
      </trkpt>
      <trkpt lat="43.42361" lon="6.60712">
        <ele>180.1</ele>
        <time>2014-10-05T09:34:58Z</time>
      </trkpt>
      <trkpt lat="43.42358" lon="6.60709">
        <ele>180</ele>
        <time>2014-10-05T09:35:00Z</time>
      </trkpt>
      <trkpt lat="43.42356" lon="6.60706">
        <ele>180</ele>
        <time>2014-10-05T09:35:02Z</time>
      </trkpt>
      <trkpt lat="43.42354" lon="6.60702">
        <ele>180.1</ele>
        <time>2014-10-05T09:35:04Z</time>
      </trkpt>
      <trkpt lat="43.42353" lon="6.60697">
        <ele>180</ele>
        <time>2014-10-05T09:35:06Z</time>
      </trkpt>
      <trkpt lat="43.42352" lon="6.60693">
        <ele>179.9</ele>
        <time>2014-10-05T09:35:08Z</time>
      </trkpt>
      <trkpt lat="43.42352" lon="6.60689">
        <ele>179.8</ele>
        <time>2014-10-05T09:35:10Z</time>
      </trkpt>
      <trkpt lat="43.42353" lon="6.60684">
        <ele>179.5</ele>
        <time>2014-10-05T09:35:12Z</time>
      </trkpt>
      <trkpt lat="43.42354" lon="6.60679">
        <ele>179.3</ele>
        <time>2014-10-05T09:35:14Z</time>
      </trkpt>
      <trkpt lat="43.42353" lon="6.60675">
        <ele>179.2</ele>
        <time>2014-10-05T09:35:16Z</time>
      </trkpt>
      <trkpt lat="43.42352" lon="6.6067">
        <ele>179.2</ele>
        <time>2014-10-05T09:35:18Z</time>
      </trkpt>
      <trkpt lat="43.4235" lon="6.60666">
        <ele>179.4</ele>
        <time>2014-10-05T09:35:20Z</time>
      </trkpt>
      <trkpt lat="43.42347" lon="6.60662">
        <ele>179.7</ele>
        <time>2014-10-05T09:35:22Z</time>
      </trkpt>
      <trkpt lat="43.42344" lon="6.60659">
        <ele>180.1</ele>
        <time>2014-10-05T09:35:24Z</time>
      </trkpt>
      <trkpt lat="43.42341" lon="6.60656">
        <ele>180.6</ele>
        <time>2014-10-05T09:35:26Z</time>
      </trkpt>
      <trkpt lat="43.42338" lon="6.60653">
        <ele>181.1</ele>
        <time>2014-10-05T09:35:28Z</time>
      </trkpt>
      <trkpt lat="43.42335" lon="6.6065">
        <ele>181.6</ele>
        <time>2014-10-05T09:35:30Z</time>
      </trkpt>
      <trkpt lat="43.42332" lon="6.60648">
        <ele>182</ele>
        <time>2014-10-05T09:35:32Z</time>
      </trkpt>
      <trkpt lat="43.42329" lon="6.60646">
        <ele>182.6</ele>
        <time>2014-10-05T09:35:34Z</time>
      </trkpt>
      <trkpt lat="43.42326" lon="6.60645">
        <ele>183.1</ele>
        <time>2014-10-05T09:35:36Z</time>
      </trkpt>
      <trkpt lat="43.42323" lon="6.60642">
        <ele>183.6</ele>
        <time>2014-10-05T09:35:38Z</time>
      </trkpt>
      <trkpt lat="43.42321" lon="6.6064">
        <ele>184.1</ele>
        <time>2014-10-05T09:35:40Z</time>
      </trkpt>
      <trkpt lat="43.42318" lon="6.60637">
        <ele>184.6</ele>
        <time>2014-10-05T09:35:42Z</time>
      </trkpt>
      <trkpt lat="43.42314" lon="6.60636">
        <ele>185.3</ele>
        <time>2014-10-05T09:35:44Z</time>
      </trkpt>
      <trkpt lat="43.42311" lon="6.60635">
        <ele>186</ele>
        <time>2014-10-05T09:35:46Z</time>
      </trkpt>
      <trkpt lat="43.42307" lon="6.60634">
        <ele>186.7</ele>
        <time>2014-10-05T09:35:48Z</time>
      </trkpt>
      <trkpt lat="43.42304" lon="6.60634">
        <ele>187.3</ele>
        <time>2014-10-05T09:35:50Z</time>
      </trkpt>
      <trkpt lat="43.42301" lon="6.60633">
        <ele>188</ele>
        <time>2014-10-05T09:35:52Z</time>
      </trkpt>
      <trkpt lat="43.42298" lon="6.60633">
        <ele>188.6</ele>
        <time>2014-10-05T09:35:54Z</time>
      </trkpt>
      <trkpt lat="43.42295" lon="6.60634">
        <ele>189.1</ele>
        <time>2014-10-05T09:35:56Z</time>
      </trkpt>
      <trkpt lat="43.42291" lon="6.60635">
        <ele>189.7</ele>
        <time>2014-10-05T09:35:58Z</time>
      </trkpt>
      <trkpt lat="43.42288" lon="6.60636">
        <ele>190.1</ele>
        <time>2014-10-05T09:36:00Z</time>
      </trkpt>
      <trkpt lat="43.42285" lon="6.60637">
        <ele>190.6</ele>
        <time>2014-10-05T09:36:02Z</time>
      </trkpt>
      <trkpt lat="43.42282" lon="6.60638">
        <ele>191.1</ele>
        <time>2014-10-05T09:36:04Z</time>
      </trkpt>
      <trkpt lat="43.42278" lon="6.6064">
        <ele>191.5</ele>
        <time>2014-10-05T09:36:06Z</time>
      </trkpt>
      <trkpt lat="43.42275" lon="6.60642">
        <ele>191.9</ele>
        <time>2014-10-05T09:36:08Z</time>
      </trkpt>
      <trkpt lat="43.42272" lon="6.60644">
        <ele>192.3</ele>
        <time>2014-10-05T09:36:10Z</time>
      </trkpt>
      <trkpt lat="43.42269" lon="6.60646">
        <ele>192.6</ele>
        <time>2014-10-05T09:36:12Z</time>
      </trkpt>
      <trkpt lat="43.42265" lon="6.60647">
        <ele>193.1</ele>
        <time>2014-10-05T09:36:14Z</time>
      </trkpt>
      <trkpt lat="43.42262" lon="6.6065">
        <ele>193.4</ele>
        <time>2014-10-05T09:36:16Z</time>
      </trkpt>
      <trkpt lat="43.42259" lon="6.60653">
        <ele>193.6</ele>
        <time>2014-10-05T09:36:18Z</time>
      </trkpt>
      <trkpt lat="43.42255" lon="6.60656">
        <ele>193.9</ele>
        <time>2014-10-05T09:36:20Z</time>
      </trkpt>
      <trkpt lat="43.42252" lon="6.60659">
        <ele>194.1</ele>
        <time>2014-10-05T09:36:22Z</time>
      </trkpt>
      <trkpt lat="43.42248" lon="6.60663">
        <ele>194.4</ele>
        <time>2014-10-05T09:36:24Z</time>
      </trkpt>
      <trkpt lat="43.42243" lon="6.60666">
        <ele>194.7</ele>
        <time>2014-10-05T09:36:26Z</time>
      </trkpt>
      <trkpt lat="43.42238" lon="6.6067">
        <ele>195</ele>
        <time>2014-10-05T09:36:28Z</time>
      </trkpt>
      <trkpt lat="43.42234" lon="6.60673">
        <ele>195.3</ele>
        <time>2014-10-05T09:36:30Z</time>
      </trkpt>
      <trkpt lat="43.42229" lon="6.60675">
        <ele>195.6</ele>
        <time>2014-10-05T09:36:32Z</time>
      </trkpt>
      <trkpt lat="43.42224" lon="6.60678">
        <ele>195.8</ele>
        <time>2014-10-05T09:36:34Z</time>
      </trkpt>
      <trkpt lat="43.42222" lon="6.60681">
        <ele>195.8</ele>
        <time>2014-10-05T09:36:35Z</time>
      </trkpt>
      <trkpt lat="43.42218" lon="6.60685">
        <ele>195.7</ele>
        <time>2014-10-05T09:36:37Z</time>
      </trkpt>
      <trkpt lat="43.42215" lon="6.60691">
        <ele>195.5</ele>
        <time>2014-10-05T09:36:39Z</time>
      </trkpt>
      <trkpt lat="43.42213" lon="6.60694">
        <ele>195.3</ele>
        <time>2014-10-05T09:36:40Z</time>
      </trkpt>
      <trkpt lat="43.42211" lon="6.60697">
        <ele>195.1</ele>
        <time>2014-10-05T09:36:41Z</time>
      </trkpt>
      <trkpt lat="43.42209" lon="6.607">
        <ele>195</ele>
        <time>2014-10-05T09:36:42Z</time>
      </trkpt>
      <trkpt lat="43.42207" lon="6.60703">
        <ele>194.8</ele>
        <time>2014-10-05T09:36:43Z</time>
      </trkpt>
      <trkpt lat="43.42204" lon="6.60708">
        <ele>194.7</ele>
        <time>2014-10-05T09:36:45Z</time>
      </trkpt>
      <trkpt lat="43.42202" lon="6.60711">
        <ele>195</ele>
        <time>2014-10-05T09:36:46Z</time>
      </trkpt>
      <trkpt lat="43.422" lon="6.60714">
        <ele>195.2</ele>
        <time>2014-10-05T09:36:47Z</time>
      </trkpt>
      <trkpt lat="43.42198" lon="6.60717">
        <ele>195.4</ele>
        <time>2014-10-05T09:36:48Z</time>
      </trkpt>
      <trkpt lat="43.42196" lon="6.6072">
        <ele>195.6</ele>
        <time>2014-10-05T09:36:49Z</time>
      </trkpt>
      <trkpt lat="43.42194" lon="6.60723">
        <ele>195.8</ele>
        <time>2014-10-05T09:36:50Z</time>
      </trkpt>
      <trkpt lat="43.42192" lon="6.60726">
        <ele>196</ele>
        <time>2014-10-05T09:36:51Z</time>
      </trkpt>
      <trkpt lat="43.42189" lon="6.60729">
        <ele>196.4</ele>
        <time>2014-10-05T09:36:52Z</time>
      </trkpt>
      <trkpt lat="43.42186" lon="6.60732">
        <ele>196.8</ele>
        <time>2014-10-05T09:36:53Z</time>
      </trkpt>
      <trkpt lat="43.42182" lon="6.60735">
        <ele>197.2</ele>
        <time>2014-10-05T09:36:54Z</time>
      </trkpt>
      <trkpt lat="43.42179" lon="6.60737">
        <ele>197.7</ele>
        <time>2014-10-05T09:36:55Z</time>
      </trkpt>
      <trkpt lat="43.42176" lon="6.60739">
        <ele>198</ele>
        <time>2014-10-05T09:36:56Z</time>
      </trkpt>
      <trkpt lat="43.42175" lon="6.60745">
        <ele>198</ele>
        <time>2014-10-05T09:36:58Z</time>
      </trkpt>
      <trkpt lat="43.42175" lon="6.60752">
        <ele>197.7</ele>
        <time>2014-10-05T09:37:00Z</time>
      </trkpt>
      <trkpt lat="43.42176" lon="6.60755">
        <ele>197.4</ele>
        <time>2014-10-05T09:37:02Z</time>
      </trkpt>
      <trkpt lat="43.42178" lon="6.6076">
        <ele>196.9</ele>
        <time>2014-10-05T09:37:04Z</time>
      </trkpt>
      <trkpt lat="43.42178" lon="6.60765">
        <ele>196.6</ele>
        <time>2014-10-05T09:37:06Z</time>
      </trkpt>
      <trkpt lat="43.42179" lon="6.6077">
        <ele>196.2</ele>
        <time>2014-10-05T09:37:08Z</time>
      </trkpt>
      <trkpt lat="43.4218" lon="6.60775">
        <ele>195.9</ele>
        <time>2014-10-05T09:37:10Z</time>
      </trkpt>
      <trkpt lat="43.42181" lon="6.60779">
        <ele>195.5</ele>
        <time>2014-10-05T09:37:12Z</time>
      </trkpt>
      <trkpt lat="43.42183" lon="6.60784">
        <ele>195</ele>
        <time>2014-10-05T09:37:14Z</time>
      </trkpt>
      <trkpt lat="43.42185" lon="6.60787">
        <ele>194.5</ele>
        <time>2014-10-05T09:37:16Z</time>
      </trkpt>
      <trkpt lat="43.42188" lon="6.60791">
        <ele>194</ele>
        <time>2014-10-05T09:37:18Z</time>
      </trkpt>
      <trkpt lat="43.42191" lon="6.60794">
        <ele>193.7</ele>
        <time>2014-10-05T09:37:20Z</time>
      </trkpt>
      <trkpt lat="43.42194" lon="6.60795">
        <ele>193.3</ele>
        <time>2014-10-05T09:37:22Z</time>
      </trkpt>
      <trkpt lat="43.42198" lon="6.60795">
        <ele>192.8</ele>
        <time>2014-10-05T09:37:24Z</time>
      </trkpt>
      <trkpt lat="43.42202" lon="6.60794">
        <ele>192.2</ele>
        <time>2014-10-05T09:37:26Z</time>
      </trkpt>
      <trkpt lat="43.42205" lon="6.60793">
        <ele>191.6</ele>
        <time>2014-10-05T09:37:28Z</time>
      </trkpt>
      <trkpt lat="43.42208" lon="6.60791">
        <ele>191</ele>
        <time>2014-10-05T09:37:30Z</time>
      </trkpt>
      <trkpt lat="43.42211" lon="6.60789">
        <ele>191.3</ele>
        <time>2014-10-05T09:37:32Z</time>
      </trkpt>
      <trkpt lat="43.42213" lon="6.60786">
        <ele>191.5</ele>
        <time>2014-10-05T09:37:34Z</time>
      </trkpt>
      <trkpt lat="43.42216" lon="6.60784">
        <ele>191.6</ele>
        <time>2014-10-05T09:37:36Z</time>
      </trkpt>
      <trkpt lat="43.42218" lon="6.60779">
        <ele>191.8</ele>
        <time>2014-10-05T09:37:39Z</time>
      </trkpt>
      <trkpt lat="43.4222" lon="6.60777">
        <ele>191.9</ele>
        <time>2014-10-05T09:37:41Z</time>
      </trkpt>
      <trkpt lat="43.42223" lon="6.60776">
        <ele>192.1</ele>
        <time>2014-10-05T09:37:43Z</time>
      </trkpt>
      <trkpt lat="43.42227" lon="6.60774">
        <ele>192.2</ele>
        <time>2014-10-05T09:37:45Z</time>
      </trkpt>
      <trkpt lat="43.42231" lon="6.60771">
        <ele>192.3</ele>
        <time>2014-10-05T09:37:47Z</time>
      </trkpt>
      <trkpt lat="43.42234" lon="6.60769">
        <ele>192.4</ele>
        <time>2014-10-05T09:37:49Z</time>
      </trkpt>
      <trkpt lat="43.42238" lon="6.60769">
        <ele>192.4</ele>
        <time>2014-10-05T09:37:51Z</time>
      </trkpt>
      <trkpt lat="43.42241" lon="6.60768">
        <ele>192.5</ele>
        <time>2014-10-05T09:37:53Z</time>
      </trkpt>
      <trkpt lat="43.42244" lon="6.60768">
        <ele>192.5</ele>
        <time>2014-10-05T09:37:55Z</time>
      </trkpt>
      <trkpt lat="43.42247" lon="6.6077">
        <ele>192.6</ele>
        <time>2014-10-05T09:37:57Z</time>
      </trkpt>
      <trkpt lat="43.4225" lon="6.60771">
        <ele>192.8</ele>
        <time>2014-10-05T09:37:59Z</time>
      </trkpt>
      <trkpt lat="43.42253" lon="6.60773">
        <ele>192.9</ele>
        <time>2014-10-05T09:38:01Z</time>
      </trkpt>
      <trkpt lat="43.42256" lon="6.60776">
        <ele>193.1</ele>
        <time>2014-10-05T09:38:03Z</time>
      </trkpt>
      <trkpt lat="43.42258" lon="6.60779">
        <ele>193.3</ele>
        <time>2014-10-05T09:38:05Z</time>
      </trkpt>
      <trkpt lat="43.4226" lon="6.60781">
        <ele>193.6</ele>
        <time>2014-10-05T09:38:07Z</time>
      </trkpt>
      <trkpt lat="43.42263" lon="6.60784">
        <ele>193.8</ele>
        <time>2014-10-05T09:38:09Z</time>
      </trkpt>
      <trkpt lat="43.42266" lon="6.60786">
        <ele>194.1</ele>
        <time>2014-10-05T09:38:11Z</time>
      </trkpt>
      <trkpt lat="43.42269" lon="6.60789">
        <ele>194.4</ele>
        <time>2014-10-05T09:38:13Z</time>
      </trkpt>
      <trkpt lat="43.42271" lon="6.60791">
        <ele>194.7</ele>
        <time>2014-10-05T09:38:15Z</time>
      </trkpt>
      <trkpt lat="43.42273" lon="6.60794">
        <ele>195.2</ele>
        <time>2014-10-05T09:38:17Z</time>
      </trkpt>
      <trkpt lat="43.42276" lon="6.60797">
        <ele>195.8</ele>
        <time>2014-10-05T09:38:20Z</time>
      </trkpt>
      <trkpt lat="43.42278" lon="6.608">
        <ele>196.3</ele>
        <time>2014-10-05T09:38:22Z</time>
      </trkpt>
      <trkpt lat="43.4228" lon="6.60802">
        <ele>196.8</ele>
        <time>2014-10-05T09:38:24Z</time>
      </trkpt>
      <trkpt lat="43.42282" lon="6.60805">
        <ele>197.3</ele>
        <time>2014-10-05T09:38:26Z</time>
      </trkpt>
      <trkpt lat="43.42285" lon="6.60809">
        <ele>198</ele>
        <time>2014-10-05T09:38:29Z</time>
      </trkpt>
      <trkpt lat="43.42288" lon="6.60812">
        <ele>198.6</ele>
        <time>2014-10-05T09:38:31Z</time>
      </trkpt>
      <trkpt lat="43.4229" lon="6.60814">
        <ele>199.2</ele>
        <time>2014-10-05T09:38:33Z</time>
      </trkpt>
      <trkpt lat="43.42293" lon="6.60817">
        <ele>199.7</ele>
        <time>2014-10-05T09:38:35Z</time>
      </trkpt>
      <trkpt lat="43.42295" lon="6.60821">
        <ele>200.1</ele>
        <time>2014-10-05T09:38:37Z</time>
      </trkpt>
      <trkpt lat="43.42297" lon="6.60824">
        <ele>200.5</ele>
        <time>2014-10-05T09:38:39Z</time>
      </trkpt>
      <trkpt lat="43.42299" lon="6.60827">
        <ele>200.9</ele>
        <time>2014-10-05T09:38:41Z</time>
      </trkpt>
      <trkpt lat="43.42301" lon="6.6083">
        <ele>201.3</ele>
        <time>2014-10-05T09:38:43Z</time>
      </trkpt>
      <trkpt lat="43.42304" lon="6.60832">
        <ele>201.6</ele>
        <time>2014-10-05T09:38:45Z</time>
      </trkpt>
      <trkpt lat="43.42306" lon="6.60835">
        <ele>202</ele>
        <time>2014-10-05T09:38:47Z</time>
      </trkpt>
      <trkpt lat="43.42309" lon="6.60837">
        <ele>202.4</ele>
        <time>2014-10-05T09:38:49Z</time>
      </trkpt>
      <trkpt lat="43.42311" lon="6.60839">
        <ele>202.7</ele>
        <time>2014-10-05T09:38:51Z</time>
      </trkpt>
      <trkpt lat="43.42314" lon="6.60842">
        <ele>203.1</ele>
        <time>2014-10-05T09:38:53Z</time>
      </trkpt>
      <trkpt lat="43.42317" lon="6.60843">
        <ele>203.3</ele>
        <time>2014-10-05T09:38:55Z</time>
      </trkpt>
      <trkpt lat="43.4232" lon="6.60844">
        <ele>203.4</ele>
        <time>2014-10-05T09:38:57Z</time>
      </trkpt>
      <trkpt lat="43.42323" lon="6.60845">
        <ele>203.6</ele>
        <time>2014-10-05T09:38:59Z</time>
      </trkpt>
      <trkpt lat="43.42327" lon="6.60846">
        <ele>203.8</ele>
        <time>2014-10-05T09:39:01Z</time>
      </trkpt>
      <trkpt lat="43.4233" lon="6.60846">
        <ele>203.7</ele>
        <time>2014-10-05T09:39:03Z</time>
      </trkpt>
      <trkpt lat="43.42333" lon="6.60845">
        <ele>203.5</ele>
        <time>2014-10-05T09:39:05Z</time>
      </trkpt>
      <trkpt lat="43.42337" lon="6.60844">
        <ele>203.4</ele>
        <time>2014-10-05T09:39:07Z</time>
      </trkpt>
      <trkpt lat="43.4234" lon="6.60844">
        <ele>203.4</ele>
        <time>2014-10-05T09:39:09Z</time>
      </trkpt>
      <trkpt lat="43.42343" lon="6.60844">
        <ele>203.4</ele>
        <time>2014-10-05T09:39:11Z</time>
      </trkpt>
      <trkpt lat="43.42347" lon="6.60845">
        <ele>203.6</ele>
        <time>2014-10-05T09:39:13Z</time>
      </trkpt>
      <trkpt lat="43.42351" lon="6.60847">
        <ele>203.9</ele>
        <time>2014-10-05T09:39:15Z</time>
      </trkpt>
      <trkpt lat="43.42354" lon="6.60851">
        <ele>204.7</ele>
        <time>2014-10-05T09:39:17Z</time>
      </trkpt>
      <trkpt lat="43.42356" lon="6.60855">
        <ele>205.6</ele>
        <time>2014-10-05T09:39:19Z</time>
      </trkpt>
      <trkpt lat="43.42357" lon="6.60861">
        <ele>206.7</ele>
        <time>2014-10-05T09:39:21Z</time>
      </trkpt>
      <trkpt lat="43.42358" lon="6.60865">
        <ele>207.7</ele>
        <time>2014-10-05T09:39:23Z</time>
      </trkpt>
      <trkpt lat="43.42359" lon="6.6087">
        <ele>208.6</ele>
        <time>2014-10-05T09:39:25Z</time>
      </trkpt>
      <trkpt lat="43.42358" lon="6.60874">
        <ele>209.4</ele>
        <time>2014-10-05T09:39:27Z</time>
      </trkpt>
      <trkpt lat="43.42357" lon="6.60878">
        <ele>210.1</ele>
        <time>2014-10-05T09:39:29Z</time>
      </trkpt>
      <trkpt lat="43.42356" lon="6.60882">
        <ele>210.7</ele>
        <time>2014-10-05T09:39:31Z</time>
      </trkpt>
      <trkpt lat="43.42354" lon="6.60886">
        <ele>211.3</ele>
        <time>2014-10-05T09:39:33Z</time>
      </trkpt>
      <trkpt lat="43.42354" lon="6.60891">
        <ele>212.1</ele>
        <time>2014-10-05T09:39:35Z</time>
      </trkpt>
      <trkpt lat="43.42353" lon="6.60896">
        <ele>212.8</ele>
        <time>2014-10-05T09:39:37Z</time>
      </trkpt>
      <trkpt lat="43.4235" lon="6.609">
        <ele>213.4</ele>
        <time>2014-10-05T09:39:40Z</time>
      </trkpt>
      <trkpt lat="43.42348" lon="6.60903">
        <ele>213.9</ele>
        <time>2014-10-05T09:39:43Z</time>
      </trkpt>
      <trkpt lat="43.42346" lon="6.60907">
        <ele>214.5</ele>
        <time>2014-10-05T09:39:46Z</time>
      </trkpt>
      <trkpt lat="43.42344" lon="6.60911">
        <ele>215.1</ele>
        <time>2014-10-05T09:39:49Z</time>
      </trkpt>
      <trkpt lat="43.42341" lon="6.60914">
        <ele>215.7</ele>
        <time>2014-10-05T09:39:52Z</time>
      </trkpt>
      <trkpt lat="43.42339" lon="6.60917">
        <ele>216.1</ele>
        <time>2014-10-05T09:39:54Z</time>
      </trkpt>
      <trkpt lat="43.42336" lon="6.6092">
        <ele>216.6</ele>
        <time>2014-10-05T09:39:56Z</time>
      </trkpt>
      <trkpt lat="43.42334" lon="6.60923">
        <ele>217.1</ele>
        <time>2014-10-05T09:39:58Z</time>
      </trkpt>
      <trkpt lat="43.42332" lon="6.60926">
        <ele>217.6</ele>
        <time>2014-10-05T09:40:00Z</time>
      </trkpt>
      <trkpt lat="43.4233" lon="6.60929">
        <ele>218.1</ele>
        <time>2014-10-05T09:40:02Z</time>
      </trkpt>
      <trkpt lat="43.42327" lon="6.60932">
        <ele>218.5</ele>
        <time>2014-10-05T09:40:04Z</time>
      </trkpt>
      <trkpt lat="43.42325" lon="6.60935">
        <ele>219</ele>
        <time>2014-10-05T09:40:06Z</time>
      </trkpt>
      <trkpt lat="43.42322" lon="6.60938">
        <ele>219.5</ele>
        <time>2014-10-05T09:40:08Z</time>
      </trkpt>
      <trkpt lat="43.4232" lon="6.60942">
        <ele>220.2</ele>
        <time>2014-10-05T09:40:10Z</time>
      </trkpt>
      <trkpt lat="43.42318" lon="6.60946">
        <ele>220.9</ele>
        <time>2014-10-05T09:40:12Z</time>
      </trkpt>
      <trkpt lat="43.42316" lon="6.6095">
        <ele>221.6</ele>
        <time>2014-10-05T09:40:14Z</time>
      </trkpt>
      <trkpt lat="43.42314" lon="6.60954">
        <ele>222.3</ele>
        <time>2014-10-05T09:40:16Z</time>
      </trkpt>
      <trkpt lat="43.42313" lon="6.60958">
        <ele>222.9</ele>
        <time>2014-10-05T09:40:18Z</time>
      </trkpt>
      <trkpt lat="43.42311" lon="6.60962">
        <ele>223.3</ele>
        <time>2014-10-05T09:40:20Z</time>
      </trkpt>
      <trkpt lat="43.42309" lon="6.60966">
        <ele>223.6</ele>
        <time>2014-10-05T09:40:22Z</time>
      </trkpt>
      <trkpt lat="43.42308" lon="6.6097">
        <ele>224</ele>
        <time>2014-10-05T09:40:24Z</time>
      </trkpt>
      <trkpt lat="43.42306" lon="6.60974">
        <ele>224.3</ele>
        <time>2014-10-05T09:40:26Z</time>
      </trkpt>
      <trkpt lat="43.42305" lon="6.60978">
        <ele>224.6</ele>
        <time>2014-10-05T09:40:28Z</time>
      </trkpt>
      <trkpt lat="43.42303" lon="6.60983">
        <ele>225</ele>
        <time>2014-10-05T09:40:31Z</time>
      </trkpt>
      <trkpt lat="43.42301" lon="6.60986">
        <ele>225.3</ele>
        <time>2014-10-05T09:40:33Z</time>
      </trkpt>
      <trkpt lat="43.42299" lon="6.6099">
        <ele>225.6</ele>
        <time>2014-10-05T09:40:35Z</time>
      </trkpt>
      <trkpt lat="43.42297" lon="6.60994">
        <ele>226</ele>
        <time>2014-10-05T09:40:37Z</time>
      </trkpt>
      <trkpt lat="43.42295" lon="6.60999">
        <ele>226.4</ele>
        <time>2014-10-05T09:40:39Z</time>
      </trkpt>
      <trkpt lat="43.42293" lon="6.61004">
        <ele>226.8</ele>
        <time>2014-10-05T09:40:41Z</time>
      </trkpt>
      <trkpt lat="43.42292" lon="6.61009">
        <ele>227.2</ele>
        <time>2014-10-05T09:40:43Z</time>
      </trkpt>
      <trkpt lat="43.4229" lon="6.61014">
        <ele>227.4</ele>
        <time>2014-10-05T09:40:45Z</time>
      </trkpt>
      <trkpt lat="43.42288" lon="6.6102">
        <ele>227.6</ele>
        <time>2014-10-05T09:40:47Z</time>
      </trkpt>
      <trkpt lat="43.42285" lon="6.61025">
        <ele>227.8</ele>
        <time>2014-10-05T09:40:49Z</time>
      </trkpt>
      <trkpt lat="43.42283" lon="6.61031">
        <ele>228</ele>
        <time>2014-10-05T09:40:51Z</time>
      </trkpt>
      <trkpt lat="43.42281" lon="6.61037">
        <ele>228.3</ele>
        <time>2014-10-05T09:40:53Z</time>
      </trkpt>
      <trkpt lat="43.4228" lon="6.61042">
        <ele>228.6</ele>
        <time>2014-10-05T09:40:55Z</time>
      </trkpt>
      <trkpt lat="43.42279" lon="6.61047">
        <ele>229.1</ele>
        <time>2014-10-05T09:40:57Z</time>
      </trkpt>
      <trkpt lat="43.42277" lon="6.61052">
        <ele>229.6</ele>
        <time>2014-10-05T09:40:59Z</time>
      </trkpt>
      <trkpt lat="43.42277" lon="6.61056">
        <ele>230.2</ele>
        <time>2014-10-05T09:41:02Z</time>
      </trkpt>
      <trkpt lat="43.4228" lon="6.61065">
        <ele>231.7</ele>
        <time>2014-10-05T09:44:01Z</time>
      </trkpt>
      <trkpt lat="43.42279" lon="6.61072">
        <ele>232.5</ele>
        <time>2014-10-05T09:44:03Z</time>
      </trkpt>
      <trkpt lat="43.42279" lon="6.61076">
        <ele>233</ele>
        <time>2014-10-05T09:44:04Z</time>
      </trkpt>
      <trkpt lat="43.42279" lon="6.6108">
        <ele>233.5</ele>
        <time>2014-10-05T09:44:05Z</time>
      </trkpt>
      <trkpt lat="43.42279" lon="6.61084">
        <ele>234</ele>
        <time>2014-10-05T09:44:06Z</time>
      </trkpt>
      <trkpt lat="43.4228" lon="6.61087">
        <ele>234.5</ele>
        <time>2014-10-05T09:44:07Z</time>
      </trkpt>
      <trkpt lat="43.42281" lon="6.61093">
        <ele>235.4</ele>
        <time>2014-10-05T09:44:09Z</time>
      </trkpt>
      <trkpt lat="43.42284" lon="6.61098">
        <ele>236.2</ele>
        <time>2014-10-05T09:44:11Z</time>
      </trkpt>
      <trkpt lat="43.42287" lon="6.61102">
        <ele>236.9</ele>
        <time>2014-10-05T09:44:13Z</time>
      </trkpt>
      <trkpt lat="43.42291" lon="6.61106">
        <ele>237.7</ele>
        <time>2014-10-05T09:44:15Z</time>
      </trkpt>
      <trkpt lat="43.42295" lon="6.6111">
        <ele>237.9</ele>
        <time>2014-10-05T09:44:17Z</time>
      </trkpt>
      <trkpt lat="43.42297" lon="6.61112">
        <ele>238</ele>
        <time>2014-10-05T09:44:19Z</time>
      </trkpt>
      <trkpt lat="43.423" lon="6.61115">
        <ele>238.1</ele>
        <time>2014-10-05T09:44:21Z</time>
      </trkpt>
      <trkpt lat="43.42303" lon="6.61119">
        <ele>238.2</ele>
        <time>2014-10-05T09:44:23Z</time>
      </trkpt>
      <trkpt lat="43.42307" lon="6.61125">
        <ele>238.5</ele>
        <time>2014-10-05T09:44:25Z</time>
      </trkpt>
      <trkpt lat="43.4231" lon="6.6113">
        <ele>238.8</ele>
        <time>2014-10-05T09:44:27Z</time>
      </trkpt>
      <trkpt lat="43.42312" lon="6.61133">
        <ele>239</ele>
        <time>2014-10-05T09:44:28Z</time>
      </trkpt>
      <trkpt lat="43.42316" lon="6.61138">
        <ele>239.3</ele>
        <time>2014-10-05T09:44:30Z</time>
      </trkpt>
      <trkpt lat="43.42319" lon="6.61143">
        <ele>239.5</ele>
        <time>2014-10-05T09:44:32Z</time>
      </trkpt>
      <trkpt lat="43.42323" lon="6.61147">
        <ele>239.7</ele>
        <time>2014-10-05T09:44:34Z</time>
      </trkpt>
      <trkpt lat="43.42327" lon="6.61152">
        <ele>239.9</ele>
        <time>2014-10-05T09:44:36Z</time>
      </trkpt>
      <trkpt lat="43.4233" lon="6.61157">
        <ele>240.2</ele>
        <time>2014-10-05T09:44:38Z</time>
      </trkpt>
      <trkpt lat="43.42332" lon="6.6116">
        <ele>240.4</ele>
        <time>2014-10-05T09:44:39Z</time>
      </trkpt>
      <trkpt lat="43.42334" lon="6.61163">
        <ele>240.6</ele>
        <time>2014-10-05T09:44:40Z</time>
      </trkpt>
      <trkpt lat="43.42337" lon="6.61169">
        <ele>240.8</ele>
        <time>2014-10-05T09:44:42Z</time>
      </trkpt>
      <trkpt lat="43.42341" lon="6.61174">
        <ele>241.1</ele>
        <time>2014-10-05T09:44:44Z</time>
      </trkpt>
      <trkpt lat="43.42342" lon="6.61178">
        <ele>241.3</ele>
        <time>2014-10-05T09:44:45Z</time>
      </trkpt>
      <trkpt lat="43.42344" lon="6.61181">
        <ele>241.5</ele>
        <time>2014-10-05T09:44:46Z</time>
      </trkpt>
      <trkpt lat="43.42346" lon="6.61184">
        <ele>241.6</ele>
        <time>2014-10-05T09:44:47Z</time>
      </trkpt>
      <trkpt lat="43.42348" lon="6.61186">
        <ele>241.7</ele>
        <time>2014-10-05T09:44:48Z</time>
      </trkpt>
      <trkpt lat="43.4235" lon="6.61189">
        <ele>241.8</ele>
        <time>2014-10-05T09:44:49Z</time>
      </trkpt>
      <trkpt lat="43.42352" lon="6.61192">
        <ele>241.9</ele>
        <time>2014-10-05T09:44:50Z</time>
      </trkpt>
      <trkpt lat="43.42354" lon="6.61195">
        <ele>242</ele>
        <time>2014-10-05T09:44:51Z</time>
      </trkpt>
      <trkpt lat="43.42357" lon="6.61198">
        <ele>242.1</ele>
        <time>2014-10-05T09:44:52Z</time>
      </trkpt>
      <trkpt lat="43.42359" lon="6.61201">
        <ele>242.1</ele>
        <time>2014-10-05T09:44:53Z</time>
      </trkpt>
      <trkpt lat="43.42361" lon="6.61204">
        <ele>242.2</ele>
        <time>2014-10-05T09:44:54Z</time>
      </trkpt>
      <trkpt lat="43.42364" lon="6.61207">
        <ele>242.2</ele>
        <time>2014-10-05T09:44:55Z</time>
      </trkpt>
      <trkpt lat="43.42366" lon="6.6121">
        <ele>242.3</ele>
        <time>2014-10-05T09:44:56Z</time>
      </trkpt>
      <trkpt lat="43.42368" lon="6.61213">
        <ele>242.6</ele>
        <time>2014-10-05T09:44:57Z</time>
      </trkpt>
      <trkpt lat="43.4237" lon="6.61217">
        <ele>242.9</ele>
        <time>2014-10-05T09:44:58Z</time>
      </trkpt>
      <trkpt lat="43.42373" lon="6.61221">
        <ele>243.1</ele>
        <time>2014-10-05T09:44:59Z</time>
      </trkpt>
      <trkpt lat="43.42375" lon="6.61225">
        <ele>243.4</ele>
        <time>2014-10-05T09:45:00Z</time>
      </trkpt>
      <trkpt lat="43.42377" lon="6.61229">
        <ele>243.6</ele>
        <time>2014-10-05T09:45:01Z</time>
      </trkpt>
      <trkpt lat="43.42379" lon="6.61233">
        <ele>243.7</ele>
        <time>2014-10-05T09:45:02Z</time>
      </trkpt>
      <trkpt lat="43.42381" lon="6.61236">
        <ele>243.7</ele>
        <time>2014-10-05T09:45:03Z</time>
      </trkpt>
      <trkpt lat="43.42383" lon="6.6124">
        <ele>243.7</ele>
        <time>2014-10-05T09:45:04Z</time>
      </trkpt>
      <trkpt lat="43.42385" lon="6.61243">
        <ele>243.7</ele>
        <time>2014-10-05T09:45:05Z</time>
      </trkpt>
      <trkpt lat="43.42387" lon="6.61246">
        <ele>243.7</ele>
        <time>2014-10-05T09:45:06Z</time>
      </trkpt>
      <trkpt lat="43.42389" lon="6.61252">
        <ele>244</ele>
        <time>2014-10-05T09:45:08Z</time>
      </trkpt>
      <trkpt lat="43.42391" lon="6.61256">
        <ele>244.2</ele>
        <time>2014-10-05T09:45:09Z</time>
      </trkpt>
      <trkpt lat="43.42393" lon="6.61262">
        <ele>244.6</ele>
        <time>2014-10-05T09:45:11Z</time>
      </trkpt>
      <trkpt lat="43.42395" lon="6.61268">
        <ele>245.1</ele>
        <time>2014-10-05T09:45:13Z</time>
      </trkpt>
      <trkpt lat="43.42396" lon="6.61275">
        <ele>245.7</ele>
        <time>2014-10-05T09:45:15Z</time>
      </trkpt>
      <trkpt lat="43.42396" lon="6.61279">
        <ele>246.3</ele>
        <time>2014-10-05T09:45:16Z</time>
      </trkpt>
      <trkpt lat="43.42397" lon="6.61284">
        <ele>246.8</ele>
        <time>2014-10-05T09:45:17Z</time>
      </trkpt>
      <trkpt lat="43.42398" lon="6.61292">
        <ele>247.6</ele>
        <time>2014-10-05T09:45:18Z</time>
      </trkpt>
      <trkpt lat="43.424" lon="6.61299">
        <ele>248</ele>
        <time>2014-10-05T09:45:19Z</time>
      </trkpt>
      <trkpt lat="43.42403" lon="6.61307">
        <ele>248.2</ele>
        <time>2014-10-05T09:45:20Z</time>
      </trkpt>
      <trkpt lat="43.42407" lon="6.61314">
        <ele>248.1</ele>
        <time>2014-10-05T09:45:21Z</time>
      </trkpt>
      <trkpt lat="43.4241" lon="6.61322">
        <ele>248.2</ele>
        <time>2014-10-05T09:45:22Z</time>
      </trkpt>
      <trkpt lat="43.42414" lon="6.61328">
        <ele>248</ele>
        <time>2014-10-05T09:45:23Z</time>
      </trkpt>
      <trkpt lat="43.42419" lon="6.61333">
        <ele>247.5</ele>
        <time>2014-10-05T09:45:24Z</time>
      </trkpt>
      <trkpt lat="43.42424" lon="6.61336">
        <ele>246.6</ele>
        <time>2014-10-05T09:45:25Z</time>
      </trkpt>
      <trkpt lat="43.4243" lon="6.61339">
        <ele>245.6</ele>
        <time>2014-10-05T09:45:26Z</time>
      </trkpt>
      <trkpt lat="43.42435" lon="6.61341">
        <ele>244.7</ele>
        <time>2014-10-05T09:45:27Z</time>
      </trkpt>
      <trkpt lat="43.42439" lon="6.61344">
        <ele>244</ele>
        <time>2014-10-05T09:45:28Z</time>
      </trkpt>
      <trkpt lat="43.42443" lon="6.61348">
        <ele>243.6</ele>
        <time>2014-10-05T09:45:29Z</time>
      </trkpt>
      <trkpt lat="43.42446" lon="6.61352">
        <ele>243.4</ele>
        <time>2014-10-05T09:45:30Z</time>
      </trkpt>
      <trkpt lat="43.42449" lon="6.61357">
        <ele>243.2</ele>
        <time>2014-10-05T09:45:31Z</time>
      </trkpt>
      <trkpt lat="43.42451" lon="6.61362">
        <ele>243.2</ele>
        <time>2014-10-05T09:45:32Z</time>
      </trkpt>
      <trkpt lat="43.42454" lon="6.61366">
        <ele>243.1</ele>
        <time>2014-10-05T09:45:33Z</time>
      </trkpt>
      <trkpt lat="43.42456" lon="6.61372">
        <ele>243.2</ele>
        <time>2014-10-05T09:45:34Z</time>
      </trkpt>
      <trkpt lat="43.42459" lon="6.61377">
        <ele>243.3</ele>
        <time>2014-10-05T09:45:35Z</time>
      </trkpt>
      <trkpt lat="43.42462" lon="6.61382">
        <ele>243.4</ele>
        <time>2014-10-05T09:45:36Z</time>
      </trkpt>
      <trkpt lat="43.42466" lon="6.61388">
        <ele>243.5</ele>
        <time>2014-10-05T09:45:37Z</time>
      </trkpt>
      <trkpt lat="43.42469" lon="6.61394">
        <ele>243.6</ele>
        <time>2014-10-05T09:45:38Z</time>
      </trkpt>
      <trkpt lat="43.42473" lon="6.61401">
        <ele>243.7</ele>
        <time>2014-10-05T09:45:39Z</time>
      </trkpt>
      <trkpt lat="43.42478" lon="6.61406">
        <ele>243.5</ele>
        <time>2014-10-05T09:45:40Z</time>
      </trkpt>
      <trkpt lat="43.42483" lon="6.6141">
        <ele>243</ele>
        <time>2014-10-05T09:45:41Z</time>
      </trkpt>
      <trkpt lat="43.42489" lon="6.61414">
        <ele>242.3</ele>
        <time>2014-10-05T09:45:42Z</time>
      </trkpt>
      <trkpt lat="43.42493" lon="6.61418">
        <ele>241.8</ele>
        <time>2014-10-05T09:45:43Z</time>
      </trkpt>
      <trkpt lat="43.42498" lon="6.61422">
        <ele>241.4</ele>
        <time>2014-10-05T09:45:44Z</time>
      </trkpt>
      <trkpt lat="43.42503" lon="6.61426">
        <ele>240.7</ele>
        <time>2014-10-05T09:45:45Z</time>
      </trkpt>
      <trkpt lat="43.42508" lon="6.61429">
        <ele>239.8</ele>
        <time>2014-10-05T09:45:46Z</time>
      </trkpt>
      <trkpt lat="43.42515" lon="6.6143">
        <ele>238.4</ele>
        <time>2014-10-05T09:45:47Z</time>
      </trkpt>
      <trkpt lat="43.42522" lon="6.61429">
        <ele>236.8</ele>
        <time>2014-10-05T09:45:49Z</time>
      </trkpt>
      <trkpt lat="43.42535" lon="6.61423">
        <ele>233.4</ele>
        <time>2014-10-05T09:45:50Z</time>
      </trkpt>
      <trkpt lat="43.42541" lon="6.6142">
        <ele>232</ele>
        <time>2014-10-05T09:45:51Z</time>
      </trkpt>
      <trkpt lat="43.42545" lon="6.61417">
        <ele>231.1</ele>
        <time>2014-10-05T09:45:52Z</time>
      </trkpt>
      <trkpt lat="43.42548" lon="6.61416">
        <ele>230.8</ele>
        <time>2014-10-05T09:45:53Z</time>
      </trkpt>
      <trkpt lat="43.42551" lon="6.61416">
        <ele>230.4</ele>
        <time>2014-10-05T09:45:54Z</time>
      </trkpt>
      <trkpt lat="43.42554" lon="6.61416">
        <ele>230.1</ele>
        <time>2014-10-05T09:45:55Z</time>
      </trkpt>
      <trkpt lat="43.4256" lon="6.61416">
        <ele>229.5</ele>
        <time>2014-10-05T09:45:57Z</time>
      </trkpt>
      <trkpt lat="43.42563" lon="6.61417">
        <ele>229.2</ele>
        <time>2014-10-05T09:45:59Z</time>
      </trkpt>
      <trkpt lat="43.42567" lon="6.61418">
        <ele>228.9</ele>
        <time>2014-10-05T09:46:02Z</time>
      </trkpt>
      <trkpt lat="43.42569" lon="6.61421">
        <ele>229</ele>
        <time>2014-10-05T09:46:05Z</time>
      </trkpt>
      <trkpt lat="43.42569" lon="6.61425">
        <ele>229.3</ele>
        <time>2014-10-05T09:46:08Z</time>
      </trkpt>
      <trkpt lat="43.4257" lon="6.61431">
        <ele>229.8</ele>
        <time>2014-10-05T09:46:12Z</time>
      </trkpt>
      <trkpt lat="43.42571" lon="6.61435">
        <ele>230.3</ele>
        <time>2014-10-05T09:46:14Z</time>
      </trkpt>
      <trkpt lat="43.42571" lon="6.6144">
        <ele>230.6</ele>
        <time>2014-10-05T09:46:16Z</time>
      </trkpt>
      <trkpt lat="43.42572" lon="6.61445">
        <ele>231</ele>
        <time>2014-10-05T09:46:18Z</time>
      </trkpt>
      <trkpt lat="43.42574" lon="6.6145">
        <ele>231.4</ele>
        <time>2014-10-05T09:46:20Z</time>
      </trkpt>
      <trkpt lat="43.42576" lon="6.61457">
        <ele>232.1</ele>
        <time>2014-10-05T09:46:22Z</time>
      </trkpt>
      <trkpt lat="43.42577" lon="6.61463">
        <ele>232.4</ele>
        <time>2014-10-05T09:46:24Z</time>
      </trkpt>
      <trkpt lat="43.42579" lon="6.61468">
        <ele>232.7</ele>
        <time>2014-10-05T09:46:26Z</time>
      </trkpt>
      <trkpt lat="43.4258" lon="6.61473">
        <ele>233.1</ele>
        <time>2014-10-05T09:46:28Z</time>
      </trkpt>
      <trkpt lat="43.42582" lon="6.61478">
        <ele>233.3</ele>
        <time>2014-10-05T09:46:30Z</time>
      </trkpt>
      <trkpt lat="43.42584" lon="6.61481">
        <ele>233.5</ele>
        <time>2014-10-05T09:46:32Z</time>
      </trkpt>
      <trkpt lat="43.42586" lon="6.61485">
        <ele>233.7</ele>
        <time>2014-10-05T09:46:34Z</time>
      </trkpt>
      <trkpt lat="43.42588" lon="6.61488">
        <ele>233.9</ele>
        <time>2014-10-05T09:46:36Z</time>
      </trkpt>
      <trkpt lat="43.42589" lon="6.61493">
        <ele>234.3</ele>
        <time>2014-10-05T09:46:40Z</time>
      </trkpt>
      <trkpt lat="43.4259" lon="6.61498">
        <ele>234.6</ele>
        <time>2014-10-05T09:46:43Z</time>
      </trkpt>
      <trkpt lat="43.42591" lon="6.61503">
        <ele>235.1</ele>
        <time>2014-10-05T09:46:46Z</time>
      </trkpt>
      <trkpt lat="43.42591" lon="6.61509">
        <ele>235.7</ele>
        <time>2014-10-05T09:46:48Z</time>
      </trkpt>
      <trkpt lat="43.42591" lon="6.61514">
        <ele>236.1</ele>
        <time>2014-10-05T09:46:50Z</time>
      </trkpt>
      <trkpt lat="43.42592" lon="6.61517">
        <ele>236.3</ele>
        <time>2014-10-05T09:46:54Z</time>
      </trkpt>
      <trkpt lat="43.42597" lon="6.61532">
        <ele>237.4</ele>
        <time>2014-10-05T09:56:54Z</time>
      </trkpt>
      <trkpt lat="43.42599" lon="6.61534">
        <ele>237.5</ele>
        <time>2014-10-05T09:56:55Z</time>
      </trkpt>
      <trkpt lat="43.42602" lon="6.61537">
        <ele>237.7</ele>
        <time>2014-10-05T09:56:56Z</time>
      </trkpt>
      <trkpt lat="43.42605" lon="6.6154">
        <ele>237.8</ele>
        <time>2014-10-05T09:56:57Z</time>
      </trkpt>
      <trkpt lat="43.4261" lon="6.61546">
        <ele>237.8</ele>
        <time>2014-10-05T09:56:58Z</time>
      </trkpt>
      <trkpt lat="43.42621" lon="6.6156">
        <ele>237.6</ele>
        <time>2014-10-05T09:56:59Z</time>
      </trkpt>
      <trkpt lat="43.42626" lon="6.61568">
        <ele>237.4</ele>
        <time>2014-10-05T09:57:00Z</time>
      </trkpt>
      <trkpt lat="43.42631" lon="6.6157">
        <ele>236.7</ele>
        <time>2014-10-05T09:57:01Z</time>
      </trkpt>
      <trkpt lat="43.42637" lon="6.61572">
        <ele>235.6</ele>
        <time>2014-10-05T09:57:02Z</time>
      </trkpt>
      <trkpt lat="43.42645" lon="6.61574">
        <ele>234.2</ele>
        <time>2014-10-05T09:57:03Z</time>
      </trkpt>
      <trkpt lat="43.42652" lon="6.61574">
        <ele>232.9</ele>
        <time>2014-10-05T09:57:05Z</time>
      </trkpt>
      <trkpt lat="43.42666" lon="6.61572">
        <ele>230.4</ele>
        <time>2014-10-05T09:57:06Z</time>
      </trkpt>
      <trkpt lat="43.42675" lon="6.61569">
        <ele>228.9</ele>
        <time>2014-10-05T09:57:07Z</time>
      </trkpt>
      <trkpt lat="43.42683" lon="6.61564">
        <ele>227.5</ele>
        <time>2014-10-05T09:57:08Z</time>
      </trkpt>
      <trkpt lat="43.4269" lon="6.6156">
        <ele>226.5</ele>
        <time>2014-10-05T09:57:09Z</time>
      </trkpt>
      <trkpt lat="43.42697" lon="6.61557">
        <ele>225.4</ele>
        <time>2014-10-05T09:57:10Z</time>
      </trkpt>
      <trkpt lat="43.42704" lon="6.61554">
        <ele>224.2</ele>
        <time>2014-10-05T09:57:11Z</time>
      </trkpt>
      <trkpt lat="43.42712" lon="6.6155">
        <ele>223.3</ele>
        <time>2014-10-05T09:57:12Z</time>
      </trkpt>
      <trkpt lat="43.42719" lon="6.61548">
        <ele>222.6</ele>
        <time>2014-10-05T09:57:13Z</time>
      </trkpt>
      <trkpt lat="43.42727" lon="6.61542">
        <ele>222</ele>
        <time>2014-10-05T09:57:14Z</time>
      </trkpt>
      <trkpt lat="43.42735" lon="6.6154">
        <ele>221.1</ele>
        <time>2014-10-05T09:57:15Z</time>
      </trkpt>
      <trkpt lat="43.42741" lon="6.61543">
        <ele>220.4</ele>
        <time>2014-10-05T09:57:16Z</time>
      </trkpt>
      <trkpt lat="43.42748" lon="6.61544">
        <ele>219.6</ele>
        <time>2014-10-05T09:57:17Z</time>
      </trkpt>
      <trkpt lat="43.42755" lon="6.61545">
        <ele>218.7</ele>
        <time>2014-10-05T09:57:18Z</time>
      </trkpt>
      <trkpt lat="43.4276" lon="6.61548">
        <ele>218</ele>
        <time>2014-10-05T09:57:19Z</time>
      </trkpt>
      <trkpt lat="43.42766" lon="6.61549">
        <ele>217.3</ele>
        <time>2014-10-05T09:57:20Z</time>
      </trkpt>
      <trkpt lat="43.42769" lon="6.61556">
        <ele>216.4</ele>
        <time>2014-10-05T09:57:21Z</time>
      </trkpt>
      <trkpt lat="43.42772" lon="6.61561">
        <ele>215.6</ele>
        <time>2014-10-05T09:57:22Z</time>
      </trkpt>
      <trkpt lat="43.42776" lon="6.6157">
        <ele>214.6</ele>
        <time>2014-10-05T09:57:23Z</time>
      </trkpt>
      <trkpt lat="43.42778" lon="6.61574">
        <ele>214</ele>
        <time>2014-10-05T09:57:24Z</time>
      </trkpt>
      <trkpt lat="43.42781" lon="6.61576">
        <ele>213.5</ele>
        <time>2014-10-05T09:57:25Z</time>
      </trkpt>
      <trkpt lat="43.42784" lon="6.61582">
        <ele>212.6</ele>
        <time>2014-10-05T09:57:27Z</time>
      </trkpt>
      <trkpt lat="43.42787" lon="6.61586">
        <ele>211.9</ele>
        <time>2014-10-05T09:57:28Z</time>
      </trkpt>
      <trkpt lat="43.42789" lon="6.61593">
        <ele>211</ele>
        <time>2014-10-05T09:57:29Z</time>
      </trkpt>
      <trkpt lat="43.4279" lon="6.616">
        <ele>210.4</ele>
        <time>2014-10-05T09:57:30Z</time>
      </trkpt>
      <trkpt lat="43.42789" lon="6.61606">
        <ele>210</ele>
        <time>2014-10-05T09:57:31Z</time>
      </trkpt>
      <trkpt lat="43.42787" lon="6.61613">
        <ele>209.8</ele>
        <time>2014-10-05T09:57:32Z</time>
      </trkpt>
      <trkpt lat="43.42787" lon="6.61619">
        <ele>209.2</ele>
        <time>2014-10-05T09:57:33Z</time>
      </trkpt>
      <trkpt lat="43.42788" lon="6.61624">
        <ele>208.7</ele>
        <time>2014-10-05T09:57:34Z</time>
      </trkpt>
      <trkpt lat="43.42788" lon="6.6163">
        <ele>207.5</ele>
        <time>2014-10-05T09:57:35Z</time>
      </trkpt>
      <trkpt lat="43.42789" lon="6.61636">
        <ele>205.9</ele>
        <time>2014-10-05T09:57:36Z</time>
      </trkpt>
      <trkpt lat="43.4279" lon="6.61643">
        <ele>204</ele>
        <time>2014-10-05T09:57:37Z</time>
      </trkpt>
      <trkpt lat="43.42793" lon="6.61651">
        <ele>201.4</ele>
        <time>2014-10-05T09:57:38Z</time>
      </trkpt>
      <trkpt lat="43.42799" lon="6.61657">
        <ele>198.3</ele>
        <time>2014-10-05T09:57:39Z</time>
      </trkpt>
      <trkpt lat="43.42805" lon="6.61662">
        <ele>195.6</ele>
        <time>2014-10-05T09:57:40Z</time>
      </trkpt>
      <trkpt lat="43.42811" lon="6.61667">
        <ele>193.1</ele>
        <time>2014-10-05T09:57:41Z</time>
      </trkpt>
      <trkpt lat="43.42818" lon="6.61673">
        <ele>190.5</ele>
        <time>2014-10-05T09:57:42Z</time>
      </trkpt>
      <trkpt lat="43.42824" lon="6.6168">
        <ele>187.9</ele>
        <time>2014-10-05T09:57:43Z</time>
      </trkpt>
      <trkpt lat="43.42833" lon="6.61688">
        <ele>184.9</ele>
        <time>2014-10-05T09:57:44Z</time>
      </trkpt>
      <trkpt lat="43.42846" lon="6.61695">
        <ele>181.6</ele>
        <time>2014-10-05T09:57:45Z</time>
      </trkpt>
      <trkpt lat="43.42854" lon="6.61698">
        <ele>179.8</ele>
        <time>2014-10-05T09:57:46Z</time>
      </trkpt>
      <trkpt lat="43.42863" lon="6.61703">
        <ele>178.1</ele>
        <time>2014-10-05T09:57:47Z</time>
      </trkpt>
      <trkpt lat="43.4287" lon="6.61708">
        <ele>176.7</ele>
        <time>2014-10-05T09:57:48Z</time>
      </trkpt>
      <trkpt lat="43.42878" lon="6.61714">
        <ele>175.1</ele>
        <time>2014-10-05T09:57:49Z</time>
      </trkpt>
      <trkpt lat="43.42883" lon="6.6172">
        <ele>173.9</ele>
        <time>2014-10-05T09:57:50Z</time>
      </trkpt>
      <trkpt lat="43.42891" lon="6.61725">
        <ele>172.9</ele>
        <time>2014-10-05T09:57:51Z</time>
      </trkpt>
      <trkpt lat="43.42895" lon="6.61731">
        <ele>172.2</ele>
        <time>2014-10-05T09:57:52Z</time>
      </trkpt>
      <trkpt lat="43.42899" lon="6.61735">
        <ele>171.8</ele>
        <time>2014-10-05T09:57:53Z</time>
      </trkpt>
      <trkpt lat="43.42903" lon="6.6174">
        <ele>171.5</ele>
        <time>2014-10-05T09:57:54Z</time>
      </trkpt>
      <trkpt lat="43.42908" lon="6.61744">
        <ele>171.3</ele>
        <time>2014-10-05T09:57:55Z</time>
      </trkpt>
      <trkpt lat="43.42911" lon="6.61748">
        <ele>171.2</ele>
        <time>2014-10-05T09:57:56Z</time>
      </trkpt>
      <trkpt lat="43.42914" lon="6.6175">
        <ele>171.2</ele>
        <time>2014-10-05T09:57:57Z</time>
      </trkpt>
      <trkpt lat="43.42917" lon="6.61756">
        <ele>171.3</ele>
        <time>2014-10-05T09:57:59Z</time>
      </trkpt>
      <trkpt lat="43.42919" lon="6.61761">
        <ele>171.4</ele>
        <time>2014-10-05T09:58:01Z</time>
      </trkpt>
      <trkpt lat="43.42922" lon="6.61766">
        <ele>171.6</ele>
        <time>2014-10-05T09:58:03Z</time>
      </trkpt>
      <trkpt lat="43.42925" lon="6.61772">
        <ele>172</ele>
        <time>2014-10-05T09:58:05Z</time>
      </trkpt>
      <trkpt lat="43.42927" lon="6.61776">
        <ele>172.3</ele>
        <time>2014-10-05T09:58:06Z</time>
      </trkpt>
      <trkpt lat="43.42929" lon="6.6178">
        <ele>172.6</ele>
        <time>2014-10-05T09:58:07Z</time>
      </trkpt>
      <trkpt lat="43.42931" lon="6.61785">
        <ele>173.1</ele>
        <time>2014-10-05T09:58:08Z</time>
      </trkpt>
      <trkpt lat="43.42934" lon="6.61792">
        <ele>173.7</ele>
        <time>2014-10-05T09:58:09Z</time>
      </trkpt>
      <trkpt lat="43.42939" lon="6.61799">
        <ele>173.7</ele>
        <time>2014-10-05T09:58:10Z</time>
      </trkpt>
      <trkpt lat="43.42945" lon="6.61804">
        <ele>174.2</ele>
        <time>2014-10-05T09:58:11Z</time>
      </trkpt>
      <trkpt lat="43.42951" lon="6.61802">
        <ele>175.1</ele>
        <time>2014-10-05T09:58:12Z</time>
      </trkpt>
      <trkpt lat="43.42956" lon="6.61799">
        <ele>176.1</ele>
        <time>2014-10-05T09:58:13Z</time>
      </trkpt>
      <trkpt lat="43.42963" lon="6.61795">
        <ele>176.1</ele>
        <time>2014-10-05T09:58:14Z</time>
      </trkpt>
      <trkpt lat="43.42969" lon="6.61793">
        <ele>175.5</ele>
        <time>2014-10-05T09:58:15Z</time>
      </trkpt>
      <trkpt lat="43.42976" lon="6.61792">
        <ele>174.7</ele>
        <time>2014-10-05T09:58:16Z</time>
      </trkpt>
      <trkpt lat="43.42982" lon="6.61792">
        <ele>173.8</ele>
        <time>2014-10-05T09:58:17Z</time>
      </trkpt>
      <trkpt lat="43.42989" lon="6.61792">
        <ele>173</ele>
        <time>2014-10-05T09:58:18Z</time>
      </trkpt>
      <trkpt lat="43.42996" lon="6.6179">
        <ele>171.8</ele>
        <time>2014-10-05T09:58:19Z</time>
      </trkpt>
      <trkpt lat="43.43003" lon="6.6179">
        <ele>170.8</ele>
        <time>2014-10-05T09:58:20Z</time>
      </trkpt>
      <trkpt lat="43.43009" lon="6.61787">
        <ele>169.5</ele>
        <time>2014-10-05T09:58:21Z</time>
      </trkpt>
      <trkpt lat="43.43014" lon="6.61784">
        <ele>168.2</ele>
        <time>2014-10-05T09:58:22Z</time>
      </trkpt>
      <trkpt lat="43.43017" lon="6.61782">
        <ele>167.3</ele>
        <time>2014-10-05T09:58:23Z</time>
      </trkpt>
      <trkpt lat="43.4302" lon="6.61781">
        <ele>166.8</ele>
        <time>2014-10-05T09:58:24Z</time>
      </trkpt>
      <trkpt lat="43.43023" lon="6.61781">
        <ele>166.3</ele>
        <time>2014-10-05T09:58:25Z</time>
      </trkpt>
      <trkpt lat="43.43026" lon="6.6178">
        <ele>165.6</ele>
        <time>2014-10-05T09:58:26Z</time>
      </trkpt>
      <trkpt lat="43.43029" lon="6.61777">
        <ele>164.6</ele>
        <time>2014-10-05T09:58:27Z</time>
      </trkpt>
      <trkpt lat="43.43032" lon="6.61774">
        <ele>163.4</ele>
        <time>2014-10-05T09:58:28Z</time>
      </trkpt>
      <trkpt lat="43.43036" lon="6.61773">
        <ele>162.5</ele>
        <time>2014-10-05T09:58:29Z</time>
      </trkpt>
      <trkpt lat="43.4304" lon="6.61773">
        <ele>162</ele>
        <time>2014-10-05T09:58:30Z</time>
      </trkpt>
      <trkpt lat="43.43044" lon="6.61774">
        <ele>161.5</ele>
        <time>2014-10-05T09:58:31Z</time>
      </trkpt>
      <trkpt lat="43.43048" lon="6.61775">
        <ele>160.7</ele>
        <time>2014-10-05T09:58:32Z</time>
      </trkpt>
      <trkpt lat="43.43052" lon="6.61774">
        <ele>159.6</ele>
        <time>2014-10-05T09:58:33Z</time>
      </trkpt>
      <trkpt lat="43.43055" lon="6.61771">
        <ele>158.1</ele>
        <time>2014-10-05T09:58:34Z</time>
      </trkpt>
      <trkpt lat="43.43057" lon="6.61766">
        <ele>156.6</ele>
        <time>2014-10-05T09:58:35Z</time>
      </trkpt>
      <trkpt lat="43.43058" lon="6.6176">
        <ele>155.2</ele>
        <time>2014-10-05T09:58:36Z</time>
      </trkpt>
      <trkpt lat="43.4306" lon="6.61756">
        <ele>153.9</ele>
        <time>2014-10-05T09:58:37Z</time>
      </trkpt>
      <trkpt lat="43.43062" lon="6.61754">
        <ele>153</ele>
        <time>2014-10-05T09:58:38Z</time>
      </trkpt>
      <trkpt lat="43.43065" lon="6.61757">
        <ele>152.9</ele>
        <time>2014-10-05T09:58:39Z</time>
      </trkpt>
      <trkpt lat="43.43067" lon="6.61761">
        <ele>153.2</ele>
        <time>2014-10-05T09:58:40Z</time>
      </trkpt>
      <trkpt lat="43.4307" lon="6.61764">
        <ele>153.4</ele>
        <time>2014-10-05T09:58:41Z</time>
      </trkpt>
      <trkpt lat="43.43073" lon="6.61768">
        <ele>153.4</ele>
        <time>2014-10-05T09:58:42Z</time>
      </trkpt>
      <trkpt lat="43.43076" lon="6.6177">
        <ele>153.1</ele>
        <time>2014-10-05T09:58:43Z</time>
      </trkpt>
      <trkpt lat="43.43079" lon="6.61772">
        <ele>152.8</ele>
        <time>2014-10-05T09:58:44Z</time>
      </trkpt>
      <trkpt lat="43.43083" lon="6.6177">
        <ele>151.6</ele>
        <time>2014-10-05T09:58:45Z</time>
      </trkpt>
      <trkpt lat="43.43086" lon="6.6177">
        <ele>150.7</ele>
        <time>2014-10-05T09:58:46Z</time>
      </trkpt>
      <trkpt lat="43.4309" lon="6.61769">
        <ele>149.8</ele>
        <time>2014-10-05T09:58:47Z</time>
      </trkpt>
      <trkpt lat="43.43093" lon="6.61771">
        <ele>149.5</ele>
        <time>2014-10-05T09:58:48Z</time>
      </trkpt>
      <trkpt lat="43.43095" lon="6.61775">
        <ele>149.5</ele>
        <time>2014-10-05T09:58:49Z</time>
      </trkpt>
      <trkpt lat="43.43097" lon="6.61779">
        <ele>149.7</ele>
        <time>2014-10-05T09:58:50Z</time>
      </trkpt>
      <trkpt lat="43.43102" lon="6.61776">
        <ele>148.1</ele>
        <time>2014-10-05T09:58:52Z</time>
      </trkpt>
      <trkpt lat="43.43105" lon="6.6177">
        <ele>146.4</ele>
        <time>2014-10-05T09:58:53Z</time>
      </trkpt>
      <trkpt lat="43.43108" lon="6.61764">
        <ele>144.8</ele>
        <time>2014-10-05T09:58:54Z</time>
      </trkpt>
      <trkpt lat="43.43111" lon="6.61757">
        <ele>143</ele>
        <time>2014-10-05T09:58:55Z</time>
      </trkpt>
      <trkpt lat="43.43115" lon="6.61751">
        <ele>141.4</ele>
        <time>2014-10-05T09:58:56Z</time>
      </trkpt>
      <trkpt lat="43.43118" lon="6.61746">
        <ele>139.8</ele>
        <time>2014-10-05T09:58:57Z</time>
      </trkpt>
      <trkpt lat="43.43121" lon="6.61742">
        <ele>138.7</ele>
        <time>2014-10-05T09:58:58Z</time>
      </trkpt>
      <trkpt lat="43.43123" lon="6.6174">
        <ele>137.9</ele>
        <time>2014-10-05T09:58:59Z</time>
      </trkpt>
      <trkpt lat="43.43127" lon="6.61745">
        <ele>137.7</ele>
        <time>2014-10-05T09:59:01Z</time>
      </trkpt>
      <trkpt lat="43.43129" lon="6.61749">
        <ele>137.8</ele>
        <time>2014-10-05T09:59:02Z</time>
      </trkpt>
      <trkpt lat="43.4313" lon="6.61754">
        <ele>138.1</ele>
        <time>2014-10-05T09:59:03Z</time>
      </trkpt>
      <trkpt lat="43.43131" lon="6.61761">
        <ele>138.7</ele>
        <time>2014-10-05T09:59:04Z</time>
      </trkpt>
      <trkpt lat="43.43131" lon="6.61767">
        <ele>139.4</ele>
        <time>2014-10-05T09:59:05Z</time>
      </trkpt>
      <trkpt lat="43.43131" lon="6.61774">
        <ele>140.4</ele>
        <time>2014-10-05T09:59:06Z</time>
      </trkpt>
      <trkpt lat="43.43131" lon="6.6178">
        <ele>141.1</ele>
        <time>2014-10-05T09:59:07Z</time>
      </trkpt>
      <trkpt lat="43.43132" lon="6.61786">
        <ele>141.5</ele>
        <time>2014-10-05T09:59:08Z</time>
      </trkpt>
      <trkpt lat="43.43135" lon="6.6179">
        <ele>141.1</ele>
        <time>2014-10-05T09:59:09Z</time>
      </trkpt>
      <trkpt lat="43.43139" lon="6.6179">
        <ele>139.6</ele>
        <time>2014-10-05T09:59:10Z</time>
      </trkpt>
      <trkpt lat="43.43143" lon="6.61788">
        <ele>138.1</ele>
        <time>2014-10-05T09:59:11Z</time>
      </trkpt>
      <trkpt lat="43.43146" lon="6.61786">
        <ele>136.7</ele>
        <time>2014-10-05T09:59:12Z</time>
      </trkpt>
      <trkpt lat="43.43149" lon="6.61785">
        <ele>135.6</ele>
        <time>2014-10-05T09:59:13Z</time>
      </trkpt>
      <trkpt lat="43.43151" lon="6.61788">
        <ele>134.9</ele>
        <time>2014-10-05T09:59:14Z</time>
      </trkpt>
      <trkpt lat="43.43152" lon="6.61792">
        <ele>134.8</ele>
        <time>2014-10-05T09:59:15Z</time>
      </trkpt>
      <trkpt lat="43.43152" lon="6.61797">
        <ele>135</ele>
        <time>2014-10-05T09:59:16Z</time>
      </trkpt>
      <trkpt lat="43.4315" lon="6.61802">
        <ele>135.5</ele>
        <time>2014-10-05T09:59:17Z</time>
      </trkpt>
      <trkpt lat="43.43149" lon="6.61806">
        <ele>135.9</ele>
        <time>2014-10-05T09:59:18Z</time>
      </trkpt>
      <trkpt lat="43.43149" lon="6.61811">
        <ele>135.7</ele>
        <time>2014-10-05T09:59:19Z</time>
      </trkpt>
      <trkpt lat="43.4315" lon="6.61815">
        <ele>135.3</ele>
        <time>2014-10-05T09:59:20Z</time>
      </trkpt>
      <trkpt lat="43.43151" lon="6.6182">
        <ele>134.7</ele>
        <time>2014-10-05T09:59:21Z</time>
      </trkpt>
      <trkpt lat="43.43152" lon="6.61823">
        <ele>134.1</ele>
        <time>2014-10-05T09:59:22Z</time>
      </trkpt>
      <trkpt lat="43.43154" lon="6.61826">
        <ele>133.2</ele>
        <time>2014-10-05T09:59:23Z</time>
      </trkpt>
      <trkpt lat="43.4316" lon="6.61824">
        <ele>131</ele>
        <time>2014-10-05T09:59:25Z</time>
      </trkpt>
      <trkpt lat="43.43162" lon="6.61822">
        <ele>130.1</ele>
        <time>2014-10-05T09:59:26Z</time>
      </trkpt>
      <trkpt lat="43.43165" lon="6.6182">
        <ele>129</ele>
        <time>2014-10-05T09:59:27Z</time>
      </trkpt>
      <trkpt lat="43.43168" lon="6.61819">
        <ele>127.7</ele>
        <time>2014-10-05T09:59:28Z</time>
      </trkpt>
      <trkpt lat="43.43172" lon="6.61818">
        <ele>126.3</ele>
        <time>2014-10-05T09:59:29Z</time>
      </trkpt>
      <trkpt lat="43.43175" lon="6.61819">
        <ele>125</ele>
        <time>2014-10-05T09:59:30Z</time>
      </trkpt>
      <trkpt lat="43.43178" lon="6.61822">
        <ele>123.7</ele>
        <time>2014-10-05T09:59:31Z</time>
      </trkpt>
      <trkpt lat="43.4318" lon="6.61826">
        <ele>122.5</ele>
        <time>2014-10-05T09:59:33Z</time>
      </trkpt>
      <trkpt lat="43.43183" lon="6.6183">
        <ele>120.8</ele>
        <time>2014-10-05T09:59:35Z</time>
      </trkpt>
      <trkpt lat="43.43188" lon="6.61832">
        <ele>118.7</ele>
        <time>2014-10-05T09:59:37Z</time>
      </trkpt>
      <trkpt lat="43.43193" lon="6.61836">
        <ele>116.3</ele>
        <time>2014-10-05T09:59:39Z</time>
      </trkpt>
      <trkpt lat="43.43195" lon="6.61839">
        <ele>115.1</ele>
        <time>2014-10-05T09:59:40Z</time>
      </trkpt>
      <trkpt lat="43.43198" lon="6.61843">
        <ele>113.6</ele>
        <time>2014-10-05T09:59:41Z</time>
      </trkpt>
      <trkpt lat="43.432" lon="6.61845">
        <ele>112.5</ele>
        <time>2014-10-05T09:59:42Z</time>
      </trkpt>
      <trkpt lat="43.43203" lon="6.61847">
        <ele>111.2</ele>
        <time>2014-10-05T09:59:43Z</time>
      </trkpt>
      <trkpt lat="43.43205" lon="6.6185">
        <ele>110</ele>
        <time>2014-10-05T09:59:44Z</time>
      </trkpt>
      <trkpt lat="43.43207" lon="6.61853">
        <ele>108.7</ele>
        <time>2014-10-05T09:59:45Z</time>
      </trkpt>
      <trkpt lat="43.4321" lon="6.61856">
        <ele>107.3</ele>
        <time>2014-10-05T09:59:46Z</time>
      </trkpt>
      <trkpt lat="43.43214" lon="6.61857">
        <ele>106.1</ele>
        <time>2014-10-05T09:59:47Z</time>
      </trkpt>
      <trkpt lat="43.43218" lon="6.61857">
        <ele>104.7</ele>
        <time>2014-10-05T09:59:48Z</time>
      </trkpt>
      <trkpt lat="43.43222" lon="6.61856">
        <ele>103.4</ele>
        <time>2014-10-05T09:59:49Z</time>
      </trkpt>
      <trkpt lat="43.43227" lon="6.61856">
        <ele>101.9</ele>
        <time>2014-10-05T09:59:50Z</time>
      </trkpt>
      <trkpt lat="43.43231" lon="6.61858">
        <ele>100.2</ele>
        <time>2014-10-05T09:59:51Z</time>
      </trkpt>
      <trkpt lat="43.43236" lon="6.61862">
        <ele>98.5</ele>
        <time>2014-10-05T09:59:52Z</time>
      </trkpt>
      <trkpt lat="43.4324" lon="6.61868">
        <ele>96.8</ele>
        <time>2014-10-05T09:59:53Z</time>
      </trkpt>
      <trkpt lat="43.43242" lon="6.61874">
        <ele>95.6</ele>
        <time>2014-10-05T09:59:54Z</time>
      </trkpt>
      <trkpt lat="43.43243" lon="6.6188">
        <ele>95.1</ele>
        <time>2014-10-05T09:59:55Z</time>
      </trkpt>
      <trkpt lat="43.43244" lon="6.61886">
        <ele>94.9</ele>
        <time>2014-10-05T09:59:56Z</time>
      </trkpt>
      <trkpt lat="43.43245" lon="6.61893">
        <ele>94.4</ele>
        <time>2014-10-05T09:59:57Z</time>
      </trkpt>
      <trkpt lat="43.43248" lon="6.61902">
        <ele>93.4</ele>
        <time>2014-10-05T09:59:58Z</time>
      </trkpt>
      <trkpt lat="43.43252" lon="6.61909">
        <ele>92.1</ele>
        <time>2014-10-05T09:59:59Z</time>
      </trkpt>
      <trkpt lat="43.43263" lon="6.61907">
        <ele>88.9</ele>
        <time>2014-10-05T10:00:00Z</time>
      </trkpt>
      <trkpt lat="43.43268" lon="6.61913">
        <ele>86.9</ele>
        <time>2014-10-05T10:00:01Z</time>
      </trkpt>
      <trkpt lat="43.43275" lon="6.6192">
        <ele>84.8</ele>
        <time>2014-10-05T10:00:02Z</time>
      </trkpt>
      <trkpt lat="43.43282" lon="6.61927">
        <ele>82.5</ele>
        <time>2014-10-05T10:00:03Z</time>
      </trkpt>
      <trkpt lat="43.43288" lon="6.61933">
        <ele>80.5</ele>
        <time>2014-10-05T10:00:04Z</time>
      </trkpt>
      <trkpt lat="43.43295" lon="6.61941">
        <ele>78.4</ele>
        <time>2014-10-05T10:00:05Z</time>
      </trkpt>
      <trkpt lat="43.43301" lon="6.61947">
        <ele>76.9</ele>
        <time>2014-10-05T10:00:06Z</time>
      </trkpt>
      <trkpt lat="43.43303" lon="6.6195">
        <ele>76.3</ele>
        <time>2014-10-05T10:00:08Z</time>
      </trkpt>
      <trkpt lat="43.43304" lon="6.61955">
        <ele>75.9</ele>
        <time>2014-10-05T10:00:09Z</time>
      </trkpt>
      <trkpt lat="43.43305" lon="6.61964">
        <ele>75.7</ele>
        <time>2014-10-05T10:00:10Z</time>
      </trkpt>
      <trkpt lat="43.4332" lon="6.61989">
        <ele>70.9</ele>
        <time>2014-10-05T10:00:13Z</time>
      </trkpt>
      <trkpt lat="43.43321" lon="6.61994">
        <ele>70.6</ele>
        <time>2014-10-05T10:00:14Z</time>
      </trkpt>
      <trkpt lat="43.43322" lon="6.61998">
        <ele>70.1</ele>
        <time>2014-10-05T10:00:15Z</time>
      </trkpt>
      <trkpt lat="43.43323" lon="6.62003">
        <ele>69.8</ele>
        <time>2014-10-05T10:00:16Z</time>
      </trkpt>
      <trkpt lat="43.43323" lon="6.62008">
        <ele>69.7</ele>
        <time>2014-10-05T10:00:17Z</time>
      </trkpt>
      <trkpt lat="43.43322" lon="6.62013">
        <ele>69.6</ele>
        <time>2014-10-05T10:00:18Z</time>
      </trkpt>
      <trkpt lat="43.43322" lon="6.62018">
        <ele>69.6</ele>
        <time>2014-10-05T10:00:19Z</time>
      </trkpt>
      <trkpt lat="43.43322" lon="6.62022">
        <ele>69.4</ele>
        <time>2014-10-05T10:00:20Z</time>
      </trkpt>
      <trkpt lat="43.43323" lon="6.62027">
        <ele>68.9</ele>
        <time>2014-10-05T10:00:21Z</time>
      </trkpt>
      <trkpt lat="43.43325" lon="6.6203">
        <ele>68.3</ele>
        <time>2014-10-05T10:00:22Z</time>
      </trkpt>
      <trkpt lat="43.43328" lon="6.62034">
        <ele>67.4</ele>
        <time>2014-10-05T10:00:23Z</time>
      </trkpt>
      <trkpt lat="43.4333" lon="6.62038">
        <ele>66.6</ele>
        <time>2014-10-05T10:00:24Z</time>
      </trkpt>
      <trkpt lat="43.43332" lon="6.62041">
        <ele>65.9</ele>
        <time>2014-10-05T10:00:25Z</time>
      </trkpt>
      <trkpt lat="43.43333" lon="6.62046">
        <ele>64.8</ele>
        <time>2014-10-05T10:00:26Z</time>
      </trkpt>
      <trkpt lat="43.43333" lon="6.6205">
        <ele>64.1</ele>
        <time>2014-10-05T10:00:27Z</time>
      </trkpt>
      <trkpt lat="43.43329" lon="6.62056">
        <ele>64.2</ele>
        <time>2014-10-05T10:00:29Z</time>
      </trkpt>
      <trkpt lat="43.43326" lon="6.62058">
        <ele>64.5</ele>
        <time>2014-10-05T10:00:30Z</time>
      </trkpt>
      <trkpt lat="43.43323" lon="6.62059">
        <ele>65.4</ele>
        <time>2014-10-05T10:00:32Z</time>
      </trkpt>
      <trkpt lat="43.4332" lon="6.6206">
        <ele>66</ele>
        <time>2014-10-05T10:00:34Z</time>
      </trkpt>
      <trkpt lat="43.43315" lon="6.62066">
        <ele>66.1</ele>
        <time>2014-10-05T10:01:13Z</time>
      </trkpt>
      <trkpt lat="43.43313" lon="6.62069">
        <ele>66.1</ele>
        <time>2014-10-05T10:01:15Z</time>
      </trkpt>
      <trkpt lat="43.43311" lon="6.62074">
        <ele>65.8</ele>
        <time>2014-10-05T10:01:17Z</time>
      </trkpt>
      <trkpt lat="43.43309" lon="6.62078">
        <ele>65.7</ele>
        <time>2014-10-05T10:01:18Z</time>
      </trkpt>
      <trkpt lat="43.43306" lon="6.62083">
        <ele>65.5</ele>
        <time>2014-10-05T10:01:19Z</time>
      </trkpt>
      <trkpt lat="43.43304" lon="6.62087">
        <ele>65.1</ele>
        <time>2014-10-05T10:01:20Z</time>
      </trkpt>
      <trkpt lat="43.43302" lon="6.62093">
        <ele>64.6</ele>
        <time>2014-10-05T10:01:21Z</time>
      </trkpt>
      <trkpt lat="43.43301" lon="6.62098">
        <ele>63.9</ele>
        <time>2014-10-05T10:01:22Z</time>
      </trkpt>
      <trkpt lat="43.433" lon="6.62103">
        <ele>63.3</ele>
        <time>2014-10-05T10:01:23Z</time>
      </trkpt>
      <trkpt lat="43.43298" lon="6.62108">
        <ele>62.7</ele>
        <time>2014-10-05T10:01:24Z</time>
      </trkpt>
      <trkpt lat="43.43296" lon="6.62113">
        <ele>62.4</ele>
        <time>2014-10-05T10:01:25Z</time>
      </trkpt>
      <trkpt lat="43.43294" lon="6.62116">
        <ele>62.2</ele>
        <time>2014-10-05T10:01:26Z</time>
      </trkpt>
      <trkpt lat="43.43292" lon="6.62121">
        <ele>61.8</ele>
        <time>2014-10-05T10:01:27Z</time>
      </trkpt>
      <trkpt lat="43.43291" lon="6.62126">
        <ele>61</ele>
        <time>2014-10-05T10:01:28Z</time>
      </trkpt>
      <trkpt lat="43.4329" lon="6.62131">
        <ele>60.3</ele>
        <time>2014-10-05T10:01:29Z</time>
      </trkpt>
      <trkpt lat="43.43289" lon="6.62138">
        <ele>59.4</ele>
        <time>2014-10-05T10:01:30Z</time>
      </trkpt>
      <trkpt lat="43.43288" lon="6.62144">
        <ele>58.5</ele>
        <time>2014-10-05T10:01:31Z</time>
      </trkpt>
      <trkpt lat="43.43287" lon="6.62152">
        <ele>57.3</ele>
        <time>2014-10-05T10:01:32Z</time>
      </trkpt>
      <trkpt lat="43.43287" lon="6.6216">
        <ele>55.9</ele>
        <time>2014-10-05T10:01:33Z</time>
      </trkpt>
      <trkpt lat="43.43285" lon="6.6217">
        <ele>54.4</ele>
        <time>2014-10-05T10:01:34Z</time>
      </trkpt>
      <trkpt lat="43.43283" lon="6.62178">
        <ele>53.2</ele>
        <time>2014-10-05T10:01:35Z</time>
      </trkpt>
      <trkpt lat="43.43279" lon="6.62186">
        <ele>52.5</ele>
        <time>2014-10-05T10:01:36Z</time>
      </trkpt>
      <trkpt lat="43.43275" lon="6.62193">
        <ele>51.8</ele>
        <time>2014-10-05T10:01:37Z</time>
      </trkpt>
      <trkpt lat="43.4327" lon="6.62199">
        <ele>51.1</ele>
        <time>2014-10-05T10:01:38Z</time>
      </trkpt>
      <trkpt lat="43.43267" lon="6.62205">
        <ele>50.3</ele>
        <time>2014-10-05T10:01:39Z</time>
      </trkpt>
      <trkpt lat="43.43264" lon="6.62209">
        <ele>49.9</ele>
        <time>2014-10-05T10:01:40Z</time>
      </trkpt>
      <trkpt lat="43.43263" lon="6.62213">
        <ele>49.8</ele>
        <time>2014-10-05T10:01:41Z</time>
      </trkpt>
      <trkpt lat="43.43261" lon="6.62217">
        <ele>49.6</ele>
        <time>2014-10-05T10:01:42Z</time>
      </trkpt>
      <trkpt lat="43.4326" lon="6.6222">
        <ele>49.5</ele>
        <time>2014-10-05T10:01:43Z</time>
      </trkpt>
      <trkpt lat="43.43258" lon="6.62226">
        <ele>49.3</ele>
        <time>2014-10-05T10:01:45Z</time>
      </trkpt>
      <trkpt lat="43.43258" lon="6.62232">
        <ele>48.7</ele>
        <time>2014-10-05T10:01:47Z</time>
      </trkpt>
      <trkpt lat="43.43262" lon="6.62238">
        <ele>47.7</ele>
        <time>2014-10-05T10:01:49Z</time>
      </trkpt>
      <trkpt lat="43.43265" lon="6.6224">
        <ele>47.1</ele>
        <time>2014-10-05T10:01:50Z</time>
      </trkpt>
      <trkpt lat="43.43268" lon="6.62242">
        <ele>46.5</ele>
        <time>2014-10-05T10:01:51Z</time>
      </trkpt>
      <trkpt lat="43.43271" lon="6.62244">
        <ele>45.9</ele>
        <time>2014-10-05T10:01:52Z</time>
      </trkpt>
      <trkpt lat="43.43274" lon="6.62246">
        <ele>45.4</ele>
        <time>2014-10-05T10:01:53Z</time>
      </trkpt>
      <trkpt lat="43.43276" lon="6.62248">
        <ele>44.9</ele>
        <time>2014-10-05T10:01:54Z</time>
      </trkpt>
      <trkpt lat="43.43278" lon="6.62253">
        <ele>44.1</ele>
        <time>2014-10-05T10:01:56Z</time>
      </trkpt>
      <trkpt lat="43.4328" lon="6.62256">
        <ele>43.6</ele>
        <time>2014-10-05T10:01:59Z</time>
      </trkpt>
      <trkpt lat="43.43283" lon="6.62256">
        <ele>43.2</ele>
        <time>2014-10-05T10:02:02Z</time>
      </trkpt>
      <trkpt lat="43.43284" lon="6.6226">
        <ele>42.8</ele>
        <time>2014-10-05T10:02:41Z</time>
      </trkpt>
      <trkpt lat="43.43287" lon="6.62261">
        <ele>42.1</ele>
        <time>2014-10-05T10:10:51Z</time>
      </trkpt>
      <trkpt lat="43.43291" lon="6.62262">
        <ele>41.6</ele>
        <time>2014-10-05T10:10:53Z</time>
      </trkpt>
      <trkpt lat="43.43294" lon="6.62264">
        <ele>41.1</ele>
        <time>2014-10-05T10:10:55Z</time>
      </trkpt>
      <trkpt lat="43.43297" lon="6.62268">
        <ele>40.5</ele>
        <time>2014-10-05T10:10:57Z</time>
      </trkpt>
      <trkpt lat="43.43299" lon="6.62275">
        <ele>39.9</ele>
        <time>2014-10-05T10:10:59Z</time>
      </trkpt>
      <trkpt lat="43.433" lon="6.62278">
        <ele>39.5</ele>
        <time>2014-10-05T10:11:00Z</time>
      </trkpt>
      <trkpt lat="43.43301" lon="6.62286">
        <ele>38.9</ele>
        <time>2014-10-05T10:11:02Z</time>
      </trkpt>
      <trkpt lat="43.43303" lon="6.62292">
        <ele>38.4</ele>
        <time>2014-10-05T10:11:04Z</time>
      </trkpt>
      <trkpt lat="43.43305" lon="6.62294">
        <ele>38.6</ele>
        <time>2014-10-05T10:11:05Z</time>
      </trkpt>
      <trkpt lat="43.43309" lon="6.62293">
        <ele>38.2</ele>
        <time>2014-10-05T10:11:06Z</time>
      </trkpt>
      <trkpt lat="43.43311" lon="6.6229">
        <ele>38</ele>
        <time>2014-10-05T10:11:07Z</time>
      </trkpt>
      <trkpt lat="43.43313" lon="6.62286">
        <ele>38.1</ele>
        <time>2014-10-05T10:11:09Z</time>
      </trkpt>
      <trkpt lat="43.43318" lon="6.62278">
        <ele>38.3</ele>
        <time>2014-10-05T10:11:10Z</time>
      </trkpt>
      <trkpt lat="43.43321" lon="6.62275">
        <ele>38.2</ele>
        <time>2014-10-05T10:11:11Z</time>
      </trkpt>
      <trkpt lat="43.43325" lon="6.62274">
        <ele>38</ele>
        <time>2014-10-05T10:11:12Z</time>
      </trkpt>
      <trkpt lat="43.43329" lon="6.62275">
        <ele>37.6</ele>
        <time>2014-10-05T10:11:13Z</time>
      </trkpt>
      <trkpt lat="43.43333" lon="6.62277">
        <ele>37.2</ele>
        <time>2014-10-05T10:11:14Z</time>
      </trkpt>
      <trkpt lat="43.43337" lon="6.62279">
        <ele>36.8</ele>
        <time>2014-10-05T10:11:15Z</time>
      </trkpt>
      <trkpt lat="43.43341" lon="6.62282">
        <ele>36.4</ele>
        <time>2014-10-05T10:11:16Z</time>
      </trkpt>
      <trkpt lat="43.43345" lon="6.62285">
        <ele>36.1</ele>
        <time>2014-10-05T10:11:17Z</time>
      </trkpt>
      <trkpt lat="43.43349" lon="6.62288">
        <ele>35.7</ele>
        <time>2014-10-05T10:11:18Z</time>
      </trkpt>
      <trkpt lat="43.43352" lon="6.62291">
        <ele>35.4</ele>
        <time>2014-10-05T10:11:19Z</time>
      </trkpt>
      <trkpt lat="43.43356" lon="6.62293">
        <ele>35.3</ele>
        <time>2014-10-05T10:11:20Z</time>
      </trkpt>
      <trkpt lat="43.43359" lon="6.62295">
        <ele>35.4</ele>
        <time>2014-10-05T10:11:21Z</time>
      </trkpt>
      <trkpt lat="43.43363" lon="6.62298">
        <ele>35.5</ele>
        <time>2014-10-05T10:11:22Z</time>
      </trkpt>
      <trkpt lat="43.43367" lon="6.623">
        <ele>35.5</ele>
        <time>2014-10-05T10:11:23Z</time>
      </trkpt>
      <trkpt lat="43.43372" lon="6.62302">
        <ele>35.5</ele>
        <time>2014-10-05T10:11:24Z</time>
      </trkpt>
      <trkpt lat="43.43375" lon="6.62304">
        <ele>35.5</ele>
        <time>2014-10-05T10:11:25Z</time>
      </trkpt>
      <trkpt lat="43.43379" lon="6.62306">
        <ele>35.5</ele>
        <time>2014-10-05T10:11:26Z</time>
      </trkpt>
      <trkpt lat="43.43383" lon="6.62307">
        <ele>35.6</ele>
        <time>2014-10-05T10:11:27Z</time>
      </trkpt>
      <trkpt lat="43.43387" lon="6.62309">
        <ele>35.6</ele>
        <time>2014-10-05T10:11:28Z</time>
      </trkpt>
      <trkpt lat="43.43391" lon="6.6231">
        <ele>35.6</ele>
        <time>2014-10-05T10:11:29Z</time>
      </trkpt>
      <trkpt lat="43.43395" lon="6.62311">
        <ele>35.6</ele>
        <time>2014-10-05T10:11:30Z</time>
      </trkpt>
      <trkpt lat="43.43398" lon="6.62313">
        <ele>35.6</ele>
        <time>2014-10-05T10:11:31Z</time>
      </trkpt>
      <trkpt lat="43.43402" lon="6.62315">
        <ele>35.7</ele>
        <time>2014-10-05T10:11:32Z</time>
      </trkpt>
      <trkpt lat="43.43404" lon="6.62318">
        <ele>35.9</ele>
        <time>2014-10-05T10:11:33Z</time>
      </trkpt>
      <trkpt lat="43.43406" lon="6.62322">
        <ele>36.2</ele>
        <time>2014-10-05T10:11:34Z</time>
      </trkpt>
      <trkpt lat="43.43407" lon="6.62326">
        <ele>36.6</ele>
        <time>2014-10-05T10:11:35Z</time>
      </trkpt>
      <trkpt lat="43.43408" lon="6.6233">
        <ele>36.9</ele>
        <time>2014-10-05T10:11:36Z</time>
      </trkpt>
      <trkpt lat="43.43409" lon="6.62334">
        <ele>37.3</ele>
        <time>2014-10-05T10:11:37Z</time>
      </trkpt>
      <trkpt lat="43.43409" lon="6.62339">
        <ele>37.7</ele>
        <time>2014-10-05T10:11:38Z</time>
      </trkpt>
      <trkpt lat="43.43409" lon="6.62344">
        <ele>38.2</ele>
        <time>2014-10-05T10:11:39Z</time>
      </trkpt>
      <trkpt lat="43.43409" lon="6.62349">
        <ele>38.7</ele>
        <time>2014-10-05T10:11:40Z</time>
      </trkpt>
      <trkpt lat="43.43408" lon="6.62354">
        <ele>39.2</ele>
        <time>2014-10-05T10:11:41Z</time>
      </trkpt>
      <trkpt lat="43.43408" lon="6.62359">
        <ele>39.6</ele>
        <time>2014-10-05T10:11:42Z</time>
      </trkpt>
      <trkpt lat="43.43407" lon="6.62363">
        <ele>40.1</ele>
        <time>2014-10-05T10:11:43Z</time>
      </trkpt>
      <trkpt lat="43.43409" lon="6.62368">
        <ele>40.5</ele>
        <time>2014-10-05T10:11:44Z</time>
      </trkpt>
      <trkpt lat="43.43411" lon="6.62372">
        <ele>40.7</ele>
        <time>2014-10-05T10:11:45Z</time>
      </trkpt>
      <trkpt lat="43.43415" lon="6.62373">
        <ele>40.5</ele>
        <time>2014-10-05T10:11:46Z</time>
      </trkpt>
      <trkpt lat="43.43418" lon="6.62369">
        <ele>39.9</ele>
        <time>2014-10-05T10:11:47Z</time>
      </trkpt>
      <trkpt lat="43.43419" lon="6.62363">
        <ele>39.2</ele>
        <time>2014-10-05T10:11:48Z</time>
      </trkpt>
      <trkpt lat="43.43421" lon="6.62358">
        <ele>38.6</ele>
        <time>2014-10-05T10:11:49Z</time>
      </trkpt>
      <trkpt lat="43.43422" lon="6.62353">
        <ele>38.1</ele>
        <time>2014-10-05T10:11:50Z</time>
      </trkpt>
      <trkpt lat="43.43424" lon="6.62348">
        <ele>37.6</ele>
        <time>2014-10-05T10:11:51Z</time>
      </trkpt>
      <trkpt lat="43.43427" lon="6.62344">
        <ele>37.1</ele>
        <time>2014-10-05T10:11:52Z</time>
      </trkpt>
      <trkpt lat="43.43429" lon="6.6234">
        <ele>36.7</ele>
        <time>2014-10-05T10:11:53Z</time>
      </trkpt>
      <trkpt lat="43.43431" lon="6.62337">
        <ele>36.2</ele>
        <time>2014-10-05T10:11:54Z</time>
      </trkpt>
      <trkpt lat="43.43434" lon="6.62333">
        <ele>35.8</ele>
        <time>2014-10-05T10:11:55Z</time>
      </trkpt>
      <trkpt lat="43.43437" lon="6.6233">
        <ele>35.4</ele>
        <time>2014-10-05T10:11:56Z</time>
      </trkpt>
      <trkpt lat="43.4344" lon="6.62327">
        <ele>35</ele>
        <time>2014-10-05T10:11:57Z</time>
      </trkpt>
      <trkpt lat="43.43443" lon="6.62325">
        <ele>34.7</ele>
        <time>2014-10-05T10:11:58Z</time>
      </trkpt>
      <trkpt lat="43.43447" lon="6.62323">
        <ele>34.4</ele>
        <time>2014-10-05T10:11:59Z</time>
      </trkpt>
      <trkpt lat="43.4345" lon="6.62322">
        <ele>34.2</ele>
        <time>2014-10-05T10:12:00Z</time>
      </trkpt>
      <trkpt lat="43.43453" lon="6.6232">
        <ele>33.9</ele>
        <time>2014-10-05T10:12:01Z</time>
      </trkpt>
      <trkpt lat="43.43456" lon="6.62318">
        <ele>33.7</ele>
        <time>2014-10-05T10:12:02Z</time>
      </trkpt>
      <trkpt lat="43.4346" lon="6.62317">
        <ele>33.5</ele>
        <time>2014-10-05T10:12:03Z</time>
      </trkpt>
      <trkpt lat="43.43463" lon="6.62315">
        <ele>33.5</ele>
        <time>2014-10-05T10:12:04Z</time>
      </trkpt>
      <trkpt lat="43.43466" lon="6.62313">
        <ele>33.5</ele>
        <time>2014-10-05T10:12:05Z</time>
      </trkpt>
      <trkpt lat="43.43469" lon="6.62311">
        <ele>33.4</ele>
        <time>2014-10-05T10:12:06Z</time>
      </trkpt>
      <trkpt lat="43.43473" lon="6.62309">
        <ele>33.4</ele>
        <time>2014-10-05T10:12:07Z</time>
      </trkpt>
      <trkpt lat="43.43476" lon="6.62308">
        <ele>33.4</ele>
        <time>2014-10-05T10:12:08Z</time>
      </trkpt>
      <trkpt lat="43.4348" lon="6.62307">
        <ele>33.4</ele>
        <time>2014-10-05T10:12:09Z</time>
      </trkpt>
      <trkpt lat="43.43483" lon="6.62305">
        <ele>33.4</ele>
        <time>2014-10-05T10:12:10Z</time>
      </trkpt>
      <trkpt lat="43.43487" lon="6.62304">
        <ele>33.3</ele>
        <time>2014-10-05T10:12:11Z</time>
      </trkpt>
      <trkpt lat="43.43491" lon="6.62302">
        <ele>33.3</ele>
        <time>2014-10-05T10:12:12Z</time>
      </trkpt>
      <trkpt lat="43.43496" lon="6.623">
        <ele>33.2</ele>
        <time>2014-10-05T10:12:13Z</time>
      </trkpt>
      <trkpt lat="43.43503" lon="6.62297">
        <ele>33.1</ele>
        <time>2014-10-05T10:12:14Z</time>
      </trkpt>
      <trkpt lat="43.43509" lon="6.62294">
        <ele>32.9</ele>
        <time>2014-10-05T10:12:15Z</time>
      </trkpt>
      <trkpt lat="43.43518" lon="6.62299">
        <ele>33.5</ele>
        <time>2014-10-05T10:12:16Z</time>
      </trkpt>
      <trkpt lat="43.43525" lon="6.62295">
        <ele>33.2</ele>
        <time>2014-10-05T10:12:17Z</time>
      </trkpt>
      <trkpt lat="43.4353" lon="6.62291">
        <ele>33</ele>
        <time>2014-10-05T10:12:18Z</time>
      </trkpt>
      <trkpt lat="43.43534" lon="6.62287">
        <ele>33.7</ele>
        <time>2014-10-05T10:12:19Z</time>
      </trkpt>
      <trkpt lat="43.43538" lon="6.62285">
        <ele>34.3</ele>
        <time>2014-10-05T10:12:20Z</time>
      </trkpt>
      <trkpt lat="43.43541" lon="6.62282">
        <ele>34.8</ele>
        <time>2014-10-05T10:12:21Z</time>
      </trkpt>
      <trkpt lat="43.43546" lon="6.62278">
        <ele>35.4</ele>
        <time>2014-10-05T10:12:22Z</time>
      </trkpt>
      <trkpt lat="43.43549" lon="6.62277">
        <ele>35.6</ele>
        <time>2014-10-05T10:12:23Z</time>
      </trkpt>
      <trkpt lat="43.43553" lon="6.62274">
        <ele>35.9</ele>
        <time>2014-10-05T10:12:24Z</time>
      </trkpt>
      <trkpt lat="43.43555" lon="6.62272">
        <ele>36.1</ele>
        <time>2014-10-05T10:12:25Z</time>
      </trkpt>
      <trkpt lat="43.4356" lon="6.62269">
        <ele>36.3</ele>
        <time>2014-10-05T10:12:26Z</time>
      </trkpt>
      <trkpt lat="43.43563" lon="6.62267">
        <ele>36.4</ele>
        <time>2014-10-05T10:12:27Z</time>
      </trkpt>
      <trkpt lat="43.43567" lon="6.62265">
        <ele>36.5</ele>
        <time>2014-10-05T10:12:28Z</time>
      </trkpt>
      <trkpt lat="43.43572" lon="6.62262">
        <ele>36.6</ele>
        <time>2014-10-05T10:12:29Z</time>
      </trkpt>
      <trkpt lat="43.43576" lon="6.6226">
        <ele>36.6</ele>
        <time>2014-10-05T10:12:30Z</time>
      </trkpt>
      <trkpt lat="43.4358" lon="6.62257">
        <ele>36.5</ele>
        <time>2014-10-05T10:12:31Z</time>
      </trkpt>
      <trkpt lat="43.43587" lon="6.62253">
        <ele>36.3</ele>
        <time>2014-10-05T10:12:32Z</time>
      </trkpt>
      <trkpt lat="43.43593" lon="6.6225">
        <ele>36.1</ele>
        <time>2014-10-05T10:12:33Z</time>
      </trkpt>
      <trkpt lat="43.43599" lon="6.62247">
        <ele>35.7</ele>
        <time>2014-10-05T10:12:34Z</time>
      </trkpt>
      <trkpt lat="43.43604" lon="6.62245">
        <ele>35.4</ele>
        <time>2014-10-05T10:12:35Z</time>
      </trkpt>
      <trkpt lat="43.43609" lon="6.62243">
        <ele>35</ele>
        <time>2014-10-05T10:12:36Z</time>
      </trkpt>
      <trkpt lat="43.43614" lon="6.62241">
        <ele>34.5</ele>
        <time>2014-10-05T10:12:37Z</time>
      </trkpt>
      <trkpt lat="43.43621" lon="6.62238">
        <ele>33.8</ele>
        <time>2014-10-05T10:12:38Z</time>
      </trkpt>
      <trkpt lat="43.43625" lon="6.62237">
        <ele>33.3</ele>
        <time>2014-10-05T10:12:39Z</time>
      </trkpt>
      <trkpt lat="43.43632" lon="6.62226">
        <ele>33.5</ele>
        <time>2014-10-05T10:12:40Z</time>
      </trkpt>
      <trkpt lat="43.4364" lon="6.62226">
        <ele>33.5</ele>
        <time>2014-10-05T10:12:41Z</time>
      </trkpt>
      <trkpt lat="43.43645" lon="6.62224">
        <ele>33.5</ele>
        <time>2014-10-05T10:12:42Z</time>
      </trkpt>
      <trkpt lat="43.4365" lon="6.62226">
        <ele>33.4</ele>
        <time>2014-10-05T10:12:43Z</time>
      </trkpt>
      <trkpt lat="43.43655" lon="6.62227">
        <ele>33.3</ele>
        <time>2014-10-05T10:12:44Z</time>
      </trkpt>
      <trkpt lat="43.43662" lon="6.62228">
        <ele>33.2</ele>
        <time>2014-10-05T10:12:45Z</time>
      </trkpt>
      <trkpt lat="43.43667" lon="6.62231">
        <ele>33.1</ele>
        <time>2014-10-05T10:12:46Z</time>
      </trkpt>
      <trkpt lat="43.43672" lon="6.62234">
        <ele>32.9</ele>
        <time>2014-10-05T10:12:47Z</time>
      </trkpt>
      <trkpt lat="43.43678" lon="6.62239">
        <ele>32.6</ele>
        <time>2014-10-05T10:12:48Z</time>
      </trkpt>
      <trkpt lat="43.43685" lon="6.62244">
        <ele>32.2</ele>
        <time>2014-10-05T10:12:49Z</time>
      </trkpt>
      <trkpt lat="43.43692" lon="6.62248">
        <ele>31.9</ele>
        <time>2014-10-05T10:12:50Z</time>
      </trkpt>
      <trkpt lat="43.43697" lon="6.62255">
        <ele>31.5</ele>
        <time>2014-10-05T10:12:51Z</time>
      </trkpt>
      <trkpt lat="43.43702" lon="6.62257">
        <ele>31.2</ele>
        <time>2014-10-05T10:12:52Z</time>
      </trkpt>
      <trkpt lat="43.43709" lon="6.6226">
        <ele>30.9</ele>
        <time>2014-10-05T10:12:53Z</time>
      </trkpt>
      <trkpt lat="43.43715" lon="6.62262">
        <ele>30.8</ele>
        <time>2014-10-05T10:12:54Z</time>
      </trkpt>
      <trkpt lat="43.43721" lon="6.62266">
        <ele>30.4</ele>
        <time>2014-10-05T10:12:55Z</time>
      </trkpt>
      <trkpt lat="43.43727" lon="6.62265">
        <ele>30.5</ele>
        <time>2014-10-05T10:12:56Z</time>
      </trkpt>
      <trkpt lat="43.43731" lon="6.62266">
        <ele>30.4</ele>
        <time>2014-10-05T10:12:57Z</time>
      </trkpt>
      <trkpt lat="43.43737" lon="6.62268">
        <ele>30.1</ele>
        <time>2014-10-05T10:12:58Z</time>
      </trkpt>
      <trkpt lat="43.43745" lon="6.6227">
        <ele>29.8</ele>
        <time>2014-10-05T10:12:59Z</time>
      </trkpt>
      <trkpt lat="43.43751" lon="6.62274">
        <ele>29.3</ele>
        <time>2014-10-05T10:13:00Z</time>
      </trkpt>
      <trkpt lat="43.43757" lon="6.62276">
        <ele>28.8</ele>
        <time>2014-10-05T10:13:01Z</time>
      </trkpt>
      <trkpt lat="43.43763" lon="6.62277">
        <ele>28.5</ele>
        <time>2014-10-05T10:13:02Z</time>
      </trkpt>
      <trkpt lat="43.4377" lon="6.62281">
        <ele>27.7</ele>
        <time>2014-10-05T10:13:03Z</time>
      </trkpt>
      <trkpt lat="43.43777" lon="6.62282">
        <ele>27.3</ele>
        <time>2014-10-05T10:13:04Z</time>
      </trkpt>
      <trkpt lat="43.43782" lon="6.62283">
        <ele>27</ele>
        <time>2014-10-05T10:13:05Z</time>
      </trkpt>
      <trkpt lat="43.43787" lon="6.62283">
        <ele>26.8</ele>
        <time>2014-10-05T10:13:06Z</time>
      </trkpt>
      <trkpt lat="43.43792" lon="6.62283">
        <ele>26.7</ele>
        <time>2014-10-05T10:13:07Z</time>
      </trkpt>
      <trkpt lat="43.43798" lon="6.62281">
        <ele>27.2</ele>
        <time>2014-10-05T10:13:08Z</time>
      </trkpt>
      <trkpt lat="43.43803" lon="6.62281">
        <ele>27.3</ele>
        <time>2014-10-05T10:13:09Z</time>
      </trkpt>
      <trkpt lat="43.4381" lon="6.62281">
        <ele>27.4</ele>
        <time>2014-10-05T10:13:10Z</time>
      </trkpt>
      <trkpt lat="43.43816" lon="6.62285">
        <ele>26.7</ele>
        <time>2014-10-05T10:13:11Z</time>
      </trkpt>
      <trkpt lat="43.43821" lon="6.62285">
        <ele>26.8</ele>
        <time>2014-10-05T10:13:12Z</time>
      </trkpt>
      <trkpt lat="43.43825" lon="6.62286">
        <ele>26.5</ele>
        <time>2014-10-05T10:13:13Z</time>
      </trkpt>
      <trkpt lat="43.43829" lon="6.62287">
        <ele>26.5</ele>
        <time>2014-10-05T10:13:14Z</time>
      </trkpt>
      <trkpt lat="43.43836" lon="6.62291">
        <ele>25.6</ele>
        <time>2014-10-05T10:13:16Z</time>
      </trkpt>
      <trkpt lat="43.43839" lon="6.62295">
        <ele>25.7</ele>
        <time>2014-10-05T10:13:17Z</time>
      </trkpt>
      <trkpt lat="43.43845" lon="6.62292">
        <ele>25.7</ele>
        <time>2014-10-05T10:13:18Z</time>
      </trkpt>
      <trkpt lat="43.43847" lon="6.62297">
        <ele>26</ele>
        <time>2014-10-05T10:13:20Z</time>
      </trkpt>
      <trkpt lat="43.43849" lon="6.623">
        <ele>26.2</ele>
        <time>2014-10-05T10:13:21Z</time>
      </trkpt>
      <trkpt lat="43.43851" lon="6.62296">
        <ele>26</ele>
        <time>2014-10-05T10:13:24Z</time>
      </trkpt>
      <trkpt lat="43.43855" lon="6.62297">
        <ele>26.1</ele>
        <time>2014-10-05T10:13:27Z</time>
      </trkpt>
      <trkpt lat="43.43857" lon="6.62299">
        <ele>26.3</ele>
        <time>2014-10-05T10:13:29Z</time>
      </trkpt>
      <trkpt lat="43.4386" lon="6.623">
        <ele>26.4</ele>
        <time>2014-10-05T10:13:31Z</time>
      </trkpt>
      <trkpt lat="43.43864" lon="6.62302">
        <ele>26.6</ele>
        <time>2014-10-05T10:13:33Z</time>
      </trkpt>
      <trkpt lat="43.43867" lon="6.62304">
        <ele>26.9</ele>
        <time>2014-10-05T10:13:35Z</time>
      </trkpt>
      <trkpt lat="43.43871" lon="6.62306">
        <ele>27.1</ele>
        <time>2014-10-05T10:13:37Z</time>
      </trkpt>
      <trkpt lat="43.43874" lon="6.62306">
        <ele>27.2</ele>
        <time>2014-10-05T10:13:39Z</time>
      </trkpt>
      <trkpt lat="43.43878" lon="6.62307">
        <ele>27.2</ele>
        <time>2014-10-05T10:13:41Z</time>
      </trkpt>
      <trkpt lat="43.43882" lon="6.62307">
        <ele>27.1</ele>
        <time>2014-10-05T10:13:43Z</time>
      </trkpt>
      <trkpt lat="43.43885" lon="6.62307">
        <ele>27.1</ele>
        <time>2014-10-05T10:13:45Z</time>
      </trkpt>
      <trkpt lat="43.43889" lon="6.62308">
        <ele>27.1</ele>
        <time>2014-10-05T10:13:47Z</time>
      </trkpt>
      <trkpt lat="43.43892" lon="6.62309">
        <ele>27.1</ele>
        <time>2014-10-05T10:13:49Z</time>
      </trkpt>
      <trkpt lat="43.43896" lon="6.6231">
        <ele>27.2</ele>
        <time>2014-10-05T10:13:51Z</time>
      </trkpt>
      <trkpt lat="43.43899" lon="6.62312">
        <ele>27.4</ele>
        <time>2014-10-05T10:13:53Z</time>
      </trkpt>
      <trkpt lat="43.43902" lon="6.62314">
        <ele>27.6</ele>
        <time>2014-10-05T10:13:55Z</time>
      </trkpt>
      <trkpt lat="43.43906" lon="6.62316">
        <ele>27.6</ele>
        <time>2014-10-05T10:13:57Z</time>
      </trkpt>
      <trkpt lat="43.4391" lon="6.62315">
        <ele>27.6</ele>
        <time>2014-10-05T10:13:59Z</time>
      </trkpt>
      <trkpt lat="43.43913" lon="6.62313">
        <ele>27.3</ele>
        <time>2014-10-05T10:14:01Z</time>
      </trkpt>
      <trkpt lat="43.43916" lon="6.62311">
        <ele>26.9</ele>
        <time>2014-10-05T10:14:03Z</time>
      </trkpt>
      <trkpt lat="43.4392" lon="6.6231">
        <ele>26.7</ele>
        <time>2014-10-05T10:14:05Z</time>
      </trkpt>
      <trkpt lat="43.43923" lon="6.6231">
        <ele>26.7</ele>
        <time>2014-10-05T10:14:07Z</time>
      </trkpt>
      <trkpt lat="43.43927" lon="6.6231">
        <ele>26.7</ele>
        <time>2014-10-05T10:14:09Z</time>
      </trkpt>
      <trkpt lat="43.4393" lon="6.62311">
        <ele>26.7</ele>
        <time>2014-10-05T10:14:11Z</time>
      </trkpt>
      <trkpt lat="43.43933" lon="6.62312">
        <ele>26.8</ele>
        <time>2014-10-05T10:14:13Z</time>
      </trkpt>
      <trkpt lat="43.43937" lon="6.62313">
        <ele>26.9</ele>
        <time>2014-10-05T10:14:15Z</time>
      </trkpt>
      <trkpt lat="43.4394" lon="6.62315">
        <ele>27.2</ele>
        <time>2014-10-05T10:14:17Z</time>
      </trkpt>
      <trkpt lat="43.43943" lon="6.62319">
        <ele>27.7</ele>
        <time>2014-10-05T10:14:19Z</time>
      </trkpt>
      <trkpt lat="43.43946" lon="6.62322">
        <ele>28.1</ele>
        <time>2014-10-05T10:14:21Z</time>
      </trkpt>
      <trkpt lat="43.43949" lon="6.62324">
        <ele>28.5</ele>
        <time>2014-10-05T10:14:23Z</time>
      </trkpt>
      <trkpt lat="43.43951" lon="6.62326">
        <ele>28.7</ele>
        <time>2014-10-05T10:14:25Z</time>
      </trkpt>
      <trkpt lat="43.43954" lon="6.62327">
        <ele>28.9</ele>
        <time>2014-10-05T10:14:27Z</time>
      </trkpt>
      <trkpt lat="43.43958" lon="6.62327">
        <ele>29</ele>
        <time>2014-10-05T10:14:29Z</time>
      </trkpt>
      <trkpt lat="43.43961" lon="6.62326">
        <ele>28.6</ele>
        <time>2014-10-05T10:14:31Z</time>
      </trkpt>
      <trkpt lat="43.43965" lon="6.62323">
        <ele>28.1</ele>
        <time>2014-10-05T10:14:33Z</time>
      </trkpt>
      <trkpt lat="43.43968" lon="6.62321">
        <ele>27.7</ele>
        <time>2014-10-05T10:14:35Z</time>
      </trkpt>
      <trkpt lat="43.43972" lon="6.62319">
        <ele>27.1</ele>
        <time>2014-10-05T10:14:37Z</time>
      </trkpt>
      <trkpt lat="43.43975" lon="6.62317">
        <ele>26.7</ele>
        <time>2014-10-05T10:14:39Z</time>
      </trkpt>
      <trkpt lat="43.43978" lon="6.62315">
        <ele>26.3</ele>
        <time>2014-10-05T10:14:41Z</time>
      </trkpt>
      <trkpt lat="43.43983" lon="6.62315">
        <ele>26.1</ele>
        <time>2014-10-05T10:14:43Z</time>
      </trkpt>
      <trkpt lat="43.43988" lon="6.62315">
        <ele>26</ele>
        <time>2014-10-05T10:14:45Z</time>
      </trkpt>
      <trkpt lat="43.43992" lon="6.62317">
        <ele>26.2</ele>
        <time>2014-10-05T10:14:47Z</time>
      </trkpt>
      <trkpt lat="43.43996" lon="6.6232">
        <ele>26.6</ele>
        <time>2014-10-05T10:14:49Z</time>
      </trkpt>
      <trkpt lat="43.44" lon="6.62322">
        <ele>26.8</ele>
        <time>2014-10-05T10:14:51Z</time>
      </trkpt>
      <trkpt lat="43.44004" lon="6.62324">
        <ele>27</ele>
        <time>2014-10-05T10:14:53Z</time>
      </trkpt>
      <trkpt lat="43.44008" lon="6.62326">
        <ele>27.2</ele>
        <time>2014-10-05T10:14:55Z</time>
      </trkpt>
      <trkpt lat="43.44012" lon="6.62328">
        <ele>27.4</ele>
        <time>2014-10-05T10:14:57Z</time>
      </trkpt>
      <trkpt lat="43.44016" lon="6.6233">
        <ele>27.7</ele>
        <time>2014-10-05T10:14:59Z</time>
      </trkpt>
      <trkpt lat="43.4402" lon="6.62332">
        <ele>28</ele>
        <time>2014-10-05T10:15:01Z</time>
      </trkpt>
      <trkpt lat="43.44024" lon="6.62334">
        <ele>28.2</ele>
        <time>2014-10-05T10:15:03Z</time>
      </trkpt>
      <trkpt lat="43.44028" lon="6.62336">
        <ele>28.3</ele>
        <time>2014-10-05T10:15:05Z</time>
      </trkpt>
      <trkpt lat="43.44033" lon="6.62337">
        <ele>28.4</ele>
        <time>2014-10-05T10:15:07Z</time>
      </trkpt>
      <trkpt lat="43.44037" lon="6.62339">
        <ele>28.7</ele>
        <time>2014-10-05T10:15:09Z</time>
      </trkpt>
      <trkpt lat="43.44041" lon="6.62341">
        <ele>28.9</ele>
        <time>2014-10-05T10:15:11Z</time>
      </trkpt>
      <trkpt lat="43.44045" lon="6.62344">
        <ele>29.1</ele>
        <time>2014-10-05T10:15:13Z</time>
      </trkpt>
      <trkpt lat="43.44049" lon="6.62347">
        <ele>29.4</ele>
        <time>2014-10-05T10:15:15Z</time>
      </trkpt>
      <trkpt lat="43.44053" lon="6.62349">
        <ele>29.5</ele>
        <time>2014-10-05T10:15:17Z</time>
      </trkpt>
      <trkpt lat="43.44057" lon="6.62352">
        <ele>29.7</ele>
        <time>2014-10-05T10:15:19Z</time>
      </trkpt>
      <trkpt lat="43.44061" lon="6.62354">
        <ele>29.7</ele>
        <time>2014-10-05T10:15:21Z</time>
      </trkpt>
      <trkpt lat="43.44066" lon="6.62356">
        <ele>29.8</ele>
        <time>2014-10-05T10:15:23Z</time>
      </trkpt>
      <trkpt lat="43.4407" lon="6.62359">
        <ele>29.9</ele>
        <time>2014-10-05T10:15:25Z</time>
      </trkpt>
      <trkpt lat="43.44073" lon="6.62363">
        <ele>30.1</ele>
        <time>2014-10-05T10:15:27Z</time>
      </trkpt>
      <trkpt lat="43.44076" lon="6.62367">
        <ele>30.5</ele>
        <time>2014-10-05T10:15:29Z</time>
      </trkpt>
      <trkpt lat="43.44079" lon="6.62371">
        <ele>30.9</ele>
        <time>2014-10-05T10:15:31Z</time>
      </trkpt>
      <trkpt lat="43.4408" lon="6.62377">
        <ele>31.7</ele>
        <time>2014-10-05T10:15:33Z</time>
      </trkpt>
      <trkpt lat="43.4408" lon="6.62383">
        <ele>33.2</ele>
        <time>2014-10-05T10:15:35Z</time>
      </trkpt>
      <trkpt lat="43.4408" lon="6.62389">
        <ele>34.8</ele>
        <time>2014-10-05T10:15:37Z</time>
      </trkpt>
      <trkpt lat="43.44079" lon="6.62395">
        <ele>36.4</ele>
        <time>2014-10-05T10:15:39Z</time>
      </trkpt>
      <trkpt lat="43.44077" lon="6.62401">
        <ele>38.1</ele>
        <time>2014-10-05T10:15:41Z</time>
      </trkpt>
      <trkpt lat="43.44076" lon="6.62405">
        <ele>39.3</ele>
        <time>2014-10-05T10:15:43Z</time>
      </trkpt>
      <trkpt lat="43.44076" lon="6.6241">
        <ele>40.6</ele>
        <time>2014-10-05T10:15:45Z</time>
      </trkpt>
      <trkpt lat="43.44075" lon="6.62415">
        <ele>42</ele>
        <time>2014-10-05T10:15:47Z</time>
      </trkpt>
      <trkpt lat="43.44075" lon="6.6242">
        <ele>43.2</ele>
        <time>2014-10-05T10:15:49Z</time>
      </trkpt>
      <trkpt lat="43.44074" lon="6.62423">
        <ele>44.4</ele>
        <time>2014-10-05T10:15:51Z</time>
      </trkpt>
      <trkpt lat="43.44072" lon="6.62427">
        <ele>45.5</ele>
        <time>2014-10-05T10:15:53Z</time>
      </trkpt>
      <trkpt lat="43.44072" lon="6.62433">
        <ele>47.1</ele>
        <time>2014-10-05T10:15:56Z</time>
      </trkpt>
      <trkpt lat="43.44071" lon="6.62436">
        <ele>48.2</ele>
        <time>2014-10-05T10:15:58Z</time>
      </trkpt>
      <trkpt lat="43.44068" lon="6.6244">
        <ele>49.5</ele>
        <time>2014-10-05T10:16:00Z</time>
      </trkpt>
      <trkpt lat="43.44067" lon="6.62445">
        <ele>51.2</ele>
        <time>2014-10-05T10:16:02Z</time>
      </trkpt>
      <trkpt lat="43.44064" lon="6.62449">
        <ele>53.1</ele>
        <time>2014-10-05T10:16:04Z</time>
      </trkpt>
      <trkpt lat="43.4406" lon="6.62453">
        <ele>54.9</ele>
        <time>2014-10-05T10:16:06Z</time>
      </trkpt>
      <trkpt lat="43.44058" lon="6.62457">
        <ele>56.3</ele>
        <time>2014-10-05T10:16:08Z</time>
      </trkpt>
      <trkpt lat="43.44058" lon="6.62461">
        <ele>57.1</ele>
        <time>2014-10-05T10:16:10Z</time>
      </trkpt>
      <trkpt lat="43.44057" lon="6.62465">
        <ele>57.9</ele>
        <time>2014-10-05T10:16:12Z</time>
      </trkpt>
      <trkpt lat="43.44055" lon="6.6247">
        <ele>59.1</ele>
        <time>2014-10-05T10:16:14Z</time>
      </trkpt>
      <trkpt lat="43.44055" lon="6.62475">
        <ele>60</ele>
        <time>2014-10-05T10:16:16Z</time>
      </trkpt>
      <trkpt lat="43.44055" lon="6.62481">
        <ele>60.8</ele>
        <time>2014-10-05T10:16:18Z</time>
      </trkpt>
      <trkpt lat="43.44056" lon="6.62486">
        <ele>61.4</ele>
        <time>2014-10-05T10:16:20Z</time>
      </trkpt>
      <trkpt lat="43.44056" lon="6.6249">
        <ele>62.1</ele>
        <time>2014-10-05T10:16:22Z</time>
      </trkpt>
      <trkpt lat="43.44056" lon="6.62494">
        <ele>62.7</ele>
        <time>2014-10-05T10:16:24Z</time>
      </trkpt>
      <trkpt lat="43.44056" lon="6.62498">
        <ele>63.4</ele>
        <time>2014-10-05T10:16:26Z</time>
      </trkpt>
      <trkpt lat="43.44055" lon="6.62503">
        <ele>64.5</ele>
        <time>2014-10-05T10:16:29Z</time>
      </trkpt>
      <trkpt lat="43.44055" lon="6.62507">
        <ele>65</ele>
        <time>2014-10-05T10:16:32Z</time>
      </trkpt>
      <trkpt lat="43.44054" lon="6.62511">
        <ele>65.9</ele>
        <time>2014-10-05T10:16:34Z</time>
      </trkpt>
      <trkpt lat="43.44053" lon="6.62515">
        <ele>67</ele>
        <time>2014-10-05T10:16:36Z</time>
      </trkpt>
      <trkpt lat="43.44052" lon="6.6252">
        <ele>67.9</ele>
        <time>2014-10-05T10:16:38Z</time>
      </trkpt>
      <trkpt lat="43.44052" lon="6.62524">
        <ele>68.7</ele>
        <time>2014-10-05T10:16:40Z</time>
      </trkpt>
      <trkpt lat="43.44051" lon="6.62528">
        <ele>69.8</ele>
        <time>2014-10-05T10:16:42Z</time>
      </trkpt>
      <trkpt lat="43.44049" lon="6.62532">
        <ele>70.9</ele>
        <time>2014-10-05T10:16:44Z</time>
      </trkpt>
      <trkpt lat="43.44047" lon="6.62537">
        <ele>72.3</ele>
        <time>2014-10-05T10:16:47Z</time>
      </trkpt>
      <trkpt lat="43.44046" lon="6.6254">
        <ele>73.2</ele>
        <time>2014-10-05T10:16:49Z</time>
      </trkpt>
      <trkpt lat="43.44045" lon="6.62543">
        <ele>74</ele>
        <time>2014-10-05T10:16:51Z</time>
      </trkpt>
      <trkpt lat="43.44043" lon="6.62546">
        <ele>74.6</ele>
        <time>2014-10-05T10:16:53Z</time>
      </trkpt>
      <trkpt lat="43.44041" lon="6.6255">
        <ele>75</ele>
        <time>2014-10-05T10:16:55Z</time>
      </trkpt>
      <trkpt lat="43.44039" lon="6.62554">
        <ele>75.1</ele>
        <time>2014-10-05T10:16:57Z</time>
      </trkpt>
      <trkpt lat="43.44039" lon="6.62558">
        <ele>75.1</ele>
        <time>2014-10-05T10:16:59Z</time>
      </trkpt>
      <trkpt lat="43.44038" lon="6.62562">
        <ele>75.2</ele>
        <time>2014-10-05T10:17:01Z</time>
      </trkpt>
      <trkpt lat="43.44037" lon="6.62566">
        <ele>75.3</ele>
        <time>2014-10-05T10:17:03Z</time>
      </trkpt>
      <trkpt lat="43.44038" lon="6.62573">
        <ele>75.2</ele>
        <time>2014-10-05T10:17:05Z</time>
      </trkpt>
      <trkpt lat="43.44038" lon="6.62578">
        <ele>75.2</ele>
        <time>2014-10-05T10:17:07Z</time>
      </trkpt>
      <trkpt lat="43.44036" lon="6.62581">
        <ele>75.4</ele>
        <time>2014-10-05T10:17:09Z</time>
      </trkpt>
      <trkpt lat="43.44034" lon="6.62586">
        <ele>75.8</ele>
        <time>2014-10-05T10:17:12Z</time>
      </trkpt>
      <trkpt lat="43.44032" lon="6.6259">
        <ele>76.1</ele>
        <time>2014-10-05T10:17:15Z</time>
      </trkpt>
      <trkpt lat="43.4403" lon="6.62595">
        <ele>76.7</ele>
        <time>2014-10-05T10:17:18Z</time>
      </trkpt>
      <trkpt lat="43.44028" lon="6.62598">
        <ele>77</ele>
        <time>2014-10-05T10:17:20Z</time>
      </trkpt>
      <trkpt lat="43.44028" lon="6.62604">
        <ele>77.2</ele>
        <time>2014-10-05T10:17:22Z</time>
      </trkpt>
      <trkpt lat="43.44028" lon="6.62609">
        <ele>77.4</ele>
        <time>2014-10-05T10:17:24Z</time>
      </trkpt>
      <trkpt lat="43.44028" lon="6.62614">
        <ele>77.3</ele>
        <time>2014-10-05T10:17:26Z</time>
      </trkpt>
      <trkpt lat="43.4403" lon="6.62619">
        <ele>77.1</ele>
        <time>2014-10-05T10:17:28Z</time>
      </trkpt>
      <trkpt lat="43.44032" lon="6.62624">
        <ele>76.7</ele>
        <time>2014-10-05T10:17:30Z</time>
      </trkpt>
      <trkpt lat="43.44033" lon="6.6263">
        <ele>76.2</ele>
        <time>2014-10-05T10:17:32Z</time>
      </trkpt>
      <trkpt lat="43.44033" lon="6.62634">
        <ele>76.4</ele>
        <time>2014-10-05T10:17:34Z</time>
      </trkpt>
      <trkpt lat="43.4403" lon="6.62637">
        <ele>77.3</ele>
        <time>2014-10-05T10:17:36Z</time>
      </trkpt>
      <trkpt lat="43.44027" lon="6.6264">
        <ele>78.2</ele>
        <time>2014-10-05T10:17:38Z</time>
      </trkpt>
      <trkpt lat="43.44024" lon="6.62644">
        <ele>78.9</ele>
        <time>2014-10-05T10:17:40Z</time>
      </trkpt>
      <trkpt lat="43.44023" lon="6.62649">
        <ele>79.2</ele>
        <time>2014-10-05T10:17:42Z</time>
      </trkpt>
      <trkpt lat="43.44022" lon="6.62654">
        <ele>79.7</ele>
        <time>2014-10-05T10:17:44Z</time>
      </trkpt>
      <trkpt lat="43.4402" lon="6.62658">
        <ele>80.3</ele>
        <time>2014-10-05T10:17:46Z</time>
      </trkpt>
      <trkpt lat="43.44019" lon="6.62662">
        <ele>80.6</ele>
        <time>2014-10-05T10:17:48Z</time>
      </trkpt>
      <trkpt lat="43.44021" lon="6.62666">
        <ele>80.2</ele>
        <time>2014-10-05T10:17:50Z</time>
      </trkpt>
      <trkpt lat="43.44023" lon="6.62671">
        <ele>79.6</ele>
        <time>2014-10-05T10:17:52Z</time>
      </trkpt>
      <trkpt lat="43.44026" lon="6.62675">
        <ele>78.8</ele>
        <time>2014-10-05T10:17:54Z</time>
      </trkpt>
      <trkpt lat="43.44028" lon="6.6268">
        <ele>78.3</ele>
        <time>2014-10-05T10:17:56Z</time>
      </trkpt>
      <trkpt lat="43.4403" lon="6.62684">
        <ele>77.7</ele>
        <time>2014-10-05T10:17:58Z</time>
      </trkpt>
      <trkpt lat="43.44032" lon="6.62688">
        <ele>77.1</ele>
        <time>2014-10-05T10:18:00Z</time>
      </trkpt>
      <trkpt lat="43.44034" lon="6.62691">
        <ele>76.6</ele>
        <time>2014-10-05T10:18:02Z</time>
      </trkpt>
      <trkpt lat="43.44036" lon="6.62696">
        <ele>76</ele>
        <time>2014-10-05T10:18:04Z</time>
      </trkpt>
      <trkpt lat="43.44038" lon="6.62701">
        <ele>75.4</ele>
        <time>2014-10-05T10:18:06Z</time>
      </trkpt>
      <trkpt lat="43.44039" lon="6.62707">
        <ele>74.9</ele>
        <time>2014-10-05T10:18:08Z</time>
      </trkpt>
      <trkpt lat="43.44041" lon="6.62714">
        <ele>74.6</ele>
        <time>2014-10-05T10:18:10Z</time>
      </trkpt>
      <trkpt lat="43.44043" lon="6.62721">
        <ele>74.7</ele>
        <time>2014-10-05T10:18:12Z</time>
      </trkpt>
      <trkpt lat="43.44044" lon="6.62727">
        <ele>74.9</ele>
        <time>2014-10-05T10:18:14Z</time>
      </trkpt>
      <trkpt lat="43.44047" lon="6.62734">
        <ele>75.1</ele>
        <time>2014-10-05T10:18:16Z</time>
      </trkpt>
      <trkpt lat="43.44048" lon="6.6274">
        <ele>75.2</ele>
        <time>2014-10-05T10:18:18Z</time>
      </trkpt>
      <trkpt lat="43.44051" lon="6.62746">
        <ele>75.2</ele>
        <time>2014-10-05T10:18:20Z</time>
      </trkpt>
      <trkpt lat="43.44054" lon="6.6275">
        <ele>75.1</ele>
        <time>2014-10-05T10:18:22Z</time>
      </trkpt>
      <trkpt lat="43.44058" lon="6.62754">
        <ele>74.8</ele>
        <time>2014-10-05T10:18:24Z</time>
      </trkpt>
      <trkpt lat="43.44062" lon="6.62756">
        <ele>74.3</ele>
        <time>2014-10-05T10:18:26Z</time>
      </trkpt>
      <trkpt lat="43.44066" lon="6.62758">
        <ele>73.9</ele>
        <time>2014-10-05T10:18:28Z</time>
      </trkpt>
      <trkpt lat="43.44068" lon="6.62762">
        <ele>73.8</ele>
        <time>2014-10-05T10:18:30Z</time>
      </trkpt>
      <trkpt lat="43.4407" lon="6.62765">
        <ele>73.8</ele>
        <time>2014-10-05T10:18:32Z</time>
      </trkpt>
      <trkpt lat="43.44072" lon="6.6277">
        <ele>73.8</ele>
        <time>2014-10-05T10:18:34Z</time>
      </trkpt>
      <trkpt lat="43.44074" lon="6.62775">
        <ele>74</ele>
        <time>2014-10-05T10:18:36Z</time>
      </trkpt>
      <trkpt lat="43.44075" lon="6.62779">
        <ele>74.2</ele>
        <time>2014-10-05T10:18:38Z</time>
      </trkpt>
      <trkpt lat="43.44076" lon="6.62784">
        <ele>74.5</ele>
        <time>2014-10-05T10:18:40Z</time>
      </trkpt>
      <trkpt lat="43.44077" lon="6.62789">
        <ele>74.7</ele>
        <time>2014-10-05T10:18:42Z</time>
      </trkpt>
      <trkpt lat="43.44078" lon="6.62794">
        <ele>74.8</ele>
        <time>2014-10-05T10:18:44Z</time>
      </trkpt>
      <trkpt lat="43.44077" lon="6.62799">
        <ele>74.9</ele>
        <time>2014-10-05T10:18:46Z</time>
      </trkpt>
      <trkpt lat="43.44075" lon="6.62804">
        <ele>75.2</ele>
        <time>2014-10-05T10:18:49Z</time>
      </trkpt>
      <trkpt lat="43.44074" lon="6.62808">
        <ele>75.3</ele>
        <time>2014-10-05T10:18:51Z</time>
      </trkpt>
      <trkpt lat="43.4407" lon="6.62804">
        <ele>76</ele>
        <time>2014-10-05T10:24:03Z</time>
      </trkpt>
      <trkpt lat="43.44073" lon="6.62803">
        <ele>75.5</ele>
        <time>2014-10-05T10:24:07Z</time>
      </trkpt>
      <trkpt lat="43.44075" lon="6.62801">
        <ele>75.1</ele>
        <time>2014-10-05T10:31:28Z</time>
      </trkpt>
      <trkpt lat="43.44074" lon="6.62797">
        <ele>75.3</ele>
        <time>2014-10-05T10:31:32Z</time>
      </trkpt>
      <trkpt lat="43.44086" lon="6.62794">
        <ele>73.6</ele>
        <time>2014-10-05T10:36:49Z</time>
      </trkpt>
      <trkpt lat="43.44082" lon="6.62791">
        <ele>74.1</ele>
        <time>2014-10-05T10:36:51Z</time>
      </trkpt>
      <trkpt lat="43.44079" lon="6.6279">
        <ele>74.5</ele>
        <time>2014-10-05T10:36:52Z</time>
      </trkpt>
      <trkpt lat="43.44075" lon="6.62789">
        <ele>75</ele>
        <time>2014-10-05T10:36:54Z</time>
      </trkpt>
      <trkpt lat="43.44071" lon="6.6279">
        <ele>75.6</ele>
        <time>2014-10-05T10:36:56Z</time>
      </trkpt>
      <trkpt lat="43.44068" lon="6.62792">
        <ele>76.2</ele>
        <time>2014-10-05T10:36:58Z</time>
      </trkpt>
      <trkpt lat="43.44065" lon="6.6279">
        <ele>76.5</ele>
        <time>2014-10-05T10:37:00Z</time>
      </trkpt>
      <trkpt lat="43.44062" lon="6.62788">
        <ele>76.9</ele>
        <time>2014-10-05T10:37:02Z</time>
      </trkpt>
      <trkpt lat="43.44058" lon="6.62787">
        <ele>77.3</ele>
        <time>2014-10-05T10:37:04Z</time>
      </trkpt>
      <trkpt lat="43.44055" lon="6.62786">
        <ele>77.7</ele>
        <time>2014-10-05T10:37:06Z</time>
      </trkpt>
      <trkpt lat="43.44052" lon="6.62786">
        <ele>78.1</ele>
        <time>2014-10-05T10:37:09Z</time>
      </trkpt>
      <trkpt lat="43.44049" lon="6.62785">
        <ele>78.4</ele>
        <time>2014-10-05T10:37:11Z</time>
      </trkpt>
      <trkpt lat="43.44046" lon="6.62783">
        <ele>78.7</ele>
        <time>2014-10-05T10:37:13Z</time>
      </trkpt>
      <trkpt lat="43.44043" lon="6.6278">
        <ele>78.9</ele>
        <time>2014-10-05T10:37:16Z</time>
      </trkpt>
      <trkpt lat="43.4404" lon="6.62778">
        <ele>79.5</ele>
        <time>2014-10-05T10:37:18Z</time>
      </trkpt>
      <trkpt lat="43.44037" lon="6.62776">
        <ele>80.3</ele>
        <time>2014-10-05T10:37:20Z</time>
      </trkpt>
      <trkpt lat="43.44034" lon="6.62775">
        <ele>81</ele>
        <time>2014-10-05T10:37:22Z</time>
      </trkpt>
      <trkpt lat="43.44031" lon="6.62774">
        <ele>81.8</ele>
        <time>2014-10-05T10:37:24Z</time>
      </trkpt>
      <trkpt lat="43.44028" lon="6.62772">
        <ele>82.5</ele>
        <time>2014-10-05T10:37:26Z</time>
      </trkpt>
      <trkpt lat="43.44025" lon="6.6277">
        <ele>83.2</ele>
        <time>2014-10-05T10:37:28Z</time>
      </trkpt>
      <trkpt lat="43.44021" lon="6.62768">
        <ele>84.3</ele>
        <time>2014-10-05T10:37:30Z</time>
      </trkpt>
      <trkpt lat="43.44017" lon="6.62766">
        <ele>85.5</ele>
        <time>2014-10-05T10:37:32Z</time>
      </trkpt>
      <trkpt lat="43.44013" lon="6.62765">
        <ele>86.7</ele>
        <time>2014-10-05T10:37:34Z</time>
      </trkpt>
      <trkpt lat="43.44009" lon="6.62761">
        <ele>87.7</ele>
        <time>2014-10-05T10:37:36Z</time>
      </trkpt>
      <trkpt lat="43.44006" lon="6.62756">
        <ele>88.2</ele>
        <time>2014-10-05T10:37:38Z</time>
      </trkpt>
      <trkpt lat="43.44004" lon="6.62751">
        <ele>88.6</ele>
        <time>2014-10-05T10:37:40Z</time>
      </trkpt>
      <trkpt lat="43.44002" lon="6.62747">
        <ele>89.1</ele>
        <time>2014-10-05T10:37:42Z</time>
      </trkpt>
      <trkpt lat="43.44" lon="6.62743">
        <ele>89.5</ele>
        <time>2014-10-05T10:37:44Z</time>
      </trkpt>
      <trkpt lat="43.43998" lon="6.62739">
        <ele>89.8</ele>
        <time>2014-10-05T10:37:46Z</time>
      </trkpt>
      <trkpt lat="43.43997" lon="6.62734">
        <ele>90.1</ele>
        <time>2014-10-05T10:37:48Z</time>
      </trkpt>
      <trkpt lat="43.43995" lon="6.6273">
        <ele>90.4</ele>
        <time>2014-10-05T10:37:50Z</time>
      </trkpt>
      <trkpt lat="43.43995" lon="6.62726">
        <ele>90.3</ele>
        <time>2014-10-05T10:37:52Z</time>
      </trkpt>
      <trkpt lat="43.43993" lon="6.62721">
        <ele>90.9</ele>
        <time>2014-10-05T10:37:55Z</time>
      </trkpt>
      <trkpt lat="43.43991" lon="6.62719">
        <ele>91.5</ele>
        <time>2014-10-05T10:37:57Z</time>
      </trkpt>
      <trkpt lat="43.43988" lon="6.62716">
        <ele>92.2</ele>
        <time>2014-10-05T10:37:59Z</time>
      </trkpt>
      <trkpt lat="43.43986" lon="6.62713">
        <ele>93</ele>
        <time>2014-10-05T10:38:01Z</time>
      </trkpt>
      <trkpt lat="43.43983" lon="6.62711">
        <ele>93.7</ele>
        <time>2014-10-05T10:38:03Z</time>
      </trkpt>
      <trkpt lat="43.4398" lon="6.62708">
        <ele>94.6</ele>
        <time>2014-10-05T10:38:05Z</time>
      </trkpt>
      <trkpt lat="43.43977" lon="6.62705">
        <ele>95.6</ele>
        <time>2014-10-05T10:38:07Z</time>
      </trkpt>
      <trkpt lat="43.43974" lon="6.62703">
        <ele>96.4</ele>
        <time>2014-10-05T10:38:09Z</time>
      </trkpt>
      <trkpt lat="43.43971" lon="6.627">
        <ele>97.2</ele>
        <time>2014-10-05T10:38:11Z</time>
      </trkpt>
      <trkpt lat="43.43968" lon="6.62698">
        <ele>98</ele>
        <time>2014-10-05T10:38:13Z</time>
      </trkpt>
      <trkpt lat="43.43966" lon="6.62694">
        <ele>98.5</ele>
        <time>2014-10-05T10:38:15Z</time>
      </trkpt>
      <trkpt lat="43.43965" lon="6.6269">
        <ele>98.7</ele>
        <time>2014-10-05T10:38:17Z</time>
      </trkpt>
      <trkpt lat="43.43964" lon="6.62686">
        <ele>98.7</ele>
        <time>2014-10-05T10:38:19Z</time>
      </trkpt>
      <trkpt lat="43.43962" lon="6.62681">
        <ele>98.9</ele>
        <time>2014-10-05T10:38:21Z</time>
      </trkpt>
      <trkpt lat="43.4396" lon="6.62676">
        <ele>99.3</ele>
        <time>2014-10-05T10:38:23Z</time>
      </trkpt>
      <trkpt lat="43.43958" lon="6.62672">
        <ele>99.4</ele>
        <time>2014-10-05T10:38:25Z</time>
      </trkpt>
      <trkpt lat="43.43957" lon="6.62665">
        <ele>98.9</ele>
        <time>2014-10-05T10:38:27Z</time>
      </trkpt>
      <trkpt lat="43.43955" lon="6.62658">
        <ele>98.4</ele>
        <time>2014-10-05T10:38:29Z</time>
      </trkpt>
      <trkpt lat="43.43955" lon="6.62652">
        <ele>97.9</ele>
        <time>2014-10-05T10:38:31Z</time>
      </trkpt>
      <trkpt lat="43.43955" lon="6.62646">
        <ele>97.5</ele>
        <time>2014-10-05T10:38:33Z</time>
      </trkpt>
      <trkpt lat="43.43956" lon="6.62641">
        <ele>97.1</ele>
        <time>2014-10-05T10:38:35Z</time>
      </trkpt>
      <trkpt lat="43.43957" lon="6.62635">
        <ele>96.7</ele>
        <time>2014-10-05T10:38:37Z</time>
      </trkpt>
      <trkpt lat="43.43958" lon="6.62629">
        <ele>96.2</ele>
        <time>2014-10-05T10:38:39Z</time>
      </trkpt>
      <trkpt lat="43.4396" lon="6.62623">
        <ele>95.1</ele>
        <time>2014-10-05T10:38:41Z</time>
      </trkpt>
      <trkpt lat="43.43963" lon="6.62617">
        <ele>93.4</ele>
        <time>2014-10-05T10:38:43Z</time>
      </trkpt>
      <trkpt lat="43.43963" lon="6.6261">
        <ele>92</ele>
        <time>2014-10-05T10:38:45Z</time>
      </trkpt>
      <trkpt lat="43.43965" lon="6.62604">
        <ele>90.6</ele>
        <time>2014-10-05T10:38:47Z</time>
      </trkpt>
      <trkpt lat="43.43967" lon="6.62599">
        <ele>89.2</ele>
        <time>2014-10-05T10:38:49Z</time>
      </trkpt>
      <trkpt lat="43.43968" lon="6.62592">
        <ele>88</ele>
        <time>2014-10-05T10:38:51Z</time>
      </trkpt>
      <trkpt lat="43.43968" lon="6.62586">
        <ele>86.9</ele>
        <time>2014-10-05T10:38:53Z</time>
      </trkpt>
      <trkpt lat="43.43967" lon="6.62579">
        <ele>85.9</ele>
        <time>2014-10-05T10:38:55Z</time>
      </trkpt>
      <trkpt lat="43.43967" lon="6.62573">
        <ele>85</ele>
        <time>2014-10-05T10:38:57Z</time>
      </trkpt>
      <trkpt lat="43.43966" lon="6.62567">
        <ele>84</ele>
        <time>2014-10-05T10:38:59Z</time>
      </trkpt>
      <trkpt lat="43.43965" lon="6.62561">
        <ele>83</ele>
        <time>2014-10-05T10:39:01Z</time>
      </trkpt>
      <trkpt lat="43.43962" lon="6.62556">
        <ele>82.4</ele>
        <time>2014-10-05T10:39:03Z</time>
      </trkpt>
      <trkpt lat="43.4396" lon="6.62551">
        <ele>81.6</ele>
        <time>2014-10-05T10:39:05Z</time>
      </trkpt>
      <trkpt lat="43.43958" lon="6.62546">
        <ele>80.7</ele>
        <time>2014-10-05T10:39:07Z</time>
      </trkpt>
      <trkpt lat="43.43955" lon="6.6254">
        <ele>79.4</ele>
        <time>2014-10-05T10:39:09Z</time>
      </trkpt>
      <trkpt lat="43.43952" lon="6.62535">
        <ele>77.9</ele>
        <time>2014-10-05T10:39:11Z</time>
      </trkpt>
      <trkpt lat="43.43949" lon="6.62531">
        <ele>76.6</ele>
        <time>2014-10-05T10:39:13Z</time>
      </trkpt>
      <trkpt lat="43.43944" lon="6.62529">
        <ele>75.9</ele>
        <time>2014-10-05T10:39:15Z</time>
      </trkpt>
      <trkpt lat="43.4394" lon="6.62531">
        <ele>76.3</ele>
        <time>2014-10-05T10:39:17Z</time>
      </trkpt>
      <trkpt lat="43.43937" lon="6.62536">
        <ele>77.4</ele>
        <time>2014-10-05T10:39:19Z</time>
      </trkpt>
      <trkpt lat="43.43935" lon="6.62541">
        <ele>78.4</ele>
        <time>2014-10-05T10:39:21Z</time>
      </trkpt>
      <trkpt lat="43.43933" lon="6.62546">
        <ele>79.3</ele>
        <time>2014-10-05T10:39:23Z</time>
      </trkpt>
      <trkpt lat="43.4393" lon="6.6255">
        <ele>79.9</ele>
        <time>2014-10-05T10:39:25Z</time>
      </trkpt>
      <trkpt lat="43.43927" lon="6.62552">
        <ele>80.1</ele>
        <time>2014-10-05T10:39:27Z</time>
      </trkpt>
      <trkpt lat="43.43924" lon="6.62555">
        <ele>80.6</ele>
        <time>2014-10-05T10:39:29Z</time>
      </trkpt>
      <trkpt lat="43.43922" lon="6.62558">
        <ele>81</ele>
        <time>2014-10-05T10:39:31Z</time>
      </trkpt>
      <trkpt lat="43.4392" lon="6.62562">
        <ele>81.6</ele>
        <time>2014-10-05T10:39:34Z</time>
      </trkpt>
      <trkpt lat="43.43918" lon="6.62566">
        <ele>82.3</ele>
        <time>2014-10-05T10:39:36Z</time>
      </trkpt>
      <trkpt lat="43.43916" lon="6.62571">
        <ele>83.2</ele>
        <time>2014-10-05T10:39:38Z</time>
      </trkpt>
      <trkpt lat="43.43914" lon="6.62576">
        <ele>84.2</ele>
        <time>2014-10-05T10:39:40Z</time>
      </trkpt>
      <trkpt lat="43.43912" lon="6.6258">
        <ele>84.7</ele>
        <time>2014-10-05T10:39:43Z</time>
      </trkpt>
      <trkpt lat="43.43909" lon="6.62584">
        <ele>85.5</ele>
        <time>2014-10-05T10:39:46Z</time>
      </trkpt>
      <trkpt lat="43.43909" lon="6.62589">
        <ele>86.4</ele>
        <time>2014-10-05T10:39:48Z</time>
      </trkpt>
      <trkpt lat="43.43909" lon="6.62594">
        <ele>87.5</ele>
        <time>2014-10-05T10:39:50Z</time>
      </trkpt>
      <trkpt lat="43.43908" lon="6.62599">
        <ele>88.5</ele>
        <time>2014-10-05T10:39:52Z</time>
      </trkpt>
      <trkpt lat="43.43906" lon="6.62603">
        <ele>89.1</ele>
        <time>2014-10-05T10:39:54Z</time>
      </trkpt>
      <trkpt lat="43.43904" lon="6.62607">
        <ele>89.8</ele>
        <time>2014-10-05T10:39:56Z</time>
      </trkpt>
      <trkpt lat="43.43904" lon="6.62611">
        <ele>90.6</ele>
        <time>2014-10-05T10:39:58Z</time>
      </trkpt>
      <trkpt lat="43.43902" lon="6.62615">
        <ele>91.4</ele>
        <time>2014-10-05T10:40:00Z</time>
      </trkpt>
      <trkpt lat="43.439" lon="6.6262">
        <ele>92.3</ele>
        <time>2014-10-05T10:40:02Z</time>
      </trkpt>
      <trkpt lat="43.43898" lon="6.62624">
        <ele>92.8</ele>
        <time>2014-10-05T10:40:04Z</time>
      </trkpt>
      <trkpt lat="43.43894" lon="6.62626">
        <ele>93.1</ele>
        <time>2014-10-05T10:40:07Z</time>
      </trkpt>
      <trkpt lat="43.43892" lon="6.62629">
        <ele>93.4</ele>
        <time>2014-10-05T10:40:09Z</time>
      </trkpt>
      <trkpt lat="43.43888" lon="6.62633">
        <ele>94</ele>
        <time>2014-10-05T10:40:11Z</time>
      </trkpt>
      <trkpt lat="43.43886" lon="6.62639">
        <ele>94.8</ele>
        <time>2014-10-05T10:40:13Z</time>
      </trkpt>
      <trkpt lat="43.43885" lon="6.62644">
        <ele>95.6</ele>
        <time>2014-10-05T10:40:15Z</time>
      </trkpt>
      <trkpt lat="43.43883" lon="6.62647">
        <ele>96.1</ele>
        <time>2014-10-05T10:40:17Z</time>
      </trkpt>
      <trkpt lat="43.43881" lon="6.6265">
        <ele>96.5</ele>
        <time>2014-10-05T10:40:19Z</time>
      </trkpt>
      <trkpt lat="43.43879" lon="6.62653">
        <ele>97.1</ele>
        <time>2014-10-05T10:40:22Z</time>
      </trkpt>
      <trkpt lat="43.43878" lon="6.62657">
        <ele>97.7</ele>
        <time>2014-10-05T10:40:24Z</time>
      </trkpt>
      <trkpt lat="43.43877" lon="6.62661">
        <ele>98.5</ele>
        <time>2014-10-05T10:40:26Z</time>
      </trkpt>
      <trkpt lat="43.43878" lon="6.62668">
        <ele>99.7</ele>
        <time>2014-10-05T10:40:28Z</time>
      </trkpt>
      <trkpt lat="43.43878" lon="6.62674">
        <ele>100.8</ele>
        <time>2014-10-05T10:40:30Z</time>
      </trkpt>
      <trkpt lat="43.43877" lon="6.62679">
        <ele>101.7</ele>
        <time>2014-10-05T10:40:32Z</time>
      </trkpt>
      <trkpt lat="43.43875" lon="6.62684">
        <ele>102.5</ele>
        <time>2014-10-05T10:40:34Z</time>
      </trkpt>
      <trkpt lat="43.43874" lon="6.62689">
        <ele>103.5</ele>
        <time>2014-10-05T10:40:36Z</time>
      </trkpt>
      <trkpt lat="43.43874" lon="6.62693">
        <ele>104.1</ele>
        <time>2014-10-05T10:40:38Z</time>
      </trkpt>
      <trkpt lat="43.43871" lon="6.62697">
        <ele>104.6</ele>
        <time>2014-10-05T10:40:41Z</time>
      </trkpt>
      <trkpt lat="43.43868" lon="6.627">
        <ele>104.9</ele>
        <time>2014-10-05T10:40:44Z</time>
      </trkpt>
      <trkpt lat="43.43867" lon="6.62703">
        <ele>105.4</ele>
        <time>2014-10-05T10:40:46Z</time>
      </trkpt>
      <trkpt lat="43.43868" lon="6.62709">
        <ele>106.4</ele>
        <time>2014-10-05T10:40:49Z</time>
      </trkpt>
      <trkpt lat="43.43868" lon="6.62713">
        <ele>107.1</ele>
        <time>2014-10-05T10:40:51Z</time>
      </trkpt>
      <trkpt lat="43.43864" lon="6.62715">
        <ele>107.1</ele>
        <time>2014-10-05T10:41:40Z</time>
      </trkpt>
      <trkpt lat="43.43864" lon="6.62721">
        <ele>108</ele>
        <time>2014-10-05T10:41:42Z</time>
      </trkpt>
      <trkpt lat="43.43863" lon="6.62727">
        <ele>108.9</ele>
        <time>2014-10-05T10:41:44Z</time>
      </trkpt>
      <trkpt lat="43.43861" lon="6.62731">
        <ele>109.3</ele>
        <time>2014-10-05T10:41:46Z</time>
      </trkpt>
      <trkpt lat="43.4386" lon="6.62736">
        <ele>109.8</ele>
        <time>2014-10-05T10:41:48Z</time>
      </trkpt>
      <trkpt lat="43.43858" lon="6.6274">
        <ele>110.4</ele>
        <time>2014-10-05T10:41:50Z</time>
      </trkpt>
      <trkpt lat="43.43857" lon="6.62745">
        <ele>111</ele>
        <time>2014-10-05T10:41:52Z</time>
      </trkpt>
      <trkpt lat="43.43855" lon="6.62749">
        <ele>111.4</ele>
        <time>2014-10-05T10:41:54Z</time>
      </trkpt>
      <trkpt lat="43.43854" lon="6.62753">
        <ele>111.9</ele>
        <time>2014-10-05T10:41:56Z</time>
      </trkpt>
      <trkpt lat="43.43853" lon="6.62756">
        <ele>112.3</ele>
        <time>2014-10-05T10:41:58Z</time>
      </trkpt>
      <trkpt lat="43.43852" lon="6.6276">
        <ele>112.8</ele>
        <time>2014-10-05T10:42:00Z</time>
      </trkpt>
      <trkpt lat="43.4385" lon="6.62763">
        <ele>113</ele>
        <time>2014-10-05T10:42:02Z</time>
      </trkpt>
      <trkpt lat="43.43848" lon="6.62767">
        <ele>113.5</ele>
        <time>2014-10-05T10:42:04Z</time>
      </trkpt>
      <trkpt lat="43.43848" lon="6.62772">
        <ele>114.2</ele>
        <time>2014-10-05T10:42:06Z</time>
      </trkpt>
      <trkpt lat="43.43847" lon="6.62776">
        <ele>114.6</ele>
        <time>2014-10-05T10:42:08Z</time>
      </trkpt>
      <trkpt lat="43.43846" lon="6.62779">
        <ele>115.1</ele>
        <time>2014-10-05T10:42:10Z</time>
      </trkpt>
      <trkpt lat="43.43845" lon="6.62783">
        <ele>115.6</ele>
        <time>2014-10-05T10:42:12Z</time>
      </trkpt>
      <trkpt lat="43.43844" lon="6.62787">
        <ele>115.9</ele>
        <time>2014-10-05T10:42:14Z</time>
      </trkpt>
      <trkpt lat="43.43842" lon="6.6279">
        <ele>116.2</ele>
        <time>2014-10-05T10:42:16Z</time>
      </trkpt>
      <trkpt lat="43.43842" lon="6.62794">
        <ele>116.5</ele>
        <time>2014-10-05T10:42:18Z</time>
      </trkpt>
      <trkpt lat="43.43841" lon="6.62798">
        <ele>116.6</ele>
        <time>2014-10-05T10:42:20Z</time>
      </trkpt>
      <trkpt lat="43.43839" lon="6.62803">
        <ele>116.7</ele>
        <time>2014-10-05T10:42:22Z</time>
      </trkpt>
      <trkpt lat="43.43836" lon="6.62806">
        <ele>116.6</ele>
        <time>2014-10-05T10:42:25Z</time>
      </trkpt>
      <trkpt lat="43.43834" lon="6.62816">
        <ele>116.9</ele>
        <time>2014-10-05T10:44:06Z</time>
      </trkpt>
      <trkpt lat="43.43833" lon="6.62821">
        <ele>117</ele>
        <time>2014-10-05T10:44:07Z</time>
      </trkpt>
      <trkpt lat="43.43832" lon="6.62824">
        <ele>117.1</ele>
        <time>2014-10-05T10:44:08Z</time>
      </trkpt>
      <trkpt lat="43.43831" lon="6.62828">
        <ele>117.2</ele>
        <time>2014-10-05T10:44:09Z</time>
      </trkpt>
      <trkpt lat="43.4383" lon="6.62831">
        <ele>117.3</ele>
        <time>2014-10-05T10:44:10Z</time>
      </trkpt>
      <trkpt lat="43.43829" lon="6.62835">
        <ele>117.4</ele>
        <time>2014-10-05T10:44:11Z</time>
      </trkpt>
      <trkpt lat="43.43828" lon="6.62839">
        <ele>117.5</ele>
        <time>2014-10-05T10:44:12Z</time>
      </trkpt>
      <trkpt lat="43.43827" lon="6.62842">
        <ele>117.6</ele>
        <time>2014-10-05T10:44:13Z</time>
      </trkpt>
      <trkpt lat="43.43826" lon="6.62847">
        <ele>117.8</ele>
        <time>2014-10-05T10:44:14Z</time>
      </trkpt>
      <trkpt lat="43.43826" lon="6.62852">
        <ele>118</ele>
        <time>2014-10-05T10:44:15Z</time>
      </trkpt>
      <trkpt lat="43.43825" lon="6.62857">
        <ele>118.2</ele>
        <time>2014-10-05T10:44:16Z</time>
      </trkpt>
      <trkpt lat="43.43824" lon="6.62864">
        <ele>118.4</ele>
        <time>2014-10-05T10:44:17Z</time>
      </trkpt>
      <trkpt lat="43.43822" lon="6.6287">
        <ele>118.7</ele>
        <time>2014-10-05T10:44:18Z</time>
      </trkpt>
      <trkpt lat="43.4382" lon="6.62878">
        <ele>118.6</ele>
        <time>2014-10-05T10:44:19Z</time>
      </trkpt>
      <trkpt lat="43.43818" lon="6.62896">
        <ele>117.8</ele>
        <time>2014-10-05T10:44:20Z</time>
      </trkpt>
      <trkpt lat="43.43818" lon="6.62906">
        <ele>117.6</ele>
        <time>2014-10-05T10:44:21Z</time>
      </trkpt>
      <trkpt lat="43.43815" lon="6.62915">
        <ele>117.2</ele>
        <time>2014-10-05T10:44:22Z</time>
      </trkpt>
      <trkpt lat="43.43813" lon="6.62925">
        <ele>116.8</ele>
        <time>2014-10-05T10:44:23Z</time>
      </trkpt>
      <trkpt lat="43.43813" lon="6.62941">
        <ele>116.4</ele>
        <time>2014-10-05T10:44:24Z</time>
      </trkpt>
      <trkpt lat="43.43808" lon="6.62946">
        <ele>116.2</ele>
        <time>2014-10-05T10:44:25Z</time>
      </trkpt>
      <trkpt lat="43.43804" lon="6.62953">
        <ele>116.1</ele>
        <time>2014-10-05T10:44:26Z</time>
      </trkpt>
      <trkpt lat="43.43797" lon="6.62957">
        <ele>116</ele>
        <time>2014-10-05T10:44:27Z</time>
      </trkpt>
      <trkpt lat="43.43793" lon="6.6296">
        <ele>115.9</ele>
        <time>2014-10-05T10:44:28Z</time>
      </trkpt>
      <trkpt lat="43.43785" lon="6.62961">
        <ele>114.1</ele>
        <time>2014-10-05T10:44:29Z</time>
      </trkpt>
      <trkpt lat="43.4378" lon="6.62965">
        <ele>112.5</ele>
        <time>2014-10-05T10:44:30Z</time>
      </trkpt>
      <trkpt lat="43.43774" lon="6.6297">
        <ele>111.1</ele>
        <time>2014-10-05T10:44:31Z</time>
      </trkpt>
      <trkpt lat="43.4377" lon="6.62975">
        <ele>110</ele>
        <time>2014-10-05T10:44:32Z</time>
      </trkpt>
      <trkpt lat="43.43765" lon="6.62981">
        <ele>109.1</ele>
        <time>2014-10-05T10:44:33Z</time>
      </trkpt>
      <trkpt lat="43.43761" lon="6.62987">
        <ele>108.3</ele>
        <time>2014-10-05T10:44:34Z</time>
      </trkpt>
      <trkpt lat="43.43756" lon="6.62993">
        <ele>107.6</ele>
        <time>2014-10-05T10:44:35Z</time>
      </trkpt>
      <trkpt lat="43.43751" lon="6.62998">
        <ele>107</ele>
        <time>2014-10-05T10:44:36Z</time>
      </trkpt>
      <trkpt lat="43.43747" lon="6.63003">
        <ele>106.8</ele>
        <time>2014-10-05T10:44:37Z</time>
      </trkpt>
      <trkpt lat="43.43744" lon="6.63008">
        <ele>106.7</ele>
        <time>2014-10-05T10:44:38Z</time>
      </trkpt>
      <trkpt lat="43.43742" lon="6.63014">
        <ele>106.9</ele>
        <time>2014-10-05T10:44:40Z</time>
      </trkpt>
      <trkpt lat="43.43739" lon="6.63019">
        <ele>107</ele>
        <time>2014-10-05T10:44:42Z</time>
      </trkpt>
      <trkpt lat="43.43737" lon="6.63021">
        <ele>107</ele>
        <time>2014-10-05T10:44:43Z</time>
      </trkpt>
      <trkpt lat="43.43735" lon="6.63024">
        <ele>107.1</ele>
        <time>2014-10-05T10:44:44Z</time>
      </trkpt>
      <trkpt lat="43.43733" lon="6.63027">
        <ele>107.3</ele>
        <time>2014-10-05T10:44:45Z</time>
      </trkpt>
      <trkpt lat="43.43731" lon="6.63029">
        <ele>107.4</ele>
        <time>2014-10-05T10:44:46Z</time>
      </trkpt>
      <trkpt lat="43.43729" lon="6.63031">
        <ele>107.5</ele>
        <time>2014-10-05T10:44:47Z</time>
      </trkpt>
      <trkpt lat="43.43725" lon="6.63035">
        <ele>107.7</ele>
        <time>2014-10-05T10:44:49Z</time>
      </trkpt>
      <trkpt lat="43.43721" lon="6.63038">
        <ele>107.9</ele>
        <time>2014-10-05T10:44:51Z</time>
      </trkpt>
      <trkpt lat="43.43717" lon="6.63041">
        <ele>108.3</ele>
        <time>2014-10-05T10:44:53Z</time>
      </trkpt>
      <trkpt lat="43.43713" lon="6.63044">
        <ele>108.7</ele>
        <time>2014-10-05T10:44:55Z</time>
      </trkpt>
      <trkpt lat="43.43709" lon="6.63046">
        <ele>109.2</ele>
        <time>2014-10-05T10:44:57Z</time>
      </trkpt>
      <trkpt lat="43.43707" lon="6.63048">
        <ele>109.6</ele>
        <time>2014-10-05T10:45:00Z</time>
      </trkpt>
      <trkpt lat="43.43703" lon="6.6305">
        <ele>110.1</ele>
        <time>2014-10-05T10:45:03Z</time>
      </trkpt>
      <trkpt lat="43.437" lon="6.63051">
        <ele>110.4</ele>
        <time>2014-10-05T10:45:05Z</time>
      </trkpt>
      <trkpt lat="43.43696" lon="6.63052">
        <ele>110.5</ele>
        <time>2014-10-05T10:45:07Z</time>
      </trkpt>
      <trkpt lat="43.43692" lon="6.6305">
        <ele>110.1</ele>
        <time>2014-10-05T10:45:09Z</time>
      </trkpt>
      <trkpt lat="43.43688" lon="6.63049">
        <ele>109.6</ele>
        <time>2014-10-05T10:45:11Z</time>
      </trkpt>
      <trkpt lat="43.43684" lon="6.63046">
        <ele>108.9</ele>
        <time>2014-10-05T10:45:13Z</time>
      </trkpt>
      <trkpt lat="43.43681" lon="6.63044">
        <ele>108.2</ele>
        <time>2014-10-05T10:45:15Z</time>
      </trkpt>
      <trkpt lat="43.43677" lon="6.63041">
        <ele>107.5</ele>
        <time>2014-10-05T10:45:17Z</time>
      </trkpt>
      <trkpt lat="43.43673" lon="6.6304">
        <ele>107.2</ele>
        <time>2014-10-05T10:45:19Z</time>
      </trkpt>
      <trkpt lat="43.4367" lon="6.63039">
        <ele>106.8</ele>
        <time>2014-10-05T10:45:21Z</time>
      </trkpt>
      <trkpt lat="43.43666" lon="6.63038">
        <ele>106.7</ele>
        <time>2014-10-05T10:45:23Z</time>
      </trkpt>
      <trkpt lat="43.43661" lon="6.63039">
        <ele>106.8</ele>
        <time>2014-10-05T10:45:25Z</time>
      </trkpt>
      <trkpt lat="43.43657" lon="6.6304">
        <ele>107</ele>
        <time>2014-10-05T10:45:27Z</time>
      </trkpt>
      <trkpt lat="43.43653" lon="6.63041">
        <ele>107.2</ele>
        <time>2014-10-05T10:45:29Z</time>
      </trkpt>
      <trkpt lat="43.43648" lon="6.63043">
        <ele>107.6</ele>
        <time>2014-10-05T10:45:31Z</time>
      </trkpt>
      <trkpt lat="43.43644" lon="6.63045">
        <ele>108.1</ele>
        <time>2014-10-05T10:45:33Z</time>
      </trkpt>
      <trkpt lat="43.4364" lon="6.63047">
        <ele>108.4</ele>
        <time>2014-10-05T10:45:35Z</time>
      </trkpt>
      <trkpt lat="43.43636" lon="6.63048">
        <ele>108.8</ele>
        <time>2014-10-05T10:45:37Z</time>
      </trkpt>
      <trkpt lat="43.43633" lon="6.63051">
        <ele>109.3</ele>
        <time>2014-10-05T10:45:39Z</time>
      </trkpt>
      <trkpt lat="43.43629" lon="6.63054">
        <ele>110.1</ele>
        <time>2014-10-05T10:45:41Z</time>
      </trkpt>
      <trkpt lat="43.43626" lon="6.63056">
        <ele>110.7</ele>
        <time>2014-10-05T10:45:43Z</time>
      </trkpt>
      <trkpt lat="43.43622" lon="6.63059">
        <ele>111.1</ele>
        <time>2014-10-05T10:45:45Z</time>
      </trkpt>
      <trkpt lat="43.43618" lon="6.63062">
        <ele>111.5</ele>
        <time>2014-10-05T10:45:47Z</time>
      </trkpt>
      <trkpt lat="43.43615" lon="6.63065">
        <ele>111.9</ele>
        <time>2014-10-05T10:45:49Z</time>
      </trkpt>
      <trkpt lat="43.43611" lon="6.63069">
        <ele>112.3</ele>
        <time>2014-10-05T10:45:51Z</time>
      </trkpt>
      <trkpt lat="43.43607" lon="6.63072">
        <ele>112.7</ele>
        <time>2014-10-05T10:45:53Z</time>
      </trkpt>
      <trkpt lat="43.43604" lon="6.63075">
        <ele>113</ele>
        <time>2014-10-05T10:45:55Z</time>
      </trkpt>
      <trkpt lat="43.436" lon="6.63079">
        <ele>113.6</ele>
        <time>2014-10-05T10:45:57Z</time>
      </trkpt>
      <trkpt lat="43.43596" lon="6.63083">
        <ele>114</ele>
        <time>2014-10-05T10:45:59Z</time>
      </trkpt>
      <trkpt lat="43.43592" lon="6.63086">
        <ele>114.2</ele>
        <time>2014-10-05T10:46:01Z</time>
      </trkpt>
      <trkpt lat="43.4359" lon="6.63088">
        <ele>114.3</ele>
        <time>2014-10-05T10:46:02Z</time>
      </trkpt>
      <trkpt lat="43.43586" lon="6.63092">
        <ele>114.8</ele>
        <time>2014-10-05T10:46:04Z</time>
      </trkpt>
      <trkpt lat="43.43583" lon="6.63096">
        <ele>115.1</ele>
        <time>2014-10-05T10:46:06Z</time>
      </trkpt>
      <trkpt lat="43.4358" lon="6.63095">
        <ele>114.5</ele>
        <time>2014-10-05T10:46:10Z</time>
      </trkpt>
      <trkpt lat="43.43578" lon="6.63091">
        <ele>113.5</ele>
        <time>2014-10-05T10:48:58Z</time>
      </trkpt>
      <trkpt lat="43.43574" lon="6.63089">
        <ele>112.4</ele>
        <time>2014-10-05T10:49:00Z</time>
      </trkpt>
      <trkpt lat="43.43571" lon="6.63086">
        <ele>111.5</ele>
        <time>2014-10-05T10:49:01Z</time>
      </trkpt>
      <trkpt lat="43.43566" lon="6.63084">
        <ele>110.6</ele>
        <time>2014-10-05T10:49:02Z</time>
      </trkpt>
      <trkpt lat="43.4356" lon="6.63083">
        <ele>109.6</ele>
        <time>2014-10-05T10:49:03Z</time>
      </trkpt>
      <trkpt lat="43.43554" lon="6.63085">
        <ele>109.2</ele>
        <time>2014-10-05T10:49:04Z</time>
      </trkpt>
      <trkpt lat="43.43551" lon="6.6309">
        <ele>109.7</ele>
        <time>2014-10-05T10:49:05Z</time>
      </trkpt>
      <trkpt lat="43.43548" lon="6.63095">
        <ele>110.4</ele>
        <time>2014-10-05T10:49:06Z</time>
      </trkpt>
      <trkpt lat="43.43544" lon="6.63103">
        <ele>111.3</ele>
        <time>2014-10-05T10:49:07Z</time>
      </trkpt>
      <trkpt lat="43.43542" lon="6.63111">
        <ele>112.6</ele>
        <time>2014-10-05T10:49:08Z</time>
      </trkpt>
      <trkpt lat="43.43539" lon="6.63121">
        <ele>113.4</ele>
        <time>2014-10-05T10:49:09Z</time>
      </trkpt>
      <trkpt lat="43.43536" lon="6.63132">
        <ele>113.5</ele>
        <time>2014-10-05T10:49:10Z</time>
      </trkpt>
      <trkpt lat="43.43535" lon="6.63142">
        <ele>113.4</ele>
        <time>2014-10-05T10:49:11Z</time>
      </trkpt>
      <trkpt lat="43.43535" lon="6.63151">
        <ele>113.7</ele>
        <time>2014-10-05T10:49:12Z</time>
      </trkpt>
      <trkpt lat="43.4353" lon="6.63155">
        <ele>112.4</ele>
        <time>2014-10-05T10:49:13Z</time>
      </trkpt>
      <trkpt lat="43.43526" lon="6.63156">
        <ele>111.1</ele>
        <time>2014-10-05T10:49:14Z</time>
      </trkpt>
      <trkpt lat="43.43521" lon="6.63157">
        <ele>109.3</ele>
        <time>2014-10-05T10:49:15Z</time>
      </trkpt>
      <trkpt lat="43.43515" lon="6.6316">
        <ele>107.8</ele>
        <time>2014-10-05T10:49:16Z</time>
      </trkpt>
      <trkpt lat="43.43511" lon="6.63168">
        <ele>106.8</ele>
        <time>2014-10-05T10:49:17Z</time>
      </trkpt>
      <trkpt lat="43.43506" lon="6.63173">
        <ele>105.4</ele>
        <time>2014-10-05T10:49:18Z</time>
      </trkpt>
      <trkpt lat="43.43501" lon="6.63178">
        <ele>104</ele>
        <time>2014-10-05T10:49:19Z</time>
      </trkpt>
      <trkpt lat="43.43497" lon="6.63183">
        <ele>103</ele>
        <time>2014-10-05T10:49:20Z</time>
      </trkpt>
      <trkpt lat="43.43492" lon="6.63188">
        <ele>102</ele>
        <time>2014-10-05T10:49:21Z</time>
      </trkpt>
      <trkpt lat="43.43487" lon="6.63191">
        <ele>100.5</ele>
        <time>2014-10-05T10:49:22Z</time>
      </trkpt>
      <trkpt lat="43.43482" lon="6.63192">
        <ele>99.1</ele>
        <time>2014-10-05T10:49:23Z</time>
      </trkpt>
      <trkpt lat="43.43476" lon="6.63189">
        <ele>97.2</ele>
        <time>2014-10-05T10:49:24Z</time>
      </trkpt>
      <trkpt lat="43.4347" lon="6.63189">
        <ele>95.2</ele>
        <time>2014-10-05T10:49:25Z</time>
      </trkpt>
      <trkpt lat="43.43465" lon="6.6319">
        <ele>93.6</ele>
        <time>2014-10-05T10:49:26Z</time>
      </trkpt>
      <trkpt lat="43.43459" lon="6.63192">
        <ele>92.1</ele>
        <time>2014-10-05T10:49:27Z</time>
      </trkpt>
      <trkpt lat="43.43458" lon="6.63199">
        <ele>92.3</ele>
        <time>2014-10-05T10:49:28Z</time>
      </trkpt>
      <trkpt lat="43.43457" lon="6.63208">
        <ele>92.7</ele>
        <time>2014-10-05T10:49:29Z</time>
      </trkpt>
      <trkpt lat="43.43453" lon="6.63215">
        <ele>92.4</ele>
        <time>2014-10-05T10:49:30Z</time>
      </trkpt>
      <trkpt lat="43.43449" lon="6.63223">
        <ele>92.2</ele>
        <time>2014-10-05T10:49:31Z</time>
      </trkpt>
      <trkpt lat="43.43446" lon="6.6323">
        <ele>92</ele>
        <time>2014-10-05T10:49:32Z</time>
      </trkpt>
      <trkpt lat="43.43442" lon="6.63237">
        <ele>91.7</ele>
        <time>2014-10-05T10:49:33Z</time>
      </trkpt>
      <trkpt lat="43.43438" lon="6.63244">
        <ele>91.4</ele>
        <time>2014-10-05T10:49:34Z</time>
      </trkpt>
      <trkpt lat="43.43434" lon="6.63249">
        <ele>91.1</ele>
        <time>2014-10-05T10:49:35Z</time>
      </trkpt>
      <trkpt lat="43.43431" lon="6.63253">
        <ele>90.9</ele>
        <time>2014-10-05T10:49:36Z</time>
      </trkpt>
      <trkpt lat="43.43427" lon="6.63259">
        <ele>90.7</ele>
        <time>2014-10-05T10:49:37Z</time>
      </trkpt>
      <trkpt lat="43.43424" lon="6.63265">
        <ele>90.5</ele>
        <time>2014-10-05T10:49:38Z</time>
      </trkpt>
      <trkpt lat="43.43421" lon="6.63272">
        <ele>90.4</ele>
        <time>2014-10-05T10:49:39Z</time>
      </trkpt>
      <trkpt lat="43.43418" lon="6.63278">
        <ele>90.4</ele>
        <time>2014-10-05T10:49:40Z</time>
      </trkpt>
      <trkpt lat="43.43415" lon="6.63285">
        <ele>90.3</ele>
        <time>2014-10-05T10:49:41Z</time>
      </trkpt>
      <trkpt lat="43.43412" lon="6.63293">
        <ele>90.3</ele>
        <time>2014-10-05T10:49:42Z</time>
      </trkpt>
      <trkpt lat="43.43409" lon="6.63303">
        <ele>90.4</ele>
        <time>2014-10-05T10:49:43Z</time>
      </trkpt>
      <trkpt lat="43.43408" lon="6.63313">
        <ele>90.8</ele>
        <time>2014-10-05T10:49:44Z</time>
      </trkpt>
      <trkpt lat="43.43408" lon="6.63324">
        <ele>91.4</ele>
        <time>2014-10-05T10:49:45Z</time>
      </trkpt>
      <trkpt lat="43.43409" lon="6.63332">
        <ele>91.9</ele>
        <time>2014-10-05T10:49:46Z</time>
      </trkpt>
      <trkpt lat="43.43411" lon="6.6334">
        <ele>92.4</ele>
        <time>2014-10-05T10:49:47Z</time>
      </trkpt>
      <trkpt lat="43.43412" lon="6.63346">
        <ele>92.8</ele>
        <time>2014-10-05T10:49:48Z</time>
      </trkpt>
      <trkpt lat="43.43412" lon="6.63354">
        <ele>93.1</ele>
        <time>2014-10-05T10:49:50Z</time>
      </trkpt>
      <trkpt lat="43.43413" lon="6.63359">
        <ele>93.3</ele>
        <time>2014-10-05T10:49:51Z</time>
      </trkpt>
      <trkpt lat="43.43414" lon="6.63366">
        <ele>93.6</ele>
        <time>2014-10-05T10:49:52Z</time>
      </trkpt>
      <trkpt lat="43.43415" lon="6.63375">
        <ele>94</ele>
        <time>2014-10-05T10:49:53Z</time>
      </trkpt>
      <trkpt lat="43.43418" lon="6.63384">
        <ele>94.4</ele>
        <time>2014-10-05T10:49:54Z</time>
      </trkpt>
      <trkpt lat="43.43423" lon="6.63393">
        <ele>94.7</ele>
        <time>2014-10-05T10:49:55Z</time>
      </trkpt>
      <trkpt lat="43.43428" lon="6.63401">
        <ele>94.8</ele>
        <time>2014-10-05T10:49:56Z</time>
      </trkpt>
      <trkpt lat="43.43432" lon="6.63409">
        <ele>94.9</ele>
        <time>2014-10-05T10:49:57Z</time>
      </trkpt>
      <trkpt lat="43.43436" lon="6.63417">
        <ele>94.9</ele>
        <time>2014-10-05T10:49:58Z</time>
      </trkpt>
      <trkpt lat="43.43439" lon="6.63426">
        <ele>94.8</ele>
        <time>2014-10-05T10:49:59Z</time>
      </trkpt>
      <trkpt lat="43.43441" lon="6.63433">
        <ele>94.7</ele>
        <time>2014-10-05T10:50:00Z</time>
      </trkpt>
      <trkpt lat="43.43443" lon="6.63439">
        <ele>94.7</ele>
        <time>2014-10-05T10:50:01Z</time>
      </trkpt>
      <trkpt lat="43.43445" lon="6.63445">
        <ele>94.5</ele>
        <time>2014-10-05T10:50:02Z</time>
      </trkpt>
      <trkpt lat="43.43447" lon="6.63449">
        <ele>94.4</ele>
        <time>2014-10-05T10:50:03Z</time>
      </trkpt>
      <trkpt lat="43.43449" lon="6.63452">
        <ele>94.1</ele>
        <time>2014-10-05T10:50:04Z</time>
      </trkpt>
      <trkpt lat="43.43452" lon="6.63455">
        <ele>93.8</ele>
        <time>2014-10-05T10:50:05Z</time>
      </trkpt>
      <trkpt lat="43.43455" lon="6.63457">
        <ele>93.5</ele>
        <time>2014-10-05T10:50:06Z</time>
      </trkpt>
      <trkpt lat="43.43457" lon="6.6346">
        <ele>93</ele>
        <time>2014-10-05T10:50:07Z</time>
      </trkpt>
      <trkpt lat="43.43459" lon="6.63466">
        <ele>92.4</ele>
        <time>2014-10-05T10:50:09Z</time>
      </trkpt>
      <trkpt lat="43.4346" lon="6.63469">
        <ele>92.2</ele>
        <time>2014-10-05T10:50:10Z</time>
      </trkpt>
      <trkpt lat="43.43463" lon="6.63476">
        <ele>91.9</ele>
        <time>2014-10-05T10:50:12Z</time>
      </trkpt>
      <trkpt lat="43.43465" lon="6.63482">
        <ele>91.6</ele>
        <time>2014-10-05T10:50:14Z</time>
      </trkpt>
      <trkpt lat="43.43467" lon="6.63484">
        <ele>91.5</ele>
        <time>2014-10-05T10:50:15Z</time>
      </trkpt>
      <trkpt lat="43.43471" lon="6.63489">
        <ele>91.4</ele>
        <time>2014-10-05T10:50:17Z</time>
      </trkpt>
      <trkpt lat="43.43474" lon="6.6349">
        <ele>91.5</ele>
        <time>2014-10-05T10:50:18Z</time>
      </trkpt>
      <trkpt lat="43.43477" lon="6.63491">
        <ele>91.7</ele>
        <time>2014-10-05T10:50:19Z</time>
      </trkpt>
      <trkpt lat="43.43481" lon="6.63495">
        <ele>91.6</ele>
        <time>2014-10-05T10:50:20Z</time>
      </trkpt>
      <trkpt lat="43.43484" lon="6.63501">
        <ele>91.5</ele>
        <time>2014-10-05T10:50:21Z</time>
      </trkpt>
      <trkpt lat="43.43488" lon="6.63506">
        <ele>91.3</ele>
        <time>2014-10-05T10:50:22Z</time>
      </trkpt>
      <trkpt lat="43.4349" lon="6.63512">
        <ele>91</ele>
        <time>2014-10-05T10:50:23Z</time>
      </trkpt>
      <trkpt lat="43.43493" lon="6.63517">
        <ele>90.8</ele>
        <time>2014-10-05T10:50:24Z</time>
      </trkpt>
      <trkpt lat="43.43496" lon="6.63522">
        <ele>90.7</ele>
        <time>2014-10-05T10:50:25Z</time>
      </trkpt>
      <trkpt lat="43.435" lon="6.63526">
        <ele>90.7</ele>
        <time>2014-10-05T10:50:26Z</time>
      </trkpt>
      <trkpt lat="43.43505" lon="6.63529">
        <ele>90.9</ele>
        <time>2014-10-05T10:50:27Z</time>
      </trkpt>
      <trkpt lat="43.4351" lon="6.63531">
        <ele>91.2</ele>
        <time>2014-10-05T10:50:28Z</time>
      </trkpt>
      <trkpt lat="43.43515" lon="6.63532">
        <ele>91.5</ele>
        <time>2014-10-05T10:50:29Z</time>
      </trkpt>
      <trkpt lat="43.43519" lon="6.63535">
        <ele>91.6</ele>
        <time>2014-10-05T10:50:30Z</time>
      </trkpt>
      <trkpt lat="43.43523" lon="6.6354">
        <ele>91.5</ele>
        <time>2014-10-05T10:50:31Z</time>
      </trkpt>
      <trkpt lat="43.43525" lon="6.63546">
        <ele>91.2</ele>
        <time>2014-10-05T10:50:32Z</time>
      </trkpt>
      <trkpt lat="43.43525" lon="6.63553">
        <ele>90.5</ele>
        <time>2014-10-05T10:50:33Z</time>
      </trkpt>
      <trkpt lat="43.43525" lon="6.63559">
        <ele>89.9</ele>
        <time>2014-10-05T10:50:34Z</time>
      </trkpt>
      <trkpt lat="43.43526" lon="6.63566">
        <ele>89.3</ele>
        <time>2014-10-05T10:50:35Z</time>
      </trkpt>
      <trkpt lat="43.43527" lon="6.63572">
        <ele>88.8</ele>
        <time>2014-10-05T10:50:36Z</time>
      </trkpt>
      <trkpt lat="43.4353" lon="6.63578">
        <ele>88.5</ele>
        <time>2014-10-05T10:50:37Z</time>
      </trkpt>
      <trkpt lat="43.43533" lon="6.63583">
        <ele>88.3</ele>
        <time>2014-10-05T10:50:38Z</time>
      </trkpt>
      <trkpt lat="43.43536" lon="6.63588">
        <ele>88</ele>
        <time>2014-10-05T10:50:39Z</time>
      </trkpt>
      <trkpt lat="43.4354" lon="6.63594">
        <ele>87.8</ele>
        <time>2014-10-05T10:50:40Z</time>
      </trkpt>
      <trkpt lat="43.43545" lon="6.63599">
        <ele>87.9</ele>
        <time>2014-10-05T10:50:41Z</time>
      </trkpt>
      <trkpt lat="43.43548" lon="6.63605">
        <ele>87.8</ele>
        <time>2014-10-05T10:50:42Z</time>
      </trkpt>
      <trkpt lat="43.43551" lon="6.6361">
        <ele>87.7</ele>
        <time>2014-10-05T10:50:43Z</time>
      </trkpt>
      <trkpt lat="43.43551" lon="6.63616">
        <ele>87.2</ele>
        <time>2014-10-05T10:50:44Z</time>
      </trkpt>
      <trkpt lat="43.43554" lon="6.6362">
        <ele>87.1</ele>
        <time>2014-10-05T10:50:45Z</time>
      </trkpt>
      <trkpt lat="43.43558" lon="6.63624">
        <ele>87.3</ele>
        <time>2014-10-05T10:50:46Z</time>
      </trkpt>
      <trkpt lat="43.43563" lon="6.63625">
        <ele>87.8</ele>
        <time>2014-10-05T10:50:47Z</time>
      </trkpt>
      <trkpt lat="43.43568" lon="6.63627">
        <ele>88.3</ele>
        <time>2014-10-05T10:50:48Z</time>
      </trkpt>
      <trkpt lat="43.43573" lon="6.63628">
        <ele>88.8</ele>
        <time>2014-10-05T10:50:49Z</time>
      </trkpt>
      <trkpt lat="43.43578" lon="6.63631">
        <ele>89</ele>
        <time>2014-10-05T10:50:50Z</time>
      </trkpt>
      <trkpt lat="43.43581" lon="6.63637">
        <ele>88.7</ele>
        <time>2014-10-05T10:50:51Z</time>
      </trkpt>
      <trkpt lat="43.43577" lon="6.63666">
        <ele>84.4</ele>
        <time>2014-10-05T10:50:53Z</time>
      </trkpt>
      <trkpt lat="43.43594" lon="6.63649">
        <ele>88.7</ele>
        <time>2014-10-05T10:50:54Z</time>
      </trkpt>
      <trkpt lat="43.43599" lon="6.63646">
        <ele>89.8</ele>
        <time>2014-10-05T10:50:55Z</time>
      </trkpt>
      <trkpt lat="43.43604" lon="6.6364">
        <ele>91.1</ele>
        <time>2014-10-05T10:50:56Z</time>
      </trkpt>
      <trkpt lat="43.43608" lon="6.63634">
        <ele>92.4</ele>
        <time>2014-10-05T10:50:57Z</time>
      </trkpt>
      <trkpt lat="43.43612" lon="6.63629">
        <ele>93.7</ele>
        <time>2014-10-05T10:50:58Z</time>
      </trkpt>
      <trkpt lat="43.43617" lon="6.63626">
        <ele>94.8</ele>
        <time>2014-10-05T10:50:59Z</time>
      </trkpt>
      <trkpt lat="43.43622" lon="6.63624">
        <ele>95.7</ele>
        <time>2014-10-05T10:51:00Z</time>
      </trkpt>
      <trkpt lat="43.43627" lon="6.63626">
        <ele>95.9</ele>
        <time>2014-10-05T10:51:01Z</time>
      </trkpt>
      <trkpt lat="43.43633" lon="6.63629">
        <ele>95.4</ele>
        <time>2014-10-05T10:51:02Z</time>
      </trkpt>
      <trkpt lat="43.43637" lon="6.63633">
        <ele>94.6</ele>
        <time>2014-10-05T10:51:03Z</time>
      </trkpt>
      <trkpt lat="43.43642" lon="6.63638">
        <ele>93.8</ele>
        <time>2014-10-05T10:51:04Z</time>
      </trkpt>
      <trkpt lat="43.43647" lon="6.63641">
        <ele>93.2</ele>
        <time>2014-10-05T10:51:05Z</time>
      </trkpt>
      <trkpt lat="43.43653" lon="6.63643">
        <ele>92.7</ele>
        <time>2014-10-05T10:51:06Z</time>
      </trkpt>
      <trkpt lat="43.43658" lon="6.63645">
        <ele>92.2</ele>
        <time>2014-10-05T10:51:07Z</time>
      </trkpt>
      <trkpt lat="43.4366" lon="6.63665">
        <ele>88.8</ele>
        <time>2014-10-05T10:51:08Z</time>
      </trkpt>
      <trkpt lat="43.43666" lon="6.63666">
        <ele>88.4</ele>
        <time>2014-10-05T10:51:09Z</time>
      </trkpt>
      <trkpt lat="43.43675" lon="6.63668">
        <ele>87.7</ele>
        <time>2014-10-05T10:51:10Z</time>
      </trkpt>
      <trkpt lat="43.43677" lon="6.63644">
        <ele>91.9</ele>
        <time>2014-10-05T10:51:11Z</time>
      </trkpt>
      <trkpt lat="43.43682" lon="6.63642">
        <ele>92.2</ele>
        <time>2014-10-05T10:51:12Z</time>
      </trkpt>
      <trkpt lat="43.43685" lon="6.63641">
        <ele>92.3</ele>
        <time>2014-10-05T10:51:13Z</time>
      </trkpt>
      <trkpt lat="43.43688" lon="6.63638">
        <ele>92.7</ele>
        <time>2014-10-05T10:51:14Z</time>
      </trkpt>
      <trkpt lat="43.43692" lon="6.63634">
        <ele>93.4</ele>
        <time>2014-10-05T10:51:15Z</time>
      </trkpt>
      <trkpt lat="43.43694" lon="6.63629">
        <ele>94.3</ele>
        <time>2014-10-05T10:51:16Z</time>
      </trkpt>
      <trkpt lat="43.43698" lon="6.63624">
        <ele>95.3</ele>
        <time>2014-10-05T10:51:17Z</time>
      </trkpt>
      <trkpt lat="43.43703" lon="6.63618">
        <ele>96.3</ele>
        <time>2014-10-05T10:51:18Z</time>
      </trkpt>
      <trkpt lat="43.43707" lon="6.63612">
        <ele>97.3</ele>
        <time>2014-10-05T10:51:19Z</time>
      </trkpt>
      <trkpt lat="43.43711" lon="6.63606">
        <ele>97.9</ele>
        <time>2014-10-05T10:51:20Z</time>
      </trkpt>
      <trkpt lat="43.43716" lon="6.636">
        <ele>98.2</ele>
        <time>2014-10-05T10:51:21Z</time>
      </trkpt>
      <trkpt lat="43.43719" lon="6.63593">
        <ele>98.5</ele>
        <time>2014-10-05T10:51:22Z</time>
      </trkpt>
      <trkpt lat="43.43723" lon="6.63587">
        <ele>98.9</ele>
        <time>2014-10-05T10:51:23Z</time>
      </trkpt>
      <trkpt lat="43.43725" lon="6.63582">
        <ele>99.3</ele>
        <time>2014-10-05T10:51:24Z</time>
      </trkpt>
      <trkpt lat="43.43728" lon="6.63575">
        <ele>99.8</ele>
        <time>2014-10-05T10:51:25Z</time>
      </trkpt>
      <trkpt lat="43.4373" lon="6.63569">
        <ele>100.4</ele>
        <time>2014-10-05T10:51:26Z</time>
      </trkpt>
      <trkpt lat="43.43733" lon="6.63562">
        <ele>101.1</ele>
        <time>2014-10-05T10:51:27Z</time>
      </trkpt>
      <trkpt lat="43.43735" lon="6.63555">
        <ele>101.9</ele>
        <time>2014-10-05T10:51:28Z</time>
      </trkpt>
      <trkpt lat="43.43736" lon="6.63547">
        <ele>102.9</ele>
        <time>2014-10-05T10:51:29Z</time>
      </trkpt>
      <trkpt lat="43.43737" lon="6.6354">
        <ele>103.6</ele>
        <time>2014-10-05T10:51:30Z</time>
      </trkpt>
      <trkpt lat="43.43739" lon="6.63535">
        <ele>103.6</ele>
        <time>2014-10-05T10:51:31Z</time>
      </trkpt>
      <trkpt lat="43.43742" lon="6.6353">
        <ele>103.1</ele>
        <time>2014-10-05T10:51:32Z</time>
      </trkpt>
      <trkpt lat="43.43747" lon="6.63528">
        <ele>102.1</ele>
        <time>2014-10-05T10:51:33Z</time>
      </trkpt>
      <trkpt lat="43.43753" lon="6.63528">
        <ele>100.8</ele>
        <time>2014-10-05T10:51:34Z</time>
      </trkpt>
      <trkpt lat="43.43758" lon="6.63529">
        <ele>99.6</ele>
        <time>2014-10-05T10:51:35Z</time>
      </trkpt>
      <trkpt lat="43.43762" lon="6.63528">
        <ele>98.6</ele>
        <time>2014-10-05T10:51:36Z</time>
      </trkpt>
      <trkpt lat="43.43766" lon="6.63527">
        <ele>97.8</ele>
        <time>2014-10-05T10:51:37Z</time>
      </trkpt>
      <trkpt lat="43.4377" lon="6.63524">
        <ele>97.2</ele>
        <time>2014-10-05T10:51:38Z</time>
      </trkpt>
      <trkpt lat="43.43772" lon="6.63522">
        <ele>96.8</ele>
        <time>2014-10-05T10:51:39Z</time>
      </trkpt>
      <trkpt lat="43.43775" lon="6.63517">
        <ele>96.6</ele>
        <time>2014-10-05T10:51:41Z</time>
      </trkpt>
      <trkpt lat="43.43777" lon="6.63513">
        <ele>96.4</ele>
        <time>2014-10-05T10:51:43Z</time>
      </trkpt>
      <trkpt lat="43.4378" lon="6.63511">
        <ele>95.7</ele>
        <time>2014-10-05T10:51:46Z</time>
      </trkpt>
      <trkpt lat="43.43785" lon="6.63503">
        <ele>95.2</ele>
        <time>2014-10-05T10:51:48Z</time>
      </trkpt>
      <trkpt lat="43.43788" lon="6.63498">
        <ele>95.1</ele>
        <time>2014-10-05T10:51:49Z</time>
      </trkpt>
      <trkpt lat="43.43791" lon="6.63492">
        <ele>94.8</ele>
        <time>2014-10-05T10:51:50Z</time>
      </trkpt>
      <trkpt lat="43.43793" lon="6.63485">
        <ele>94.6</ele>
        <time>2014-10-05T10:51:51Z</time>
      </trkpt>
      <trkpt lat="43.43796" lon="6.63476">
        <ele>94.4</ele>
        <time>2014-10-05T10:51:52Z</time>
      </trkpt>
      <trkpt lat="43.43797" lon="6.63467">
        <ele>94.8</ele>
        <time>2014-10-05T10:51:53Z</time>
      </trkpt>
      <trkpt lat="43.43798" lon="6.63457">
        <ele>95.2</ele>
        <time>2014-10-05T10:51:54Z</time>
      </trkpt>
      <trkpt lat="43.43798" lon="6.63447">
        <ele>95.4</ele>
        <time>2014-10-05T10:51:55Z</time>
      </trkpt>
      <trkpt lat="43.43798" lon="6.63438">
        <ele>95.7</ele>
        <time>2014-10-05T10:51:56Z</time>
      </trkpt>
      <trkpt lat="43.43799" lon="6.63429">
        <ele>96</ele>
        <time>2014-10-05T10:51:57Z</time>
      </trkpt>
      <trkpt lat="43.43799" lon="6.63421">
        <ele>96.1</ele>
        <time>2014-10-05T10:51:58Z</time>
      </trkpt>
      <trkpt lat="43.438" lon="6.63414">
        <ele>96.2</ele>
        <time>2014-10-05T10:51:59Z</time>
      </trkpt>
      <trkpt lat="43.438" lon="6.63406">
        <ele>96.5</ele>
        <time>2014-10-05T10:52:00Z</time>
      </trkpt>
      <trkpt lat="43.438" lon="6.63399">
        <ele>96.8</ele>
        <time>2014-10-05T10:52:01Z</time>
      </trkpt>
      <trkpt lat="43.43799" lon="6.63393">
        <ele>97.3</ele>
        <time>2014-10-05T10:52:02Z</time>
      </trkpt>
      <trkpt lat="43.43798" lon="6.63386">
        <ele>97.8</ele>
        <time>2014-10-05T10:52:03Z</time>
      </trkpt>
      <trkpt lat="43.43798" lon="6.63382">
        <ele>98.1</ele>
        <time>2014-10-05T10:52:04Z</time>
      </trkpt>
      <trkpt lat="43.43799" lon="6.63378">
        <ele>98</ele>
        <time>2014-10-05T10:52:05Z</time>
      </trkpt>
      <trkpt lat="43.43801" lon="6.63373">
        <ele>97.8</ele>
        <time>2014-10-05T10:52:06Z</time>
      </trkpt>
      <trkpt lat="43.43803" lon="6.63369">
        <ele>97.9</ele>
        <time>2014-10-05T10:52:07Z</time>
      </trkpt>
      <trkpt lat="43.43806" lon="6.63366">
        <ele>97.7</ele>
        <time>2014-10-05T10:52:08Z</time>
      </trkpt>
      <trkpt lat="43.43809" lon="6.63365">
        <ele>96.9</ele>
        <time>2014-10-05T10:52:09Z</time>
      </trkpt>
      <trkpt lat="43.43813" lon="6.63366">
        <ele>95.6</ele>
        <time>2014-10-05T10:52:10Z</time>
      </trkpt>
      <trkpt lat="43.43817" lon="6.63369">
        <ele>94.1</ele>
        <time>2014-10-05T10:52:11Z</time>
      </trkpt>
      <trkpt lat="43.43821" lon="6.63371">
        <ele>92.7</ele>
        <time>2014-10-05T10:52:12Z</time>
      </trkpt>
      <trkpt lat="43.43824" lon="6.63373">
        <ele>91.3</ele>
        <time>2014-10-05T10:52:13Z</time>
      </trkpt>
      <trkpt lat="43.4383" lon="6.63373">
        <ele>89.8</ele>
        <time>2014-10-05T10:52:14Z</time>
      </trkpt>
      <trkpt lat="43.43835" lon="6.63371">
        <ele>88.6</ele>
        <time>2014-10-05T10:52:15Z</time>
      </trkpt>
      <trkpt lat="43.4384" lon="6.63367">
        <ele>87.8</ele>
        <time>2014-10-05T10:52:16Z</time>
      </trkpt>
      <trkpt lat="43.43845" lon="6.63363">
        <ele>87</ele>
        <time>2014-10-05T10:52:17Z</time>
      </trkpt>
      <trkpt lat="43.43851" lon="6.63359">
        <ele>85.8</ele>
        <time>2014-10-05T10:52:18Z</time>
      </trkpt>
      <trkpt lat="43.43858" lon="6.63356">
        <ele>84.4</ele>
        <time>2014-10-05T10:52:19Z</time>
      </trkpt>
      <trkpt lat="43.43863" lon="6.63355">
        <ele>83</ele>
        <time>2014-10-05T10:52:20Z</time>
      </trkpt>
      <trkpt lat="43.43869" lon="6.63355">
        <ele>81.5</ele>
        <time>2014-10-05T10:52:21Z</time>
      </trkpt>
      <trkpt lat="43.43873" lon="6.63353">
        <ele>80.5</ele>
        <time>2014-10-05T10:52:22Z</time>
      </trkpt>
      <trkpt lat="43.43877" lon="6.63351">
        <ele>79.9</ele>
        <time>2014-10-05T10:52:23Z</time>
      </trkpt>
      <trkpt lat="43.4388" lon="6.63347">
        <ele>79.7</ele>
        <time>2014-10-05T10:52:24Z</time>
      </trkpt>
      <trkpt lat="43.43883" lon="6.63344">
        <ele>79.4</ele>
        <time>2014-10-05T10:52:25Z</time>
      </trkpt>
      <trkpt lat="43.43887" lon="6.6334">
        <ele>79.1</ele>
        <time>2014-10-05T10:52:26Z</time>
      </trkpt>
      <trkpt lat="43.43891" lon="6.63337">
        <ele>78.6</ele>
        <time>2014-10-05T10:52:27Z</time>
      </trkpt>
      <trkpt lat="43.43895" lon="6.63334">
        <ele>78.1</ele>
        <time>2014-10-05T10:52:28Z</time>
      </trkpt>
      <trkpt lat="43.43899" lon="6.63331">
        <ele>77.6</ele>
        <time>2014-10-05T10:52:29Z</time>
      </trkpt>
      <trkpt lat="43.43903" lon="6.63327">
        <ele>77.1</ele>
        <time>2014-10-05T10:52:30Z</time>
      </trkpt>
      <trkpt lat="43.43907" lon="6.63322">
        <ele>76.7</ele>
        <time>2014-10-05T10:52:31Z</time>
      </trkpt>
      <trkpt lat="43.43911" lon="6.63319">
        <ele>76.2</ele>
        <time>2014-10-05T10:52:32Z</time>
      </trkpt>
      <trkpt lat="43.43915" lon="6.63317">
        <ele>75.6</ele>
        <time>2014-10-05T10:52:33Z</time>
      </trkpt>
      <trkpt lat="43.43919" lon="6.63317">
        <ele>74.6</ele>
        <time>2014-10-05T10:52:34Z</time>
      </trkpt>
      <trkpt lat="43.43922" lon="6.6332">
        <ele>73.6</ele>
        <time>2014-10-05T10:52:35Z</time>
      </trkpt>
      <trkpt lat="43.43925" lon="6.63324">
        <ele>72.4</ele>
        <time>2014-10-05T10:52:36Z</time>
      </trkpt>
      <trkpt lat="43.43928" lon="6.63329">
        <ele>71.4</ele>
        <time>2014-10-05T10:52:37Z</time>
      </trkpt>
      <trkpt lat="43.43932" lon="6.63334">
        <ele>70.2</ele>
        <time>2014-10-05T10:52:38Z</time>
      </trkpt>
      <trkpt lat="43.43935" lon="6.6334">
        <ele>69</ele>
        <time>2014-10-05T10:52:39Z</time>
      </trkpt>
      <trkpt lat="43.43938" lon="6.63347">
        <ele>67.9</ele>
        <time>2014-10-05T10:52:40Z</time>
      </trkpt>
      <trkpt lat="43.43941" lon="6.63353">
        <ele>66.8</ele>
        <time>2014-10-05T10:52:41Z</time>
      </trkpt>
      <trkpt lat="43.43945" lon="6.63358">
        <ele>65.7</ele>
        <time>2014-10-05T10:52:42Z</time>
      </trkpt>
      <trkpt lat="43.43948" lon="6.63363">
        <ele>64.6</ele>
        <time>2014-10-05T10:52:43Z</time>
      </trkpt>
      <trkpt lat="43.43952" lon="6.63368">
        <ele>63.6</ele>
        <time>2014-10-05T10:52:44Z</time>
      </trkpt>
      <trkpt lat="43.43956" lon="6.63372">
        <ele>62.5</ele>
        <time>2014-10-05T10:52:45Z</time>
      </trkpt>
      <trkpt lat="43.43961" lon="6.63376">
        <ele>61.5</ele>
        <time>2014-10-05T10:52:46Z</time>
      </trkpt>
      <trkpt lat="43.43966" lon="6.63379">
        <ele>60.5</ele>
        <time>2014-10-05T10:52:47Z</time>
      </trkpt>
      <trkpt lat="43.43971" lon="6.63382">
        <ele>59.6</ele>
        <time>2014-10-05T10:52:48Z</time>
      </trkpt>
      <trkpt lat="43.43975" lon="6.63386">
        <ele>58.7</ele>
        <time>2014-10-05T10:52:49Z</time>
      </trkpt>
      <trkpt lat="43.43977" lon="6.63391">
        <ele>58</ele>
        <time>2014-10-05T10:52:50Z</time>
      </trkpt>
      <trkpt lat="43.4398" lon="6.63397">
        <ele>57.3</ele>
        <time>2014-10-05T10:52:51Z</time>
      </trkpt>
      <trkpt lat="43.43981" lon="6.63402">
        <ele>56.7</ele>
        <time>2014-10-05T10:52:52Z</time>
      </trkpt>
      <trkpt lat="43.43983" lon="6.63407">
        <ele>56</ele>
        <time>2014-10-05T10:52:53Z</time>
      </trkpt>
      <trkpt lat="43.43986" lon="6.6341">
        <ele>55.4</ele>
        <time>2014-10-05T10:52:54Z</time>
      </trkpt>
      <trkpt lat="43.43989" lon="6.63412">
        <ele>55</ele>
        <time>2014-10-05T10:52:57Z</time>
      </trkpt>
      <trkpt lat="43.43992" lon="6.63413">
        <ele>54.4</ele>
        <time>2014-10-05T10:53:00Z</time>
      </trkpt>
      <trkpt lat="43.43995" lon="6.63413">
        <ele>53.9</ele>
        <time>2014-10-05T10:53:02Z</time>
      </trkpt>
      <trkpt lat="43.43999" lon="6.63412">
        <ele>53.5</ele>
        <time>2014-10-05T10:53:04Z</time>
      </trkpt>
      <trkpt lat="43.44001" lon="6.63409">
        <ele>53.4</ele>
        <time>2014-10-05T10:53:06Z</time>
      </trkpt>
      <trkpt lat="43.43999" lon="6.63405">
        <ele>53.8</ele>
        <time>2014-10-05T10:53:08Z</time>
      </trkpt>
      <trkpt lat="43.43997" lon="6.63403">
        <ele>54.3</ele>
        <time>2014-10-05T10:53:11Z</time>
      </trkpt>
    </trkseg>
  </trk>
</gpx>